<?xml version="1.0" encoding="UTF-8"?>
<gpx version="1.1" creator="https://www.youtrack.es" xsi:schemaLocation="http://www.topografix.com/GPX/1/1 http://www.topografix.com/GPX/1/1/gpx.xsd http://www.garmin.com/xmlschemas/GpxExtensions/v3 http://www.garmin.com/xmlschemas/GpxExtensionsv3.xsd http://www.garmin.com/xmlschemas/TrackPointExtension/v1 http://www.garmin.com/xmlschemas/TrackPointExtensionv1.xsd" xmlns:gpxtpx="http://www.garmin.com/xmlschemas/TrackPointExtension/v1" xmlns:gpxx="http://www.garmin.com/xmlschemas/GpxExtensions/v3" xmlns:xsi="http://www.w3.org/2001/XMLSchema-instance">
  <metadata>
    <link href="https://www.youtrack.es">
      <text>YouTrack.es</text>
    </link>
    <time>2026-05-08T02:46:00Z</time>
  </metadata>
  <trk>
    <src>https://www.youtrack.es</src>
    <link href="https://www.youtrack.es/ruta/15981-landa-opakua-marieta-azaceta">
      <text>YouTrack.es</text>
    </link>
    <trkseg>
      <trkpt lat="42.864094" lon="-2.691219">
        <ele>511.4</ele>
        <time>1970-01-01T00:00:00.000Z</time>
      </trkpt>
      <trkpt lat="42.864094" lon="-2.691219">
        <ele>511.6</ele>
        <time>1970-01-01T00:00:01.000Z</time>
      </trkpt>
      <trkpt lat="42.864094" lon="-2.691219">
        <ele>511.4</ele>
        <time>1970-01-01T00:00:03.000Z</time>
      </trkpt>
      <trkpt lat="42.864094" lon="-2.691219">
        <ele>511.2</ele>
        <time>1970-01-01T00:00:06.000Z</time>
      </trkpt>
      <trkpt lat="42.864094" lon="-2.691219">
        <ele>511</ele>
        <time>1970-01-01T00:00:09.000Z</time>
      </trkpt>
      <trkpt lat="42.864094" lon="-2.691219">
        <ele>511</ele>
        <time>1970-01-01T00:00:13.000Z</time>
      </trkpt>
      <trkpt lat="42.864094" lon="-2.691219">
        <ele>510.6</ele>
        <time>1970-01-01T00:00:17.000Z</time>
      </trkpt>
      <trkpt lat="42.864094" lon="-2.691219">
        <ele>510.6</ele>
        <time>1970-01-01T00:00:18.000Z</time>
      </trkpt>
      <trkpt lat="42.864094" lon="-2.691219">
        <ele>510.6</ele>
        <time>1970-01-01T00:00:21.000Z</time>
      </trkpt>
      <trkpt lat="42.864094" lon="-2.691219">
        <ele>510.2</ele>
        <time>1970-01-01T00:00:24.000Z</time>
      </trkpt>
      <trkpt lat="42.864094" lon="-2.691219">
        <ele>510.2</ele>
        <time>1970-01-01T00:00:25.000Z</time>
      </trkpt>
      <trkpt lat="42.864356" lon="-2.690529">
        <ele>510</ele>
        <time>1970-01-01T00:00:33.000Z</time>
      </trkpt>
      <trkpt lat="42.864392" lon="-2.690459">
        <ele>509.8</ele>
        <time>1970-01-01T00:00:34.000Z</time>
      </trkpt>
      <trkpt lat="42.864433" lon="-2.690401">
        <ele>509.8</ele>
        <time>1970-01-01T00:00:35.000Z</time>
      </trkpt>
      <trkpt lat="42.864483" lon="-2.690367">
        <ele>510.2</ele>
        <time>1970-01-01T00:00:36.000Z</time>
      </trkpt>
      <trkpt lat="42.86459" lon="-2.69036">
        <ele>510</ele>
        <time>1970-01-01T00:00:38.000Z</time>
      </trkpt>
      <trkpt lat="42.864647" lon="-2.690382">
        <ele>510.2</ele>
        <time>1970-01-01T00:00:39.000Z</time>
      </trkpt>
      <trkpt lat="42.864703" lon="-2.690415">
        <ele>510.2</ele>
        <time>1970-01-01T00:00:40.000Z</time>
      </trkpt>
      <trkpt lat="42.864871" lon="-2.690528">
        <ele>510.2</ele>
        <time>1970-01-01T00:00:43.000Z</time>
      </trkpt>
      <trkpt lat="42.864927" lon="-2.690565">
        <ele>510.2</ele>
        <time>1970-01-01T00:00:44.000Z</time>
      </trkpt>
      <trkpt lat="42.865087" lon="-2.69068">
        <ele>510</ele>
        <time>1970-01-01T00:00:47.000Z</time>
      </trkpt>
      <trkpt lat="42.865261" lon="-2.690771">
        <ele>510.2</ele>
        <time>1970-01-01T00:00:50.000Z</time>
      </trkpt>
      <trkpt lat="42.86532" lon="-2.690809">
        <ele>510.4</ele>
        <time>1970-01-01T00:00:51.000Z</time>
      </trkpt>
      <trkpt lat="42.865422" lon="-2.690914">
        <ele>510.4</ele>
        <time>1970-01-01T00:00:53.000Z</time>
      </trkpt>
      <trkpt lat="42.865469" lon="-2.690969">
        <ele>510.6</ele>
        <time>1970-01-01T00:00:54.000Z</time>
      </trkpt>
      <trkpt lat="42.865521" lon="-2.691018">
        <ele>510.4</ele>
        <time>1970-01-01T00:00:55.000Z</time>
      </trkpt>
      <trkpt lat="42.865691" lon="-2.691154">
        <ele>510.4</ele>
        <time>1970-01-01T00:00:58.000Z</time>
      </trkpt>
      <trkpt lat="42.865811" lon="-2.691244">
        <ele>510.6</ele>
        <time>1970-01-01T00:01:00.000Z</time>
      </trkpt>
      <trkpt lat="42.866056" lon="-2.691416">
        <ele>510.8</ele>
        <time>1970-01-01T00:01:04.000Z</time>
      </trkpt>
      <trkpt lat="42.866388" lon="-2.691696">
        <ele>511</ele>
        <time>1970-01-01T00:01:10.000Z</time>
      </trkpt>
      <trkpt lat="42.86665" lon="-2.691894">
        <ele>511.2</ele>
        <time>1970-01-01T00:01:15.000Z</time>
      </trkpt>
      <trkpt lat="42.866712" lon="-2.691903">
        <ele>511.4</ele>
        <time>1970-01-01T00:01:16.000Z</time>
      </trkpt>
      <trkpt lat="42.866778" lon="-2.691921">
        <ele>511.6</ele>
        <time>1970-01-01T00:01:17.000Z</time>
      </trkpt>
      <trkpt lat="42.86689" lon="-2.691991">
        <ele>511.8</ele>
        <time>1970-01-01T00:01:19.000Z</time>
      </trkpt>
      <trkpt lat="42.867057" lon="-2.692236">
        <ele>512</ele>
        <time>1970-01-01T00:01:23.000Z</time>
      </trkpt>
      <trkpt lat="42.867392" lon="-2.692492">
        <ele>512.4</ele>
        <time>1970-01-01T00:01:29.000Z</time>
      </trkpt>
      <trkpt lat="42.867784" lon="-2.692783">
        <ele>512.8</ele>
        <time>1970-01-01T00:01:36.000Z</time>
      </trkpt>
      <trkpt lat="42.867838" lon="-2.692825">
        <ele>512.8</ele>
        <time>1970-01-01T00:01:37.000Z</time>
      </trkpt>
      <trkpt lat="42.868169" lon="-2.693045">
        <ele>513</ele>
        <time>1970-01-01T00:01:43.000Z</time>
      </trkpt>
      <trkpt lat="42.868295" lon="-2.693066">
        <ele>513</ele>
        <time>1970-01-01T00:01:45.000Z</time>
      </trkpt>
      <trkpt lat="42.868353" lon="-2.6931">
        <ele>513</ele>
        <time>1970-01-01T00:01:46.000Z</time>
      </trkpt>
      <trkpt lat="42.868405" lon="-2.693126">
        <ele>513.4</ele>
        <time>1970-01-01T00:01:47.000Z</time>
      </trkpt>
      <trkpt lat="42.868492" lon="-2.69323">
        <ele>513.4</ele>
        <time>1970-01-01T00:01:49.000Z</time>
      </trkpt>
      <trkpt lat="42.868544" lon="-2.693273">
        <ele>513.4</ele>
        <time>1970-01-01T00:01:50.000Z</time>
      </trkpt>
      <trkpt lat="42.868819" lon="-2.693491">
        <ele>513.6</ele>
        <time>1970-01-01T00:01:55.000Z</time>
      </trkpt>
      <trkpt lat="42.868878" lon="-2.693534">
        <ele>513.6</ele>
        <time>1970-01-01T00:01:56.000Z</time>
      </trkpt>
      <trkpt lat="42.869112" lon="-2.693699">
        <ele>513.6</ele>
        <time>1970-01-01T00:02:00.000Z</time>
      </trkpt>
      <trkpt lat="42.869235" lon="-2.693789">
        <ele>513.6</ele>
        <time>1970-01-01T00:02:02.000Z</time>
      </trkpt>
      <trkpt lat="42.869353" lon="-2.693883">
        <ele>513.4</ele>
        <time>1970-01-01T00:02:04.000Z</time>
      </trkpt>
      <trkpt lat="42.86953" lon="-2.694027">
        <ele>513.4</ele>
        <time>1970-01-01T00:02:07.000Z</time>
      </trkpt>
      <trkpt lat="42.869654" lon="-2.694117">
        <ele>513.2</ele>
        <time>1970-01-01T00:02:09.000Z</time>
      </trkpt>
      <trkpt lat="42.869985" lon="-2.694363">
        <ele>512.8</ele>
        <time>1970-01-01T00:02:14.000Z</time>
      </trkpt>
      <trkpt lat="42.870128" lon="-2.694468">
        <ele>512.8</ele>
        <time>1970-01-01T00:02:16.000Z</time>
      </trkpt>
      <trkpt lat="42.870274" lon="-2.694572">
        <ele>512.4</ele>
        <time>1970-01-01T00:02:18.000Z</time>
      </trkpt>
      <trkpt lat="42.870635" lon="-2.694822">
        <ele>511.8</ele>
        <time>1970-01-01T00:02:23.000Z</time>
      </trkpt>
      <trkpt lat="42.870771" lon="-2.694917">
        <ele>511.2</ele>
        <time>1970-01-01T00:02:25.000Z</time>
      </trkpt>
      <trkpt lat="42.870839" lon="-2.694966">
        <ele>510.8</ele>
        <time>1970-01-01T00:02:26.000Z</time>
      </trkpt>
      <trkpt lat="42.871109" lon="-2.695153">
        <ele>510</ele>
        <time>1970-01-01T00:02:30.000Z</time>
      </trkpt>
      <trkpt lat="42.871173" lon="-2.69517">
        <ele>509.8</ele>
        <time>1970-01-01T00:02:31.000Z</time>
      </trkpt>
      <trkpt lat="42.871237" lon="-2.695151">
        <ele>509.8</ele>
        <time>1970-01-01T00:02:32.000Z</time>
      </trkpt>
      <trkpt lat="42.871289" lon="-2.695105">
        <ele>510</ele>
        <time>1970-01-01T00:02:33.000Z</time>
      </trkpt>
      <trkpt lat="42.87133" lon="-2.695032">
        <ele>509.8</ele>
        <time>1970-01-01T00:02:34.000Z</time>
      </trkpt>
      <trkpt lat="42.871398" lon="-2.694858">
        <ele>509.8</ele>
        <time>1970-01-01T00:02:36.000Z</time>
      </trkpt>
      <trkpt lat="42.871506" lon="-2.694581">
        <ele>509.2</ele>
        <time>1970-01-01T00:02:39.000Z</time>
      </trkpt>
      <trkpt lat="42.871581" lon="-2.694385">
        <ele>509</ele>
        <time>1970-01-01T00:02:41.000Z</time>
      </trkpt>
      <trkpt lat="42.871661" lon="-2.694185">
        <ele>508.4</ele>
        <time>1970-01-01T00:02:43.000Z</time>
      </trkpt>
      <trkpt lat="42.871741" lon="-2.69398">
        <ele>508.2</ele>
        <time>1970-01-01T00:02:45.000Z</time>
      </trkpt>
      <trkpt lat="42.871861" lon="-2.693673">
        <ele>508</ele>
        <time>1970-01-01T00:02:48.000Z</time>
      </trkpt>
      <trkpt lat="42.87194" lon="-2.693469">
        <ele>507.8</ele>
        <time>1970-01-01T00:02:50.000Z</time>
      </trkpt>
      <trkpt lat="42.872019" lon="-2.693266">
        <ele>507.8</ele>
        <time>1970-01-01T00:02:52.000Z</time>
      </trkpt>
      <trkpt lat="42.87222" lon="-2.692751">
        <ele>507.2</ele>
        <time>1970-01-01T00:02:57.000Z</time>
      </trkpt>
      <trkpt lat="42.872499" lon="-2.692039">
        <ele>507</ele>
        <time>1970-01-01T00:03:04.000Z</time>
      </trkpt>
      <trkpt lat="42.872597" lon="-2.691729">
        <ele>506.6</ele>
        <time>1970-01-01T00:03:07.000Z</time>
      </trkpt>
      <trkpt lat="42.872622" lon="-2.691622">
        <ele>506.6</ele>
        <time>1970-01-01T00:03:08.000Z</time>
      </trkpt>
      <trkpt lat="42.872655" lon="-2.691521">
        <ele>506.4</ele>
        <time>1970-01-01T00:03:09.000Z</time>
      </trkpt>
      <trkpt lat="42.872843" lon="-2.691157">
        <ele>506</ele>
        <time>1970-01-01T00:03:13.000Z</time>
      </trkpt>
      <trkpt lat="42.872887" lon="-2.691067">
        <ele>506</ele>
        <time>1970-01-01T00:03:14.000Z</time>
      </trkpt>
      <trkpt lat="42.872917" lon="-2.690967">
        <ele>506</ele>
        <time>1970-01-01T00:03:15.000Z</time>
      </trkpt>
      <trkpt lat="42.87294" lon="-2.690862">
        <ele>506</ele>
        <time>1970-01-01T00:03:16.000Z</time>
      </trkpt>
      <trkpt lat="42.872958" lon="-2.690757">
        <ele>505.8</ele>
        <time>1970-01-01T00:03:17.000Z</time>
      </trkpt>
      <trkpt lat="42.872978" lon="-2.690658">
        <ele>506</ele>
        <time>1970-01-01T00:03:18.000Z</time>
      </trkpt>
      <trkpt lat="42.873059" lon="-2.690482">
        <ele>505.8</ele>
        <time>1970-01-01T00:03:20.000Z</time>
      </trkpt>
      <trkpt lat="42.873107" lon="-2.6904">
        <ele>506</ele>
        <time>1970-01-01T00:03:21.000Z</time>
      </trkpt>
      <trkpt lat="42.873149" lon="-2.690316">
        <ele>505.6</ele>
        <time>1970-01-01T00:03:22.000Z</time>
      </trkpt>
      <trkpt lat="42.873253" lon="-2.690042">
        <ele>505.4</ele>
        <time>1970-01-01T00:03:25.000Z</time>
      </trkpt>
      <trkpt lat="42.873314" lon="-2.689852">
        <ele>505.4</ele>
        <time>1970-01-01T00:03:27.000Z</time>
      </trkpt>
      <trkpt lat="42.873345" lon="-2.689757">
        <ele>505.4</ele>
        <time>1970-01-01T00:03:28.000Z</time>
      </trkpt>
      <trkpt lat="42.873392" lon="-2.689567">
        <ele>505.2</ele>
        <time>1970-01-01T00:03:30.000Z</time>
      </trkpt>
      <trkpt lat="42.873411" lon="-2.68947">
        <ele>505.2</ele>
        <time>1970-01-01T00:03:31.000Z</time>
      </trkpt>
      <trkpt lat="42.873472" lon="-2.689172">
        <ele>505</ele>
        <time>1970-01-01T00:03:34.000Z</time>
      </trkpt>
      <trkpt lat="42.873502" lon="-2.688974">
        <ele>504.8</ele>
        <time>1970-01-01T00:03:36.000Z</time>
      </trkpt>
      <trkpt lat="42.873523" lon="-2.688774">
        <ele>504.8</ele>
        <time>1970-01-01T00:03:38.000Z</time>
      </trkpt>
      <trkpt lat="42.873542" lon="-2.688472">
        <ele>504.6</ele>
        <time>1970-01-01T00:03:41.000Z</time>
      </trkpt>
      <trkpt lat="42.873545" lon="-2.688372">
        <ele>504.6</ele>
        <time>1970-01-01T00:03:42.000Z</time>
      </trkpt>
      <trkpt lat="42.873546" lon="-2.688272">
        <ele>504.6</ele>
        <time>1970-01-01T00:03:43.000Z</time>
      </trkpt>
      <trkpt lat="42.873545" lon="-2.688172">
        <ele>504.4</ele>
        <time>1970-01-01T00:03:44.000Z</time>
      </trkpt>
      <trkpt lat="42.873534" lon="-2.687969">
        <ele>504.6</ele>
        <time>1970-01-01T00:03:46.000Z</time>
      </trkpt>
      <trkpt lat="42.873525" lon="-2.687867">
        <ele>504.6</ele>
        <time>1970-01-01T00:03:47.000Z</time>
      </trkpt>
      <trkpt lat="42.873514" lon="-2.687765">
        <ele>504.8</ele>
        <time>1970-01-01T00:03:48.000Z</time>
      </trkpt>
      <trkpt lat="42.8735" lon="-2.687663">
        <ele>504.6</ele>
        <time>1970-01-01T00:03:49.000Z</time>
      </trkpt>
      <trkpt lat="42.873485" lon="-2.687561">
        <ele>504.6</ele>
        <time>1970-01-01T00:03:50.000Z</time>
      </trkpt>
      <trkpt lat="42.873467" lon="-2.687459">
        <ele>504.6</ele>
        <time>1970-01-01T00:03:51.000Z</time>
      </trkpt>
      <trkpt lat="42.873426" lon="-2.687252">
        <ele>505.2</ele>
        <time>1970-01-01T00:03:53.000Z</time>
      </trkpt>
      <trkpt lat="42.873219" lon="-2.686543">
        <ele>505</ele>
        <time>1970-01-01T00:04:00.000Z</time>
      </trkpt>
      <trkpt lat="42.873001" lon="-2.685868">
        <ele>505</ele>
        <time>1970-01-01T00:04:07.000Z</time>
      </trkpt>
      <trkpt lat="42.872938" lon="-2.685676">
        <ele>505</ele>
        <time>1970-01-01T00:04:09.000Z</time>
      </trkpt>
      <trkpt lat="42.872841" lon="-2.685389">
        <ele>505.2</ele>
        <time>1970-01-01T00:04:12.000Z</time>
      </trkpt>
      <trkpt lat="42.87262" lon="-2.684706">
        <ele>505.2</ele>
        <time>1970-01-01T00:04:19.000Z</time>
      </trkpt>
      <trkpt lat="42.872589" lon="-2.684607">
        <ele>505.2</ele>
        <time>1970-01-01T00:04:20.000Z</time>
      </trkpt>
      <trkpt lat="42.87243" lon="-2.684113">
        <ele>505.2</ele>
        <time>1970-01-01T00:04:25.000Z</time>
      </trkpt>
      <trkpt lat="42.87233" lon="-2.683796">
        <ele>505.2</ele>
        <time>1970-01-01T00:04:28.000Z</time>
      </trkpt>
      <trkpt lat="42.872128" lon="-2.683169">
        <ele>505.4</ele>
        <time>1970-01-01T00:04:34.000Z</time>
      </trkpt>
      <trkpt lat="42.872095" lon="-2.683068">
        <ele>505.4</ele>
        <time>1970-01-01T00:04:35.000Z</time>
      </trkpt>
      <trkpt lat="42.871963" lon="-2.682669">
        <ele>505.8</ele>
        <time>1970-01-01T00:04:39.000Z</time>
      </trkpt>
      <trkpt lat="42.871931" lon="-2.682569">
        <ele>505.8</ele>
        <time>1970-01-01T00:04:40.000Z</time>
      </trkpt>
      <trkpt lat="42.871831" lon="-2.682284">
        <ele>505.8</ele>
        <time>1970-01-01T00:04:43.000Z</time>
      </trkpt>
      <trkpt lat="42.871719" lon="-2.682022">
        <ele>506</ele>
        <time>1970-01-01T00:04:46.000Z</time>
      </trkpt>
      <trkpt lat="42.871668" lon="-2.68195">
        <ele>506.2</ele>
        <time>1970-01-01T00:04:47.000Z</time>
      </trkpt>
      <trkpt lat="42.871448" lon="-2.681689">
        <ele>506.6</ele>
        <time>1970-01-01T00:04:51.000Z</time>
      </trkpt>
      <trkpt lat="42.871408" lon="-2.681609">
        <ele>506.8</ele>
        <time>1970-01-01T00:04:52.000Z</time>
      </trkpt>
      <trkpt lat="42.871384" lon="-2.681519">
        <ele>506.8</ele>
        <time>1970-01-01T00:04:53.000Z</time>
      </trkpt>
      <trkpt lat="42.871393" lon="-2.681326">
        <ele>507.2</ele>
        <time>1970-01-01T00:04:55.000Z</time>
      </trkpt>
      <trkpt lat="42.871464" lon="-2.681152">
        <ele>507</ele>
        <time>1970-01-01T00:04:57.000Z</time>
      </trkpt>
      <trkpt lat="42.871514" lon="-2.681077">
        <ele>507</ele>
        <time>1970-01-01T00:04:58.000Z</time>
      </trkpt>
      <trkpt lat="42.871608" lon="-2.680923">
        <ele>507.2</ele>
        <time>1970-01-01T00:05:00.000Z</time>
      </trkpt>
      <trkpt lat="42.871679" lon="-2.680743">
        <ele>507.2</ele>
        <time>1970-01-01T00:05:02.000Z</time>
      </trkpt>
      <trkpt lat="42.871719" lon="-2.680537">
        <ele>507</ele>
        <time>1970-01-01T00:05:04.000Z</time>
      </trkpt>
      <trkpt lat="42.871756" lon="-2.680319">
        <ele>507</ele>
        <time>1970-01-01T00:05:06.000Z</time>
      </trkpt>
      <trkpt lat="42.871784" lon="-2.680092">
        <ele>506.8</ele>
        <time>1970-01-01T00:05:08.000Z</time>
      </trkpt>
      <trkpt lat="42.871823" lon="-2.679627">
        <ele>506.4</ele>
        <time>1970-01-01T00:05:12.000Z</time>
      </trkpt>
      <trkpt lat="42.871896" lon="-2.678816">
        <ele>505.2</ele>
        <time>1970-01-01T00:05:19.000Z</time>
      </trkpt>
      <trkpt lat="42.871921" lon="-2.678476">
        <ele>505</ele>
        <time>1970-01-01T00:05:22.000Z</time>
      </trkpt>
      <trkpt lat="42.871987" lon="-2.677693">
        <ele>504.4</ele>
        <time>1970-01-01T00:05:29.000Z</time>
      </trkpt>
      <trkpt lat="42.872003" lon="-2.677471">
        <ele>504.4</ele>
        <time>1970-01-01T00:05:31.000Z</time>
      </trkpt>
      <trkpt lat="42.872012" lon="-2.677359">
        <ele>504.4</ele>
        <time>1970-01-01T00:05:32.000Z</time>
      </trkpt>
      <trkpt lat="42.872076" lon="-2.676589">
        <ele>504.4</ele>
        <time>1970-01-01T00:05:39.000Z</time>
      </trkpt>
      <trkpt lat="42.872097" lon="-2.67637">
        <ele>504.4</ele>
        <time>1970-01-01T00:05:41.000Z</time>
      </trkpt>
      <trkpt lat="42.872132" lon="-2.675932">
        <ele>504.4</ele>
        <time>1970-01-01T00:05:45.000Z</time>
      </trkpt>
      <trkpt lat="42.872166" lon="-2.675605">
        <ele>504.6</ele>
        <time>1970-01-01T00:05:48.000Z</time>
      </trkpt>
      <trkpt lat="42.872227" lon="-2.674846">
        <ele>504.6</ele>
        <time>1970-01-01T00:05:55.000Z</time>
      </trkpt>
      <trkpt lat="42.872229" lon="-2.674627">
        <ele>504.8</ele>
        <time>1970-01-01T00:05:57.000Z</time>
      </trkpt>
      <trkpt lat="42.872279" lon="-2.673955">
        <ele>504.8</ele>
        <time>1970-01-01T00:06:03.000Z</time>
      </trkpt>
      <trkpt lat="42.87231" lon="-2.673609">
        <ele>504.8</ele>
        <time>1970-01-01T00:06:06.000Z</time>
      </trkpt>
      <trkpt lat="42.872365" lon="-2.672915">
        <ele>504.8</ele>
        <time>1970-01-01T00:06:12.000Z</time>
      </trkpt>
      <trkpt lat="42.872428" lon="-2.672128">
        <ele>505</ele>
        <time>1970-01-01T00:06:19.000Z</time>
      </trkpt>
      <trkpt lat="42.87249" lon="-2.671369">
        <ele>504.8</ele>
        <time>1970-01-01T00:06:26.000Z</time>
      </trkpt>
      <trkpt lat="42.872508" lon="-2.671152">
        <ele>504.8</ele>
        <time>1970-01-01T00:06:28.000Z</time>
      </trkpt>
      <trkpt lat="42.872559" lon="-2.670503">
        <ele>505</ele>
        <time>1970-01-01T00:06:34.000Z</time>
      </trkpt>
      <trkpt lat="42.872585" lon="-2.670178">
        <ele>505</ele>
        <time>1970-01-01T00:06:37.000Z</time>
      </trkpt>
      <trkpt lat="42.872633" lon="-2.669636">
        <ele>505</ele>
        <time>1970-01-01T00:06:42.000Z</time>
      </trkpt>
      <trkpt lat="42.872652" lon="-2.669419">
        <ele>505.2</ele>
        <time>1970-01-01T00:06:44.000Z</time>
      </trkpt>
      <trkpt lat="42.872761" lon="-2.668658">
        <ele>505</ele>
        <time>1970-01-01T00:06:51.000Z</time>
      </trkpt>
      <trkpt lat="42.872926" lon="-2.668025">
        <ele>505</ele>
        <time>1970-01-01T00:06:57.000Z</time>
      </trkpt>
      <trkpt lat="42.872968" lon="-2.667928">
        <ele>504.8</ele>
        <time>1970-01-01T00:06:58.000Z</time>
      </trkpt>
      <trkpt lat="42.87326" lon="-2.667392">
        <ele>504.8</ele>
        <time>1970-01-01T00:07:04.000Z</time>
      </trkpt>
      <trkpt lat="42.87331" lon="-2.667304">
        <ele>504.8</ele>
        <time>1970-01-01T00:07:05.000Z</time>
      </trkpt>
      <trkpt lat="42.87366" lon="-2.666682">
        <ele>504.8</ele>
        <time>1970-01-01T00:07:12.000Z</time>
      </trkpt>
      <trkpt lat="42.873895" lon="-2.666232">
        <ele>504.8</ele>
        <time>1970-01-01T00:07:17.000Z</time>
      </trkpt>
      <trkpt lat="42.87413" lon="-2.665537">
        <ele>505</ele>
        <time>1970-01-01T00:07:24.000Z</time>
      </trkpt>
      <trkpt lat="42.874239" lon="-2.664899">
        <ele>505</ele>
        <time>1970-01-01T00:07:30.000Z</time>
      </trkpt>
      <trkpt lat="42.874314" lon="-2.664139">
        <ele>505.2</ele>
        <time>1970-01-01T00:07:37.000Z</time>
      </trkpt>
      <trkpt lat="42.874345" lon="-2.663813">
        <ele>505.4</ele>
        <time>1970-01-01T00:07:40.000Z</time>
      </trkpt>
      <trkpt lat="42.874412" lon="-2.663163">
        <ele>505.4</ele>
        <time>1970-01-01T00:07:46.000Z</time>
      </trkpt>
      <trkpt lat="42.874487" lon="-2.662414">
        <ele>505.6</ele>
        <time>1970-01-01T00:07:53.000Z</time>
      </trkpt>
      <trkpt lat="42.874561" lon="-2.661666">
        <ele>505.6</ele>
        <time>1970-01-01T00:08:00.000Z</time>
      </trkpt>
      <trkpt lat="42.874598" lon="-2.661242">
        <ele>505.4</ele>
        <time>1970-01-01T00:08:04.000Z</time>
      </trkpt>
      <trkpt lat="42.874654" lon="-2.66072">
        <ele>505.6</ele>
        <time>1970-01-01T00:08:09.000Z</time>
      </trkpt>
      <trkpt lat="42.874678" lon="-2.660406">
        <ele>505.6</ele>
        <time>1970-01-01T00:08:12.000Z</time>
      </trkpt>
      <trkpt lat="42.874688" lon="-2.659871">
        <ele>505.6</ele>
        <time>1970-01-01T00:08:17.000Z</time>
      </trkpt>
      <trkpt lat="42.874726" lon="-2.65923">
        <ele>505.6</ele>
        <time>1970-01-01T00:08:23.000Z</time>
      </trkpt>
      <trkpt lat="42.87467" lon="-2.659036">
        <ele>505.8</ele>
        <time>1970-01-01T00:08:25.000Z</time>
      </trkpt>
      <trkpt lat="42.874615" lon="-2.658959">
        <ele>505.8</ele>
        <time>1970-01-01T00:08:26.000Z</time>
      </trkpt>
      <trkpt lat="42.87455" lon="-2.658899">
        <ele>505.8</ele>
        <time>1970-01-01T00:08:27.000Z</time>
      </trkpt>
      <trkpt lat="42.874421" lon="-2.658784">
        <ele>505.8</ele>
        <time>1970-01-01T00:08:29.000Z</time>
      </trkpt>
      <trkpt lat="42.874365" lon="-2.658712">
        <ele>505.8</ele>
        <time>1970-01-01T00:08:30.000Z</time>
      </trkpt>
      <trkpt lat="42.874312" lon="-2.658637">
        <ele>505.8</ele>
        <time>1970-01-01T00:08:31.000Z</time>
      </trkpt>
      <trkpt lat="42.874091" lon="-2.658217">
        <ele>506</ele>
        <time>1970-01-01T00:08:36.000Z</time>
      </trkpt>
      <trkpt lat="42.874056" lon="-2.658125">
        <ele>506.2</ele>
        <time>1970-01-01T00:08:37.000Z</time>
      </trkpt>
      <trkpt lat="42.873978" lon="-2.657827">
        <ele>506.4</ele>
        <time>1970-01-01T00:08:40.000Z</time>
      </trkpt>
      <trkpt lat="42.87395" lon="-2.657615">
        <ele>506.4</ele>
        <time>1970-01-01T00:08:42.000Z</time>
      </trkpt>
      <trkpt lat="42.873949" lon="-2.657291">
        <ele>506.4</ele>
        <time>1970-01-01T00:08:45.000Z</time>
      </trkpt>
      <trkpt lat="42.874007" lon="-2.656791">
        <ele>506.4</ele>
        <time>1970-01-01T00:08:50.000Z</time>
      </trkpt>
      <trkpt lat="42.874152" lon="-2.656421">
        <ele>506</ele>
        <time>1970-01-01T00:08:54.000Z</time>
      </trkpt>
      <trkpt lat="42.874248" lon="-2.656254">
        <ele>506.2</ele>
        <time>1970-01-01T00:08:56.000Z</time>
      </trkpt>
      <trkpt lat="42.874341" lon="-2.656092">
        <ele>506</ele>
        <time>1970-01-01T00:08:58.000Z</time>
      </trkpt>
      <trkpt lat="42.874382" lon="-2.655914">
        <ele>506</ele>
        <time>1970-01-01T00:09:00.000Z</time>
      </trkpt>
      <trkpt lat="42.874373" lon="-2.655821">
        <ele>505.8</ele>
        <time>1970-01-01T00:09:01.000Z</time>
      </trkpt>
      <trkpt lat="42.874354" lon="-2.655728">
        <ele>506</ele>
        <time>1970-01-01T00:09:02.000Z</time>
      </trkpt>
      <trkpt lat="42.874264" lon="-2.65546">
        <ele>506</ele>
        <time>1970-01-01T00:09:05.000Z</time>
      </trkpt>
      <trkpt lat="42.874042" lon="-2.654793">
        <ele>505.8</ele>
        <time>1970-01-01T00:09:12.000Z</time>
      </trkpt>
      <trkpt lat="42.873852" lon="-2.6542">
        <ele>505.8</ele>
        <time>1970-01-01T00:09:18.000Z</time>
      </trkpt>
      <trkpt lat="42.87363" lon="-2.653504">
        <ele>506</ele>
        <time>1970-01-01T00:09:25.000Z</time>
      </trkpt>
      <trkpt lat="42.873567" lon="-2.653307">
        <ele>506</ele>
        <time>1970-01-01T00:09:27.000Z</time>
      </trkpt>
      <trkpt lat="42.873344" lon="-2.652621">
        <ele>506</ele>
        <time>1970-01-01T00:09:34.000Z</time>
      </trkpt>
      <trkpt lat="42.873247" lon="-2.652329">
        <ele>506</ele>
        <time>1970-01-01T00:09:37.000Z</time>
      </trkpt>
      <trkpt lat="42.873028" lon="-2.651654">
        <ele>506</ele>
        <time>1970-01-01T00:09:44.000Z</time>
      </trkpt>
      <trkpt lat="42.872999" lon="-2.651561">
        <ele>506</ele>
        <time>1970-01-01T00:09:45.000Z</time>
      </trkpt>
      <trkpt lat="42.872938" lon="-2.651384">
        <ele>506</ele>
        <time>1970-01-01T00:09:47.000Z</time>
      </trkpt>
      <trkpt lat="42.872861" lon="-2.651136">
        <ele>506.2</ele>
        <time>1970-01-01T00:09:50.000Z</time>
      </trkpt>
      <trkpt lat="42.872844" lon="-2.650967">
        <ele>506.4</ele>
        <time>1970-01-01T00:09:52.000Z</time>
      </trkpt>
      <trkpt lat="42.872879" lon="-2.650794">
        <ele>506.6</ele>
        <time>1970-01-01T00:09:54.000Z</time>
      </trkpt>
      <trkpt lat="42.872952" lon="-2.650633">
        <ele>507</ele>
        <time>1970-01-01T00:09:56.000Z</time>
      </trkpt>
      <trkpt lat="42.872986" lon="-2.650551">
        <ele>507.2</ele>
        <time>1970-01-01T00:09:57.000Z</time>
      </trkpt>
      <trkpt lat="42.873055" lon="-2.650383">
        <ele>507.4</ele>
        <time>1970-01-01T00:09:59.000Z</time>
      </trkpt>
      <trkpt lat="42.873199" lon="-2.650046">
        <ele>507.6</ele>
        <time>1970-01-01T00:10:03.000Z</time>
      </trkpt>
      <trkpt lat="42.873303" lon="-2.64979">
        <ele>507.6</ele>
        <time>1970-01-01T00:10:06.000Z</time>
      </trkpt>
      <trkpt lat="42.873446" lon="-2.649462">
        <ele>507.8</ele>
        <time>1970-01-01T00:10:10.000Z</time>
      </trkpt>
      <trkpt lat="42.87355" lon="-2.64922">
        <ele>508.2</ele>
        <time>1970-01-01T00:10:13.000Z</time>
      </trkpt>
      <trkpt lat="42.87365" lon="-2.648979">
        <ele>508.4</ele>
        <time>1970-01-01T00:10:16.000Z</time>
      </trkpt>
      <trkpt lat="42.873782" lon="-2.648672">
        <ele>508.4</ele>
        <time>1970-01-01T00:10:20.000Z</time>
      </trkpt>
      <trkpt lat="42.873845" lon="-2.64852">
        <ele>509.6</ele>
        <time>1970-01-01T00:10:22.000Z</time>
      </trkpt>
      <trkpt lat="42.87391" lon="-2.648371">
        <ele>510</ele>
        <time>1970-01-01T00:10:24.000Z</time>
      </trkpt>
      <trkpt lat="42.874003" lon="-2.64815">
        <ele>511.2</ele>
        <time>1970-01-01T00:10:27.000Z</time>
      </trkpt>
      <trkpt lat="42.87406" lon="-2.647994">
        <ele>511.8</ele>
        <time>1970-01-01T00:10:29.000Z</time>
      </trkpt>
      <trkpt lat="42.874103" lon="-2.647829">
        <ele>513</ele>
        <time>1970-01-01T00:10:31.000Z</time>
      </trkpt>
      <trkpt lat="42.874133" lon="-2.64766">
        <ele>513.8</ele>
        <time>1970-01-01T00:10:33.000Z</time>
      </trkpt>
      <trkpt lat="42.874142" lon="-2.647574">
        <ele>514</ele>
        <time>1970-01-01T00:10:34.000Z</time>
      </trkpt>
      <trkpt lat="42.874143" lon="-2.647399">
        <ele>515</ele>
        <time>1970-01-01T00:10:36.000Z</time>
      </trkpt>
      <trkpt lat="42.874139" lon="-2.647308">
        <ele>515.2</ele>
        <time>1970-01-01T00:10:37.000Z</time>
      </trkpt>
      <trkpt lat="42.87411" lon="-2.646815">
        <ele>515.6</ele>
        <time>1970-01-01T00:10:42.000Z</time>
      </trkpt>
      <trkpt lat="42.874105" lon="-2.64671">
        <ele>515.4</ele>
        <time>1970-01-01T00:10:43.000Z</time>
      </trkpt>
      <trkpt lat="42.874099" lon="-2.646603">
        <ele>515.6</ele>
        <time>1970-01-01T00:10:44.000Z</time>
      </trkpt>
      <trkpt lat="42.874086" lon="-2.646498">
        <ele>515.6</ele>
        <time>1970-01-01T00:10:45.000Z</time>
      </trkpt>
      <trkpt lat="42.874027" lon="-2.646312">
        <ele>515.4</ele>
        <time>1970-01-01T00:10:47.000Z</time>
      </trkpt>
      <trkpt lat="42.873979" lon="-2.646143">
        <ele>515.6</ele>
        <time>1970-01-01T00:10:49.000Z</time>
      </trkpt>
      <trkpt lat="42.873988" lon="-2.646058">
        <ele>515.4</ele>
        <time>1970-01-01T00:10:50.000Z</time>
      </trkpt>
      <trkpt lat="42.874022" lon="-2.645995">
        <ele>515</ele>
        <time>1970-01-01T00:10:51.000Z</time>
      </trkpt>
      <trkpt lat="42.874071" lon="-2.645959">
        <ele>514.8</ele>
        <time>1970-01-01T00:10:52.000Z</time>
      </trkpt>
      <trkpt lat="42.874179" lon="-2.645906">
        <ele>514</ele>
        <time>1970-01-01T00:10:54.000Z</time>
      </trkpt>
      <trkpt lat="42.874381" lon="-2.645754">
        <ele>513.4</ele>
        <time>1970-01-01T00:10:58.000Z</time>
      </trkpt>
      <trkpt lat="42.87458" lon="-2.645595">
        <ele>513</ele>
        <time>1970-01-01T00:11:02.000Z</time>
      </trkpt>
      <trkpt lat="42.874627" lon="-2.645551">
        <ele>513.2</ele>
        <time>1970-01-01T00:11:03.000Z</time>
      </trkpt>
      <trkpt lat="42.874673" lon="-2.64551">
        <ele>513.2</ele>
        <time>1970-01-01T00:11:04.000Z</time>
      </trkpt>
      <trkpt lat="42.874722" lon="-2.645473">
        <ele>513</ele>
        <time>1970-01-01T00:11:05.000Z</time>
      </trkpt>
      <trkpt lat="42.874872" lon="-2.645357">
        <ele>513</ele>
        <time>1970-01-01T00:11:08.000Z</time>
      </trkpt>
      <trkpt lat="42.874924" lon="-2.645314">
        <ele>512.8</ele>
        <time>1970-01-01T00:11:09.000Z</time>
      </trkpt>
      <trkpt lat="42.875138" lon="-2.645138">
        <ele>512.8</ele>
        <time>1970-01-01T00:11:13.000Z</time>
      </trkpt>
      <trkpt lat="42.875308" lon="-2.644982">
        <ele>512.8</ele>
        <time>1970-01-01T00:11:16.000Z</time>
      </trkpt>
      <trkpt lat="42.875555" lon="-2.644761">
        <ele>512.6</ele>
        <time>1970-01-01T00:11:20.000Z</time>
      </trkpt>
      <trkpt lat="42.875753" lon="-2.644584">
        <ele>512.2</ele>
        <time>1970-01-01T00:11:23.000Z</time>
      </trkpt>
      <trkpt lat="42.87582" lon="-2.644522">
        <ele>512</ele>
        <time>1970-01-01T00:11:24.000Z</time>
      </trkpt>
      <trkpt lat="42.876028" lon="-2.644336">
        <ele>511.6</ele>
        <time>1970-01-01T00:11:27.000Z</time>
      </trkpt>
      <trkpt lat="42.876098" lon="-2.644271">
        <ele>511.4</ele>
        <time>1970-01-01T00:11:28.000Z</time>
      </trkpt>
      <trkpt lat="42.876521" lon="-2.64387">
        <ele>510</ele>
        <time>1970-01-01T00:11:34.000Z</time>
      </trkpt>
      <trkpt lat="42.877027" lon="-2.643409">
        <ele>509.4</ele>
        <time>1970-01-01T00:11:41.000Z</time>
      </trkpt>
      <trkpt lat="42.877098" lon="-2.643344">
        <ele>509</ele>
        <time>1970-01-01T00:11:42.000Z</time>
      </trkpt>
      <trkpt lat="42.877579" lon="-2.642911">
        <ele>507.8</ele>
        <time>1970-01-01T00:11:49.000Z</time>
      </trkpt>
      <trkpt lat="42.877718" lon="-2.64279">
        <ele>507.6</ele>
        <time>1970-01-01T00:11:51.000Z</time>
      </trkpt>
      <trkpt lat="42.878019" lon="-2.642609">
        <ele>507.8</ele>
        <time>1970-01-01T00:11:55.000Z</time>
      </trkpt>
      <trkpt lat="42.8781" lon="-2.642586">
        <ele>507.8</ele>
        <time>1970-01-01T00:11:56.000Z</time>
      </trkpt>
      <trkpt lat="42.878182" lon="-2.642574">
        <ele>507.8</ele>
        <time>1970-01-01T00:11:57.000Z</time>
      </trkpt>
      <trkpt lat="42.878519" lon="-2.642552">
        <ele>507.8</ele>
        <time>1970-01-01T00:12:01.000Z</time>
      </trkpt>
      <trkpt lat="42.879125" lon="-2.642531">
        <ele>507.6</ele>
        <time>1970-01-01T00:12:08.000Z</time>
      </trkpt>
      <trkpt lat="42.879212" lon="-2.642529">
        <ele>507.6</ele>
        <time>1970-01-01T00:12:09.000Z</time>
      </trkpt>
      <trkpt lat="42.879558" lon="-2.642525">
        <ele>507.4</ele>
        <time>1970-01-01T00:12:13.000Z</time>
      </trkpt>
      <trkpt lat="42.879895" lon="-2.642514">
        <ele>507.2</ele>
        <time>1970-01-01T00:12:17.000Z</time>
      </trkpt>
      <trkpt lat="42.880139" lon="-2.64247">
        <ele>507.2</ele>
        <time>1970-01-01T00:12:20.000Z</time>
      </trkpt>
      <trkpt lat="42.880465" lon="-2.642405">
        <ele>507</ele>
        <time>1970-01-01T00:12:24.000Z</time>
      </trkpt>
      <trkpt lat="42.880628" lon="-2.642371">
        <ele>507</ele>
        <time>1970-01-01T00:12:26.000Z</time>
      </trkpt>
      <trkpt lat="42.88079" lon="-2.642338">
        <ele>507</ele>
        <time>1970-01-01T00:12:28.000Z</time>
      </trkpt>
      <trkpt lat="42.881034" lon="-2.642283">
        <ele>506.8</ele>
        <time>1970-01-01T00:12:31.000Z</time>
      </trkpt>
      <trkpt lat="42.88145" lon="-2.642188">
        <ele>507</ele>
        <time>1970-01-01T00:12:36.000Z</time>
      </trkpt>
      <trkpt lat="42.881795" lon="-2.642104">
        <ele>507</ele>
        <time>1970-01-01T00:12:40.000Z</time>
      </trkpt>
      <trkpt lat="42.882405" lon="-2.641957">
        <ele>506.6</ele>
        <time>1970-01-01T00:12:47.000Z</time>
      </trkpt>
      <trkpt lat="42.882831" lon="-2.641878">
        <ele>506</ele>
        <time>1970-01-01T00:12:52.000Z</time>
      </trkpt>
      <trkpt lat="42.882994" lon="-2.64185">
        <ele>505.8</ele>
        <time>1970-01-01T00:12:54.000Z</time>
      </trkpt>
      <trkpt lat="42.883474" lon="-2.641758">
        <ele>505.8</ele>
        <time>1970-01-01T00:13:00.000Z</time>
      </trkpt>
      <trkpt lat="42.883713" lon="-2.641708">
        <ele>506.4</ele>
        <time>1970-01-01T00:13:03.000Z</time>
      </trkpt>
      <trkpt lat="42.884282" lon="-2.64159">
        <ele>507.2</ele>
        <time>1970-01-01T00:13:10.000Z</time>
      </trkpt>
      <trkpt lat="42.884526" lon="-2.641542">
        <ele>507.2</ele>
        <time>1970-01-01T00:13:13.000Z</time>
      </trkpt>
      <trkpt lat="42.885088" lon="-2.641425">
        <ele>507.4</ele>
        <time>1970-01-01T00:13:20.000Z</time>
      </trkpt>
      <trkpt lat="42.885412" lon="-2.641358">
        <ele>507.6</ele>
        <time>1970-01-01T00:13:24.000Z</time>
      </trkpt>
      <trkpt lat="42.885731" lon="-2.641289">
        <ele>507.4</ele>
        <time>1970-01-01T00:13:28.000Z</time>
      </trkpt>
      <trkpt lat="42.886047" lon="-2.64122">
        <ele>507.6</ele>
        <time>1970-01-01T00:13:32.000Z</time>
      </trkpt>
      <trkpt lat="42.886205" lon="-2.641186">
        <ele>507.6</ele>
        <time>1970-01-01T00:13:34.000Z</time>
      </trkpt>
      <trkpt lat="42.886363" lon="-2.641152">
        <ele>507.8</ele>
        <time>1970-01-01T00:13:36.000Z</time>
      </trkpt>
      <trkpt lat="42.88692" lon="-2.641042">
        <ele>508</ele>
        <time>1970-01-01T00:13:43.000Z</time>
      </trkpt>
      <trkpt lat="42.886999" lon="-2.641024">
        <ele>508.2</ele>
        <time>1970-01-01T00:13:44.000Z</time>
      </trkpt>
      <trkpt lat="42.887554" lon="-2.640905">
        <ele>508.6</ele>
        <time>1970-01-01T00:13:51.000Z</time>
      </trkpt>
      <trkpt lat="42.887791" lon="-2.640858">
        <ele>508.4</ele>
        <time>1970-01-01T00:13:54.000Z</time>
      </trkpt>
      <trkpt lat="42.88787" lon="-2.640842">
        <ele>508.4</ele>
        <time>1970-01-01T00:13:55.000Z</time>
      </trkpt>
      <trkpt lat="42.888428" lon="-2.640727">
        <ele>508.6</ele>
        <time>1970-01-01T00:14:02.000Z</time>
      </trkpt>
      <trkpt lat="42.888749" lon="-2.640661">
        <ele>508.8</ele>
        <time>1970-01-01T00:14:06.000Z</time>
      </trkpt>
      <trkpt lat="42.889313" lon="-2.640547">
        <ele>508.8</ele>
        <time>1970-01-01T00:14:13.000Z</time>
      </trkpt>
      <trkpt lat="42.889392" lon="-2.64053">
        <ele>508.8</ele>
        <time>1970-01-01T00:14:14.000Z</time>
      </trkpt>
      <trkpt lat="42.889927" lon="-2.640402">
        <ele>508.8</ele>
        <time>1970-01-01T00:14:21.000Z</time>
      </trkpt>
      <trkpt lat="42.889998" lon="-2.640366">
        <ele>508.8</ele>
        <time>1970-01-01T00:14:22.000Z</time>
      </trkpt>
      <trkpt lat="42.890407" lon="-2.640124">
        <ele>509</ele>
        <time>1970-01-01T00:14:28.000Z</time>
      </trkpt>
      <trkpt lat="42.89055" lon="-2.640084">
        <ele>509.2</ele>
        <time>1970-01-01T00:14:30.000Z</time>
      </trkpt>
      <trkpt lat="42.890777" lon="-2.640045">
        <ele>509.6</ele>
        <time>1970-01-01T00:14:33.000Z</time>
      </trkpt>
      <trkpt lat="42.891256" lon="-2.639938">
        <ele>509.8</ele>
        <time>1970-01-01T00:14:39.000Z</time>
      </trkpt>
      <trkpt lat="42.891336" lon="-2.639916">
        <ele>509.8</ele>
        <time>1970-01-01T00:14:40.000Z</time>
      </trkpt>
      <trkpt lat="42.891723" lon="-2.639806">
        <ele>509.6</ele>
        <time>1970-01-01T00:14:45.000Z</time>
      </trkpt>
      <trkpt lat="42.891952" lon="-2.639746">
        <ele>509.8</ele>
        <time>1970-01-01T00:14:48.000Z</time>
      </trkpt>
      <trkpt lat="42.892027" lon="-2.639713">
        <ele>509.6</ele>
        <time>1970-01-01T00:14:49.000Z</time>
      </trkpt>
      <trkpt lat="42.892331" lon="-2.639571">
        <ele>509.6</ele>
        <time>1970-01-01T00:14:53.000Z</time>
      </trkpt>
      <trkpt lat="42.892869" lon="-2.639352">
        <ele>509.8</ele>
        <time>1970-01-01T00:15:00.000Z</time>
      </trkpt>
      <trkpt lat="42.89309" lon="-2.63926">
        <ele>509.8</ele>
        <time>1970-01-01T00:15:03.000Z</time>
      </trkpt>
      <trkpt lat="42.893303" lon="-2.639146">
        <ele>510</ele>
        <time>1970-01-01T00:15:06.000Z</time>
      </trkpt>
      <trkpt lat="42.893509" lon="-2.639025">
        <ele>510</ele>
        <time>1970-01-01T00:15:09.000Z</time>
      </trkpt>
      <trkpt lat="42.893785" lon="-2.638842">
        <ele>510.4</ele>
        <time>1970-01-01T00:15:13.000Z</time>
      </trkpt>
      <trkpt lat="42.893994" lon="-2.638704">
        <ele>510.8</ele>
        <time>1970-01-01T00:15:16.000Z</time>
      </trkpt>
      <trkpt lat="42.894273" lon="-2.638518">
        <ele>511.4</ele>
        <time>1970-01-01T00:15:20.000Z</time>
      </trkpt>
      <trkpt lat="42.894479" lon="-2.638384">
        <ele>511.8</ele>
        <time>1970-01-01T00:15:23.000Z</time>
      </trkpt>
      <trkpt lat="42.894747" lon="-2.638208">
        <ele>512.4</ele>
        <time>1970-01-01T00:15:27.000Z</time>
      </trkpt>
      <trkpt lat="42.894879" lon="-2.63812">
        <ele>512.4</ele>
        <time>1970-01-01T00:15:29.000Z</time>
      </trkpt>
      <trkpt lat="42.895127" lon="-2.637943">
        <ele>513</ele>
        <time>1970-01-01T00:15:32.000Z</time>
      </trkpt>
      <trkpt lat="42.895653" lon="-2.637633">
        <ele>515.4</ele>
        <time>1970-01-01T00:16:30.000Z</time>
      </trkpt>
      <trkpt lat="42.895686" lon="-2.637614">
        <ele>515.4</ele>
        <time>1970-01-01T00:16:31.000Z</time>
      </trkpt>
      <trkpt lat="42.895823" lon="-2.637534">
        <ele>515.4</ele>
        <time>1970-01-01T00:16:33.000Z</time>
      </trkpt>
      <trkpt lat="42.895962" lon="-2.637445">
        <ele>515.2</ele>
        <time>1970-01-01T00:16:35.000Z</time>
      </trkpt>
      <trkpt lat="42.896107" lon="-2.637362">
        <ele>515.2</ele>
        <time>1970-01-01T00:16:37.000Z</time>
      </trkpt>
      <trkpt lat="42.896407" lon="-2.637196">
        <ele>514.8</ele>
        <time>1970-01-01T00:16:41.000Z</time>
      </trkpt>
      <trkpt lat="42.896803" lon="-2.636974">
        <ele>514.6</ele>
        <time>1970-01-01T00:16:46.000Z</time>
      </trkpt>
      <trkpt lat="42.897146" lon="-2.636805">
        <ele>514.2</ele>
        <time>1970-01-01T00:16:50.000Z</time>
      </trkpt>
      <trkpt lat="42.897676" lon="-2.636576">
        <ele>513.8</ele>
        <time>1970-01-01T00:16:56.000Z</time>
      </trkpt>
      <trkpt lat="42.897855" lon="-2.636505">
        <ele>513.2</ele>
        <time>1970-01-01T00:16:58.000Z</time>
      </trkpt>
      <trkpt lat="42.89821" lon="-2.636352">
        <ele>512.6</ele>
        <time>1970-01-01T00:17:02.000Z</time>
      </trkpt>
      <trkpt lat="42.89873" lon="-2.636117">
        <ele>511.8</ele>
        <time>1970-01-01T00:17:08.000Z</time>
      </trkpt>
      <trkpt lat="42.89931" lon="-2.635847">
        <ele>511.8</ele>
        <time>1970-01-01T00:17:15.000Z</time>
      </trkpt>
      <trkpt lat="42.899548" lon="-2.635737">
        <ele>511.8</ele>
        <time>1970-01-01T00:17:18.000Z</time>
      </trkpt>
      <trkpt lat="42.899781" lon="-2.635628">
        <ele>512.2</ele>
        <time>1970-01-01T00:17:21.000Z</time>
      </trkpt>
      <trkpt lat="42.900088" lon="-2.635469">
        <ele>512.8</ele>
        <time>1970-01-01T00:17:25.000Z</time>
      </trkpt>
      <trkpt lat="42.900163" lon="-2.635424">
        <ele>512.8</ele>
        <time>1970-01-01T00:17:26.000Z</time>
      </trkpt>
      <trkpt lat="42.90059" lon="-2.635082">
        <ele>513.6</ele>
        <time>1970-01-01T00:17:32.000Z</time>
      </trkpt>
      <trkpt lat="42.900852" lon="-2.634806">
        <ele>514.6</ele>
        <time>1970-01-01T00:17:36.000Z</time>
      </trkpt>
      <trkpt lat="42.9011" lon="-2.634528">
        <ele>515.2</ele>
        <time>1970-01-01T00:17:40.000Z</time>
      </trkpt>
      <trkpt lat="42.901162" lon="-2.634458">
        <ele>515.2</ele>
        <time>1970-01-01T00:17:41.000Z</time>
      </trkpt>
      <trkpt lat="42.901578" lon="-2.63396">
        <ele>516.4</ele>
        <time>1970-01-01T00:17:48.000Z</time>
      </trkpt>
      <trkpt lat="42.901637" lon="-2.633887">
        <ele>516.4</ele>
        <time>1970-01-01T00:17:49.000Z</time>
      </trkpt>
      <trkpt lat="42.902033" lon="-2.633358">
        <ele>517.4</ele>
        <time>1970-01-01T00:17:56.000Z</time>
      </trkpt>
      <trkpt lat="42.902259" lon="-2.633036">
        <ele>518.4</ele>
        <time>1970-01-01T00:18:00.000Z</time>
      </trkpt>
      <trkpt lat="42.902657" lon="-2.632441">
        <ele>519</ele>
        <time>1970-01-01T00:18:07.000Z</time>
      </trkpt>
      <trkpt lat="42.902777" lon="-2.632267">
        <ele>518.8</ele>
        <time>1970-01-01T00:18:09.000Z</time>
      </trkpt>
      <trkpt lat="42.903146" lon="-2.631726">
        <ele>518.6</ele>
        <time>1970-01-01T00:18:15.000Z</time>
      </trkpt>
      <trkpt lat="42.903408" lon="-2.631348">
        <ele>518</ele>
        <time>1970-01-01T00:18:19.000Z</time>
      </trkpt>
      <trkpt lat="42.903476" lon="-2.631253">
        <ele>517.6</ele>
        <time>1970-01-01T00:18:20.000Z</time>
      </trkpt>
      <trkpt lat="42.903622" lon="-2.631073">
        <ele>517.6</ele>
        <time>1970-01-01T00:18:22.000Z</time>
      </trkpt>
      <trkpt lat="42.903855" lon="-2.630825">
        <ele>516.8</ele>
        <time>1970-01-01T00:18:25.000Z</time>
      </trkpt>
      <trkpt lat="42.903936" lon="-2.630749">
        <ele>516.4</ele>
        <time>1970-01-01T00:18:26.000Z</time>
      </trkpt>
      <trkpt lat="42.904336" lon="-2.630383">
        <ele>514.4</ele>
        <time>1970-01-01T00:18:31.000Z</time>
      </trkpt>
      <trkpt lat="42.904493" lon="-2.630242">
        <ele>514</ele>
        <time>1970-01-01T00:18:33.000Z</time>
      </trkpt>
      <trkpt lat="42.904957" lon="-2.629801">
        <ele>513.4</ele>
        <time>1970-01-01T00:18:39.000Z</time>
      </trkpt>
      <trkpt lat="42.905371" lon="-2.629259">
        <ele>513</ele>
        <time>1970-01-01T00:18:45.000Z</time>
      </trkpt>
      <trkpt lat="42.905759" lon="-2.628729">
        <ele>511.8</ele>
        <time>1970-01-01T00:18:51.000Z</time>
      </trkpt>
      <trkpt lat="42.905887" lon="-2.628553">
        <ele>511.8</ele>
        <time>1970-01-01T00:18:53.000Z</time>
      </trkpt>
      <trkpt lat="42.906248" lon="-2.628026">
        <ele>511.4</ele>
        <time>1970-01-01T00:18:59.000Z</time>
      </trkpt>
      <trkpt lat="42.906566" lon="-2.627459">
        <ele>511.4</ele>
        <time>1970-01-01T00:19:05.000Z</time>
      </trkpt>
      <trkpt lat="42.906728" lon="-2.627159">
        <ele>511.2</ele>
        <time>1970-01-01T00:19:08.000Z</time>
      </trkpt>
      <trkpt lat="42.907093" lon="-2.62648">
        <ele>511</ele>
        <time>1970-01-01T00:19:15.000Z</time>
      </trkpt>
      <trkpt lat="42.907192" lon="-2.626295">
        <ele>511</ele>
        <time>1970-01-01T00:19:17.000Z</time>
      </trkpt>
      <trkpt lat="42.907392" lon="-2.625941">
        <ele>511</ele>
        <time>1970-01-01T00:19:21.000Z</time>
      </trkpt>
      <trkpt lat="42.907644" lon="-2.625517">
        <ele>511</ele>
        <time>1970-01-01T00:19:26.000Z</time>
      </trkpt>
      <trkpt lat="42.907904" lon="-2.625099">
        <ele>511.2</ele>
        <time>1970-01-01T00:19:31.000Z</time>
      </trkpt>
      <trkpt lat="42.908297" lon="-2.62452">
        <ele>511.6</ele>
        <time>1970-01-01T00:19:38.000Z</time>
      </trkpt>
      <trkpt lat="42.908752" lon="-2.623995">
        <ele>512</ele>
        <time>1970-01-01T00:19:45.000Z</time>
      </trkpt>
      <trkpt lat="42.908821" lon="-2.623924">
        <ele>512</ele>
        <time>1970-01-01T00:19:46.000Z</time>
      </trkpt>
      <trkpt lat="42.909308" lon="-2.623423">
        <ele>511.6</ele>
        <time>1970-01-01T00:19:53.000Z</time>
      </trkpt>
      <trkpt lat="42.909378" lon="-2.623352">
        <ele>511.4</ele>
        <time>1970-01-01T00:19:54.000Z</time>
      </trkpt>
      <trkpt lat="42.909861" lon="-2.62286">
        <ele>511.2</ele>
        <time>1970-01-01T00:20:01.000Z</time>
      </trkpt>
      <trkpt lat="42.909998" lon="-2.622723">
        <ele>511.2</ele>
        <time>1970-01-01T00:20:03.000Z</time>
      </trkpt>
      <trkpt lat="42.910462" lon="-2.622253">
        <ele>511.2</ele>
        <time>1970-01-01T00:20:10.000Z</time>
      </trkpt>
      <trkpt lat="42.91059" lon="-2.62212">
        <ele>511.4</ele>
        <time>1970-01-01T00:20:12.000Z</time>
      </trkpt>
      <trkpt lat="42.91072" lon="-2.621991">
        <ele>511.4</ele>
        <time>1970-01-01T00:20:14.000Z</time>
      </trkpt>
      <trkpt lat="42.911056" lon="-2.621682">
        <ele>512.2</ele>
        <time>1970-01-01T00:20:19.000Z</time>
      </trkpt>
      <trkpt lat="42.911128" lon="-2.621625">
        <ele>512.4</ele>
        <time>1970-01-01T00:20:20.000Z</time>
      </trkpt>
      <trkpt lat="42.911277" lon="-2.621521">
        <ele>513</ele>
        <time>1970-01-01T00:20:22.000Z</time>
      </trkpt>
      <trkpt lat="42.911665" lon="-2.6213">
        <ele>513.8</ele>
        <time>1970-01-01T00:20:27.000Z</time>
      </trkpt>
      <trkpt lat="42.911978" lon="-2.621133">
        <ele>514.2</ele>
        <time>1970-01-01T00:20:31.000Z</time>
      </trkpt>
      <trkpt lat="42.912355" lon="-2.620899">
        <ele>514.8</ele>
        <time>1970-01-01T00:20:36.000Z</time>
      </trkpt>
      <trkpt lat="42.912573" lon="-2.620738">
        <ele>515</ele>
        <time>1970-01-01T00:20:39.000Z</time>
      </trkpt>
      <trkpt lat="42.913057" lon="-2.620288">
        <ele>515</ele>
        <time>1970-01-01T00:20:46.000Z</time>
      </trkpt>
      <trkpt lat="42.913123" lon="-2.620218">
        <ele>515.2</ele>
        <time>1970-01-01T00:20:47.000Z</time>
      </trkpt>
      <trkpt lat="42.913588" lon="-2.619712">
        <ele>515.4</ele>
        <time>1970-01-01T00:20:54.000Z</time>
      </trkpt>
      <trkpt lat="42.913798" lon="-2.619514">
        <ele>515.4</ele>
        <time>1970-01-01T00:20:57.000Z</time>
      </trkpt>
      <trkpt lat="42.914111" lon="-2.619321">
        <ele>515.2</ele>
        <time>1970-01-01T00:21:01.000Z</time>
      </trkpt>
      <trkpt lat="42.914194" lon="-2.619284">
        <ele>515.2</ele>
        <time>1970-01-01T00:21:02.000Z</time>
      </trkpt>
      <trkpt lat="42.914787" lon="-2.619078">
        <ele>514.8</ele>
        <time>1970-01-01T00:21:09.000Z</time>
      </trkpt>
      <trkpt lat="42.914873" lon="-2.619051">
        <ele>515</ele>
        <time>1970-01-01T00:21:10.000Z</time>
      </trkpt>
      <trkpt lat="42.915488" lon="-2.618873">
        <ele>514.4</ele>
        <time>1970-01-01T00:21:17.000Z</time>
      </trkpt>
      <trkpt lat="42.915844" lon="-2.618774">
        <ele>514.2</ele>
        <time>1970-01-01T00:21:21.000Z</time>
      </trkpt>
      <trkpt lat="42.915932" lon="-2.618745">
        <ele>514.2</ele>
        <time>1970-01-01T00:21:22.000Z</time>
      </trkpt>
      <trkpt lat="42.916105" lon="-2.618671">
        <ele>514.2</ele>
        <time>1970-01-01T00:21:24.000Z</time>
      </trkpt>
      <trkpt lat="42.916273" lon="-2.618576">
        <ele>514</ele>
        <time>1970-01-01T00:21:26.000Z</time>
      </trkpt>
      <trkpt lat="42.916752" lon="-2.618223">
        <ele>513.8</ele>
        <time>1970-01-01T00:21:32.000Z</time>
      </trkpt>
      <trkpt lat="42.917295" lon="-2.61787">
        <ele>513.4</ele>
        <time>1970-01-01T00:21:39.000Z</time>
      </trkpt>
      <trkpt lat="42.917825" lon="-2.61757">
        <ele>513.4</ele>
        <time>1970-01-01T00:21:46.000Z</time>
      </trkpt>
      <trkpt lat="42.918125" lon="-2.617397">
        <ele>513.6</ele>
        <time>1970-01-01T00:21:50.000Z</time>
      </trkpt>
      <trkpt lat="42.9182" lon="-2.617353">
        <ele>513.6</ele>
        <time>1970-01-01T00:21:51.000Z</time>
      </trkpt>
      <trkpt lat="42.918714" lon="-2.617043">
        <ele>514</ele>
        <time>1970-01-01T00:21:58.000Z</time>
      </trkpt>
      <trkpt lat="42.918857" lon="-2.616933">
        <ele>514.2</ele>
        <time>1970-01-01T00:22:00.000Z</time>
      </trkpt>
      <trkpt lat="42.918928" lon="-2.616872">
        <ele>514.2</ele>
        <time>1970-01-01T00:22:01.000Z</time>
      </trkpt>
      <trkpt lat="42.91943" lon="-2.616423">
        <ele>514.2</ele>
        <time>1970-01-01T00:22:08.000Z</time>
      </trkpt>
      <trkpt lat="42.919845" lon="-2.616059">
        <ele>514</ele>
        <time>1970-01-01T00:22:14.000Z</time>
      </trkpt>
      <trkpt lat="42.919978" lon="-2.61595">
        <ele>514.2</ele>
        <time>1970-01-01T00:22:16.000Z</time>
      </trkpt>
      <trkpt lat="42.92011" lon="-2.615848">
        <ele>514</ele>
        <time>1970-01-01T00:22:18.000Z</time>
      </trkpt>
      <trkpt lat="42.920393" lon="-2.615685">
        <ele>514.2</ele>
        <time>1970-01-01T00:22:22.000Z</time>
      </trkpt>
      <trkpt lat="42.920468" lon="-2.615654">
        <ele>514.6</ele>
        <time>1970-01-01T00:22:23.000Z</time>
      </trkpt>
      <trkpt lat="42.920864" lon="-2.61554">
        <ele>516</ele>
        <time>1970-01-01T00:22:28.000Z</time>
      </trkpt>
      <trkpt lat="42.921198" lon="-2.615461">
        <ele>516.8</ele>
        <time>1970-01-01T00:22:32.000Z</time>
      </trkpt>
      <trkpt lat="42.921524" lon="-2.615385">
        <ele>517.4</ele>
        <time>1970-01-01T00:22:36.000Z</time>
      </trkpt>
      <trkpt lat="42.921604" lon="-2.615365">
        <ele>517.4</ele>
        <time>1970-01-01T00:22:37.000Z</time>
      </trkpt>
      <trkpt lat="42.922086" lon="-2.615241">
        <ele>517.8</ele>
        <time>1970-01-01T00:22:43.000Z</time>
      </trkpt>
      <trkpt lat="42.922654" lon="-2.61506">
        <ele>518.2</ele>
        <time>1970-01-01T00:22:50.000Z</time>
      </trkpt>
      <trkpt lat="42.922735" lon="-2.615033">
        <ele>518.2</ele>
        <time>1970-01-01T00:22:51.000Z</time>
      </trkpt>
      <trkpt lat="42.922978" lon="-2.614951">
        <ele>518.2</ele>
        <time>1970-01-01T00:22:54.000Z</time>
      </trkpt>
      <trkpt lat="42.923142" lon="-2.614924">
        <ele>518.4</ele>
        <time>1970-01-01T00:22:56.000Z</time>
      </trkpt>
      <trkpt lat="42.923224" lon="-2.614929">
        <ele>518.2</ele>
        <time>1970-01-01T00:22:57.000Z</time>
      </trkpt>
      <trkpt lat="42.923306" lon="-2.614945">
        <ele>518.2</ele>
        <time>1970-01-01T00:22:58.000Z</time>
      </trkpt>
      <trkpt lat="42.923383" lon="-2.614976">
        <ele>518.2</ele>
        <time>1970-01-01T00:22:59.000Z</time>
      </trkpt>
      <trkpt lat="42.923455" lon="-2.615024">
        <ele>518.2</ele>
        <time>1970-01-01T00:23:00.000Z</time>
      </trkpt>
      <trkpt lat="42.923576" lon="-2.615165">
        <ele>518.2</ele>
        <time>1970-01-01T00:23:02.000Z</time>
      </trkpt>
      <trkpt lat="42.923622" lon="-2.615255">
        <ele>518.4</ele>
        <time>1970-01-01T00:23:03.000Z</time>
      </trkpt>
      <trkpt lat="42.923659" lon="-2.615352">
        <ele>518.2</ele>
        <time>1970-01-01T00:23:04.000Z</time>
      </trkpt>
      <trkpt lat="42.92374" lon="-2.615666">
        <ele>518.4</ele>
        <time>1970-01-01T00:23:07.000Z</time>
      </trkpt>
      <trkpt lat="42.923895" lon="-2.616432">
        <ele>518.4</ele>
        <time>1970-01-01T00:23:14.000Z</time>
      </trkpt>
      <trkpt lat="42.923941" lon="-2.616655">
        <ele>518.6</ele>
        <time>1970-01-01T00:23:16.000Z</time>
      </trkpt>
      <trkpt lat="42.924098" lon="-2.617437">
        <ele>518.6</ele>
        <time>1970-01-01T00:23:23.000Z</time>
      </trkpt>
      <trkpt lat="42.924118" lon="-2.61755">
        <ele>518.4</ele>
        <time>1970-01-01T00:23:24.000Z</time>
      </trkpt>
      <trkpt lat="42.92426" lon="-2.618217">
        <ele>518.8</ele>
        <time>1970-01-01T00:23:30.000Z</time>
      </trkpt>
      <trkpt lat="42.924299" lon="-2.618321">
        <ele>518.4</ele>
        <time>1970-01-01T00:23:31.000Z</time>
      </trkpt>
      <trkpt lat="42.924347" lon="-2.618418">
        <ele>518.4</ele>
        <time>1970-01-01T00:23:32.000Z</time>
      </trkpt>
      <trkpt lat="42.924466" lon="-2.618581">
        <ele>518.2</ele>
        <time>1970-01-01T00:23:34.000Z</time>
      </trkpt>
      <trkpt lat="42.924532" lon="-2.618649">
        <ele>518.4</ele>
        <time>1970-01-01T00:23:35.000Z</time>
      </trkpt>
      <trkpt lat="42.924671" lon="-2.618748">
        <ele>518.2</ele>
        <time>1970-01-01T00:23:37.000Z</time>
      </trkpt>
      <trkpt lat="42.924742" lon="-2.618784">
        <ele>518.4</ele>
        <time>1970-01-01T00:23:38.000Z</time>
      </trkpt>
      <trkpt lat="42.924811" lon="-2.618818">
        <ele>518.4</ele>
        <time>1970-01-01T00:23:39.000Z</time>
      </trkpt>
      <trkpt lat="42.925055" lon="-2.618959">
        <ele>518.6</ele>
        <time>1970-01-01T00:23:43.000Z</time>
      </trkpt>
      <trkpt lat="42.925114" lon="-2.618993">
        <ele>518.8</ele>
        <time>1970-01-01T00:23:44.000Z</time>
      </trkpt>
      <trkpt lat="42.925344" lon="-2.61912">
        <ele>520.2</ele>
        <time>1970-01-01T00:23:48.000Z</time>
      </trkpt>
      <trkpt lat="42.925508" lon="-2.619219">
        <ele>521.2</ele>
        <time>1970-01-01T00:23:51.000Z</time>
      </trkpt>
      <trkpt lat="42.925615" lon="-2.619282">
        <ele>522.4</ele>
        <time>1970-01-01T00:23:53.000Z</time>
      </trkpt>
      <trkpt lat="42.925718" lon="-2.619344">
        <ele>523.2</ele>
        <time>1970-01-01T00:23:55.000Z</time>
      </trkpt>
      <trkpt lat="42.925812" lon="-2.61942">
        <ele>524</ele>
        <time>1970-01-01T00:23:57.000Z</time>
      </trkpt>
      <trkpt lat="42.925899" lon="-2.619515">
        <ele>524.6</ele>
        <time>1970-01-01T00:23:59.000Z</time>
      </trkpt>
      <trkpt lat="42.926002" lon="-2.619696">
        <ele>526.4</ele>
        <time>1970-01-01T00:24:02.000Z</time>
      </trkpt>
      <trkpt lat="42.926058" lon="-2.619833">
        <ele>527.4</ele>
        <time>1970-01-01T00:24:04.000Z</time>
      </trkpt>
      <trkpt lat="42.926132" lon="-2.620039">
        <ele>528.4</ele>
        <time>1970-01-01T00:24:07.000Z</time>
      </trkpt>
      <trkpt lat="42.926258" lon="-2.620359">
        <ele>530</ele>
        <time>1970-01-01T00:24:12.000Z</time>
      </trkpt>
      <trkpt lat="42.926352" lon="-2.620612">
        <ele>531</ele>
        <time>1970-01-01T00:24:16.000Z</time>
      </trkpt>
      <trkpt lat="42.92645" lon="-2.620868">
        <ele>532.8</ele>
        <time>1970-01-01T00:24:20.000Z</time>
      </trkpt>
      <trkpt lat="42.926475" lon="-2.620932">
        <ele>533</ele>
        <time>1970-01-01T00:24:21.000Z</time>
      </trkpt>
      <trkpt lat="42.926535" lon="-2.621052">
        <ele>533.6</ele>
        <time>1970-01-01T00:24:23.000Z</time>
      </trkpt>
      <trkpt lat="42.926573" lon="-2.621103">
        <ele>533.8</ele>
        <time>1970-01-01T00:24:24.000Z</time>
      </trkpt>
      <trkpt lat="42.926617" lon="-2.621144">
        <ele>534.6</ele>
        <time>1970-01-01T00:24:25.000Z</time>
      </trkpt>
      <trkpt lat="42.926716" lon="-2.621198">
        <ele>535.4</ele>
        <time>1970-01-01T00:24:27.000Z</time>
      </trkpt>
      <trkpt lat="42.926772" lon="-2.62121">
        <ele>535.8</ele>
        <time>1970-01-01T00:24:28.000Z</time>
      </trkpt>
      <trkpt lat="42.92683" lon="-2.621211">
        <ele>535.8</ele>
        <time>1970-01-01T00:24:29.000Z</time>
      </trkpt>
      <trkpt lat="42.926944" lon="-2.621176">
        <ele>536.6</ele>
        <time>1970-01-01T00:24:31.000Z</time>
      </trkpt>
      <trkpt lat="42.927043" lon="-2.621098">
        <ele>537</ele>
        <time>1970-01-01T00:24:33.000Z</time>
      </trkpt>
      <trkpt lat="42.927086" lon="-2.621044">
        <ele>537.6</ele>
        <time>1970-01-01T00:24:34.000Z</time>
      </trkpt>
      <trkpt lat="42.92712" lon="-2.620982">
        <ele>537.8</ele>
        <time>1970-01-01T00:24:35.000Z</time>
      </trkpt>
      <trkpt lat="42.92717" lon="-2.620839">
        <ele>538</ele>
        <time>1970-01-01T00:24:37.000Z</time>
      </trkpt>
      <trkpt lat="42.927192" lon="-2.620687">
        <ele>538.2</ele>
        <time>1970-01-01T00:24:39.000Z</time>
      </trkpt>
      <trkpt lat="42.927204" lon="-2.620536">
        <ele>538.8</ele>
        <time>1970-01-01T00:24:41.000Z</time>
      </trkpt>
      <trkpt lat="42.927219" lon="-2.620463">
        <ele>538.8</ele>
        <time>1970-01-01T00:24:42.000Z</time>
      </trkpt>
      <trkpt lat="42.927238" lon="-2.620393">
        <ele>539</ele>
        <time>1970-01-01T00:24:43.000Z</time>
      </trkpt>
      <trkpt lat="42.927295" lon="-2.620268">
        <ele>539.6</ele>
        <time>1970-01-01T00:24:45.000Z</time>
      </trkpt>
      <trkpt lat="42.927333" lon="-2.620217">
        <ele>539.8</ele>
        <time>1970-01-01T00:24:46.000Z</time>
      </trkpt>
      <trkpt lat="42.927376" lon="-2.620174">
        <ele>540</ele>
        <time>1970-01-01T00:24:47.000Z</time>
      </trkpt>
      <trkpt lat="42.927472" lon="-2.620103">
        <ele>540.8</ele>
        <time>1970-01-01T00:24:49.000Z</time>
      </trkpt>
      <trkpt lat="42.927573" lon="-2.620043">
        <ele>541.8</ele>
        <time>1970-01-01T00:24:51.000Z</time>
      </trkpt>
      <trkpt lat="42.92768" lon="-2.619996">
        <ele>542</ele>
        <time>1970-01-01T00:24:53.000Z</time>
      </trkpt>
      <trkpt lat="42.927786" lon="-2.619946">
        <ele>542.8</ele>
        <time>1970-01-01T00:24:55.000Z</time>
      </trkpt>
      <trkpt lat="42.927838" lon="-2.619922">
        <ele>542.8</ele>
        <time>1970-01-01T00:24:56.000Z</time>
      </trkpt>
      <trkpt lat="42.927987" lon="-2.619853">
        <ele>543.2</ele>
        <time>1970-01-01T00:24:59.000Z</time>
      </trkpt>
      <trkpt lat="42.928084" lon="-2.619809">
        <ele>543.8</ele>
        <time>1970-01-01T00:25:01.000Z</time>
      </trkpt>
      <trkpt lat="42.928184" lon="-2.619771">
        <ele>544</ele>
        <time>1970-01-01T00:25:03.000Z</time>
      </trkpt>
      <trkpt lat="42.928287" lon="-2.61974">
        <ele>544.4</ele>
        <time>1970-01-01T00:25:05.000Z</time>
      </trkpt>
      <trkpt lat="42.928456" lon="-2.619727">
        <ele>545.6</ele>
        <time>1970-01-01T00:25:08.000Z</time>
      </trkpt>
      <trkpt lat="42.92869" lon="-2.619741">
        <ele>547.4</ele>
        <time>1970-01-01T00:25:12.000Z</time>
      </trkpt>
      <trkpt lat="42.92894" lon="-2.619769">
        <ele>548.6</ele>
        <time>1970-01-01T00:25:16.000Z</time>
      </trkpt>
      <trkpt lat="42.929002" lon="-2.61979">
        <ele>548.4</ele>
        <time>1970-01-01T00:25:17.000Z</time>
      </trkpt>
      <trkpt lat="42.92918" lon="-2.619903">
        <ele>548.8</ele>
        <time>1970-01-01T00:25:20.000Z</time>
      </trkpt>
      <trkpt lat="42.92928" lon="-2.620019">
        <ele>549</ele>
        <time>1970-01-01T00:25:22.000Z</time>
      </trkpt>
      <trkpt lat="42.929361" lon="-2.620168">
        <ele>549</ele>
        <time>1970-01-01T00:25:24.000Z</time>
      </trkpt>
      <trkpt lat="42.929555" lon="-2.620601">
        <ele>549.2</ele>
        <time>1970-01-01T00:25:29.000Z</time>
      </trkpt>
      <trkpt lat="42.92964" lon="-2.620788">
        <ele>549</ele>
        <time>1970-01-01T00:25:31.000Z</time>
      </trkpt>
      <trkpt lat="42.929781" lon="-2.621064">
        <ele>549</ele>
        <time>1970-01-01T00:25:34.000Z</time>
      </trkpt>
      <trkpt lat="42.929912" lon="-2.62121">
        <ele>548.8</ele>
        <time>1970-01-01T00:25:36.000Z</time>
      </trkpt>
      <trkpt lat="42.930067" lon="-2.62129">
        <ele>548</ele>
        <time>1970-01-01T00:25:38.000Z</time>
      </trkpt>
      <trkpt lat="42.930147" lon="-2.621299">
        <ele>547.6</ele>
        <time>1970-01-01T00:25:39.000Z</time>
      </trkpt>
      <trkpt lat="42.930224" lon="-2.621291">
        <ele>547.6</ele>
        <time>1970-01-01T00:25:40.000Z</time>
      </trkpt>
      <trkpt lat="42.930426" lon="-2.621206">
        <ele>547.4</ele>
        <time>1970-01-01T00:25:43.000Z</time>
      </trkpt>
      <trkpt lat="42.930535" lon="-2.62111">
        <ele>547.4</ele>
        <time>1970-01-01T00:25:45.000Z</time>
      </trkpt>
      <trkpt lat="42.930638" lon="-2.620997">
        <ele>547.6</ele>
        <time>1970-01-01T00:25:47.000Z</time>
      </trkpt>
      <trkpt lat="42.930694" lon="-2.620941">
        <ele>547.6</ele>
        <time>1970-01-01T00:25:48.000Z</time>
      </trkpt>
      <trkpt lat="42.930754" lon="-2.62089">
        <ele>548</ele>
        <time>1970-01-01T00:25:49.000Z</time>
      </trkpt>
      <trkpt lat="42.930887" lon="-2.620811">
        <ele>548.8</ele>
        <time>1970-01-01T00:25:51.000Z</time>
      </trkpt>
      <trkpt lat="42.930958" lon="-2.620784">
        <ele>549.4</ele>
        <time>1970-01-01T00:25:52.000Z</time>
      </trkpt>
      <trkpt lat="42.931033" lon="-2.620772">
        <ele>549.4</ele>
        <time>1970-01-01T00:25:53.000Z</time>
      </trkpt>
      <trkpt lat="42.931191" lon="-2.620799">
        <ele>550.6</ele>
        <time>1970-01-01T00:25:55.000Z</time>
      </trkpt>
      <trkpt lat="42.931349" lon="-2.620889">
        <ele>550.8</ele>
        <time>1970-01-01T00:25:57.000Z</time>
      </trkpt>
      <trkpt lat="42.931424" lon="-2.620954">
        <ele>550.8</ele>
        <time>1970-01-01T00:25:58.000Z</time>
      </trkpt>
      <trkpt lat="42.931759" lon="-2.621382">
        <ele>550.8</ele>
        <time>1970-01-01T00:26:03.000Z</time>
      </trkpt>
      <trkpt lat="42.9321" lon="-2.621971">
        <ele>550</ele>
        <time>1970-01-01T00:26:09.000Z</time>
      </trkpt>
      <trkpt lat="42.932161" lon="-2.622059">
        <ele>549.8</ele>
        <time>1970-01-01T00:26:10.000Z</time>
      </trkpt>
      <trkpt lat="42.932501" lon="-2.62243">
        <ele>548.6</ele>
        <time>1970-01-01T00:26:15.000Z</time>
      </trkpt>
      <trkpt lat="42.932574" lon="-2.622488">
        <ele>548.4</ele>
        <time>1970-01-01T00:26:16.000Z</time>
      </trkpt>
      <trkpt lat="42.93281" lon="-2.622607">
        <ele>548.4</ele>
        <time>1970-01-01T00:26:19.000Z</time>
      </trkpt>
      <trkpt lat="42.932962" lon="-2.622681">
        <ele>548.2</ele>
        <time>1970-01-01T00:26:21.000Z</time>
      </trkpt>
      <trkpt lat="42.933101" lon="-2.622751">
        <ele>548.2</ele>
        <time>1970-01-01T00:26:23.000Z</time>
      </trkpt>
      <trkpt lat="42.933235" lon="-2.622817">
        <ele>548.2</ele>
        <time>1970-01-01T00:26:25.000Z</time>
      </trkpt>
      <trkpt lat="42.933302" lon="-2.622849">
        <ele>548.2</ele>
        <time>1970-01-01T00:26:26.000Z</time>
      </trkpt>
      <trkpt lat="42.933561" lon="-2.62299">
        <ele>549.2</ele>
        <time>1970-01-01T00:26:30.000Z</time>
      </trkpt>
      <trkpt lat="42.933887" lon="-2.623166">
        <ele>551.4</ele>
        <time>1970-01-01T00:26:35.000Z</time>
      </trkpt>
      <trkpt lat="42.93396" lon="-2.623179">
        <ele>551.6</ele>
        <time>1970-01-01T00:26:36.000Z</time>
      </trkpt>
      <trkpt lat="42.934506" lon="-2.623246">
        <ele>553</ele>
        <time>1970-01-01T00:26:43.000Z</time>
      </trkpt>
      <trkpt lat="42.934758" lon="-2.623247">
        <ele>553</ele>
        <time>1970-01-01T00:26:46.000Z</time>
      </trkpt>
      <trkpt lat="42.93493" lon="-2.623251">
        <ele>553</ele>
        <time>1970-01-01T00:26:48.000Z</time>
      </trkpt>
      <trkpt lat="42.935016" lon="-2.62325">
        <ele>553</ele>
        <time>1970-01-01T00:26:49.000Z</time>
      </trkpt>
      <trkpt lat="42.935103" lon="-2.623245">
        <ele>553</ele>
        <time>1970-01-01T00:26:50.000Z</time>
      </trkpt>
      <trkpt lat="42.935642" lon="-2.623204">
        <ele>552</ele>
        <time>1970-01-01T00:26:56.000Z</time>
      </trkpt>
      <trkpt lat="42.935917" lon="-2.623187">
        <ele>551</ele>
        <time>1970-01-01T00:26:59.000Z</time>
      </trkpt>
      <trkpt lat="42.936009" lon="-2.623178">
        <ele>551</ele>
        <time>1970-01-01T00:27:00.000Z</time>
      </trkpt>
      <trkpt lat="42.93638" lon="-2.623136">
        <ele>550</ele>
        <time>1970-01-01T00:27:04.000Z</time>
      </trkpt>
      <trkpt lat="42.936473" lon="-2.623112">
        <ele>550</ele>
        <time>1970-01-01T00:27:05.000Z</time>
      </trkpt>
      <trkpt lat="42.936823" lon="-2.62294">
        <ele>549.6</ele>
        <time>1970-01-01T00:27:09.000Z</time>
      </trkpt>
      <trkpt lat="42.937111" lon="-2.622679">
        <ele>549</ele>
        <time>1970-01-01T00:27:13.000Z</time>
      </trkpt>
      <trkpt lat="42.937598" lon="-2.622224">
        <ele>548</ele>
        <time>1970-01-01T00:27:20.000Z</time>
      </trkpt>
      <trkpt lat="42.938022" lon="-2.621882">
        <ele>548</ele>
        <time>1970-01-01T00:27:26.000Z</time>
      </trkpt>
      <trkpt lat="42.938082" lon="-2.621822">
        <ele>548.2</ele>
        <time>1970-01-01T00:27:27.000Z</time>
      </trkpt>
      <trkpt lat="42.938132" lon="-2.621753">
        <ele>548.2</ele>
        <time>1970-01-01T00:27:28.000Z</time>
      </trkpt>
      <trkpt lat="42.938257" lon="-2.62151">
        <ele>548.4</ele>
        <time>1970-01-01T00:27:31.000Z</time>
      </trkpt>
      <trkpt lat="42.938331" lon="-2.621343">
        <ele>548.4</ele>
        <time>1970-01-01T00:27:33.000Z</time>
      </trkpt>
      <trkpt lat="42.938506" lon="-2.620898">
        <ele>549.6</ele>
        <time>1970-01-01T00:27:38.000Z</time>
      </trkpt>
      <trkpt lat="42.938585" lon="-2.620708">
        <ele>549.8</ele>
        <time>1970-01-01T00:27:40.000Z</time>
      </trkpt>
      <trkpt lat="42.938754" lon="-2.620282">
        <ele>549.6</ele>
        <time>1970-01-01T00:27:44.000Z</time>
      </trkpt>
      <trkpt lat="42.938794" lon="-2.620164">
        <ele>549.8</ele>
        <time>1970-01-01T00:27:45.000Z</time>
      </trkpt>
      <trkpt lat="42.938827" lon="-2.620041">
        <ele>549.8</ele>
        <time>1970-01-01T00:27:46.000Z</time>
      </trkpt>
      <trkpt lat="42.938847" lon="-2.619788">
        <ele>549.8</ele>
        <time>1970-01-01T00:27:48.000Z</time>
      </trkpt>
      <trkpt lat="42.938833" lon="-2.619665">
        <ele>549.8</ele>
        <time>1970-01-01T00:27:49.000Z</time>
      </trkpt>
      <trkpt lat="42.938807" lon="-2.619549">
        <ele>549.6</ele>
        <time>1970-01-01T00:27:50.000Z</time>
      </trkpt>
      <trkpt lat="42.938726" lon="-2.619346">
        <ele>549.4</ele>
        <time>1970-01-01T00:27:52.000Z</time>
      </trkpt>
      <trkpt lat="42.93865" lon="-2.619147">
        <ele>549</ele>
        <time>1970-01-01T00:27:54.000Z</time>
      </trkpt>
      <trkpt lat="42.938629" lon="-2.619041">
        <ele>549</ele>
        <time>1970-01-01T00:27:55.000Z</time>
      </trkpt>
      <trkpt lat="42.938622" lon="-2.618934">
        <ele>549</ele>
        <time>1970-01-01T00:27:56.000Z</time>
      </trkpt>
      <trkpt lat="42.938634" lon="-2.618708">
        <ele>548.8</ele>
        <time>1970-01-01T00:27:58.000Z</time>
      </trkpt>
      <trkpt lat="42.938674" lon="-2.618481">
        <ele>548.8</ele>
        <time>1970-01-01T00:28:00.000Z</time>
      </trkpt>
      <trkpt lat="42.938755" lon="-2.618008">
        <ele>548.2</ele>
        <time>1970-01-01T00:28:04.000Z</time>
      </trkpt>
      <trkpt lat="42.938811" lon="-2.617664">
        <ele>548</ele>
        <time>1970-01-01T00:28:07.000Z</time>
      </trkpt>
      <trkpt lat="42.938828" lon="-2.617558">
        <ele>548.2</ele>
        <time>1970-01-01T00:28:08.000Z</time>
      </trkpt>
      <trkpt lat="42.938881" lon="-2.617258">
        <ele>548.2</ele>
        <time>1970-01-01T00:28:11.000Z</time>
      </trkpt>
      <trkpt lat="42.938919" lon="-2.617069">
        <ele>548.6</ele>
        <time>1970-01-01T00:28:13.000Z</time>
      </trkpt>
      <trkpt lat="42.938976" lon="-2.616889">
        <ele>548.6</ele>
        <time>1970-01-01T00:28:15.000Z</time>
      </trkpt>
      <trkpt lat="42.93907" lon="-2.616719">
        <ele>548.8</ele>
        <time>1970-01-01T00:28:17.000Z</time>
      </trkpt>
      <trkpt lat="42.939387" lon="-2.616316">
        <ele>549</ele>
        <time>1970-01-01T00:28:22.000Z</time>
      </trkpt>
      <trkpt lat="42.939459" lon="-2.616234">
        <ele>549</ele>
        <time>1970-01-01T00:28:23.000Z</time>
      </trkpt>
      <trkpt lat="42.939594" lon="-2.616044">
        <ele>549</ele>
        <time>1970-01-01T00:28:25.000Z</time>
      </trkpt>
      <trkpt lat="42.939643" lon="-2.615927">
        <ele>549</ele>
        <time>1970-01-01T00:28:26.000Z</time>
      </trkpt>
      <trkpt lat="42.939673" lon="-2.615796">
        <ele>549</ele>
        <time>1970-01-01T00:28:27.000Z</time>
      </trkpt>
      <trkpt lat="42.939686" lon="-2.615654">
        <ele>549</ele>
        <time>1970-01-01T00:28:28.000Z</time>
      </trkpt>
      <trkpt lat="42.939681" lon="-2.615505">
        <ele>549</ele>
        <time>1970-01-01T00:28:29.000Z</time>
      </trkpt>
      <trkpt lat="42.939654" lon="-2.61536">
        <ele>548.6</ele>
        <time>1970-01-01T00:28:30.000Z</time>
      </trkpt>
      <trkpt lat="42.939609" lon="-2.615223">
        <ele>548.4</ele>
        <time>1970-01-01T00:28:31.000Z</time>
      </trkpt>
      <trkpt lat="42.939548" lon="-2.615099">
        <ele>548.4</ele>
        <time>1970-01-01T00:28:32.000Z</time>
      </trkpt>
      <trkpt lat="42.939478" lon="-2.614988">
        <ele>547.8</ele>
        <time>1970-01-01T00:28:33.000Z</time>
      </trkpt>
      <trkpt lat="42.939272" lon="-2.614693">
        <ele>545.6</ele>
        <time>1970-01-01T00:28:36.000Z</time>
      </trkpt>
      <trkpt lat="42.939147" lon="-2.614511">
        <ele>544.4</ele>
        <time>1970-01-01T00:28:38.000Z</time>
      </trkpt>
      <trkpt lat="42.938922" lon="-2.614183">
        <ele>544.2</ele>
        <time>1970-01-01T00:28:42.000Z</time>
      </trkpt>
      <trkpt lat="42.938636" lon="-2.613709">
        <ele>544.8</ele>
        <time>1970-01-01T00:28:48.000Z</time>
      </trkpt>
      <trkpt lat="42.938601" lon="-2.613618">
        <ele>545</ele>
        <time>1970-01-01T00:28:49.000Z</time>
      </trkpt>
      <trkpt lat="42.938406" lon="-2.613042">
        <ele>546.2</ele>
        <time>1970-01-01T00:28:55.000Z</time>
      </trkpt>
      <trkpt lat="42.938365" lon="-2.612942">
        <ele>546</ele>
        <time>1970-01-01T00:28:56.000Z</time>
      </trkpt>
      <trkpt lat="42.938206" lon="-2.612652">
        <ele>546</ele>
        <time>1970-01-01T00:28:59.000Z</time>
      </trkpt>
      <trkpt lat="42.938083" lon="-2.612471">
        <ele>546.2</ele>
        <time>1970-01-01T00:29:01.000Z</time>
      </trkpt>
      <trkpt lat="42.938019" lon="-2.612384">
        <ele>546</ele>
        <time>1970-01-01T00:29:02.000Z</time>
      </trkpt>
      <trkpt lat="42.937955" lon="-2.612299">
        <ele>546</ele>
        <time>1970-01-01T00:29:03.000Z</time>
      </trkpt>
      <trkpt lat="42.937893" lon="-2.612213">
        <ele>545.8</ele>
        <time>1970-01-01T00:29:04.000Z</time>
      </trkpt>
      <trkpt lat="42.937587" lon="-2.611776">
        <ele>544.8</ele>
        <time>1970-01-01T00:29:09.000Z</time>
      </trkpt>
      <trkpt lat="42.937278" lon="-2.611343">
        <ele>544</ele>
        <time>1970-01-01T00:29:14.000Z</time>
      </trkpt>
      <trkpt lat="42.937107" lon="-2.611095">
        <ele>543.8</ele>
        <time>1970-01-01T00:29:17.000Z</time>
      </trkpt>
      <trkpt lat="42.93706" lon="-2.61101">
        <ele>543.8</ele>
        <time>1970-01-01T00:29:18.000Z</time>
      </trkpt>
      <trkpt lat="42.93702" lon="-2.610919">
        <ele>543.8</ele>
        <time>1970-01-01T00:29:19.000Z</time>
      </trkpt>
      <trkpt lat="42.936988" lon="-2.610821">
        <ele>543.8</ele>
        <time>1970-01-01T00:29:20.000Z</time>
      </trkpt>
      <trkpt lat="42.936957" lon="-2.610613">
        <ele>543.8</ele>
        <time>1970-01-01T00:29:22.000Z</time>
      </trkpt>
      <trkpt lat="42.936959" lon="-2.610506">
        <ele>543.8</ele>
        <time>1970-01-01T00:29:23.000Z</time>
      </trkpt>
      <trkpt lat="42.936972" lon="-2.610399">
        <ele>544</ele>
        <time>1970-01-01T00:29:24.000Z</time>
      </trkpt>
      <trkpt lat="42.937027" lon="-2.610189">
        <ele>543.8</ele>
        <time>1970-01-01T00:29:26.000Z</time>
      </trkpt>
      <trkpt lat="42.937242" lon="-2.609687">
        <ele>545</ele>
        <time>1970-01-01T00:29:31.000Z</time>
      </trkpt>
      <trkpt lat="42.93733" lon="-2.609482">
        <ele>545</ele>
        <time>1970-01-01T00:29:33.000Z</time>
      </trkpt>
      <trkpt lat="42.937578" lon="-2.608853">
        <ele>545</ele>
        <time>1970-01-01T00:29:39.000Z</time>
      </trkpt>
      <trkpt lat="42.937605" lon="-2.60874">
        <ele>545</ele>
        <time>1970-01-01T00:29:40.000Z</time>
      </trkpt>
      <trkpt lat="42.937696" lon="-2.608199">
        <ele>544.6</ele>
        <time>1970-01-01T00:29:45.000Z</time>
      </trkpt>
      <trkpt lat="42.937753" lon="-2.60802">
        <ele>544.6</ele>
        <time>1970-01-01T00:29:47.000Z</time>
      </trkpt>
      <trkpt lat="42.937821" lon="-2.607866">
        <ele>544.8</ele>
        <time>1970-01-01T00:29:49.000Z</time>
      </trkpt>
      <trkpt lat="42.937859" lon="-2.607798">
        <ele>544.8</ele>
        <time>1970-01-01T00:29:50.000Z</time>
      </trkpt>
      <trkpt lat="42.937944" lon="-2.607682">
        <ele>544.6</ele>
        <time>1970-01-01T00:29:52.000Z</time>
      </trkpt>
      <trkpt lat="42.937989" lon="-2.607627">
        <ele>544.8</ele>
        <time>1970-01-01T00:29:53.000Z</time>
      </trkpt>
      <trkpt lat="42.938155" lon="-2.607431">
        <ele>545.6</ele>
        <time>1970-01-01T00:29:57.000Z</time>
      </trkpt>
      <trkpt lat="42.938191" lon="-2.607383">
        <ele>545.8</ele>
        <time>1970-01-01T00:29:58.000Z</time>
      </trkpt>
      <trkpt lat="42.938225" lon="-2.607337">
        <ele>545.8</ele>
        <time>1970-01-01T00:29:59.000Z</time>
      </trkpt>
      <trkpt lat="42.938259" lon="-2.607297">
        <ele>546</ele>
        <time>1970-01-01T00:30:00.000Z</time>
      </trkpt>
      <trkpt lat="42.938368" lon="-2.607209">
        <ele>546</ele>
        <time>1970-01-01T00:30:03.000Z</time>
      </trkpt>
      <trkpt lat="42.938409" lon="-2.607188">
        <ele>546</ele>
        <time>1970-01-01T00:30:04.000Z</time>
      </trkpt>
      <trkpt lat="42.938544" lon="-2.607127">
        <ele>546.2</ele>
        <time>1970-01-01T00:30:07.000Z</time>
      </trkpt>
      <trkpt lat="42.938594" lon="-2.607103">
        <ele>546.4</ele>
        <time>1970-01-01T00:30:08.000Z</time>
      </trkpt>
      <trkpt lat="42.938703" lon="-2.607048">
        <ele>546.2</ele>
        <time>1970-01-01T00:30:10.000Z</time>
      </trkpt>
      <trkpt lat="42.938815" lon="-2.606975">
        <ele>546.2</ele>
        <time>1970-01-01T00:30:12.000Z</time>
      </trkpt>
      <trkpt lat="42.938925" lon="-2.60687">
        <ele>546.4</ele>
        <time>1970-01-01T00:30:14.000Z</time>
      </trkpt>
      <trkpt lat="42.939128" lon="-2.60661">
        <ele>545.6</ele>
        <time>1970-01-01T00:30:18.000Z</time>
      </trkpt>
      <trkpt lat="42.939212" lon="-2.606455">
        <ele>545</ele>
        <time>1970-01-01T00:30:20.000Z</time>
      </trkpt>
      <trkpt lat="42.939395" lon="-2.60596">
        <ele>545.2</ele>
        <time>1970-01-01T00:30:26.000Z</time>
      </trkpt>
      <trkpt lat="42.93952" lon="-2.605361">
        <ele>542.8</ele>
        <time>1970-01-01T00:30:33.000Z</time>
      </trkpt>
      <trkpt lat="42.939602" lon="-2.604941">
        <ele>542.6</ele>
        <time>1970-01-01T00:30:38.000Z</time>
      </trkpt>
      <trkpt lat="42.939621" lon="-2.60486">
        <ele>542.8</ele>
        <time>1970-01-01T00:30:39.000Z</time>
      </trkpt>
      <trkpt lat="42.939645" lon="-2.604782">
        <ele>542.6</ele>
        <time>1970-01-01T00:30:40.000Z</time>
      </trkpt>
      <trkpt lat="42.939707" lon="-2.604636">
        <ele>543</ele>
        <time>1970-01-01T00:30:42.000Z</time>
      </trkpt>
      <trkpt lat="42.939782" lon="-2.604506">
        <ele>543.2</ele>
        <time>1970-01-01T00:30:44.000Z</time>
      </trkpt>
      <trkpt lat="42.939824" lon="-2.604446">
        <ele>543</ele>
        <time>1970-01-01T00:30:45.000Z</time>
      </trkpt>
      <trkpt lat="42.939961" lon="-2.60428">
        <ele>543.2</ele>
        <time>1970-01-01T00:30:48.000Z</time>
      </trkpt>
      <trkpt lat="42.940354" lon="-2.603818">
        <ele>543.6</ele>
        <time>1970-01-01T00:30:56.000Z</time>
      </trkpt>
      <trkpt lat="42.940405" lon="-2.603756">
        <ele>543.6</ele>
        <time>1970-01-01T00:30:57.000Z</time>
      </trkpt>
      <trkpt lat="42.940508" lon="-2.603635">
        <ele>543.8</ele>
        <time>1970-01-01T00:30:59.000Z</time>
      </trkpt>
      <trkpt lat="42.940815" lon="-2.603269">
        <ele>544</ele>
        <time>1970-01-01T00:31:05.000Z</time>
      </trkpt>
      <trkpt lat="42.940865" lon="-2.603211">
        <ele>543.8</ele>
        <time>1970-01-01T00:31:06.000Z</time>
      </trkpt>
      <trkpt lat="42.941068" lon="-2.602998">
        <ele>544</ele>
        <time>1970-01-01T00:31:10.000Z</time>
      </trkpt>
      <trkpt lat="42.941179" lon="-2.602913">
        <ele>544</ele>
        <time>1970-01-01T00:31:12.000Z</time>
      </trkpt>
      <trkpt lat="42.941293" lon="-2.602844">
        <ele>544.4</ele>
        <time>1970-01-01T00:31:14.000Z</time>
      </trkpt>
      <trkpt lat="42.94147" lon="-2.60277">
        <ele>545</ele>
        <time>1970-01-01T00:31:17.000Z</time>
      </trkpt>
      <trkpt lat="42.941531" lon="-2.602753">
        <ele>545.2</ele>
        <time>1970-01-01T00:31:18.000Z</time>
      </trkpt>
      <trkpt lat="42.941722" lon="-2.602727">
        <ele>546.2</ele>
        <time>1970-01-01T00:31:21.000Z</time>
      </trkpt>
      <trkpt lat="42.941932" lon="-2.602733">
        <ele>546.6</ele>
        <time>1970-01-01T00:31:24.000Z</time>
      </trkpt>
      <trkpt lat="42.942006" lon="-2.602744">
        <ele>546.6</ele>
        <time>1970-01-01T00:31:25.000Z</time>
      </trkpt>
      <trkpt lat="42.942161" lon="-2.602771">
        <ele>546.8</ele>
        <time>1970-01-01T00:31:27.000Z</time>
      </trkpt>
      <trkpt lat="42.942398" lon="-2.602817">
        <ele>546.8</ele>
        <time>1970-01-01T00:31:30.000Z</time>
      </trkpt>
      <trkpt lat="42.942477" lon="-2.602836">
        <ele>546.8</ele>
        <time>1970-01-01T00:31:31.000Z</time>
      </trkpt>
      <trkpt lat="42.942711" lon="-2.60292">
        <ele>546.4</ele>
        <time>1970-01-01T00:31:34.000Z</time>
      </trkpt>
      <trkpt lat="42.942865" lon="-2.602999">
        <ele>545.8</ele>
        <time>1970-01-01T00:31:36.000Z</time>
      </trkpt>
      <trkpt lat="42.943088" lon="-2.603132">
        <ele>545</ele>
        <time>1970-01-01T00:31:39.000Z</time>
      </trkpt>
      <trkpt lat="42.943593" lon="-2.60344">
        <ele>544.6</ele>
        <time>1970-01-01T00:31:46.000Z</time>
      </trkpt>
      <trkpt lat="42.944042" lon="-2.603806">
        <ele>544.8</ele>
        <time>1970-01-01T00:31:53.000Z</time>
      </trkpt>
      <trkpt lat="42.944489" lon="-2.60422">
        <ele>545.4</ele>
        <time>1970-01-01T00:32:00.000Z</time>
      </trkpt>
      <trkpt lat="42.944553" lon="-2.604281">
        <ele>545.4</ele>
        <time>1970-01-01T00:32:01.000Z</time>
      </trkpt>
      <trkpt lat="42.945045" lon="-2.604783">
        <ele>545.6</ele>
        <time>1970-01-01T00:32:09.000Z</time>
      </trkpt>
      <trkpt lat="42.945104" lon="-2.604851">
        <ele>545.4</ele>
        <time>1970-01-01T00:32:10.000Z</time>
      </trkpt>
      <trkpt lat="42.945516" lon="-2.605343">
        <ele>545.6</ele>
        <time>1970-01-01T00:32:17.000Z</time>
      </trkpt>
      <trkpt lat="42.945751" lon="-2.605626">
        <ele>545.6</ele>
        <time>1970-01-01T00:32:21.000Z</time>
      </trkpt>
      <trkpt lat="42.945872" lon="-2.605766">
        <ele>545.6</ele>
        <time>1970-01-01T00:32:23.000Z</time>
      </trkpt>
      <trkpt lat="42.946296" lon="-2.606256">
        <ele>545.2</ele>
        <time>1970-01-01T00:32:30.000Z</time>
      </trkpt>
      <trkpt lat="42.94648" lon="-2.606469">
        <ele>545.2</ele>
        <time>1970-01-01T00:32:33.000Z</time>
      </trkpt>
      <trkpt lat="42.946903" lon="-2.606962">
        <ele>545.2</ele>
        <time>1970-01-01T00:32:40.000Z</time>
      </trkpt>
      <trkpt lat="42.947017" lon="-2.607093">
        <ele>545.2</ele>
        <time>1970-01-01T00:32:42.000Z</time>
      </trkpt>
      <trkpt lat="42.947072" lon="-2.607157">
        <ele>545.2</ele>
        <time>1970-01-01T00:32:43.000Z</time>
      </trkpt>
      <trkpt lat="42.947234" lon="-2.607349">
        <ele>545.4</ele>
        <time>1970-01-01T00:32:46.000Z</time>
      </trkpt>
      <trkpt lat="42.947446" lon="-2.607596">
        <ele>545.8</ele>
        <time>1970-01-01T00:32:50.000Z</time>
      </trkpt>
      <trkpt lat="42.947497" lon="-2.607657">
        <ele>546.2</ele>
        <time>1970-01-01T00:32:51.000Z</time>
      </trkpt>
      <trkpt lat="42.947651" lon="-2.607838">
        <ele>546.8</ele>
        <time>1970-01-01T00:32:54.000Z</time>
      </trkpt>
      <trkpt lat="42.947903" lon="-2.608135">
        <ele>548.4</ele>
        <time>1970-01-01T00:32:59.000Z</time>
      </trkpt>
      <trkpt lat="42.947955" lon="-2.608194">
        <ele>548.8</ele>
        <time>1970-01-01T00:33:00.000Z</time>
      </trkpt>
      <trkpt lat="42.94825" lon="-2.608533">
        <ele>550</ele>
        <time>1970-01-01T00:33:06.000Z</time>
      </trkpt>
      <trkpt lat="42.948356" lon="-2.608628">
        <ele>550.4</ele>
        <time>1970-01-01T00:33:08.000Z</time>
      </trkpt>
      <trkpt lat="42.948412" lon="-2.608669">
        <ele>550.6</ele>
        <time>1970-01-01T00:33:09.000Z</time>
      </trkpt>
      <trkpt lat="42.948533" lon="-2.608726">
        <ele>551.4</ele>
        <time>1970-01-01T00:33:11.000Z</time>
      </trkpt>
      <trkpt lat="42.948598" lon="-2.60874">
        <ele>551.6</ele>
        <time>1970-01-01T00:33:12.000Z</time>
      </trkpt>
      <trkpt lat="42.948665" lon="-2.608738">
        <ele>551.8</ele>
        <time>1970-01-01T00:33:13.000Z</time>
      </trkpt>
      <trkpt lat="42.948806" lon="-2.608682">
        <ele>552</ele>
        <time>1970-01-01T00:33:15.000Z</time>
      </trkpt>
      <trkpt lat="42.948942" lon="-2.608561">
        <ele>552.2</ele>
        <time>1970-01-01T00:33:17.000Z</time>
      </trkpt>
      <trkpt lat="42.949076" lon="-2.608409">
        <ele>552</ele>
        <time>1970-01-01T00:33:19.000Z</time>
      </trkpt>
      <trkpt lat="42.949524" lon="-2.607885">
        <ele>551</ele>
        <time>1970-01-01T00:33:26.000Z</time>
      </trkpt>
      <trkpt lat="42.949582" lon="-2.607819">
        <ele>550.6</ele>
        <time>1970-01-01T00:33:27.000Z</time>
      </trkpt>
      <trkpt lat="42.949792" lon="-2.607565">
        <ele>550.6</ele>
        <time>1970-01-01T00:33:31.000Z</time>
      </trkpt>
      <trkpt lat="42.949942" lon="-2.607385">
        <ele>550.4</ele>
        <time>1970-01-01T00:33:34.000Z</time>
      </trkpt>
      <trkpt lat="42.949992" lon="-2.607328">
        <ele>550.6</ele>
        <time>1970-01-01T00:33:35.000Z</time>
      </trkpt>
      <trkpt lat="42.950091" lon="-2.607229">
        <ele>550.8</ele>
        <time>1970-01-01T00:33:37.000Z</time>
      </trkpt>
      <trkpt lat="42.950194" lon="-2.607154">
        <ele>551.4</ele>
        <time>1970-01-01T00:33:39.000Z</time>
      </trkpt>
      <trkpt lat="42.950249" lon="-2.607128">
        <ele>551.8</ele>
        <time>1970-01-01T00:33:40.000Z</time>
      </trkpt>
      <trkpt lat="42.950359" lon="-2.607096">
        <ele>552.8</ele>
        <time>1970-01-01T00:33:42.000Z</time>
      </trkpt>
      <trkpt lat="42.95053" lon="-2.607111">
        <ele>554.4</ele>
        <time>1970-01-01T00:33:45.000Z</time>
      </trkpt>
      <trkpt lat="42.950752" lon="-2.607241">
        <ele>557.2</ele>
        <time>1970-01-01T00:33:49.000Z</time>
      </trkpt>
      <trkpt lat="42.95081" lon="-2.607292">
        <ele>557.2</ele>
        <time>1970-01-01T00:33:50.000Z</time>
      </trkpt>
      <trkpt lat="42.950869" lon="-2.607349">
        <ele>557.6</ele>
        <time>1970-01-01T00:33:51.000Z</time>
      </trkpt>
      <trkpt lat="42.950993" lon="-2.607484">
        <ele>557.6</ele>
        <time>1970-01-01T00:33:53.000Z</time>
      </trkpt>
      <trkpt lat="42.951128" lon="-2.607635">
        <ele>557.8</ele>
        <time>1970-01-01T00:33:55.000Z</time>
      </trkpt>
      <trkpt lat="42.951198" lon="-2.607716">
        <ele>557.8</ele>
        <time>1970-01-01T00:33:56.000Z</time>
      </trkpt>
      <trkpt lat="42.951272" lon="-2.607798">
        <ele>557.8</ele>
        <time>1970-01-01T00:33:57.000Z</time>
      </trkpt>
      <trkpt lat="42.951427" lon="-2.607967">
        <ele>557.6</ele>
        <time>1970-01-01T00:33:59.000Z</time>
      </trkpt>
      <trkpt lat="42.951586" lon="-2.608143">
        <ele>557.4</ele>
        <time>1970-01-01T00:34:01.000Z</time>
      </trkpt>
      <trkpt lat="42.951756" lon="-2.608314">
        <ele>556</ele>
        <time>1970-01-01T00:34:03.000Z</time>
      </trkpt>
      <trkpt lat="42.951944" lon="-2.608457">
        <ele>554.8</ele>
        <time>1970-01-01T00:34:05.000Z</time>
      </trkpt>
      <trkpt lat="42.95205" lon="-2.608501">
        <ele>553.8</ele>
        <time>1970-01-01T00:34:06.000Z</time>
      </trkpt>
      <trkpt lat="42.952161" lon="-2.608528">
        <ele>553.2</ele>
        <time>1970-01-01T00:34:07.000Z</time>
      </trkpt>
      <trkpt lat="42.952388" lon="-2.608574">
        <ele>551.6</ele>
        <time>1970-01-01T00:34:09.000Z</time>
      </trkpt>
      <trkpt lat="42.95262" lon="-2.608622">
        <ele>550.4</ele>
        <time>1970-01-01T00:34:11.000Z</time>
      </trkpt>
      <trkpt lat="42.952737" lon="-2.608646">
        <ele>549.6</ele>
        <time>1970-01-01T00:34:12.000Z</time>
      </trkpt>
      <trkpt lat="42.952975" lon="-2.608673">
        <ele>548.2</ele>
        <time>1970-01-01T00:34:14.000Z</time>
      </trkpt>
      <trkpt lat="42.953092" lon="-2.608653">
        <ele>547.2</ele>
        <time>1970-01-01T00:34:15.000Z</time>
      </trkpt>
      <trkpt lat="42.953201" lon="-2.608601">
        <ele>546.8</ele>
        <time>1970-01-01T00:34:16.000Z</time>
      </trkpt>
      <trkpt lat="42.953296" lon="-2.608518">
        <ele>546</ele>
        <time>1970-01-01T00:34:17.000Z</time>
      </trkpt>
      <trkpt lat="42.953373" lon="-2.608412">
        <ele>545</ele>
        <time>1970-01-01T00:34:18.000Z</time>
      </trkpt>
      <trkpt lat="42.953491" lon="-2.608175">
        <ele>544.4</ele>
        <time>1970-01-01T00:34:20.000Z</time>
      </trkpt>
      <trkpt lat="42.953601" lon="-2.607962">
        <ele>543</ele>
        <time>1970-01-01T00:34:22.000Z</time>
      </trkpt>
      <trkpt lat="42.953664" lon="-2.607876">
        <ele>542.6</ele>
        <time>1970-01-01T00:34:23.000Z</time>
      </trkpt>
      <trkpt lat="42.953733" lon="-2.607802">
        <ele>542.4</ele>
        <time>1970-01-01T00:34:24.000Z</time>
      </trkpt>
      <trkpt lat="42.953886" lon="-2.607696">
        <ele>542.2</ele>
        <time>1970-01-01T00:34:26.000Z</time>
      </trkpt>
      <trkpt lat="42.953969" lon="-2.607656">
        <ele>542</ele>
        <time>1970-01-01T00:34:27.000Z</time>
      </trkpt>
      <trkpt lat="42.954568" lon="-2.607404">
        <ele>541.8</ele>
        <time>1970-01-01T00:34:34.000Z</time>
      </trkpt>
      <trkpt lat="42.954888" lon="-2.60726">
        <ele>541.6</ele>
        <time>1970-01-01T00:34:38.000Z</time>
      </trkpt>
      <trkpt lat="42.955022" lon="-2.607142">
        <ele>541.6</ele>
        <time>1970-01-01T00:34:40.000Z</time>
      </trkpt>
      <trkpt lat="42.955218" lon="-2.606813">
        <ele>541.6</ele>
        <time>1970-01-01T00:34:44.000Z</time>
      </trkpt>
      <trkpt lat="42.955299" lon="-2.606644">
        <ele>541.6</ele>
        <time>1970-01-01T00:34:46.000Z</time>
      </trkpt>
      <trkpt lat="42.955452" lon="-2.60631">
        <ele>542.2</ele>
        <time>1970-01-01T00:34:50.000Z</time>
      </trkpt>
      <trkpt lat="42.955489" lon="-2.606225">
        <ele>542.4</ele>
        <time>1970-01-01T00:34:51.000Z</time>
      </trkpt>
      <trkpt lat="42.955526" lon="-2.606141">
        <ele>542.4</ele>
        <time>1970-01-01T00:34:52.000Z</time>
      </trkpt>
      <trkpt lat="42.955628" lon="-2.605882">
        <ele>543.4</ele>
        <time>1970-01-01T00:34:55.000Z</time>
      </trkpt>
      <trkpt lat="42.955714" lon="-2.605611">
        <ele>544</ele>
        <time>1970-01-01T00:34:58.000Z</time>
      </trkpt>
      <trkpt lat="42.955781" lon="-2.605346">
        <ele>544.8</ele>
        <time>1970-01-01T00:35:01.000Z</time>
      </trkpt>
      <trkpt lat="42.955805" lon="-2.605261">
        <ele>544.6</ele>
        <time>1970-01-01T00:35:02.000Z</time>
      </trkpt>
      <trkpt lat="42.955857" lon="-2.605091">
        <ele>545</ele>
        <time>1970-01-01T00:35:04.000Z</time>
      </trkpt>
      <trkpt lat="42.955965" lon="-2.604842">
        <ele>545</ele>
        <time>1970-01-01T00:35:07.000Z</time>
      </trkpt>
      <trkpt lat="42.956015" lon="-2.604764">
        <ele>545.2</ele>
        <time>1970-01-01T00:35:08.000Z</time>
      </trkpt>
      <trkpt lat="42.956072" lon="-2.604697">
        <ele>545.4</ele>
        <time>1970-01-01T00:35:09.000Z</time>
      </trkpt>
      <trkpt lat="42.95627" lon="-2.604499">
        <ele>545.4</ele>
        <time>1970-01-01T00:35:12.000Z</time>
      </trkpt>
      <trkpt lat="42.956475" lon="-2.604261">
        <ele>545.4</ele>
        <time>1970-01-01T00:35:15.000Z</time>
      </trkpt>
      <trkpt lat="42.956529" lon="-2.604165">
        <ele>545.4</ele>
        <time>1970-01-01T00:35:16.000Z</time>
      </trkpt>
      <trkpt lat="42.956571" lon="-2.604061">
        <ele>545.2</ele>
        <time>1970-01-01T00:35:17.000Z</time>
      </trkpt>
      <trkpt lat="42.9566" lon="-2.603949">
        <ele>545.4</ele>
        <time>1970-01-01T00:35:18.000Z</time>
      </trkpt>
      <trkpt lat="42.956615" lon="-2.603834">
        <ele>545</ele>
        <time>1970-01-01T00:35:19.000Z</time>
      </trkpt>
      <trkpt lat="42.956606" lon="-2.603607">
        <ele>544</ele>
        <time>1970-01-01T00:35:21.000Z</time>
      </trkpt>
      <trkpt lat="42.956583" lon="-2.603501">
        <ele>543.6</ele>
        <time>1970-01-01T00:35:22.000Z</time>
      </trkpt>
      <trkpt lat="42.956482" lon="-2.60321">
        <ele>543</ele>
        <time>1970-01-01T00:35:25.000Z</time>
      </trkpt>
      <trkpt lat="42.956414" lon="-2.603032">
        <ele>543</ele>
        <time>1970-01-01T00:35:27.000Z</time>
      </trkpt>
      <trkpt lat="42.956383" lon="-2.602948">
        <ele>542.8</ele>
        <time>1970-01-01T00:35:28.000Z</time>
      </trkpt>
      <trkpt lat="42.956287" lon="-2.602713">
        <ele>543</ele>
        <time>1970-01-01T00:35:31.000Z</time>
      </trkpt>
      <trkpt lat="42.95621" lon="-2.602581">
        <ele>543</ele>
        <time>1970-01-01T00:35:33.000Z</time>
      </trkpt>
      <trkpt lat="42.956116" lon="-2.602474">
        <ele>543.4</ele>
        <time>1970-01-01T00:35:35.000Z</time>
      </trkpt>
      <trkpt lat="42.956065" lon="-2.602427">
        <ele>543.8</ele>
        <time>1970-01-01T00:35:36.000Z</time>
      </trkpt>
      <trkpt lat="42.955953" lon="-2.602347">
        <ele>544.6</ele>
        <time>1970-01-01T00:35:38.000Z</time>
      </trkpt>
      <trkpt lat="42.955777" lon="-2.602254">
        <ele>546</ele>
        <time>1970-01-01T00:35:41.000Z</time>
      </trkpt>
      <trkpt lat="42.955611" lon="-2.602184">
        <ele>547</ele>
        <time>1970-01-01T00:35:44.000Z</time>
      </trkpt>
      <trkpt lat="42.955326" lon="-2.602049">
        <ele>548</ele>
        <time>1970-01-01T00:35:49.000Z</time>
      </trkpt>
      <trkpt lat="42.955164" lon="-2.601967">
        <ele>548.6</ele>
        <time>1970-01-01T00:35:52.000Z</time>
      </trkpt>
      <trkpt lat="42.955052" lon="-2.601906">
        <ele>549.4</ele>
        <time>1970-01-01T00:35:54.000Z</time>
      </trkpt>
      <trkpt lat="42.954949" lon="-2.601831">
        <ele>549.8</ele>
        <time>1970-01-01T00:35:56.000Z</time>
      </trkpt>
      <trkpt lat="42.954822" lon="-2.601685">
        <ele>551</ele>
        <time>1970-01-01T00:35:59.000Z</time>
      </trkpt>
      <trkpt lat="42.9547" lon="-2.601437">
        <ele>552</ele>
        <time>1970-01-01T00:36:03.000Z</time>
      </trkpt>
      <trkpt lat="42.954675" lon="-2.601372">
        <ele>552.4</ele>
        <time>1970-01-01T00:36:04.000Z</time>
      </trkpt>
      <trkpt lat="42.954656" lon="-2.601303">
        <ele>552.6</ele>
        <time>1970-01-01T00:36:05.000Z</time>
      </trkpt>
      <trkpt lat="42.954641" lon="-2.60123">
        <ele>553</ele>
        <time>1970-01-01T00:36:06.000Z</time>
      </trkpt>
      <trkpt lat="42.954631" lon="-2.600992">
        <ele>553.8</ele>
        <time>1970-01-01T00:36:09.000Z</time>
      </trkpt>
      <trkpt lat="42.954657" lon="-2.600815">
        <ele>554.2</ele>
        <time>1970-01-01T00:36:11.000Z</time>
      </trkpt>
      <trkpt lat="42.954714" lon="-2.600629">
        <ele>554.4</ele>
        <time>1970-01-01T00:36:13.000Z</time>
      </trkpt>
      <trkpt lat="42.954746" lon="-2.600533">
        <ele>554.4</ele>
        <time>1970-01-01T00:36:14.000Z</time>
      </trkpt>
      <trkpt lat="42.954858" lon="-2.600235">
        <ele>554.4</ele>
        <time>1970-01-01T00:36:17.000Z</time>
      </trkpt>
      <trkpt lat="42.954937" lon="-2.600025">
        <ele>554.4</ele>
        <time>1970-01-01T00:36:19.000Z</time>
      </trkpt>
      <trkpt lat="42.955024" lon="-2.599809">
        <ele>554.2</ele>
        <time>1970-01-01T00:36:21.000Z</time>
      </trkpt>
      <trkpt lat="42.955159" lon="-2.599463">
        <ele>553</ele>
        <time>1970-01-01T00:36:24.000Z</time>
      </trkpt>
      <trkpt lat="42.955203" lon="-2.599344">
        <ele>552.6</ele>
        <time>1970-01-01T00:36:25.000Z</time>
      </trkpt>
      <trkpt lat="42.955375" lon="-2.59888">
        <ele>550.6</ele>
        <time>1970-01-01T00:36:29.000Z</time>
      </trkpt>
      <trkpt lat="42.955486" lon="-2.59856">
        <ele>548.6</ele>
        <time>1970-01-01T00:36:32.000Z</time>
      </trkpt>
      <trkpt lat="42.955521" lon="-2.598458">
        <ele>548.4</ele>
        <time>1970-01-01T00:36:33.000Z</time>
      </trkpt>
      <trkpt lat="42.955652" lon="-2.598086">
        <ele>548.2</ele>
        <time>1970-01-01T00:36:37.000Z</time>
      </trkpt>
      <trkpt lat="42.955715" lon="-2.597917">
        <ele>548.2</ele>
        <time>1970-01-01T00:36:39.000Z</time>
      </trkpt>
      <trkpt lat="42.955913" lon="-2.597381">
        <ele>549.8</ele>
        <time>1970-01-01T00:36:45.000Z</time>
      </trkpt>
      <trkpt lat="42.955982" lon="-2.597183">
        <ele>549.8</ele>
        <time>1970-01-01T00:36:47.000Z</time>
      </trkpt>
      <trkpt lat="42.956059" lon="-2.596976">
        <ele>550.2</ele>
        <time>1970-01-01T00:36:49.000Z</time>
      </trkpt>
      <trkpt lat="42.956215" lon="-2.596556">
        <ele>550</ele>
        <time>1970-01-01T00:36:53.000Z</time>
      </trkpt>
      <trkpt lat="42.956367" lon="-2.596149">
        <ele>549.6</ele>
        <time>1970-01-01T00:36:57.000Z</time>
      </trkpt>
      <trkpt lat="42.956541" lon="-2.595672">
        <ele>549</ele>
        <time>1970-01-01T00:37:02.000Z</time>
      </trkpt>
      <trkpt lat="42.956608" lon="-2.595491">
        <ele>548.8</ele>
        <time>1970-01-01T00:37:04.000Z</time>
      </trkpt>
      <trkpt lat="42.956797" lon="-2.594961">
        <ele>549</ele>
        <time>1970-01-01T00:37:10.000Z</time>
      </trkpt>
      <trkpt lat="42.956894" lon="-2.594702">
        <ele>549.4</ele>
        <time>1970-01-01T00:37:13.000Z</time>
      </trkpt>
      <trkpt lat="42.957154" lon="-2.593999">
        <ele>550.6</ele>
        <time>1970-01-01T00:37:21.000Z</time>
      </trkpt>
      <trkpt lat="42.957269" lon="-2.59363">
        <ele>551</ele>
        <time>1970-01-01T00:37:25.000Z</time>
      </trkpt>
      <trkpt lat="42.957291" lon="-2.593526">
        <ele>551</ele>
        <time>1970-01-01T00:37:26.000Z</time>
      </trkpt>
      <trkpt lat="42.957311" lon="-2.593417">
        <ele>551</ele>
        <time>1970-01-01T00:37:27.000Z</time>
      </trkpt>
      <trkpt lat="42.957331" lon="-2.593306">
        <ele>551</ele>
        <time>1970-01-01T00:37:28.000Z</time>
      </trkpt>
      <trkpt lat="42.95739" lon="-2.592944">
        <ele>551.2</ele>
        <time>1970-01-01T00:37:31.000Z</time>
      </trkpt>
      <trkpt lat="42.95743" lon="-2.592687">
        <ele>551</ele>
        <time>1970-01-01T00:37:33.000Z</time>
      </trkpt>
      <trkpt lat="42.9575" lon="-2.592288">
        <ele>550.4</ele>
        <time>1970-01-01T00:37:36.000Z</time>
      </trkpt>
      <trkpt lat="42.957531" lon="-2.592156">
        <ele>549.8</ele>
        <time>1970-01-01T00:37:37.000Z</time>
      </trkpt>
      <trkpt lat="42.957572" lon="-2.592026">
        <ele>549.2</ele>
        <time>1970-01-01T00:37:38.000Z</time>
      </trkpt>
      <trkpt lat="42.957622" lon="-2.591904">
        <ele>549</ele>
        <time>1970-01-01T00:37:39.000Z</time>
      </trkpt>
      <trkpt lat="42.957755" lon="-2.591692">
        <ele>547.8</ele>
        <time>1970-01-01T00:37:41.000Z</time>
      </trkpt>
      <trkpt lat="42.95783" lon="-2.591603">
        <ele>547.8</ele>
        <time>1970-01-01T00:37:42.000Z</time>
      </trkpt>
      <trkpt lat="42.957908" lon="-2.591528">
        <ele>547.2</ele>
        <time>1970-01-01T00:37:43.000Z</time>
      </trkpt>
      <trkpt lat="42.958041" lon="-2.591397">
        <ele>546.2</ele>
        <time>1970-01-01T00:37:45.000Z</time>
      </trkpt>
      <trkpt lat="42.958099" lon="-2.591232">
        <ele>545.2</ele>
        <time>1970-01-01T00:37:47.000Z</time>
      </trkpt>
      <trkpt lat="42.958056" lon="-2.591065">
        <ele>544.6</ele>
        <time>1970-01-01T00:37:49.000Z</time>
      </trkpt>
      <trkpt lat="42.957941" lon="-2.59098">
        <ele>544.2</ele>
        <time>1970-01-01T00:37:51.000Z</time>
      </trkpt>
      <trkpt lat="42.957872" lon="-2.59095">
        <ele>544.2</ele>
        <time>1970-01-01T00:37:52.000Z</time>
      </trkpt>
      <trkpt lat="42.957801" lon="-2.59092">
        <ele>544</ele>
        <time>1970-01-01T00:37:53.000Z</time>
      </trkpt>
      <trkpt lat="42.957299" lon="-2.590664">
        <ele>543.2</ele>
        <time>1970-01-01T00:38:00.000Z</time>
      </trkpt>
      <trkpt lat="42.957227" lon="-2.590622">
        <ele>543.2</ele>
        <time>1970-01-01T00:38:01.000Z</time>
      </trkpt>
      <trkpt lat="42.957011" lon="-2.590501">
        <ele>542.4</ele>
        <time>1970-01-01T00:38:04.000Z</time>
      </trkpt>
      <trkpt lat="42.956644" lon="-2.590303">
        <ele>542.2</ele>
        <time>1970-01-01T00:38:09.000Z</time>
      </trkpt>
      <trkpt lat="42.956432" lon="-2.590176">
        <ele>541.8</ele>
        <time>1970-01-01T00:38:12.000Z</time>
      </trkpt>
      <trkpt lat="42.956293" lon="-2.590089">
        <ele>541.8</ele>
        <time>1970-01-01T00:38:14.000Z</time>
      </trkpt>
      <trkpt lat="42.956156" lon="-2.590002">
        <ele>541.8</ele>
        <time>1970-01-01T00:38:16.000Z</time>
      </trkpt>
      <trkpt lat="42.956018" lon="-2.589913">
        <ele>541.8</ele>
        <time>1970-01-01T00:38:18.000Z</time>
      </trkpt>
      <trkpt lat="42.955882" lon="-2.589824">
        <ele>542</ele>
        <time>1970-01-01T00:38:20.000Z</time>
      </trkpt>
      <trkpt lat="42.955482" lon="-2.589568">
        <ele>542.4</ele>
        <time>1970-01-01T00:38:26.000Z</time>
      </trkpt>
      <trkpt lat="42.955414" lon="-2.589526">
        <ele>542.4</ele>
        <time>1970-01-01T00:38:27.000Z</time>
      </trkpt>
      <trkpt lat="42.955347" lon="-2.589484">
        <ele>542.4</ele>
        <time>1970-01-01T00:38:28.000Z</time>
      </trkpt>
      <trkpt lat="42.95495" lon="-2.58923">
        <ele>542.8</ele>
        <time>1970-01-01T00:38:34.000Z</time>
      </trkpt>
      <trkpt lat="42.954887" lon="-2.589184">
        <ele>542.8</ele>
        <time>1970-01-01T00:38:35.000Z</time>
      </trkpt>
      <trkpt lat="42.954826" lon="-2.589134">
        <ele>542.8</ele>
        <time>1970-01-01T00:38:36.000Z</time>
      </trkpt>
      <trkpt lat="42.954767" lon="-2.589082">
        <ele>542.8</ele>
        <time>1970-01-01T00:38:37.000Z</time>
      </trkpt>
      <trkpt lat="42.954594" lon="-2.588905">
        <ele>543</ele>
        <time>1970-01-01T00:38:40.000Z</time>
      </trkpt>
      <trkpt lat="42.954232" lon="-2.588417">
        <ele>544.6</ele>
        <time>1970-01-01T00:38:47.000Z</time>
      </trkpt>
      <trkpt lat="42.953854" lon="-2.587799">
        <ele>544.8</ele>
        <time>1970-01-01T00:38:55.000Z</time>
      </trkpt>
      <trkpt lat="42.953625" lon="-2.587409">
        <ele>545.2</ele>
        <time>1970-01-01T00:39:00.000Z</time>
      </trkpt>
      <trkpt lat="42.953264" lon="-2.586811">
        <ele>545.8</ele>
        <time>1970-01-01T00:39:08.000Z</time>
      </trkpt>
      <trkpt lat="42.953084" lon="-2.586511">
        <ele>546</ele>
        <time>1970-01-01T00:39:12.000Z</time>
      </trkpt>
      <trkpt lat="42.952951" lon="-2.586291">
        <ele>546.4</ele>
        <time>1970-01-01T00:39:15.000Z</time>
      </trkpt>
      <trkpt lat="42.952907" lon="-2.586219">
        <ele>546.4</ele>
        <time>1970-01-01T00:39:16.000Z</time>
      </trkpt>
      <trkpt lat="42.952626" lon="-2.585786">
        <ele>546.8</ele>
        <time>1970-01-01T00:39:22.000Z</time>
      </trkpt>
      <trkpt lat="42.95247" lon="-2.585577">
        <ele>546.8</ele>
        <time>1970-01-01T00:39:25.000Z</time>
      </trkpt>
      <trkpt lat="42.952128" lon="-2.585184">
        <ele>546.8</ele>
        <time>1970-01-01T00:39:31.000Z</time>
      </trkpt>
      <trkpt lat="42.951873" lon="-2.584929">
        <ele>546.4</ele>
        <time>1970-01-01T00:39:35.000Z</time>
      </trkpt>
      <trkpt lat="42.95167" lon="-2.584736">
        <ele>546.4</ele>
        <time>1970-01-01T00:39:38.000Z</time>
      </trkpt>
      <trkpt lat="42.951601" lon="-2.584671">
        <ele>546.2</ele>
        <time>1970-01-01T00:39:39.000Z</time>
      </trkpt>
      <trkpt lat="42.951249" lon="-2.584346">
        <ele>545.4</ele>
        <time>1970-01-01T00:39:44.000Z</time>
      </trkpt>
      <trkpt lat="42.950783" lon="-2.583897">
        <ele>543.8</ele>
        <time>1970-01-01T00:39:51.000Z</time>
      </trkpt>
      <trkpt lat="42.950375" lon="-2.583515">
        <ele>543.6</ele>
        <time>1970-01-01T00:39:58.000Z</time>
      </trkpt>
      <trkpt lat="42.950322" lon="-2.583467">
        <ele>543.6</ele>
        <time>1970-01-01T00:39:59.000Z</time>
      </trkpt>
      <trkpt lat="42.950219" lon="-2.583369">
        <ele>543.6</ele>
        <time>1970-01-01T00:40:01.000Z</time>
      </trkpt>
      <trkpt lat="42.950071" lon="-2.583225">
        <ele>544.2</ele>
        <time>1970-01-01T00:40:04.000Z</time>
      </trkpt>
      <trkpt lat="42.950024" lon="-2.583177">
        <ele>544.2</ele>
        <time>1970-01-01T00:40:05.000Z</time>
      </trkpt>
      <trkpt lat="42.949933" lon="-2.583084">
        <ele>545</ele>
        <time>1970-01-01T00:40:07.000Z</time>
      </trkpt>
      <trkpt lat="42.949888" lon="-2.583035">
        <ele>545.6</ele>
        <time>1970-01-01T00:40:08.000Z</time>
      </trkpt>
      <trkpt lat="42.949756" lon="-2.582881">
        <ele>546.8</ele>
        <time>1970-01-01T00:40:11.000Z</time>
      </trkpt>
      <trkpt lat="42.94963" lon="-2.582715">
        <ele>547.4</ele>
        <time>1970-01-01T00:40:14.000Z</time>
      </trkpt>
      <trkpt lat="42.94959" lon="-2.582658">
        <ele>547.6</ele>
        <time>1970-01-01T00:40:15.000Z</time>
      </trkpt>
      <trkpt lat="42.949406" lon="-2.582355">
        <ele>549.4</ele>
        <time>1970-01-01T00:40:20.000Z</time>
      </trkpt>
      <trkpt lat="42.949306" lon="-2.582159">
        <ele>550.4</ele>
        <time>1970-01-01T00:40:23.000Z</time>
      </trkpt>
      <trkpt lat="42.949083" lon="-2.581572">
        <ele>552</ele>
        <time>1970-01-01T00:40:31.000Z</time>
      </trkpt>
      <trkpt lat="42.948933" lon="-2.580886">
        <ele>552.2</ele>
        <time>1970-01-01T00:40:39.000Z</time>
      </trkpt>
      <trkpt lat="42.9489" lon="-2.580594">
        <ele>552.2</ele>
        <time>1970-01-01T00:40:42.000Z</time>
      </trkpt>
      <trkpt lat="42.948873" lon="-2.580173">
        <ele>552.2</ele>
        <time>1970-01-01T00:40:46.000Z</time>
      </trkpt>
      <trkpt lat="42.948868" lon="-2.580062">
        <ele>551.8</ele>
        <time>1970-01-01T00:40:47.000Z</time>
      </trkpt>
      <trkpt lat="42.94885" lon="-2.579613">
        <ele>551.2</ele>
        <time>1970-01-01T00:40:51.000Z</time>
      </trkpt>
      <trkpt lat="42.948845" lon="-2.579501">
        <ele>551.2</ele>
        <time>1970-01-01T00:40:52.000Z</time>
      </trkpt>
      <trkpt lat="42.948838" lon="-2.579389">
        <ele>551.2</ele>
        <time>1970-01-01T00:40:53.000Z</time>
      </trkpt>
      <trkpt lat="42.94882" lon="-2.579166">
        <ele>550.6</ele>
        <time>1970-01-01T00:40:55.000Z</time>
      </trkpt>
      <trkpt lat="42.94881" lon="-2.579054">
        <ele>550.2</ele>
        <time>1970-01-01T00:40:56.000Z</time>
      </trkpt>
      <trkpt lat="42.948763" lon="-2.578728">
        <ele>549.4</ele>
        <time>1970-01-01T00:40:59.000Z</time>
      </trkpt>
      <trkpt lat="42.948701" lon="-2.57841">
        <ele>548.8</ele>
        <time>1970-01-01T00:41:02.000Z</time>
      </trkpt>
      <trkpt lat="42.948561" lon="-2.577909">
        <ele>548.4</ele>
        <time>1970-01-01T00:41:07.000Z</time>
      </trkpt>
      <trkpt lat="42.948468" lon="-2.577621">
        <ele>548.2</ele>
        <time>1970-01-01T00:41:10.000Z</time>
      </trkpt>
      <trkpt lat="42.948285" lon="-2.577071">
        <ele>548.4</ele>
        <time>1970-01-01T00:41:16.000Z</time>
      </trkpt>
      <trkpt lat="42.948195" lon="-2.576803">
        <ele>548.6</ele>
        <time>1970-01-01T00:41:19.000Z</time>
      </trkpt>
      <trkpt lat="42.947948" lon="-2.576097">
        <ele>549.4</ele>
        <time>1970-01-01T00:41:27.000Z</time>
      </trkpt>
      <trkpt lat="42.947743" lon="-2.575588">
        <ele>549.8</ele>
        <time>1970-01-01T00:41:33.000Z</time>
      </trkpt>
      <trkpt lat="42.947553" lon="-2.57518">
        <ele>550.4</ele>
        <time>1970-01-01T00:41:38.000Z</time>
      </trkpt>
      <trkpt lat="42.947353" lon="-2.574788">
        <ele>550.8</ele>
        <time>1970-01-01T00:41:43.000Z</time>
      </trkpt>
      <trkpt lat="42.946999" lon="-2.574199">
        <ele>551.6</ele>
        <time>1970-01-01T00:41:51.000Z</time>
      </trkpt>
      <trkpt lat="42.946908" lon="-2.574057">
        <ele>551.6</ele>
        <time>1970-01-01T00:41:53.000Z</time>
      </trkpt>
      <trkpt lat="42.946611" lon="-2.57367">
        <ele>552</ele>
        <time>1970-01-01T00:41:59.000Z</time>
      </trkpt>
      <trkpt lat="42.946561" lon="-2.573608">
        <ele>552</ele>
        <time>1970-01-01T00:42:00.000Z</time>
      </trkpt>
      <trkpt lat="42.94651" lon="-2.573547">
        <ele>552</ele>
        <time>1970-01-01T00:42:01.000Z</time>
      </trkpt>
      <trkpt lat="42.946456" lon="-2.573487">
        <ele>552.2</ele>
        <time>1970-01-01T00:42:02.000Z</time>
      </trkpt>
      <trkpt lat="42.946403" lon="-2.573427">
        <ele>552.2</ele>
        <time>1970-01-01T00:42:03.000Z</time>
      </trkpt>
      <trkpt lat="42.946191" lon="-2.573193">
        <ele>552.6</ele>
        <time>1970-01-01T00:42:07.000Z</time>
      </trkpt>
      <trkpt lat="42.945746" lon="-2.572713">
        <ele>553.4</ele>
        <time>1970-01-01T00:42:15.000Z</time>
      </trkpt>
      <trkpt lat="42.945298" lon="-2.572231">
        <ele>553.6</ele>
        <time>1970-01-01T00:42:23.000Z</time>
      </trkpt>
      <trkpt lat="42.945186" lon="-2.572106">
        <ele>553.6</ele>
        <time>1970-01-01T00:42:25.000Z</time>
      </trkpt>
      <trkpt lat="42.944749" lon="-2.57159">
        <ele>553.6</ele>
        <time>1970-01-01T00:42:33.000Z</time>
      </trkpt>
      <trkpt lat="42.944696" lon="-2.57152">
        <ele>553.4</ele>
        <time>1970-01-01T00:42:34.000Z</time>
      </trkpt>
      <trkpt lat="42.944379" lon="-2.571078">
        <ele>553.4</ele>
        <time>1970-01-01T00:42:40.000Z</time>
      </trkpt>
      <trkpt lat="42.944278" lon="-2.570922">
        <ele>553.2</ele>
        <time>1970-01-01T00:42:42.000Z</time>
      </trkpt>
      <trkpt lat="42.944228" lon="-2.570841">
        <ele>553.2</ele>
        <time>1970-01-01T00:42:43.000Z</time>
      </trkpt>
      <trkpt lat="42.94418" lon="-2.57076">
        <ele>553.2</ele>
        <time>1970-01-01T00:42:44.000Z</time>
      </trkpt>
      <trkpt lat="42.944132" lon="-2.570679">
        <ele>553</ele>
        <time>1970-01-01T00:42:45.000Z</time>
      </trkpt>
      <trkpt lat="42.944037" lon="-2.57052">
        <ele>553</ele>
        <time>1970-01-01T00:42:47.000Z</time>
      </trkpt>
      <trkpt lat="42.943988" lon="-2.570436">
        <ele>553</ele>
        <time>1970-01-01T00:42:48.000Z</time>
      </trkpt>
      <trkpt lat="42.943703" lon="-2.569915">
        <ele>552.6</ele>
        <time>1970-01-01T00:42:54.000Z</time>
      </trkpt>
      <trkpt lat="42.943473" lon="-2.5695">
        <ele>552</ele>
        <time>1970-01-01T00:42:59.000Z</time>
      </trkpt>
      <trkpt lat="42.943428" lon="-2.569419">
        <ele>552</ele>
        <time>1970-01-01T00:43:00.000Z</time>
      </trkpt>
      <trkpt lat="42.943384" lon="-2.569338">
        <ele>552</ele>
        <time>1970-01-01T00:43:01.000Z</time>
      </trkpt>
      <trkpt lat="42.943339" lon="-2.569256">
        <ele>551.8</ele>
        <time>1970-01-01T00:43:02.000Z</time>
      </trkpt>
      <trkpt lat="42.942993" lon="-2.568615">
        <ele>552</ele>
        <time>1970-01-01T00:43:10.000Z</time>
      </trkpt>
      <trkpt lat="42.942948" lon="-2.568538">
        <ele>552</ele>
        <time>1970-01-01T00:43:11.000Z</time>
      </trkpt>
      <trkpt lat="42.942862" lon="-2.56838">
        <ele>552.2</ele>
        <time>1970-01-01T00:43:13.000Z</time>
      </trkpt>
      <trkpt lat="42.942558" lon="-2.567828">
        <ele>552.6</ele>
        <time>1970-01-01T00:43:20.000Z</time>
      </trkpt>
      <trkpt lat="42.942301" lon="-2.567363">
        <ele>553.6</ele>
        <time>1970-01-01T00:43:26.000Z</time>
      </trkpt>
      <trkpt lat="42.942176" lon="-2.567136">
        <ele>553.8</ele>
        <time>1970-01-01T00:43:29.000Z</time>
      </trkpt>
      <trkpt lat="42.942134" lon="-2.56706">
        <ele>554</ele>
        <time>1970-01-01T00:43:30.000Z</time>
      </trkpt>
      <trkpt lat="42.941881" lon="-2.566603">
        <ele>554.4</ele>
        <time>1970-01-01T00:43:36.000Z</time>
      </trkpt>
      <trkpt lat="42.941714" lon="-2.566297">
        <ele>554.8</ele>
        <time>1970-01-01T00:43:40.000Z</time>
      </trkpt>
      <trkpt lat="42.941673" lon="-2.566219">
        <ele>554.8</ele>
        <time>1970-01-01T00:43:41.000Z</time>
      </trkpt>
      <trkpt lat="42.941416" lon="-2.565756">
        <ele>555.6</ele>
        <time>1970-01-01T00:43:47.000Z</time>
      </trkpt>
      <trkpt lat="42.941169" lon="-2.565301">
        <ele>556.4</ele>
        <time>1970-01-01T00:43:53.000Z</time>
      </trkpt>
      <trkpt lat="42.94097" lon="-2.564938">
        <ele>557.4</ele>
        <time>1970-01-01T00:43:58.000Z</time>
      </trkpt>
      <trkpt lat="42.940774" lon="-2.564576">
        <ele>557.6</ele>
        <time>1970-01-01T00:44:03.000Z</time>
      </trkpt>
      <trkpt lat="42.940451" lon="-2.56399">
        <ele>558.4</ele>
        <time>1970-01-01T00:44:11.000Z</time>
      </trkpt>
      <trkpt lat="42.94011" lon="-2.563377">
        <ele>559</ele>
        <time>1970-01-01T00:44:19.000Z</time>
      </trkpt>
      <trkpt lat="42.939977" lon="-2.563137">
        <ele>559</ele>
        <time>1970-01-01T00:44:22.000Z</time>
      </trkpt>
      <trkpt lat="42.939616" lon="-2.562484">
        <ele>559</ele>
        <time>1970-01-01T00:44:30.000Z</time>
      </trkpt>
      <trkpt lat="42.93952" lon="-2.562314">
        <ele>558.6</ele>
        <time>1970-01-01T00:44:32.000Z</time>
      </trkpt>
      <trkpt lat="42.939424" lon="-2.562139">
        <ele>558.4</ele>
        <time>1970-01-01T00:44:34.000Z</time>
      </trkpt>
      <trkpt lat="42.939327" lon="-2.56196">
        <ele>558.2</ele>
        <time>1970-01-01T00:44:36.000Z</time>
      </trkpt>
      <trkpt lat="42.939124" lon="-2.561592">
        <ele>557.8</ele>
        <time>1970-01-01T00:44:40.000Z</time>
      </trkpt>
      <trkpt lat="42.938963" lon="-2.561301">
        <ele>557</ele>
        <time>1970-01-01T00:44:43.000Z</time>
      </trkpt>
      <trkpt lat="42.938908" lon="-2.561202">
        <ele>557</ele>
        <time>1970-01-01T00:44:44.000Z</time>
      </trkpt>
      <trkpt lat="42.938853" lon="-2.561101">
        <ele>556.4</ele>
        <time>1970-01-01T00:44:45.000Z</time>
      </trkpt>
      <trkpt lat="42.938626" lon="-2.560689">
        <ele>555.6</ele>
        <time>1970-01-01T00:44:49.000Z</time>
      </trkpt>
      <trkpt lat="42.938394" lon="-2.560266">
        <ele>554.4</ele>
        <time>1970-01-01T00:44:53.000Z</time>
      </trkpt>
      <trkpt lat="42.938335" lon="-2.56016">
        <ele>554</ele>
        <time>1970-01-01T00:44:54.000Z</time>
      </trkpt>
      <trkpt lat="42.938039" lon="-2.559623">
        <ele>551.8</ele>
        <time>1970-01-01T00:44:59.000Z</time>
      </trkpt>
      <trkpt lat="42.937745" lon="-2.559094">
        <ele>550.2</ele>
        <time>1970-01-01T00:45:04.000Z</time>
      </trkpt>
      <trkpt lat="42.93763" lon="-2.558887">
        <ele>549.6</ele>
        <time>1970-01-01T00:45:06.000Z</time>
      </trkpt>
      <trkpt lat="42.9373" lon="-2.558284">
        <ele>548.2</ele>
        <time>1970-01-01T00:45:12.000Z</time>
      </trkpt>
      <trkpt lat="42.937142" lon="-2.557994">
        <ele>547.8</ele>
        <time>1970-01-01T00:45:15.000Z</time>
      </trkpt>
      <trkpt lat="42.936785" lon="-2.557331">
        <ele>547</ele>
        <time>1970-01-01T00:45:22.000Z</time>
      </trkpt>
      <trkpt lat="42.936635" lon="-2.557051">
        <ele>546.6</ele>
        <time>1970-01-01T00:45:25.000Z</time>
      </trkpt>
      <trkpt lat="42.936287" lon="-2.556399">
        <ele>546.2</ele>
        <time>1970-01-01T00:45:32.000Z</time>
      </trkpt>
      <trkpt lat="42.936238" lon="-2.556307">
        <ele>546.4</ele>
        <time>1970-01-01T00:45:33.000Z</time>
      </trkpt>
      <trkpt lat="42.936092" lon="-2.55603">
        <ele>546</ele>
        <time>1970-01-01T00:45:36.000Z</time>
      </trkpt>
      <trkpt lat="42.93575" lon="-2.555386">
        <ele>545.4</ele>
        <time>1970-01-01T00:45:43.000Z</time>
      </trkpt>
      <trkpt lat="42.935557" lon="-2.555023">
        <ele>545.2</ele>
        <time>1970-01-01T00:45:47.000Z</time>
      </trkpt>
      <trkpt lat="42.935414" lon="-2.554752">
        <ele>544.8</ele>
        <time>1970-01-01T00:45:50.000Z</time>
      </trkpt>
      <trkpt lat="42.935124" lon="-2.55421">
        <ele>544.6</ele>
        <time>1970-01-01T00:45:56.000Z</time>
      </trkpt>
      <trkpt lat="42.934784" lon="-2.553576">
        <ele>544.2</ele>
        <time>1970-01-01T00:46:03.000Z</time>
      </trkpt>
      <trkpt lat="42.934683" lon="-2.553393">
        <ele>544.2</ele>
        <time>1970-01-01T00:46:05.000Z</time>
      </trkpt>
      <trkpt lat="42.934341" lon="-2.552772">
        <ele>544</ele>
        <time>1970-01-01T00:46:12.000Z</time>
      </trkpt>
      <trkpt lat="42.934252" lon="-2.552608">
        <ele>544.2</ele>
        <time>1970-01-01T00:46:14.000Z</time>
      </trkpt>
      <trkpt lat="42.934118" lon="-2.552372">
        <ele>544</ele>
        <time>1970-01-01T00:46:17.000Z</time>
      </trkpt>
      <trkpt lat="42.933954" lon="-2.552068">
        <ele>544.2</ele>
        <time>1970-01-01T00:46:21.000Z</time>
      </trkpt>
      <trkpt lat="42.933838" lon="-2.551848">
        <ele>545.2</ele>
        <time>1970-01-01T00:46:24.000Z</time>
      </trkpt>
      <trkpt lat="42.933758" lon="-2.551705">
        <ele>546</ele>
        <time>1970-01-01T00:46:26.000Z</time>
      </trkpt>
      <trkpt lat="42.933678" lon="-2.55156">
        <ele>546.6</ele>
        <time>1970-01-01T00:46:28.000Z</time>
      </trkpt>
      <trkpt lat="42.933641" lon="-2.551489">
        <ele>546.8</ele>
        <time>1970-01-01T00:46:29.000Z</time>
      </trkpt>
      <trkpt lat="42.933603" lon="-2.551421">
        <ele>547.2</ele>
        <time>1970-01-01T00:46:30.000Z</time>
      </trkpt>
      <trkpt lat="42.933564" lon="-2.551353">
        <ele>547.4</ele>
        <time>1970-01-01T00:46:31.000Z</time>
      </trkpt>
      <trkpt lat="42.933416" lon="-2.551085">
        <ele>548.2</ele>
        <time>1970-01-01T00:46:35.000Z</time>
      </trkpt>
      <trkpt lat="42.933344" lon="-2.550951">
        <ele>548.8</ele>
        <time>1970-01-01T00:46:37.000Z</time>
      </trkpt>
      <trkpt lat="42.933308" lon="-2.550885">
        <ele>549</ele>
        <time>1970-01-01T00:46:38.000Z</time>
      </trkpt>
      <trkpt lat="42.933273" lon="-2.550819">
        <ele>549</ele>
        <time>1970-01-01T00:46:39.000Z</time>
      </trkpt>
      <trkpt lat="42.933201" lon="-2.550688">
        <ele>549.4</ele>
        <time>1970-01-01T00:46:41.000Z</time>
      </trkpt>
      <trkpt lat="42.933167" lon="-2.550623">
        <ele>549.4</ele>
        <time>1970-01-01T00:46:42.000Z</time>
      </trkpt>
      <trkpt lat="42.933132" lon="-2.550557">
        <ele>549.6</ele>
        <time>1970-01-01T00:46:43.000Z</time>
      </trkpt>
      <trkpt lat="42.933023" lon="-2.550357">
        <ele>550</ele>
        <time>1970-01-01T00:46:46.000Z</time>
      </trkpt>
      <trkpt lat="42.932674" lon="-2.549778">
        <ele>552.8</ele>
        <time>1970-01-01T00:46:55.000Z</time>
      </trkpt>
      <trkpt lat="42.932592" lon="-2.549652">
        <ele>553</ele>
        <time>1970-01-01T00:46:57.000Z</time>
      </trkpt>
      <trkpt lat="42.932182" lon="-2.549133">
        <ele>553.4</ele>
        <time>1970-01-01T00:47:06.000Z</time>
      </trkpt>
      <trkpt lat="42.932133" lon="-2.549078">
        <ele>553.6</ele>
        <time>1970-01-01T00:47:07.000Z</time>
      </trkpt>
      <trkpt lat="42.931661" lon="-2.54861">
        <ele>554</ele>
        <time>1970-01-01T00:47:16.000Z</time>
      </trkpt>
      <trkpt lat="42.931552" lon="-2.548508">
        <ele>554</ele>
        <time>1970-01-01T00:47:18.000Z</time>
      </trkpt>
      <trkpt lat="42.931096" lon="-2.548086">
        <ele>554</ele>
        <time>1970-01-01T00:47:26.000Z</time>
      </trkpt>
      <trkpt lat="42.930858" lon="-2.547865">
        <ele>554.2</ele>
        <time>1970-01-01T00:47:30.000Z</time>
      </trkpt>
      <trkpt lat="42.930486" lon="-2.547516">
        <ele>554</ele>
        <time>1970-01-01T00:47:36.000Z</time>
      </trkpt>
      <trkpt lat="42.930225" lon="-2.547273">
        <ele>553.8</ele>
        <time>1970-01-01T00:47:40.000Z</time>
      </trkpt>
      <trkpt lat="42.930158" lon="-2.547211">
        <ele>553.6</ele>
        <time>1970-01-01T00:47:41.000Z</time>
      </trkpt>
      <trkpt lat="42.930024" lon="-2.547085">
        <ele>553.6</ele>
        <time>1970-01-01T00:47:43.000Z</time>
      </trkpt>
      <trkpt lat="42.92968" lon="-2.546762">
        <ele>552.8</ele>
        <time>1970-01-01T00:47:48.000Z</time>
      </trkpt>
      <trkpt lat="42.929394" lon="-2.546495">
        <ele>551.8</ele>
        <time>1970-01-01T00:47:52.000Z</time>
      </trkpt>
      <trkpt lat="42.929321" lon="-2.546427">
        <ele>551.4</ele>
        <time>1970-01-01T00:47:53.000Z</time>
      </trkpt>
      <trkpt lat="42.929099" lon="-2.546221">
        <ele>550.6</ele>
        <time>1970-01-01T00:47:56.000Z</time>
      </trkpt>
      <trkpt lat="42.92895" lon="-2.546079">
        <ele>550.4</ele>
        <time>1970-01-01T00:47:58.000Z</time>
      </trkpt>
      <trkpt lat="42.928648" lon="-2.545796">
        <ele>549.2</ele>
        <time>1970-01-01T00:48:02.000Z</time>
      </trkpt>
      <trkpt lat="42.928425" lon="-2.545586">
        <ele>548</ele>
        <time>1970-01-01T00:48:05.000Z</time>
      </trkpt>
      <trkpt lat="42.927922" lon="-2.54512">
        <ele>546.6</ele>
        <time>1970-01-01T00:48:12.000Z</time>
      </trkpt>
      <trkpt lat="42.927719" lon="-2.544931">
        <ele>546.2</ele>
        <time>1970-01-01T00:48:15.000Z</time>
      </trkpt>
      <trkpt lat="42.927461" lon="-2.544688">
        <ele>546.4</ele>
        <time>1970-01-01T00:48:19.000Z</time>
      </trkpt>
      <trkpt lat="42.927336" lon="-2.544571">
        <ele>546.2</ele>
        <time>1970-01-01T00:48:21.000Z</time>
      </trkpt>
      <trkpt lat="42.927212" lon="-2.544456">
        <ele>546.2</ele>
        <time>1970-01-01T00:48:23.000Z</time>
      </trkpt>
      <trkpt lat="42.927031" lon="-2.544285">
        <ele>546.8</ele>
        <time>1970-01-01T00:48:26.000Z</time>
      </trkpt>
      <trkpt lat="42.926851" lon="-2.544119">
        <ele>547.4</ele>
        <time>1970-01-01T00:48:29.000Z</time>
      </trkpt>
      <trkpt lat="42.92667" lon="-2.543951">
        <ele>547.8</ele>
        <time>1970-01-01T00:48:32.000Z</time>
      </trkpt>
      <trkpt lat="42.926548" lon="-2.543839">
        <ele>548.2</ele>
        <time>1970-01-01T00:48:34.000Z</time>
      </trkpt>
      <trkpt lat="42.926424" lon="-2.543722">
        <ele>548.4</ele>
        <time>1970-01-01T00:48:36.000Z</time>
      </trkpt>
      <trkpt lat="42.926173" lon="-2.543487">
        <ele>548.8</ele>
        <time>1970-01-01T00:48:40.000Z</time>
      </trkpt>
      <trkpt lat="42.925977" lon="-2.543302">
        <ele>549</ele>
        <time>1970-01-01T00:48:43.000Z</time>
      </trkpt>
      <trkpt lat="42.92572" lon="-2.54306">
        <ele>549.2</ele>
        <time>1970-01-01T00:48:47.000Z</time>
      </trkpt>
      <trkpt lat="42.925657" lon="-2.542999">
        <ele>549.2</ele>
        <time>1970-01-01T00:48:48.000Z</time>
      </trkpt>
      <trkpt lat="42.925337" lon="-2.542704">
        <ele>549.2</ele>
        <time>1970-01-01T00:48:53.000Z</time>
      </trkpt>
      <trkpt lat="42.92485" lon="-2.54223">
        <ele>549.2</ele>
        <time>1970-01-01T00:49:01.000Z</time>
      </trkpt>
      <trkpt lat="42.92474" lon="-2.542104">
        <ele>549.2</ele>
        <time>1970-01-01T00:49:03.000Z</time>
      </trkpt>
      <trkpt lat="42.924634" lon="-2.541975">
        <ele>549.2</ele>
        <time>1970-01-01T00:49:05.000Z</time>
      </trkpt>
      <trkpt lat="42.924407" lon="-2.541612">
        <ele>549.4</ele>
        <time>1970-01-01T00:49:10.000Z</time>
      </trkpt>
      <trkpt lat="42.924198" lon="-2.541136">
        <ele>550.4</ele>
        <time>1970-01-01T00:49:16.000Z</time>
      </trkpt>
      <trkpt lat="42.92417" lon="-2.541054">
        <ele>550.4</ele>
        <time>1970-01-01T00:49:17.000Z</time>
      </trkpt>
      <trkpt lat="42.923998" lon="-2.540476">
        <ele>551</ele>
        <time>1970-01-01T00:49:24.000Z</time>
      </trkpt>
      <trkpt lat="42.923923" lon="-2.54023">
        <ele>551.6</ele>
        <time>1970-01-01T00:49:27.000Z</time>
      </trkpt>
      <trkpt lat="42.923849" lon="-2.539989">
        <ele>552</ele>
        <time>1970-01-01T00:49:30.000Z</time>
      </trkpt>
      <trkpt lat="42.923745" lon="-2.539685">
        <ele>552.6</ele>
        <time>1970-01-01T00:49:34.000Z</time>
      </trkpt>
      <trkpt lat="42.923641" lon="-2.539382">
        <ele>553.4</ele>
        <time>1970-01-01T00:49:38.000Z</time>
      </trkpt>
      <trkpt lat="42.923585" lon="-2.539229">
        <ele>553.8</ele>
        <time>1970-01-01T00:49:40.000Z</time>
      </trkpt>
      <trkpt lat="42.923465" lon="-2.538929">
        <ele>554.8</ele>
        <time>1970-01-01T00:49:44.000Z</time>
      </trkpt>
      <trkpt lat="42.923435" lon="-2.538855">
        <ele>555</ele>
        <time>1970-01-01T00:49:45.000Z</time>
      </trkpt>
      <trkpt lat="42.92323" lon="-2.538331">
        <ele>556.2</ele>
        <time>1970-01-01T00:49:52.000Z</time>
      </trkpt>
      <trkpt lat="42.922954" lon="-2.537662">
        <ele>557.6</ele>
        <time>1970-01-01T00:50:01.000Z</time>
      </trkpt>
      <trkpt lat="42.922895" lon="-2.53751">
        <ele>557.8</ele>
        <time>1970-01-01T00:50:03.000Z</time>
      </trkpt>
      <trkpt lat="42.922833" lon="-2.537362">
        <ele>558</ele>
        <time>1970-01-01T00:50:05.000Z</time>
      </trkpt>
      <trkpt lat="42.92271" lon="-2.537062">
        <ele>558.4</ele>
        <time>1970-01-01T00:50:09.000Z</time>
      </trkpt>
      <trkpt lat="42.922645" lon="-2.536912">
        <ele>558.4</ele>
        <time>1970-01-01T00:50:11.000Z</time>
      </trkpt>
      <trkpt lat="42.922515" lon="-2.536592">
        <ele>558.8</ele>
        <time>1970-01-01T00:50:15.000Z</time>
      </trkpt>
      <trkpt lat="42.922353" lon="-2.536181">
        <ele>559.4</ele>
        <time>1970-01-01T00:50:20.000Z</time>
      </trkpt>
      <trkpt lat="42.922245" lon="-2.53593">
        <ele>559.4</ele>
        <time>1970-01-01T00:50:23.000Z</time>
      </trkpt>
      <trkpt lat="42.922176" lon="-2.535763">
        <ele>559.4</ele>
        <time>1970-01-01T00:50:25.000Z</time>
      </trkpt>
      <trkpt lat="42.922143" lon="-2.535678">
        <ele>559.2</ele>
        <time>1970-01-01T00:50:26.000Z</time>
      </trkpt>
      <trkpt lat="42.922108" lon="-2.535596">
        <ele>559.4</ele>
        <time>1970-01-01T00:50:27.000Z</time>
      </trkpt>
      <trkpt lat="42.922073" lon="-2.535516">
        <ele>559.4</ele>
        <time>1970-01-01T00:50:28.000Z</time>
      </trkpt>
      <trkpt lat="42.922011" lon="-2.535358">
        <ele>559.4</ele>
        <time>1970-01-01T00:50:30.000Z</time>
      </trkpt>
      <trkpt lat="42.921982" lon="-2.53528">
        <ele>559.2</ele>
        <time>1970-01-01T00:50:31.000Z</time>
      </trkpt>
      <trkpt lat="42.921949" lon="-2.535205">
        <ele>559.4</ele>
        <time>1970-01-01T00:50:32.000Z</time>
      </trkpt>
      <trkpt lat="42.921808" lon="-2.53484">
        <ele>559.4</ele>
        <time>1970-01-01T00:50:37.000Z</time>
      </trkpt>
      <trkpt lat="42.921624" lon="-2.534386">
        <ele>561.4</ele>
        <time>1970-01-01T00:50:43.000Z</time>
      </trkpt>
      <trkpt lat="42.921526" lon="-2.534171">
        <ele>561.8</ele>
        <time>1970-01-01T00:50:46.000Z</time>
      </trkpt>
      <trkpt lat="42.921389" lon="-2.533872">
        <ele>562</ele>
        <time>1970-01-01T00:50:50.000Z</time>
      </trkpt>
      <trkpt lat="42.921237" lon="-2.533556">
        <ele>563</ele>
        <time>1970-01-01T00:50:54.000Z</time>
      </trkpt>
      <trkpt lat="42.921152" lon="-2.533379">
        <ele>563.2</ele>
        <time>1970-01-01T00:50:56.000Z</time>
      </trkpt>
      <trkpt lat="42.92106" lon="-2.533188">
        <ele>563.2</ele>
        <time>1970-01-01T00:50:58.000Z</time>
      </trkpt>
      <trkpt lat="42.920962" lon="-2.532987">
        <ele>563.2</ele>
        <time>1970-01-01T00:51:00.000Z</time>
      </trkpt>
      <trkpt lat="42.920857" lon="-2.532782">
        <ele>563.2</ele>
        <time>1970-01-01T00:51:02.000Z</time>
      </trkpt>
      <trkpt lat="42.920742" lon="-2.532569">
        <ele>563</ele>
        <time>1970-01-01T00:51:04.000Z</time>
      </trkpt>
      <trkpt lat="42.920569" lon="-2.532238">
        <ele>561.2</ele>
        <time>1970-01-01T00:51:07.000Z</time>
      </trkpt>
      <trkpt lat="42.920512" lon="-2.532128">
        <ele>560.6</ele>
        <time>1970-01-01T00:51:08.000Z</time>
      </trkpt>
      <trkpt lat="42.920397" lon="-2.531904">
        <ele>559.2</ele>
        <time>1970-01-01T00:51:10.000Z</time>
      </trkpt>
      <trkpt lat="42.920277" lon="-2.53167">
        <ele>557.8</ele>
        <time>1970-01-01T00:51:12.000Z</time>
      </trkpt>
      <trkpt lat="42.920089" lon="-2.531306">
        <ele>556.4</ele>
        <time>1970-01-01T00:51:15.000Z</time>
      </trkpt>
      <trkpt lat="42.91996" lon="-2.531057">
        <ele>555.4</ele>
        <time>1970-01-01T00:51:17.000Z</time>
      </trkpt>
      <trkpt lat="42.919769" lon="-2.530684">
        <ele>554.2</ele>
        <time>1970-01-01T00:51:20.000Z</time>
      </trkpt>
      <trkpt lat="42.919587" lon="-2.530312">
        <ele>552</ele>
        <time>1970-01-01T00:51:23.000Z</time>
      </trkpt>
      <trkpt lat="42.91953" lon="-2.530186">
        <ele>551.4</ele>
        <time>1970-01-01T00:51:24.000Z</time>
      </trkpt>
      <trkpt lat="42.919365" lon="-2.529639">
        <ele>549</ele>
        <time>1970-01-01T00:51:28.000Z</time>
      </trkpt>
      <trkpt lat="42.919342" lon="-2.529499">
        <ele>548.6</ele>
        <time>1970-01-01T00:51:29.000Z</time>
      </trkpt>
      <trkpt lat="42.919306" lon="-2.529074">
        <ele>547.4</ele>
        <time>1970-01-01T00:51:32.000Z</time>
      </trkpt>
      <trkpt lat="42.9193" lon="-2.528928">
        <ele>547.2</ele>
        <time>1970-01-01T00:51:33.000Z</time>
      </trkpt>
      <trkpt lat="42.919283" lon="-2.528351">
        <ele>546.2</ele>
        <time>1970-01-01T00:51:37.000Z</time>
      </trkpt>
      <trkpt lat="42.919274" lon="-2.527796">
        <ele>545.6</ele>
        <time>1970-01-01T00:51:41.000Z</time>
      </trkpt>
      <trkpt lat="42.919262" lon="-2.527034">
        <ele>544.2</ele>
        <time>1970-01-01T00:51:47.000Z</time>
      </trkpt>
      <trkpt lat="42.91926" lon="-2.526911">
        <ele>544</ele>
        <time>1970-01-01T00:51:48.000Z</time>
      </trkpt>
      <trkpt lat="42.919249" lon="-2.52621">
        <ele>544</ele>
        <time>1970-01-01T00:51:54.000Z</time>
      </trkpt>
      <trkpt lat="42.91924" lon="-2.525993">
        <ele>543.8</ele>
        <time>1970-01-01T00:51:56.000Z</time>
      </trkpt>
      <trkpt lat="42.919233" lon="-2.525789">
        <ele>544</ele>
        <time>1970-01-01T00:51:58.000Z</time>
      </trkpt>
      <trkpt lat="42.919228" lon="-2.525491">
        <ele>544.2</ele>
        <time>1970-01-01T00:52:01.000Z</time>
      </trkpt>
      <trkpt lat="42.919228" lon="-2.525394">
        <ele>544.4</ele>
        <time>1970-01-01T00:52:02.000Z</time>
      </trkpt>
      <trkpt lat="42.919216" lon="-2.525115">
        <ele>545</ele>
        <time>1970-01-01T00:52:05.000Z</time>
      </trkpt>
      <trkpt lat="42.919207" lon="-2.524848">
        <ele>546</ele>
        <time>1970-01-01T00:52:08.000Z</time>
      </trkpt>
      <trkpt lat="42.919205" lon="-2.524585">
        <ele>547</ele>
        <time>1970-01-01T00:52:11.000Z</time>
      </trkpt>
      <trkpt lat="42.919198" lon="-2.524413">
        <ele>547.8</ele>
        <time>1970-01-01T00:52:13.000Z</time>
      </trkpt>
      <trkpt lat="42.919198" lon="-2.524241">
        <ele>548.8</ele>
        <time>1970-01-01T00:52:15.000Z</time>
      </trkpt>
      <trkpt lat="42.919195" lon="-2.52397">
        <ele>549.8</ele>
        <time>1970-01-01T00:52:18.000Z</time>
      </trkpt>
      <trkpt lat="42.919184" lon="-2.523655">
        <ele>550.6</ele>
        <time>1970-01-01T00:52:21.000Z</time>
      </trkpt>
      <trkpt lat="42.91914" lon="-2.522885">
        <ele>550.8</ele>
        <time>1970-01-01T00:52:28.000Z</time>
      </trkpt>
      <trkpt lat="42.919134" lon="-2.522782">
        <ele>550.8</ele>
        <time>1970-01-01T00:52:29.000Z</time>
      </trkpt>
      <trkpt lat="42.919123" lon="-2.522466">
        <ele>550.6</ele>
        <time>1970-01-01T00:52:32.000Z</time>
      </trkpt>
      <trkpt lat="42.919111" lon="-2.52211">
        <ele>550.2</ele>
        <time>1970-01-01T00:52:35.000Z</time>
      </trkpt>
      <trkpt lat="42.919105" lon="-2.521982">
        <ele>550.4</ele>
        <time>1970-01-01T00:52:36.000Z</time>
      </trkpt>
      <trkpt lat="42.919102" lon="-2.521848">
        <ele>550</ele>
        <time>1970-01-01T00:52:37.000Z</time>
      </trkpt>
      <trkpt lat="42.919097" lon="-2.521712">
        <ele>550</ele>
        <time>1970-01-01T00:52:38.000Z</time>
      </trkpt>
      <trkpt lat="42.919094" lon="-2.521574">
        <ele>549.8</ele>
        <time>1970-01-01T00:52:39.000Z</time>
      </trkpt>
      <trkpt lat="42.919089" lon="-2.521435">
        <ele>549.8</ele>
        <time>1970-01-01T00:52:40.000Z</time>
      </trkpt>
      <trkpt lat="42.919083" lon="-2.521294">
        <ele>549.6</ele>
        <time>1970-01-01T00:52:41.000Z</time>
      </trkpt>
      <trkpt lat="42.919077" lon="-2.521157">
        <ele>549.4</ele>
        <time>1970-01-01T00:52:42.000Z</time>
      </trkpt>
      <trkpt lat="42.919073" lon="-2.521023">
        <ele>549.2</ele>
        <time>1970-01-01T00:52:43.000Z</time>
      </trkpt>
      <trkpt lat="42.919063" lon="-2.52077">
        <ele>548.8</ele>
        <time>1970-01-01T00:52:45.000Z</time>
      </trkpt>
      <trkpt lat="42.919057" lon="-2.520658">
        <ele>548</ele>
        <time>1970-01-01T00:52:46.000Z</time>
      </trkpt>
      <trkpt lat="42.919044" lon="-2.520351">
        <ele>547.4</ele>
        <time>1970-01-01T00:52:49.000Z</time>
      </trkpt>
      <trkpt lat="42.919022" lon="-2.519728">
        <ele>547.6</ele>
        <time>1970-01-01T00:52:55.000Z</time>
      </trkpt>
      <trkpt lat="42.919014" lon="-2.519389">
        <ele>547.6</ele>
        <time>1970-01-01T00:52:58.000Z</time>
      </trkpt>
      <trkpt lat="42.918999" lon="-2.51859">
        <ele>547.6</ele>
        <time>1970-01-01T00:53:05.000Z</time>
      </trkpt>
      <trkpt lat="42.918986" lon="-2.518021">
        <ele>547.2</ele>
        <time>1970-01-01T00:53:10.000Z</time>
      </trkpt>
      <trkpt lat="42.918983" lon="-2.51791">
        <ele>547.2</ele>
        <time>1970-01-01T00:53:11.000Z</time>
      </trkpt>
      <trkpt lat="42.918958" lon="-2.517379">
        <ele>547</ele>
        <time>1970-01-01T00:53:16.000Z</time>
      </trkpt>
      <trkpt lat="42.918954" lon="-2.51728">
        <ele>547</ele>
        <time>1970-01-01T00:53:17.000Z</time>
      </trkpt>
      <trkpt lat="42.918951" lon="-2.517186">
        <ele>546.8</ele>
        <time>1970-01-01T00:53:18.000Z</time>
      </trkpt>
      <trkpt lat="42.918947" lon="-2.517094">
        <ele>546.8</ele>
        <time>1970-01-01T00:53:19.000Z</time>
      </trkpt>
      <trkpt lat="42.918936" lon="-2.51684">
        <ele>546.8</ele>
        <time>1970-01-01T00:53:22.000Z</time>
      </trkpt>
      <trkpt lat="42.918928" lon="-2.516697">
        <ele>547</ele>
        <time>1970-01-01T00:53:24.000Z</time>
      </trkpt>
      <trkpt lat="42.918926" lon="-2.516628">
        <ele>547.2</ele>
        <time>1970-01-01T00:53:25.000Z</time>
      </trkpt>
      <trkpt lat="42.918918" lon="-2.516488">
        <ele>548.2</ele>
        <time>1970-01-01T00:53:27.000Z</time>
      </trkpt>
      <trkpt lat="42.918913" lon="-2.516419">
        <ele>548.6</ele>
        <time>1970-01-01T00:53:28.000Z</time>
      </trkpt>
      <trkpt lat="42.91891" lon="-2.51635">
        <ele>549.2</ele>
        <time>1970-01-01T00:53:29.000Z</time>
      </trkpt>
      <trkpt lat="42.91891" lon="-2.516284">
        <ele>549.6</ele>
        <time>1970-01-01T00:53:30.000Z</time>
      </trkpt>
      <trkpt lat="42.918901" lon="-2.516148">
        <ele>550.8</ele>
        <time>1970-01-01T00:53:32.000Z</time>
      </trkpt>
      <trkpt lat="42.918893" lon="-2.516082">
        <ele>551.4</ele>
        <time>1970-01-01T00:53:33.000Z</time>
      </trkpt>
      <trkpt lat="42.91888" lon="-2.515949">
        <ele>552.6</ele>
        <time>1970-01-01T00:53:35.000Z</time>
      </trkpt>
      <trkpt lat="42.918871" lon="-2.515823">
        <ele>553.6</ele>
        <time>1970-01-01T00:53:37.000Z</time>
      </trkpt>
      <trkpt lat="42.918862" lon="-2.515759">
        <ele>554</ele>
        <time>1970-01-01T00:53:38.000Z</time>
      </trkpt>
      <trkpt lat="42.918846" lon="-2.515632">
        <ele>555.2</ele>
        <time>1970-01-01T00:53:40.000Z</time>
      </trkpt>
      <trkpt lat="42.918831" lon="-2.51551">
        <ele>556.2</ele>
        <time>1970-01-01T00:53:42.000Z</time>
      </trkpt>
      <trkpt lat="42.918813" lon="-2.515385">
        <ele>557.2</ele>
        <time>1970-01-01T00:53:44.000Z</time>
      </trkpt>
      <trkpt lat="42.9188" lon="-2.515266">
        <ele>557.8</ele>
        <time>1970-01-01T00:53:46.000Z</time>
      </trkpt>
      <trkpt lat="42.918795" lon="-2.515206">
        <ele>558.2</ele>
        <time>1970-01-01T00:53:47.000Z</time>
      </trkpt>
      <trkpt lat="42.918791" lon="-2.515142">
        <ele>558.6</ele>
        <time>1970-01-01T00:53:48.000Z</time>
      </trkpt>
      <trkpt lat="42.918776" lon="-2.515015">
        <ele>559.8</ele>
        <time>1970-01-01T00:53:50.000Z</time>
      </trkpt>
      <trkpt lat="42.918758" lon="-2.514894">
        <ele>561</ele>
        <time>1970-01-01T00:53:52.000Z</time>
      </trkpt>
      <trkpt lat="42.918751" lon="-2.514831">
        <ele>561.2</ele>
        <time>1970-01-01T00:53:53.000Z</time>
      </trkpt>
      <trkpt lat="42.918744" lon="-2.514703">
        <ele>562.4</ele>
        <time>1970-01-01T00:53:55.000Z</time>
      </trkpt>
      <trkpt lat="42.918746" lon="-2.514578">
        <ele>563.6</ele>
        <time>1970-01-01T00:53:57.000Z</time>
      </trkpt>
      <trkpt lat="42.918761" lon="-2.514446">
        <ele>564.2</ele>
        <time>1970-01-01T00:53:59.000Z</time>
      </trkpt>
      <trkpt lat="42.918806" lon="-2.514247">
        <ele>565.6</ele>
        <time>1970-01-01T00:54:02.000Z</time>
      </trkpt>
      <trkpt lat="42.91883" lon="-2.514183">
        <ele>566</ele>
        <time>1970-01-01T00:54:03.000Z</time>
      </trkpt>
      <trkpt lat="42.918859" lon="-2.514122">
        <ele>566.4</ele>
        <time>1970-01-01T00:54:04.000Z</time>
      </trkpt>
      <trkpt lat="42.918883" lon="-2.514061">
        <ele>567</ele>
        <time>1970-01-01T00:54:05.000Z</time>
      </trkpt>
      <trkpt lat="42.918952" lon="-2.513877">
        <ele>568.4</ele>
        <time>1970-01-01T00:54:08.000Z</time>
      </trkpt>
      <trkpt lat="42.918975" lon="-2.513816">
        <ele>568.6</ele>
        <time>1970-01-01T00:54:09.000Z</time>
      </trkpt>
      <trkpt lat="42.919079" lon="-2.513422">
        <ele>570.6</ele>
        <time>1970-01-01T00:54:15.000Z</time>
      </trkpt>
      <trkpt lat="42.91909" lon="-2.513353">
        <ele>571</ele>
        <time>1970-01-01T00:54:16.000Z</time>
      </trkpt>
      <trkpt lat="42.919098" lon="-2.513284">
        <ele>571.6</ele>
        <time>1970-01-01T00:54:17.000Z</time>
      </trkpt>
      <trkpt lat="42.919106" lon="-2.512997">
        <ele>572.8</ele>
        <time>1970-01-01T00:54:21.000Z</time>
      </trkpt>
      <trkpt lat="42.91908" lon="-2.512637">
        <ele>573.4</ele>
        <time>1970-01-01T00:54:26.000Z</time>
      </trkpt>
      <trkpt lat="42.919051" lon="-2.512421">
        <ele>573.4</ele>
        <time>1970-01-01T00:54:29.000Z</time>
      </trkpt>
      <trkpt lat="42.918954" lon="-2.511804">
        <ele>574</ele>
        <time>1970-01-01T00:54:37.000Z</time>
      </trkpt>
      <trkpt lat="42.918868" lon="-2.511251">
        <ele>574</ele>
        <time>1970-01-01T00:54:43.000Z</time>
      </trkpt>
      <trkpt lat="42.918853" lon="-2.511151">
        <ele>574</ele>
        <time>1970-01-01T00:54:44.000Z</time>
      </trkpt>
      <trkpt lat="42.918764" lon="-2.510583">
        <ele>573.4</ele>
        <time>1970-01-01T00:54:50.000Z</time>
      </trkpt>
      <trkpt lat="42.91875" lon="-2.510491">
        <ele>573.2</ele>
        <time>1970-01-01T00:54:51.000Z</time>
      </trkpt>
      <trkpt lat="42.918684" lon="-2.510023">
        <ele>572.8</ele>
        <time>1970-01-01T00:54:56.000Z</time>
      </trkpt>
      <trkpt lat="42.918628" lon="-2.509658">
        <ele>572.8</ele>
        <time>1970-01-01T00:55:00.000Z</time>
      </trkpt>
      <trkpt lat="42.918522" lon="-2.508996">
        <ele>572.8</ele>
        <time>1970-01-01T00:55:07.000Z</time>
      </trkpt>
      <trkpt lat="42.918488" lon="-2.508803">
        <ele>573</ele>
        <time>1970-01-01T00:55:09.000Z</time>
      </trkpt>
      <trkpt lat="42.918343" lon="-2.50822">
        <ele>572.8</ele>
        <time>1970-01-01T00:55:15.000Z</time>
      </trkpt>
      <trkpt lat="42.918167" lon="-2.50774">
        <ele>572.8</ele>
        <time>1970-01-01T00:55:20.000Z</time>
      </trkpt>
      <trkpt lat="42.918128" lon="-2.507643">
        <ele>573</ele>
        <time>1970-01-01T00:55:21.000Z</time>
      </trkpt>
      <trkpt lat="42.917851" lon="-2.50711">
        <ele>572.2</ele>
        <time>1970-01-01T00:55:27.000Z</time>
      </trkpt>
      <trkpt lat="42.917563" lon="-2.506713">
        <ele>571.6</ele>
        <time>1970-01-01T00:55:32.000Z</time>
      </trkpt>
      <trkpt lat="42.917499" lon="-2.506639">
        <ele>571.4</ele>
        <time>1970-01-01T00:55:33.000Z</time>
      </trkpt>
      <trkpt lat="42.917022" lon="-2.506161">
        <ele>570.8</ele>
        <time>1970-01-01T00:55:40.000Z</time>
      </trkpt>
      <trkpt lat="42.916955" lon="-2.506097">
        <ele>570.4</ele>
        <time>1970-01-01T00:55:41.000Z</time>
      </trkpt>
      <trkpt lat="42.916889" lon="-2.506033">
        <ele>570.2</ele>
        <time>1970-01-01T00:55:42.000Z</time>
      </trkpt>
      <trkpt lat="42.916824" lon="-2.505969">
        <ele>570.2</ele>
        <time>1970-01-01T00:55:43.000Z</time>
      </trkpt>
      <trkpt lat="42.916438" lon="-2.505588">
        <ele>569.8</ele>
        <time>1970-01-01T00:55:49.000Z</time>
      </trkpt>
      <trkpt lat="42.916172" lon="-2.505316">
        <ele>569.8</ele>
        <time>1970-01-01T00:55:53.000Z</time>
      </trkpt>
      <trkpt lat="42.91596" lon="-2.505103">
        <ele>569.8</ele>
        <time>1970-01-01T00:55:56.000Z</time>
      </trkpt>
      <trkpt lat="42.915813" lon="-2.504955">
        <ele>569.4</ele>
        <time>1970-01-01T00:55:58.000Z</time>
      </trkpt>
      <trkpt lat="42.915656" lon="-2.504799">
        <ele>569</ele>
        <time>1970-01-01T00:56:00.000Z</time>
      </trkpt>
      <trkpt lat="42.915502" lon="-2.504644">
        <ele>568.8</ele>
        <time>1970-01-01T00:56:02.000Z</time>
      </trkpt>
      <trkpt lat="42.915431" lon="-2.504575">
        <ele>568.6</ele>
        <time>1970-01-01T00:56:03.000Z</time>
      </trkpt>
      <trkpt lat="42.915326" lon="-2.504451">
        <ele>567.8</ele>
        <time>1970-01-01T00:56:05.000Z</time>
      </trkpt>
      <trkpt lat="42.915294" lon="-2.504382">
        <ele>567.4</ele>
        <time>1970-01-01T00:56:06.000Z</time>
      </trkpt>
      <trkpt lat="42.91528" lon="-2.504305">
        <ele>566.8</ele>
        <time>1970-01-01T00:56:07.000Z</time>
      </trkpt>
      <trkpt lat="42.915316" lon="-2.504146">
        <ele>565.6</ele>
        <time>1970-01-01T00:56:09.000Z</time>
      </trkpt>
      <trkpt lat="42.915385" lon="-2.503988">
        <ele>564.8</ele>
        <time>1970-01-01T00:56:11.000Z</time>
      </trkpt>
      <trkpt lat="42.915442" lon="-2.50381">
        <ele>564.6</ele>
        <time>1970-01-01T00:56:13.000Z</time>
      </trkpt>
      <trkpt lat="42.915466" lon="-2.503717">
        <ele>564.4</ele>
        <time>1970-01-01T00:56:14.000Z</time>
      </trkpt>
      <trkpt lat="42.915513" lon="-2.503523">
        <ele>564.4</ele>
        <time>1970-01-01T00:56:16.000Z</time>
      </trkpt>
      <trkpt lat="42.915663" lon="-2.502895">
        <ele>563.8</ele>
        <time>1970-01-01T00:56:22.000Z</time>
      </trkpt>
      <trkpt lat="42.915793" lon="-2.502336">
        <ele>563</ele>
        <time>1970-01-01T00:56:27.000Z</time>
      </trkpt>
      <trkpt lat="42.915897" lon="-2.501884">
        <ele>562.4</ele>
        <time>1970-01-01T00:56:31.000Z</time>
      </trkpt>
      <trkpt lat="42.915977" lon="-2.501545">
        <ele>561.8</ele>
        <time>1970-01-01T00:56:34.000Z</time>
      </trkpt>
      <trkpt lat="42.916162" lon="-2.500756">
        <ele>560.4</ele>
        <time>1970-01-01T00:56:41.000Z</time>
      </trkpt>
      <trkpt lat="42.916188" lon="-2.500645">
        <ele>560.6</ele>
        <time>1970-01-01T00:56:42.000Z</time>
      </trkpt>
      <trkpt lat="42.916214" lon="-2.500535">
        <ele>560.6</ele>
        <time>1970-01-01T00:56:43.000Z</time>
      </trkpt>
      <trkpt lat="42.91639" lon="-2.499774">
        <ele>559.4</ele>
        <time>1970-01-01T00:56:50.000Z</time>
      </trkpt>
      <trkpt lat="42.916466" lon="-2.499457">
        <ele>559.4</ele>
        <time>1970-01-01T00:56:53.000Z</time>
      </trkpt>
      <trkpt lat="42.916646" lon="-2.498689">
        <ele>559.2</ele>
        <time>1970-01-01T00:57:00.000Z</time>
      </trkpt>
      <trkpt lat="42.916723" lon="-2.498355">
        <ele>559</ele>
        <time>1970-01-01T00:57:03.000Z</time>
      </trkpt>
      <trkpt lat="42.9169" lon="-2.497602">
        <ele>558.2</ele>
        <time>1970-01-01T00:57:10.000Z</time>
      </trkpt>
      <trkpt lat="42.916948" lon="-2.497389">
        <ele>558.2</ele>
        <time>1970-01-01T00:57:12.000Z</time>
      </trkpt>
      <trkpt lat="42.917088" lon="-2.496741">
        <ele>558</ele>
        <time>1970-01-01T00:57:18.000Z</time>
      </trkpt>
      <trkpt lat="42.917111" lon="-2.496507">
        <ele>558</ele>
        <time>1970-01-01T00:57:20.000Z</time>
      </trkpt>
      <trkpt lat="42.917097" lon="-2.496265">
        <ele>558</ele>
        <time>1970-01-01T00:57:22.000Z</time>
      </trkpt>
      <trkpt lat="42.917075" lon="-2.496018">
        <ele>557.8</ele>
        <time>1970-01-01T00:57:24.000Z</time>
      </trkpt>
      <trkpt lat="42.9171" lon="-2.495766">
        <ele>557.2</ele>
        <time>1970-01-01T00:57:26.000Z</time>
      </trkpt>
      <trkpt lat="42.917123" lon="-2.495642">
        <ele>556.8</ele>
        <time>1970-01-01T00:57:27.000Z</time>
      </trkpt>
      <trkpt lat="42.917252" lon="-2.495028">
        <ele>555.2</ele>
        <time>1970-01-01T00:57:32.000Z</time>
      </trkpt>
      <trkpt lat="42.917262" lon="-2.494901">
        <ele>554.6</ele>
        <time>1970-01-01T00:57:33.000Z</time>
      </trkpt>
      <trkpt lat="42.917303" lon="-2.494164">
        <ele>553.6</ele>
        <time>1970-01-01T00:57:39.000Z</time>
      </trkpt>
      <trkpt lat="42.91734" lon="-2.493806">
        <ele>552.8</ele>
        <time>1970-01-01T00:57:42.000Z</time>
      </trkpt>
      <trkpt lat="42.917359" lon="-2.493569">
        <ele>552.6</ele>
        <time>1970-01-01T00:57:44.000Z</time>
      </trkpt>
      <trkpt lat="42.917372" lon="-2.493213">
        <ele>552.2</ele>
        <time>1970-01-01T00:57:47.000Z</time>
      </trkpt>
      <trkpt lat="42.917381" lon="-2.492505">
        <ele>551.8</ele>
        <time>1970-01-01T00:57:53.000Z</time>
      </trkpt>
      <trkpt lat="42.917386" lon="-2.492267">
        <ele>551.6</ele>
        <time>1970-01-01T00:57:55.000Z</time>
      </trkpt>
      <trkpt lat="42.91739" lon="-2.491901">
        <ele>551.4</ele>
        <time>1970-01-01T00:57:58.000Z</time>
      </trkpt>
      <trkpt lat="42.917393" lon="-2.491414">
        <ele>551.4</ele>
        <time>1970-01-01T00:58:02.000Z</time>
      </trkpt>
      <trkpt lat="42.917394" lon="-2.491178">
        <ele>551</ele>
        <time>1970-01-01T00:58:04.000Z</time>
      </trkpt>
      <trkpt lat="42.917403" lon="-2.490837">
        <ele>550.2</ele>
        <time>1970-01-01T00:58:07.000Z</time>
      </trkpt>
      <trkpt lat="42.917409" lon="-2.490289">
        <ele>550</ele>
        <time>1970-01-01T00:58:12.000Z</time>
      </trkpt>
      <trkpt lat="42.917413" lon="-2.489866">
        <ele>550.2</ele>
        <time>1970-01-01T00:58:16.000Z</time>
      </trkpt>
      <trkpt lat="42.917421" lon="-2.489224">
        <ele>550.4</ele>
        <time>1970-01-01T00:58:22.000Z</time>
      </trkpt>
      <trkpt lat="42.917423" lon="-2.489006">
        <ele>550.6</ele>
        <time>1970-01-01T00:58:24.000Z</time>
      </trkpt>
      <trkpt lat="42.917427" lon="-2.488584">
        <ele>551</ele>
        <time>1970-01-01T00:58:28.000Z</time>
      </trkpt>
      <trkpt lat="42.917432" lon="-2.488186">
        <ele>551.4</ele>
        <time>1970-01-01T00:58:32.000Z</time>
      </trkpt>
      <trkpt lat="42.917432" lon="-2.488092">
        <ele>551.6</ele>
        <time>1970-01-01T00:58:33.000Z</time>
      </trkpt>
      <trkpt lat="42.917434" lon="-2.487909">
        <ele>551.8</ele>
        <time>1970-01-01T00:58:35.000Z</time>
      </trkpt>
      <trkpt lat="42.917434" lon="-2.48782">
        <ele>552</ele>
        <time>1970-01-01T00:58:36.000Z</time>
      </trkpt>
      <trkpt lat="42.917436" lon="-2.487645">
        <ele>552</ele>
        <time>1970-01-01T00:58:38.000Z</time>
      </trkpt>
      <trkpt lat="42.917436" lon="-2.487557">
        <ele>552</ele>
        <time>1970-01-01T00:58:39.000Z</time>
      </trkpt>
      <trkpt lat="42.917437" lon="-2.487471">
        <ele>552.2</ele>
        <time>1970-01-01T00:58:40.000Z</time>
      </trkpt>
      <trkpt lat="42.917439" lon="-2.487384">
        <ele>552.4</ele>
        <time>1970-01-01T00:58:41.000Z</time>
      </trkpt>
      <trkpt lat="42.91744" lon="-2.487297">
        <ele>552.8</ele>
        <time>1970-01-01T00:58:42.000Z</time>
      </trkpt>
      <trkpt lat="42.91744" lon="-2.486941">
        <ele>553.8</ele>
        <time>1970-01-01T00:58:46.000Z</time>
      </trkpt>
      <trkpt lat="42.917435" lon="-2.486851">
        <ele>553.8</ele>
        <time>1970-01-01T00:58:47.000Z</time>
      </trkpt>
      <trkpt lat="42.91743" lon="-2.486761">
        <ele>554</ele>
        <time>1970-01-01T00:58:48.000Z</time>
      </trkpt>
      <trkpt lat="42.917424" lon="-2.48667">
        <ele>554.2</ele>
        <time>1970-01-01T00:58:49.000Z</time>
      </trkpt>
      <trkpt lat="42.917375" lon="-2.486294">
        <ele>554.4</ele>
        <time>1970-01-01T00:58:53.000Z</time>
      </trkpt>
      <trkpt lat="42.917358" lon="-2.486196">
        <ele>554.4</ele>
        <time>1970-01-01T00:58:54.000Z</time>
      </trkpt>
      <trkpt lat="42.917342" lon="-2.486096">
        <ele>554.6</ele>
        <time>1970-01-01T00:58:55.000Z</time>
      </trkpt>
      <trkpt lat="42.917277" lon="-2.485687">
        <ele>554.6</ele>
        <time>1970-01-01T00:58:59.000Z</time>
      </trkpt>
      <trkpt lat="42.917228" lon="-2.485375">
        <ele>554.2</ele>
        <time>1970-01-01T00:59:02.000Z</time>
      </trkpt>
      <trkpt lat="42.917158" lon="-2.484964">
        <ele>553.8</ele>
        <time>1970-01-01T00:59:06.000Z</time>
      </trkpt>
      <trkpt lat="42.917074" lon="-2.484449">
        <ele>552.8</ele>
        <time>1970-01-01T00:59:11.000Z</time>
      </trkpt>
      <trkpt lat="42.917027" lon="-2.48414">
        <ele>552.8</ele>
        <time>1970-01-01T00:59:14.000Z</time>
      </trkpt>
      <trkpt lat="42.91701" lon="-2.484038">
        <ele>552.6</ele>
        <time>1970-01-01T00:59:15.000Z</time>
      </trkpt>
      <trkpt lat="42.916941" lon="-2.48363">
        <ele>552.6</ele>
        <time>1970-01-01T00:59:19.000Z</time>
      </trkpt>
      <trkpt lat="42.916924" lon="-2.483525">
        <ele>552.6</ele>
        <time>1970-01-01T00:59:20.000Z</time>
      </trkpt>
      <trkpt lat="42.91689" lon="-2.483314">
        <ele>552.6</ele>
        <time>1970-01-01T00:59:22.000Z</time>
      </trkpt>
      <trkpt lat="42.916873" lon="-2.483208">
        <ele>552.6</ele>
        <time>1970-01-01T00:59:23.000Z</time>
      </trkpt>
      <trkpt lat="42.916857" lon="-2.483104">
        <ele>552.4</ele>
        <time>1970-01-01T00:59:24.000Z</time>
      </trkpt>
      <trkpt lat="42.916777" lon="-2.482605">
        <ele>552.4</ele>
        <time>1970-01-01T00:59:29.000Z</time>
      </trkpt>
      <trkpt lat="42.916729" lon="-2.482321">
        <ele>552.4</ele>
        <time>1970-01-01T00:59:32.000Z</time>
      </trkpt>
      <trkpt lat="42.916683" lon="-2.482042">
        <ele>552.6</ele>
        <time>1970-01-01T00:59:35.000Z</time>
      </trkpt>
      <trkpt lat="42.916669" lon="-2.481952">
        <ele>552.6</ele>
        <time>1970-01-01T00:59:36.000Z</time>
      </trkpt>
      <trkpt lat="42.916655" lon="-2.481865">
        <ele>552.6</ele>
        <time>1970-01-01T00:59:37.000Z</time>
      </trkpt>
      <trkpt lat="42.916541" lon="-2.481062">
        <ele>553.4</ele>
        <time>1970-01-01T00:59:46.000Z</time>
      </trkpt>
      <trkpt lat="42.91649" lon="-2.480657">
        <ele>553.8</ele>
        <time>1970-01-01T00:59:50.000Z</time>
      </trkpt>
      <trkpt lat="42.916477" lon="-2.480547">
        <ele>553.8</ele>
        <time>1970-01-01T00:59:51.000Z</time>
      </trkpt>
      <trkpt lat="42.916439" lon="-2.4802">
        <ele>553.8</ele>
        <time>1970-01-01T00:59:54.000Z</time>
      </trkpt>
      <trkpt lat="42.916397" lon="-2.479834">
        <ele>554</ele>
        <time>1970-01-01T00:59:57.000Z</time>
      </trkpt>
      <trkpt lat="42.916383" lon="-2.47971">
        <ele>553.8</ele>
        <time>1970-01-01T00:59:58.000Z</time>
      </trkpt>
      <trkpt lat="42.916342" lon="-2.479341">
        <ele>553.2</ele>
        <time>1970-01-01T01:00:01.000Z</time>
      </trkpt>
      <trkpt lat="42.916284" lon="-2.478875">
        <ele>551.8</ele>
        <time>1970-01-01T01:00:05.000Z</time>
      </trkpt>
      <trkpt lat="42.916271" lon="-2.478766">
        <ele>551.6</ele>
        <time>1970-01-01T01:00:06.000Z</time>
      </trkpt>
      <trkpt lat="42.916197" lon="-2.478141">
        <ele>551.6</ele>
        <time>1970-01-01T01:00:12.000Z</time>
      </trkpt>
      <trkpt lat="42.916144" lon="-2.477696">
        <ele>551.8</ele>
        <time>1970-01-01T01:00:16.000Z</time>
      </trkpt>
      <trkpt lat="42.91613" lon="-2.477583">
        <ele>551.8</ele>
        <time>1970-01-01T01:00:17.000Z</time>
      </trkpt>
      <trkpt lat="42.916046" lon="-2.476895">
        <ele>551.6</ele>
        <time>1970-01-01T01:00:23.000Z</time>
      </trkpt>
      <trkpt lat="42.916032" lon="-2.476781">
        <ele>551.6</ele>
        <time>1970-01-01T01:00:24.000Z</time>
      </trkpt>
      <trkpt lat="42.915937" lon="-2.476006">
        <ele>551.4</ele>
        <time>1970-01-01T01:00:31.000Z</time>
      </trkpt>
      <trkpt lat="42.915908" lon="-2.475791">
        <ele>551.4</ele>
        <time>1970-01-01T01:00:33.000Z</time>
      </trkpt>
      <trkpt lat="42.915893" lon="-2.475684">
        <ele>551.2</ele>
        <time>1970-01-01T01:00:34.000Z</time>
      </trkpt>
      <trkpt lat="42.915881" lon="-2.475579">
        <ele>551.2</ele>
        <time>1970-01-01T01:00:35.000Z</time>
      </trkpt>
      <trkpt lat="42.915794" lon="-2.474847">
        <ele>551.2</ele>
        <time>1970-01-01T01:00:42.000Z</time>
      </trkpt>
      <trkpt lat="42.915782" lon="-2.474744">
        <ele>551</ele>
        <time>1970-01-01T01:00:43.000Z</time>
      </trkpt>
      <trkpt lat="42.915708" lon="-2.474136">
        <ele>551.4</ele>
        <time>1970-01-01T01:00:49.000Z</time>
      </trkpt>
      <trkpt lat="42.915684" lon="-2.473934">
        <ele>551.2</ele>
        <time>1970-01-01T01:00:51.000Z</time>
      </trkpt>
      <trkpt lat="42.915658" lon="-2.473733">
        <ele>551.4</ele>
        <time>1970-01-01T01:00:53.000Z</time>
      </trkpt>
      <trkpt lat="42.915559" lon="-2.472937">
        <ele>552</ele>
        <time>1970-01-01T01:01:01.000Z</time>
      </trkpt>
      <trkpt lat="42.915546" lon="-2.472839">
        <ele>552.2</ele>
        <time>1970-01-01T01:01:02.000Z</time>
      </trkpt>
      <trkpt lat="42.915513" lon="-2.472559">
        <ele>552.4</ele>
        <time>1970-01-01T01:01:05.000Z</time>
      </trkpt>
      <trkpt lat="42.915504" lon="-2.472468">
        <ele>552.6</ele>
        <time>1970-01-01T01:01:06.000Z</time>
      </trkpt>
      <trkpt lat="42.91548" lon="-2.47229">
        <ele>552.4</ele>
        <time>1970-01-01T01:01:08.000Z</time>
      </trkpt>
      <trkpt lat="42.91546" lon="-2.472114">
        <ele>552.6</ele>
        <time>1970-01-01T01:01:10.000Z</time>
      </trkpt>
      <trkpt lat="42.915423" lon="-2.471845">
        <ele>552.8</ele>
        <time>1970-01-01T01:01:13.000Z</time>
      </trkpt>
      <trkpt lat="42.915412" lon="-2.471756">
        <ele>553.4</ele>
        <time>1970-01-01T01:01:14.000Z</time>
      </trkpt>
      <trkpt lat="42.915361" lon="-2.471406">
        <ele>554.8</ele>
        <time>1970-01-01T01:01:18.000Z</time>
      </trkpt>
      <trkpt lat="42.915345" lon="-2.471317">
        <ele>555.2</ele>
        <time>1970-01-01T01:01:19.000Z</time>
      </trkpt>
      <trkpt lat="42.915322" lon="-2.471136">
        <ele>555.8</ele>
        <time>1970-01-01T01:01:21.000Z</time>
      </trkpt>
      <trkpt lat="42.915264" lon="-2.470684">
        <ele>557</ele>
        <time>1970-01-01T01:01:26.000Z</time>
      </trkpt>
      <trkpt lat="42.915253" lon="-2.470594">
        <ele>557.2</ele>
        <time>1970-01-01T01:01:27.000Z</time>
      </trkpt>
      <trkpt lat="42.915243" lon="-2.470505">
        <ele>557.4</ele>
        <time>1970-01-01T01:01:28.000Z</time>
      </trkpt>
      <trkpt lat="42.915183" lon="-2.469971">
        <ele>558.2</ele>
        <time>1970-01-01T01:01:34.000Z</time>
      </trkpt>
      <trkpt lat="42.915124" lon="-2.469364">
        <ele>558.6</ele>
        <time>1970-01-01T01:01:41.000Z</time>
      </trkpt>
      <trkpt lat="42.915103" lon="-2.469087">
        <ele>559.2</ele>
        <time>1970-01-01T01:01:44.000Z</time>
      </trkpt>
      <trkpt lat="42.915081" lon="-2.46879">
        <ele>559.4</ele>
        <time>1970-01-01T01:01:47.000Z</time>
      </trkpt>
      <trkpt lat="42.915068" lon="-2.468575">
        <ele>559.6</ele>
        <time>1970-01-01T01:01:49.000Z</time>
      </trkpt>
      <trkpt lat="42.915035" lon="-2.46812">
        <ele>559.6</ele>
        <time>1970-01-01T01:01:53.000Z</time>
      </trkpt>
      <trkpt lat="42.91501" lon="-2.467771">
        <ele>559.4</ele>
        <time>1970-01-01T01:01:56.000Z</time>
      </trkpt>
      <trkpt lat="42.914968" lon="-2.467189">
        <ele>557.6</ele>
        <time>1970-01-01T01:02:01.000Z</time>
      </trkpt>
      <trkpt lat="42.914942" lon="-2.466843">
        <ele>556.8</ele>
        <time>1970-01-01T01:02:04.000Z</time>
      </trkpt>
      <trkpt lat="42.914934" lon="-2.466727">
        <ele>556.6</ele>
        <time>1970-01-01T01:02:05.000Z</time>
      </trkpt>
      <trkpt lat="42.914891" lon="-2.46615">
        <ele>556</ele>
        <time>1970-01-01T01:02:10.000Z</time>
      </trkpt>
      <trkpt lat="42.914854" lon="-2.465606">
        <ele>555.4</ele>
        <time>1970-01-01T01:02:15.000Z</time>
      </trkpt>
      <trkpt lat="42.914846" lon="-2.4655">
        <ele>555.4</ele>
        <time>1970-01-01T01:02:16.000Z</time>
      </trkpt>
      <trkpt lat="42.914805" lon="-2.464975">
        <ele>555.2</ele>
        <time>1970-01-01T01:02:21.000Z</time>
      </trkpt>
      <trkpt lat="42.914765" lon="-2.464477">
        <ele>556</ele>
        <time>1970-01-01T01:02:26.000Z</time>
      </trkpt>
      <trkpt lat="42.91475" lon="-2.464286">
        <ele>556.6</ele>
        <time>1970-01-01T01:02:28.000Z</time>
      </trkpt>
      <trkpt lat="42.914723" lon="-2.46392">
        <ele>556.8</ele>
        <time>1970-01-01T01:02:32.000Z</time>
      </trkpt>
      <trkpt lat="42.9147" lon="-2.463654">
        <ele>557.6</ele>
        <time>1970-01-01T01:02:35.000Z</time>
      </trkpt>
      <trkpt lat="42.914693" lon="-2.463567">
        <ele>557.8</ele>
        <time>1970-01-01T01:02:36.000Z</time>
      </trkpt>
      <trkpt lat="42.914666" lon="-2.463297">
        <ele>558.4</ele>
        <time>1970-01-01T01:02:39.000Z</time>
      </trkpt>
      <trkpt lat="42.914631" lon="-2.463002">
        <ele>559.8</ele>
        <time>1970-01-01T01:02:42.000Z</time>
      </trkpt>
      <trkpt lat="42.914614" lon="-2.462899">
        <ele>559.8</ele>
        <time>1970-01-01T01:02:43.000Z</time>
      </trkpt>
      <trkpt lat="42.914553" lon="-2.462567">
        <ele>560</ele>
        <time>1970-01-01T01:02:46.000Z</time>
      </trkpt>
      <trkpt lat="42.914504" lon="-2.46233">
        <ele>560.2</ele>
        <time>1970-01-01T01:02:48.000Z</time>
      </trkpt>
      <trkpt lat="42.914478" lon="-2.46221">
        <ele>560.2</ele>
        <time>1970-01-01T01:02:49.000Z</time>
      </trkpt>
      <trkpt lat="42.91434" lon="-2.461617">
        <ele>559.4</ele>
        <time>1970-01-01T01:02:54.000Z</time>
      </trkpt>
      <trkpt lat="42.914238" lon="-2.461184">
        <ele>558.4</ele>
        <time>1970-01-01T01:02:58.000Z</time>
      </trkpt>
      <trkpt lat="42.91419" lon="-2.460985">
        <ele>558.2</ele>
        <time>1970-01-01T01:03:00.000Z</time>
      </trkpt>
      <trkpt lat="42.914166" lon="-2.460888">
        <ele>558</ele>
        <time>1970-01-01T01:03:01.000Z</time>
      </trkpt>
      <trkpt lat="42.914101" lon="-2.460613">
        <ele>558</ele>
        <time>1970-01-01T01:03:04.000Z</time>
      </trkpt>
      <trkpt lat="42.914063" lon="-2.460435">
        <ele>558</ele>
        <time>1970-01-01T01:03:06.000Z</time>
      </trkpt>
      <trkpt lat="42.914024" lon="-2.460254">
        <ele>558.4</ele>
        <time>1970-01-01T01:03:08.000Z</time>
      </trkpt>
      <trkpt lat="42.913934" lon="-2.459888">
        <ele>559.8</ele>
        <time>1970-01-01T01:03:12.000Z</time>
      </trkpt>
      <trkpt lat="42.913824" lon="-2.459415">
        <ele>561.6</ele>
        <time>1970-01-01T01:03:17.000Z</time>
      </trkpt>
      <trkpt lat="42.913809" lon="-2.459317">
        <ele>562</ele>
        <time>1970-01-01T01:03:18.000Z</time>
      </trkpt>
      <trkpt lat="42.913787" lon="-2.458918">
        <ele>562.6</ele>
        <time>1970-01-01T01:03:22.000Z</time>
      </trkpt>
      <trkpt lat="42.913758" lon="-2.45831">
        <ele>563.2</ele>
        <time>1970-01-01T01:03:28.000Z</time>
      </trkpt>
      <trkpt lat="42.913747" lon="-2.458106">
        <ele>563.2</ele>
        <time>1970-01-01T01:03:30.000Z</time>
      </trkpt>
      <trkpt lat="42.913741" lon="-2.458004">
        <ele>563.4</ele>
        <time>1970-01-01T01:03:31.000Z</time>
      </trkpt>
      <trkpt lat="42.91371" lon="-2.457487">
        <ele>563.4</ele>
        <time>1970-01-01T01:03:36.000Z</time>
      </trkpt>
      <trkpt lat="42.913704" lon="-2.457382">
        <ele>563.2</ele>
        <time>1970-01-01T01:03:37.000Z</time>
      </trkpt>
      <trkpt lat="42.913697" lon="-2.457276">
        <ele>563</ele>
        <time>1970-01-01T01:03:38.000Z</time>
      </trkpt>
      <trkpt lat="42.913684" lon="-2.457066">
        <ele>562.8</ele>
        <time>1970-01-01T01:03:40.000Z</time>
      </trkpt>
      <trkpt lat="42.913666" lon="-2.456754">
        <ele>562.6</ele>
        <time>1970-01-01T01:03:43.000Z</time>
      </trkpt>
      <trkpt lat="42.913627" lon="-2.456131">
        <ele>562.4</ele>
        <time>1970-01-01T01:03:49.000Z</time>
      </trkpt>
      <trkpt lat="42.913614" lon="-2.455928">
        <ele>562.4</ele>
        <time>1970-01-01T01:03:51.000Z</time>
      </trkpt>
      <trkpt lat="42.913588" lon="-2.455521">
        <ele>562.4</ele>
        <time>1970-01-01T01:03:55.000Z</time>
      </trkpt>
      <trkpt lat="42.913534" lon="-2.454728">
        <ele>562.4</ele>
        <time>1970-01-01T01:04:03.000Z</time>
      </trkpt>
      <trkpt lat="42.913521" lon="-2.454532">
        <ele>562.6</ele>
        <time>1970-01-01T01:04:05.000Z</time>
      </trkpt>
      <trkpt lat="42.913508" lon="-2.454335">
        <ele>562.8</ele>
        <time>1970-01-01T01:04:07.000Z</time>
      </trkpt>
      <trkpt lat="42.913496" lon="-2.454135">
        <ele>562.6</ele>
        <time>1970-01-01T01:04:09.000Z</time>
      </trkpt>
      <trkpt lat="42.91349" lon="-2.454033">
        <ele>562.8</ele>
        <time>1970-01-01T01:04:10.000Z</time>
      </trkpt>
      <trkpt lat="42.913483" lon="-2.453932">
        <ele>562.8</ele>
        <time>1970-01-01T01:04:11.000Z</time>
      </trkpt>
      <trkpt lat="42.91345" lon="-2.453409">
        <ele>563</ele>
        <time>1970-01-01T01:04:16.000Z</time>
      </trkpt>
      <trkpt lat="42.913416" lon="-2.452881">
        <ele>562.2</ele>
        <time>1970-01-01T01:04:21.000Z</time>
      </trkpt>
      <trkpt lat="42.913409" lon="-2.452779">
        <ele>562</ele>
        <time>1970-01-01T01:04:22.000Z</time>
      </trkpt>
      <trkpt lat="42.913403" lon="-2.452677">
        <ele>561.8</ele>
        <time>1970-01-01T01:04:23.000Z</time>
      </trkpt>
      <trkpt lat="42.913392" lon="-2.452479">
        <ele>561.8</ele>
        <time>1970-01-01T01:04:25.000Z</time>
      </trkpt>
      <trkpt lat="42.913386" lon="-2.452383">
        <ele>561.8</ele>
        <time>1970-01-01T01:04:26.000Z</time>
      </trkpt>
      <trkpt lat="42.913381" lon="-2.452288">
        <ele>561.6</ele>
        <time>1970-01-01T01:04:27.000Z</time>
      </trkpt>
      <trkpt lat="42.913369" lon="-2.452105">
        <ele>561.6</ele>
        <time>1970-01-01T01:04:29.000Z</time>
      </trkpt>
      <trkpt lat="42.913347" lon="-2.451757">
        <ele>562</ele>
        <time>1970-01-01T01:04:33.000Z</time>
      </trkpt>
      <trkpt lat="42.913336" lon="-2.451592">
        <ele>562.8</ele>
        <time>1970-01-01T01:04:35.000Z</time>
      </trkpt>
      <trkpt lat="42.913322" lon="-2.451353">
        <ele>563.6</ele>
        <time>1970-01-01T01:04:38.000Z</time>
      </trkpt>
      <trkpt lat="42.913317" lon="-2.451197">
        <ele>564.2</ele>
        <time>1970-01-01T01:04:40.000Z</time>
      </trkpt>
      <trkpt lat="42.913304" lon="-2.450872">
        <ele>565.8</ele>
        <time>1970-01-01T01:04:44.000Z</time>
      </trkpt>
      <trkpt lat="42.913281" lon="-2.450427">
        <ele>568</ele>
        <time>1970-01-01T01:04:49.000Z</time>
      </trkpt>
      <trkpt lat="42.913276" lon="-2.45033">
        <ele>568.2</ele>
        <time>1970-01-01T01:04:50.000Z</time>
      </trkpt>
      <trkpt lat="42.913271" lon="-2.45023">
        <ele>568.2</ele>
        <time>1970-01-01T01:04:51.000Z</time>
      </trkpt>
      <trkpt lat="42.913268" lon="-2.450127">
        <ele>568.2</ele>
        <time>1970-01-01T01:04:52.000Z</time>
      </trkpt>
      <trkpt lat="42.913264" lon="-2.45002">
        <ele>568.4</ele>
        <time>1970-01-01T01:04:53.000Z</time>
      </trkpt>
      <trkpt lat="42.913252" lon="-2.449687">
        <ele>568.4</ele>
        <time>1970-01-01T01:04:56.000Z</time>
      </trkpt>
      <trkpt lat="42.913235" lon="-2.449343">
        <ele>568.2</ele>
        <time>1970-01-01T01:04:59.000Z</time>
      </trkpt>
      <trkpt lat="42.913224" lon="-2.449113">
        <ele>567.6</ele>
        <time>1970-01-01T01:05:01.000Z</time>
      </trkpt>
      <trkpt lat="42.91321" lon="-2.448767">
        <ele>567.4</ele>
        <time>1970-01-01T01:05:04.000Z</time>
      </trkpt>
      <trkpt lat="42.913192" lon="-2.448303">
        <ele>565.8</ele>
        <time>1970-01-01T01:05:08.000Z</time>
      </trkpt>
      <trkpt lat="42.913186" lon="-2.44819">
        <ele>565.6</ele>
        <time>1970-01-01T01:05:09.000Z</time>
      </trkpt>
      <trkpt lat="42.913146" lon="-2.447444">
        <ele>564.8</ele>
        <time>1970-01-01T01:05:16.000Z</time>
      </trkpt>
      <trkpt lat="42.913137" lon="-2.447341">
        <ele>564.6</ele>
        <time>1970-01-01T01:05:17.000Z</time>
      </trkpt>
      <trkpt lat="42.91308" lon="-2.446828">
        <ele>564.8</ele>
        <time>1970-01-01T01:05:22.000Z</time>
      </trkpt>
      <trkpt lat="42.913059" lon="-2.446619">
        <ele>564.8</ele>
        <time>1970-01-01T01:05:24.000Z</time>
      </trkpt>
      <trkpt lat="42.913022" lon="-2.446306">
        <ele>565</ele>
        <time>1970-01-01T01:05:27.000Z</time>
      </trkpt>
      <trkpt lat="42.912934" lon="-2.445496">
        <ele>565.2</ele>
        <time>1970-01-01T01:05:35.000Z</time>
      </trkpt>
      <trkpt lat="42.912923" lon="-2.4454">
        <ele>565.4</ele>
        <time>1970-01-01T01:05:36.000Z</time>
      </trkpt>
      <trkpt lat="42.912914" lon="-2.445304">
        <ele>565.4</ele>
        <time>1970-01-01T01:05:37.000Z</time>
      </trkpt>
      <trkpt lat="42.912897" lon="-2.445115">
        <ele>565.6</ele>
        <time>1970-01-01T01:05:39.000Z</time>
      </trkpt>
      <trkpt lat="42.912891" lon="-2.445021">
        <ele>565.4</ele>
        <time>1970-01-01T01:05:40.000Z</time>
      </trkpt>
      <trkpt lat="42.912887" lon="-2.444928">
        <ele>565.4</ele>
        <time>1970-01-01T01:05:41.000Z</time>
      </trkpt>
      <trkpt lat="42.912885" lon="-2.444835">
        <ele>565.4</ele>
        <time>1970-01-01T01:05:42.000Z</time>
      </trkpt>
      <trkpt lat="42.912882" lon="-2.444741">
        <ele>565.6</ele>
        <time>1970-01-01T01:05:43.000Z</time>
      </trkpt>
      <trkpt lat="42.912881" lon="-2.444646">
        <ele>565.6</ele>
        <time>1970-01-01T01:05:44.000Z</time>
      </trkpt>
      <trkpt lat="42.912883" lon="-2.444554">
        <ele>565.6</ele>
        <time>1970-01-01T01:05:45.000Z</time>
      </trkpt>
      <trkpt lat="42.912891" lon="-2.444004">
        <ele>567</ele>
        <time>1970-01-01T01:05:51.000Z</time>
      </trkpt>
      <trkpt lat="42.91289" lon="-2.443438">
        <ele>568</ele>
        <time>1970-01-01T01:05:57.000Z</time>
      </trkpt>
      <trkpt lat="42.912892" lon="-2.443344">
        <ele>568</ele>
        <time>1970-01-01T01:05:58.000Z</time>
      </trkpt>
      <trkpt lat="42.912892" lon="-2.443248">
        <ele>568.2</ele>
        <time>1970-01-01T01:05:59.000Z</time>
      </trkpt>
      <trkpt lat="42.912895" lon="-2.442877">
        <ele>568.2</ele>
        <time>1970-01-01T01:06:03.000Z</time>
      </trkpt>
      <trkpt lat="42.912901" lon="-2.442687">
        <ele>568.4</ele>
        <time>1970-01-01T01:06:05.000Z</time>
      </trkpt>
      <trkpt lat="42.912906" lon="-2.442596">
        <ele>568.6</ele>
        <time>1970-01-01T01:06:06.000Z</time>
      </trkpt>
      <trkpt lat="42.912926" lon="-2.44231">
        <ele>569</ele>
        <time>1970-01-01T01:06:09.000Z</time>
      </trkpt>
      <trkpt lat="42.91295" lon="-2.442025">
        <ele>569.6</ele>
        <time>1970-01-01T01:06:12.000Z</time>
      </trkpt>
      <trkpt lat="42.913" lon="-2.44146">
        <ele>570.4</ele>
        <time>1970-01-01T01:06:18.000Z</time>
      </trkpt>
      <trkpt lat="42.913042" lon="-2.440927">
        <ele>570.8</ele>
        <time>1970-01-01T01:06:24.000Z</time>
      </trkpt>
      <trkpt lat="42.913058" lon="-2.44076">
        <ele>570.8</ele>
        <time>1970-01-01T01:06:26.000Z</time>
      </trkpt>
      <trkpt lat="42.913065" lon="-2.440677">
        <ele>570.8</ele>
        <time>1970-01-01T01:06:27.000Z</time>
      </trkpt>
      <trkpt lat="42.913071" lon="-2.440595">
        <ele>571</ele>
        <time>1970-01-01T01:06:28.000Z</time>
      </trkpt>
      <trkpt lat="42.913089" lon="-2.440344">
        <ele>572</ele>
        <time>1970-01-01T01:06:31.000Z</time>
      </trkpt>
      <trkpt lat="42.913099" lon="-2.44026">
        <ele>572</ele>
        <time>1970-01-01T01:06:32.000Z</time>
      </trkpt>
      <trkpt lat="42.913136" lon="-2.439827">
        <ele>573.6</ele>
        <time>1970-01-01T01:06:37.000Z</time>
      </trkpt>
      <trkpt lat="42.91315" lon="-2.439646">
        <ele>574</ele>
        <time>1970-01-01T01:06:39.000Z</time>
      </trkpt>
      <trkpt lat="42.913163" lon="-2.439466">
        <ele>574.4</ele>
        <time>1970-01-01T01:06:41.000Z</time>
      </trkpt>
      <trkpt lat="42.91318" lon="-2.439283">
        <ele>574.6</ele>
        <time>1970-01-01T01:06:43.000Z</time>
      </trkpt>
      <trkpt lat="42.91321" lon="-2.438918">
        <ele>574.8</ele>
        <time>1970-01-01T01:06:47.000Z</time>
      </trkpt>
      <trkpt lat="42.913241" lon="-2.438343">
        <ele>575.4</ele>
        <time>1970-01-01T01:06:53.000Z</time>
      </trkpt>
      <trkpt lat="42.913252" lon="-2.438134">
        <ele>575.2</ele>
        <time>1970-01-01T01:06:55.000Z</time>
      </trkpt>
      <trkpt lat="42.913276" lon="-2.437711">
        <ele>574.6</ele>
        <time>1970-01-01T01:06:59.000Z</time>
      </trkpt>
      <trkpt lat="42.913298" lon="-2.437291">
        <ele>574.2</ele>
        <time>1970-01-01T01:07:03.000Z</time>
      </trkpt>
      <trkpt lat="42.913314" lon="-2.436974">
        <ele>574</ele>
        <time>1970-01-01T01:07:06.000Z</time>
      </trkpt>
      <trkpt lat="42.91333" lon="-2.436661">
        <ele>574</ele>
        <time>1970-01-01T01:07:09.000Z</time>
      </trkpt>
      <trkpt lat="42.913344" lon="-2.436351">
        <ele>573.8</ele>
        <time>1970-01-01T01:07:12.000Z</time>
      </trkpt>
      <trkpt lat="42.913354" lon="-2.436148">
        <ele>573.8</ele>
        <time>1970-01-01T01:07:14.000Z</time>
      </trkpt>
      <trkpt lat="42.91336" lon="-2.436049">
        <ele>573.6</ele>
        <time>1970-01-01T01:07:15.000Z</time>
      </trkpt>
      <trkpt lat="42.913365" lon="-2.435949">
        <ele>573.8</ele>
        <time>1970-01-01T01:07:16.000Z</time>
      </trkpt>
      <trkpt lat="42.913371" lon="-2.435851">
        <ele>573.6</ele>
        <time>1970-01-01T01:07:17.000Z</time>
      </trkpt>
      <trkpt lat="42.913381" lon="-2.435656">
        <ele>573.8</ele>
        <time>1970-01-01T01:07:19.000Z</time>
      </trkpt>
      <trkpt lat="42.913385" lon="-2.435559">
        <ele>573.8</ele>
        <time>1970-01-01T01:07:20.000Z</time>
      </trkpt>
      <trkpt lat="42.913388" lon="-2.435462">
        <ele>573.6</ele>
        <time>1970-01-01T01:07:21.000Z</time>
      </trkpt>
      <trkpt lat="42.913393" lon="-2.435365">
        <ele>573.8</ele>
        <time>1970-01-01T01:07:22.000Z</time>
      </trkpt>
      <trkpt lat="42.913399" lon="-2.435268">
        <ele>573.6</ele>
        <time>1970-01-01T01:07:23.000Z</time>
      </trkpt>
      <trkpt lat="42.913404" lon="-2.43517">
        <ele>573.6</ele>
        <time>1970-01-01T01:07:24.000Z</time>
      </trkpt>
      <trkpt lat="42.913408" lon="-2.435073">
        <ele>573.8</ele>
        <time>1970-01-01T01:07:25.000Z</time>
      </trkpt>
      <trkpt lat="42.913429" lon="-2.434678">
        <ele>574.4</ele>
        <time>1970-01-01T01:07:29.000Z</time>
      </trkpt>
      <trkpt lat="42.913433" lon="-2.43458">
        <ele>574.2</ele>
        <time>1970-01-01T01:07:30.000Z</time>
      </trkpt>
      <trkpt lat="42.913439" lon="-2.434483">
        <ele>574.2</ele>
        <time>1970-01-01T01:07:31.000Z</time>
      </trkpt>
      <trkpt lat="42.913443" lon="-2.434385">
        <ele>574.4</ele>
        <time>1970-01-01T01:07:32.000Z</time>
      </trkpt>
      <trkpt lat="42.913457" lon="-2.434095">
        <ele>574.4</ele>
        <time>1970-01-01T01:07:35.000Z</time>
      </trkpt>
      <trkpt lat="42.913463" lon="-2.434">
        <ele>574.4</ele>
        <time>1970-01-01T01:07:36.000Z</time>
      </trkpt>
      <trkpt lat="42.913469" lon="-2.433905">
        <ele>574.4</ele>
        <time>1970-01-01T01:07:37.000Z</time>
      </trkpt>
      <trkpt lat="42.913474" lon="-2.43381">
        <ele>574.2</ele>
        <time>1970-01-01T01:07:38.000Z</time>
      </trkpt>
      <trkpt lat="42.913495" lon="-2.433438">
        <ele>573.2</ele>
        <time>1970-01-01T01:07:42.000Z</time>
      </trkpt>
      <trkpt lat="42.913501" lon="-2.433347">
        <ele>574.4</ele>
        <time>1970-01-01T01:07:43.000Z</time>
      </trkpt>
      <trkpt lat="42.913514" lon="-2.433075">
        <ele>575</ele>
        <time>1970-01-01T01:07:46.000Z</time>
      </trkpt>
      <trkpt lat="42.913518" lon="-2.432983">
        <ele>576</ele>
        <time>1970-01-01T01:07:47.000Z</time>
      </trkpt>
      <trkpt lat="42.913523" lon="-2.432892">
        <ele>575.6</ele>
        <time>1970-01-01T01:07:48.000Z</time>
      </trkpt>
      <trkpt lat="42.91354" lon="-2.432614">
        <ele>574.8</ele>
        <time>1970-01-01T01:07:51.000Z</time>
      </trkpt>
      <trkpt lat="42.91355" lon="-2.432431">
        <ele>575.6</ele>
        <time>1970-01-01T01:07:53.000Z</time>
      </trkpt>
      <trkpt lat="42.913554" lon="-2.432341">
        <ele>574.8</ele>
        <time>1970-01-01T01:07:54.000Z</time>
      </trkpt>
      <trkpt lat="42.913558" lon="-2.432251">
        <ele>575.4</ele>
        <time>1970-01-01T01:07:55.000Z</time>
      </trkpt>
      <trkpt lat="42.913568" lon="-2.432073">
        <ele>576.6</ele>
        <time>1970-01-01T01:07:57.000Z</time>
      </trkpt>
      <trkpt lat="42.913582" lon="-2.431806">
        <ele>576</ele>
        <time>1970-01-01T01:08:00.000Z</time>
      </trkpt>
      <trkpt lat="42.913593" lon="-2.431627">
        <ele>575.6</ele>
        <time>1970-01-01T01:08:02.000Z</time>
      </trkpt>
      <trkpt lat="42.913598" lon="-2.431537">
        <ele>575.8</ele>
        <time>1970-01-01T01:08:03.000Z</time>
      </trkpt>
      <trkpt lat="42.913603" lon="-2.431444">
        <ele>576</ele>
        <time>1970-01-01T01:08:04.000Z</time>
      </trkpt>
      <trkpt lat="42.91361" lon="-2.431159">
        <ele>576.2</ele>
        <time>1970-01-01T01:08:07.000Z</time>
      </trkpt>
      <trkpt lat="42.91359" lon="-2.430968">
        <ele>576.8</ele>
        <time>1970-01-01T01:08:09.000Z</time>
      </trkpt>
      <trkpt lat="42.913547" lon="-2.430779">
        <ele>576.8</ele>
        <time>1970-01-01T01:08:11.000Z</time>
      </trkpt>
      <trkpt lat="42.913501" lon="-2.430594">
        <ele>577.2</ele>
        <time>1970-01-01T01:08:13.000Z</time>
      </trkpt>
      <trkpt lat="42.91345" lon="-2.430412">
        <ele>577.2</ele>
        <time>1970-01-01T01:08:15.000Z</time>
      </trkpt>
      <trkpt lat="42.913423" lon="-2.430322">
        <ele>577.2</ele>
        <time>1970-01-01T01:08:16.000Z</time>
      </trkpt>
      <trkpt lat="42.913396" lon="-2.430231">
        <ele>577</ele>
        <time>1970-01-01T01:08:17.000Z</time>
      </trkpt>
      <trkpt lat="42.91337" lon="-2.430139">
        <ele>577.2</ele>
        <time>1970-01-01T01:08:18.000Z</time>
      </trkpt>
      <trkpt lat="42.913344" lon="-2.430048">
        <ele>577.2</ele>
        <time>1970-01-01T01:08:19.000Z</time>
      </trkpt>
      <trkpt lat="42.913291" lon="-2.429866">
        <ele>577.2</ele>
        <time>1970-01-01T01:08:21.000Z</time>
      </trkpt>
      <trkpt lat="42.913265" lon="-2.429776">
        <ele>577.4</ele>
        <time>1970-01-01T01:08:22.000Z</time>
      </trkpt>
      <trkpt lat="42.913239" lon="-2.429685">
        <ele>577.4</ele>
        <time>1970-01-01T01:08:23.000Z</time>
      </trkpt>
      <trkpt lat="42.913214" lon="-2.429594">
        <ele>577.4</ele>
        <time>1970-01-01T01:08:24.000Z</time>
      </trkpt>
      <trkpt lat="42.913189" lon="-2.429504">
        <ele>577.2</ele>
        <time>1970-01-01T01:08:25.000Z</time>
      </trkpt>
      <trkpt lat="42.913163" lon="-2.429413">
        <ele>577.4</ele>
        <time>1970-01-01T01:08:26.000Z</time>
      </trkpt>
      <trkpt lat="42.913137" lon="-2.429322">
        <ele>577.2</ele>
        <time>1970-01-01T01:08:27.000Z</time>
      </trkpt>
      <trkpt lat="42.913084" lon="-2.429144">
        <ele>577.4</ele>
        <time>1970-01-01T01:08:29.000Z</time>
      </trkpt>
      <trkpt lat="42.913058" lon="-2.429056">
        <ele>577.6</ele>
        <time>1970-01-01T01:08:30.000Z</time>
      </trkpt>
      <trkpt lat="42.913033" lon="-2.428969">
        <ele>577.6</ele>
        <time>1970-01-01T01:08:31.000Z</time>
      </trkpt>
      <trkpt lat="42.912986" lon="-2.428795">
        <ele>578</ele>
        <time>1970-01-01T01:08:33.000Z</time>
      </trkpt>
      <trkpt lat="42.912961" lon="-2.428708">
        <ele>578.4</ele>
        <time>1970-01-01T01:08:34.000Z</time>
      </trkpt>
      <trkpt lat="42.912935" lon="-2.42862">
        <ele>578.4</ele>
        <time>1970-01-01T01:08:35.000Z</time>
      </trkpt>
      <trkpt lat="42.912907" lon="-2.42853">
        <ele>578.4</ele>
        <time>1970-01-01T01:08:36.000Z</time>
      </trkpt>
      <trkpt lat="42.908972" lon="-2.415256">
        <ele>592.8</ele>
        <time>1970-01-01T00:00:00.000Z</time>
      </trkpt>
      <trkpt lat="42.90894" lon="-2.415153">
        <ele>593.2</ele>
        <time>1970-01-01T00:00:01.000Z</time>
      </trkpt>
      <trkpt lat="42.90877" lon="-2.414657">
        <ele>593</ele>
        <time>1970-01-01T00:00:06.000Z</time>
      </trkpt>
      <trkpt lat="42.908505" lon="-2.414015">
        <ele>593.2</ele>
        <time>1970-01-01T00:00:13.000Z</time>
      </trkpt>
      <trkpt lat="42.908462" lon="-2.413941">
        <ele>593</ele>
        <time>1970-01-01T00:00:14.000Z</time>
      </trkpt>
      <trkpt lat="42.908318" lon="-2.413737">
        <ele>593.2</ele>
        <time>1970-01-01T00:00:17.000Z</time>
      </trkpt>
      <trkpt lat="42.908249" lon="-2.413581">
        <ele>593.2</ele>
        <time>1970-01-01T00:00:19.000Z</time>
      </trkpt>
      <trkpt lat="42.908226" lon="-2.413497">
        <ele>593.6</ele>
        <time>1970-01-01T00:00:20.000Z</time>
      </trkpt>
      <trkpt lat="42.908193" lon="-2.413243">
        <ele>594.4</ele>
        <time>1970-01-01T00:00:23.000Z</time>
      </trkpt>
      <trkpt lat="42.908204" lon="-2.413084">
        <ele>595</ele>
        <time>1970-01-01T00:00:25.000Z</time>
      </trkpt>
      <trkpt lat="42.908222" lon="-2.41293">
        <ele>595.6</ele>
        <time>1970-01-01T00:00:27.000Z</time>
      </trkpt>
      <trkpt lat="42.908228" lon="-2.412854">
        <ele>596</ele>
        <time>1970-01-01T00:00:28.000Z</time>
      </trkpt>
      <trkpt lat="42.90823" lon="-2.412779">
        <ele>596</ele>
        <time>1970-01-01T00:00:29.000Z</time>
      </trkpt>
      <trkpt lat="42.908222" lon="-2.412562">
        <ele>598.2</ele>
        <time>1970-01-01T00:00:32.000Z</time>
      </trkpt>
      <trkpt lat="42.908211" lon="-2.412491">
        <ele>599.4</ele>
        <time>1970-01-01T00:00:33.000Z</time>
      </trkpt>
      <trkpt lat="42.90817" lon="-2.412283">
        <ele>600.8</ele>
        <time>1970-01-01T00:00:36.000Z</time>
      </trkpt>
      <trkpt lat="42.908123" lon="-2.411995">
        <ele>601.8</ele>
        <time>1970-01-01T00:00:40.000Z</time>
      </trkpt>
      <trkpt lat="42.9081" lon="-2.411845">
        <ele>602.8</ele>
        <time>1970-01-01T00:00:42.000Z</time>
      </trkpt>
      <trkpt lat="42.908028" lon="-2.411441">
        <ele>604.4</ele>
        <time>1970-01-01T00:00:47.000Z</time>
      </trkpt>
      <trkpt lat="42.907897" lon="-2.410779">
        <ele>605.6</ele>
        <time>1970-01-01T00:00:55.000Z</time>
      </trkpt>
      <trkpt lat="42.907886" lon="-2.410686">
        <ele>605.4</ele>
        <time>1970-01-01T00:00:56.000Z</time>
      </trkpt>
      <trkpt lat="42.907855" lon="-2.410274">
        <ele>605.4</ele>
        <time>1970-01-01T00:01:00.000Z</time>
      </trkpt>
      <trkpt lat="42.907842" lon="-2.410047">
        <ele>605.4</ele>
        <time>1970-01-01T00:01:02.000Z</time>
      </trkpt>
      <trkpt lat="42.907822" lon="-2.409685">
        <ele>605</ele>
        <time>1970-01-01T00:01:05.000Z</time>
      </trkpt>
      <trkpt lat="42.907809" lon="-2.409437">
        <ele>604.6</ele>
        <time>1970-01-01T00:01:07.000Z</time>
      </trkpt>
      <trkpt lat="42.907797" lon="-2.409185">
        <ele>603.6</ele>
        <time>1970-01-01T00:01:09.000Z</time>
      </trkpt>
      <trkpt lat="42.907792" lon="-2.409059">
        <ele>603.2</ele>
        <time>1970-01-01T00:01:10.000Z</time>
      </trkpt>
      <trkpt lat="42.907758" lon="-2.408319">
        <ele>600.6</ele>
        <time>1970-01-01T00:01:16.000Z</time>
      </trkpt>
      <trkpt lat="42.90774" lon="-2.407959">
        <ele>599.6</ele>
        <time>1970-01-01T00:01:19.000Z</time>
      </trkpt>
      <trkpt lat="42.907735" lon="-2.40784">
        <ele>599.4</ele>
        <time>1970-01-01T00:01:20.000Z</time>
      </trkpt>
      <trkpt lat="42.907699" lon="-2.407029">
        <ele>598.8</ele>
        <time>1970-01-01T00:01:27.000Z</time>
      </trkpt>
      <trkpt lat="42.907676" lon="-2.406583">
        <ele>599</ele>
        <time>1970-01-01T00:01:31.000Z</time>
      </trkpt>
      <trkpt lat="42.90767" lon="-2.406474">
        <ele>599</ele>
        <time>1970-01-01T00:01:32.000Z</time>
      </trkpt>
      <trkpt lat="42.907633" lon="-2.405717">
        <ele>599</ele>
        <time>1970-01-01T00:01:39.000Z</time>
      </trkpt>
      <trkpt lat="42.907628" lon="-2.40561">
        <ele>599</ele>
        <time>1970-01-01T00:01:40.000Z</time>
      </trkpt>
      <trkpt lat="42.907605" lon="-2.405182">
        <ele>599.6</ele>
        <time>1970-01-01T00:01:44.000Z</time>
      </trkpt>
      <trkpt lat="42.90757" lon="-2.404439">
        <ele>600.4</ele>
        <time>1970-01-01T00:01:51.000Z</time>
      </trkpt>
      <trkpt lat="42.907558" lon="-2.404226">
        <ele>600.2</ele>
        <time>1970-01-01T00:01:53.000Z</time>
      </trkpt>
      <trkpt lat="42.907536" lon="-2.403799">
        <ele>600.4</ele>
        <time>1970-01-01T00:01:57.000Z</time>
      </trkpt>
      <trkpt lat="42.907499" lon="-2.403048">
        <ele>600.8</ele>
        <time>1970-01-01T00:02:04.000Z</time>
      </trkpt>
      <trkpt lat="42.907465" lon="-2.40231">
        <ele>601.2</ele>
        <time>1970-01-01T00:02:11.000Z</time>
      </trkpt>
      <trkpt lat="42.907448" lon="-2.401994">
        <ele>601.2</ele>
        <time>1970-01-01T00:02:14.000Z</time>
      </trkpt>
      <trkpt lat="42.907432" lon="-2.401682">
        <ele>601.4</ele>
        <time>1970-01-01T00:02:17.000Z</time>
      </trkpt>
      <trkpt lat="42.907399" lon="-2.40106">
        <ele>602.2</ele>
        <time>1970-01-01T00:02:23.000Z</time>
      </trkpt>
      <trkpt lat="42.907373" lon="-2.400555">
        <ele>602.4</ele>
        <time>1970-01-01T00:02:28.000Z</time>
      </trkpt>
      <trkpt lat="42.907334" lon="-2.399748">
        <ele>603</ele>
        <time>1970-01-01T00:02:36.000Z</time>
      </trkpt>
      <trkpt lat="42.907323" lon="-2.399545">
        <ele>603</ele>
        <time>1970-01-01T00:02:38.000Z</time>
      </trkpt>
      <trkpt lat="42.907312" lon="-2.399341">
        <ele>603.2</ele>
        <time>1970-01-01T00:02:40.000Z</time>
      </trkpt>
      <trkpt lat="42.907282" lon="-2.398739">
        <ele>603.8</ele>
        <time>1970-01-01T00:02:46.000Z</time>
      </trkpt>
      <trkpt lat="42.907262" lon="-2.398345">
        <ele>604</ele>
        <time>1970-01-01T00:02:50.000Z</time>
      </trkpt>
      <trkpt lat="42.907236" lon="-2.397863">
        <ele>604.6</ele>
        <time>1970-01-01T00:02:55.000Z</time>
      </trkpt>
      <trkpt lat="42.907222" lon="-2.397579">
        <ele>605</ele>
        <time>1970-01-01T00:02:58.000Z</time>
      </trkpt>
      <trkpt lat="42.907208" lon="-2.3973">
        <ele>605.4</ele>
        <time>1970-01-01T00:03:01.000Z</time>
      </trkpt>
      <trkpt lat="42.907203" lon="-2.39721">
        <ele>605.6</ele>
        <time>1970-01-01T00:03:02.000Z</time>
      </trkpt>
      <trkpt lat="42.907173" lon="-2.396578">
        <ele>607.2</ele>
        <time>1970-01-01T00:03:09.000Z</time>
      </trkpt>
      <trkpt lat="42.90716" lon="-2.396298">
        <ele>608</ele>
        <time>1970-01-01T00:03:12.000Z</time>
      </trkpt>
      <trkpt lat="42.907133" lon="-2.395833">
        <ele>608.6</ele>
        <time>1970-01-01T00:03:17.000Z</time>
      </trkpt>
      <trkpt lat="42.907036" lon="-2.395208">
        <ele>609.4</ele>
        <time>1970-01-01T00:03:24.000Z</time>
      </trkpt>
      <trkpt lat="42.906979" lon="-2.394945">
        <ele>609.6</ele>
        <time>1970-01-01T00:03:27.000Z</time>
      </trkpt>
      <trkpt lat="42.906843" lon="-2.39434">
        <ele>610.2</ele>
        <time>1970-01-01T00:03:34.000Z</time>
      </trkpt>
      <trkpt lat="42.906767" lon="-2.393997">
        <ele>610.8</ele>
        <time>1970-01-01T00:03:38.000Z</time>
      </trkpt>
      <trkpt lat="42.906618" lon="-2.393314">
        <ele>611.4</ele>
        <time>1970-01-01T00:03:46.000Z</time>
      </trkpt>
      <trkpt lat="42.906499" lon="-2.39279">
        <ele>612.2</ele>
        <time>1970-01-01T00:03:52.000Z</time>
      </trkpt>
      <trkpt lat="42.906401" lon="-2.392343">
        <ele>612.6</ele>
        <time>1970-01-01T00:03:57.000Z</time>
      </trkpt>
      <trkpt lat="42.906319" lon="-2.391975">
        <ele>612.6</ele>
        <time>1970-01-01T00:04:01.000Z</time>
      </trkpt>
      <trkpt lat="42.906299" lon="-2.391881">
        <ele>612.6</ele>
        <time>1970-01-01T00:04:02.000Z</time>
      </trkpt>
      <trkpt lat="42.906257" lon="-2.391694">
        <ele>612.6</ele>
        <time>1970-01-01T00:04:04.000Z</time>
      </trkpt>
      <trkpt lat="42.906193" lon="-2.39141">
        <ele>612.6</ele>
        <time>1970-01-01T00:04:07.000Z</time>
      </trkpt>
      <trkpt lat="42.906065" lon="-2.390831">
        <ele>612.6</ele>
        <time>1970-01-01T00:04:13.000Z</time>
      </trkpt>
      <trkpt lat="42.90596" lon="-2.390359">
        <ele>612.6</ele>
        <time>1970-01-01T00:04:18.000Z</time>
      </trkpt>
      <trkpt lat="42.905939" lon="-2.390267">
        <ele>612.4</ele>
        <time>1970-01-01T00:04:19.000Z</time>
      </trkpt>
      <trkpt lat="42.905778" lon="-2.389546">
        <ele>612.4</ele>
        <time>1970-01-01T00:04:27.000Z</time>
      </trkpt>
      <trkpt lat="42.905759" lon="-2.389458">
        <ele>612.8</ele>
        <time>1970-01-01T00:04:28.000Z</time>
      </trkpt>
      <trkpt lat="42.90572" lon="-2.389282">
        <ele>613</ele>
        <time>1970-01-01T00:04:30.000Z</time>
      </trkpt>
      <trkpt lat="42.905562" lon="-2.388573">
        <ele>613.8</ele>
        <time>1970-01-01T00:04:38.000Z</time>
      </trkpt>
      <trkpt lat="42.905543" lon="-2.388484">
        <ele>614</ele>
        <time>1970-01-01T00:04:39.000Z</time>
      </trkpt>
      <trkpt lat="42.905505" lon="-2.388312">
        <ele>614.4</ele>
        <time>1970-01-01T00:04:41.000Z</time>
      </trkpt>
      <trkpt lat="42.905469" lon="-2.388145">
        <ele>614.4</ele>
        <time>1970-01-01T00:04:43.000Z</time>
      </trkpt>
      <trkpt lat="42.905378" lon="-2.387725">
        <ele>614.8</ele>
        <time>1970-01-01T00:04:48.000Z</time>
      </trkpt>
      <trkpt lat="42.905357" lon="-2.387638">
        <ele>614.8</ele>
        <time>1970-01-01T00:04:49.000Z</time>
      </trkpt>
      <trkpt lat="42.905311" lon="-2.387465">
        <ele>615.4</ele>
        <time>1970-01-01T00:04:51.000Z</time>
      </trkpt>
      <trkpt lat="42.905111" lon="-2.38694">
        <ele>615.8</ele>
        <time>1970-01-01T00:04:57.000Z</time>
      </trkpt>
      <trkpt lat="42.90507" lon="-2.386844">
        <ele>616</ele>
        <time>1970-01-01T00:04:58.000Z</time>
      </trkpt>
      <trkpt lat="42.904985" lon="-2.386643">
        <ele>616</ele>
        <time>1970-01-01T00:05:00.000Z</time>
      </trkpt>
      <trkpt lat="42.904894" lon="-2.386432">
        <ele>616</ele>
        <time>1970-01-01T00:05:02.000Z</time>
      </trkpt>
      <trkpt lat="42.904847" lon="-2.386324">
        <ele>615.8</ele>
        <time>1970-01-01T00:05:03.000Z</time>
      </trkpt>
      <trkpt lat="42.9048" lon="-2.386213">
        <ele>615.6</ele>
        <time>1970-01-01T00:05:04.000Z</time>
      </trkpt>
      <trkpt lat="42.904706" lon="-2.385985">
        <ele>615.2</ele>
        <time>1970-01-01T00:05:06.000Z</time>
      </trkpt>
      <trkpt lat="42.904657" lon="-2.385868">
        <ele>614.8</ele>
        <time>1970-01-01T00:05:07.000Z</time>
      </trkpt>
      <trkpt lat="42.904557" lon="-2.385632">
        <ele>614.2</ele>
        <time>1970-01-01T00:05:09.000Z</time>
      </trkpt>
      <trkpt lat="42.904505" lon="-2.385514">
        <ele>613.6</ele>
        <time>1970-01-01T00:05:10.000Z</time>
      </trkpt>
      <trkpt lat="42.904452" lon="-2.385394">
        <ele>613.2</ele>
        <time>1970-01-01T00:05:11.000Z</time>
      </trkpt>
      <trkpt lat="42.904337" lon="-2.385159">
        <ele>611.6</ele>
        <time>1970-01-01T00:05:13.000Z</time>
      </trkpt>
      <trkpt lat="42.904154" lon="-2.384819">
        <ele>610</ele>
        <time>1970-01-01T00:05:16.000Z</time>
      </trkpt>
      <trkpt lat="42.904088" lon="-2.384707">
        <ele>609.6</ele>
        <time>1970-01-01T00:05:17.000Z</time>
      </trkpt>
      <trkpt lat="42.90395" lon="-2.384476">
        <ele>608.8</ele>
        <time>1970-01-01T00:05:19.000Z</time>
      </trkpt>
      <trkpt lat="42.903603" lon="-2.383895">
        <ele>606.2</ele>
        <time>1970-01-01T00:05:24.000Z</time>
      </trkpt>
      <trkpt lat="42.903538" lon="-2.383787">
        <ele>605.8</ele>
        <time>1970-01-01T00:05:25.000Z</time>
      </trkpt>
      <trkpt lat="42.903416" lon="-2.383588">
        <ele>605.2</ele>
        <time>1970-01-01T00:05:27.000Z</time>
      </trkpt>
      <trkpt lat="42.903308" lon="-2.383411">
        <ele>605.2</ele>
        <time>1970-01-01T00:05:29.000Z</time>
      </trkpt>
      <trkpt lat="42.903259" lon="-2.383328">
        <ele>605.2</ele>
        <time>1970-01-01T00:05:30.000Z</time>
      </trkpt>
      <trkpt lat="42.903129" lon="-2.383097">
        <ele>605.2</ele>
        <time>1970-01-01T00:05:33.000Z</time>
      </trkpt>
      <trkpt lat="42.903094" lon="-2.383022">
        <ele>605.2</ele>
        <time>1970-01-01T00:05:34.000Z</time>
      </trkpt>
      <trkpt lat="42.903064" lon="-2.382946">
        <ele>605.2</ele>
        <time>1970-01-01T00:05:35.000Z</time>
      </trkpt>
      <trkpt lat="42.902991" lon="-2.382732">
        <ele>605.4</ele>
        <time>1970-01-01T00:05:38.000Z</time>
      </trkpt>
      <trkpt lat="42.902968" lon="-2.382662">
        <ele>605.6</ele>
        <time>1970-01-01T00:05:39.000Z</time>
      </trkpt>
      <trkpt lat="42.902898" lon="-2.382469">
        <ele>607.2</ele>
        <time>1970-01-01T00:05:42.000Z</time>
      </trkpt>
      <trkpt lat="42.902828" lon="-2.382281">
        <ele>609</ele>
        <time>1970-01-01T00:05:45.000Z</time>
      </trkpt>
      <trkpt lat="42.902773" lon="-2.382159">
        <ele>609.8</ele>
        <time>1970-01-01T00:05:47.000Z</time>
      </trkpt>
      <trkpt lat="42.902681" lon="-2.381982">
        <ele>611.4</ele>
        <time>1970-01-01T00:05:50.000Z</time>
      </trkpt>
      <trkpt lat="42.902645" lon="-2.381923">
        <ele>612</ele>
        <time>1970-01-01T00:05:51.000Z</time>
      </trkpt>
      <trkpt lat="42.9025" lon="-2.381686">
        <ele>613</ele>
        <time>1970-01-01T00:05:55.000Z</time>
      </trkpt>
      <trkpt lat="42.902465" lon="-2.381625">
        <ele>613.4</ele>
        <time>1970-01-01T00:05:56.000Z</time>
      </trkpt>
      <trkpt lat="42.902333" lon="-2.381376">
        <ele>614</ele>
        <time>1970-01-01T00:06:00.000Z</time>
      </trkpt>
      <trkpt lat="42.902307" lon="-2.381311">
        <ele>614.2</ele>
        <time>1970-01-01T00:06:01.000Z</time>
      </trkpt>
      <trkpt lat="42.9022" lon="-2.380994">
        <ele>614.8</ele>
        <time>1970-01-01T00:06:06.000Z</time>
      </trkpt>
      <trkpt lat="42.902123" lon="-2.380748">
        <ele>616</ele>
        <time>1970-01-01T00:06:10.000Z</time>
      </trkpt>
      <trkpt lat="42.902069" lon="-2.380571">
        <ele>616.8</ele>
        <time>1970-01-01T00:06:13.000Z</time>
      </trkpt>
      <trkpt lat="42.90205" lon="-2.380513">
        <ele>617</ele>
        <time>1970-01-01T00:06:14.000Z</time>
      </trkpt>
      <trkpt lat="42.902007" lon="-2.380389">
        <ele>617.8</ele>
        <time>1970-01-01T00:06:16.000Z</time>
      </trkpt>
      <trkpt lat="42.901907" lon="-2.380095">
        <ele>618.8</ele>
        <time>1970-01-01T00:06:21.000Z</time>
      </trkpt>
      <trkpt lat="42.901888" lon="-2.380037">
        <ele>619.4</ele>
        <time>1970-01-01T00:06:22.000Z</time>
      </trkpt>
      <trkpt lat="42.901828" lon="-2.379866">
        <ele>620.8</ele>
        <time>1970-01-01T00:06:25.000Z</time>
      </trkpt>
      <trkpt lat="42.901743" lon="-2.379635">
        <ele>622</ele>
        <time>1970-01-01T00:06:29.000Z</time>
      </trkpt>
      <trkpt lat="42.901703" lon="-2.379518">
        <ele>622.6</ele>
        <time>1970-01-01T00:06:31.000Z</time>
      </trkpt>
      <trkpt lat="42.90161" lon="-2.379228">
        <ele>624.4</ele>
        <time>1970-01-01T00:06:36.000Z</time>
      </trkpt>
      <trkpt lat="42.901592" lon="-2.37917">
        <ele>624.6</ele>
        <time>1970-01-01T00:06:37.000Z</time>
      </trkpt>
      <trkpt lat="42.901494" lon="-2.378879">
        <ele>626.2</ele>
        <time>1970-01-01T00:06:42.000Z</time>
      </trkpt>
      <trkpt lat="42.90141" lon="-2.37865">
        <ele>627.2</ele>
        <time>1970-01-01T00:06:46.000Z</time>
      </trkpt>
      <trkpt lat="42.901333" lon="-2.378422">
        <ele>627.6</ele>
        <time>1970-01-01T00:06:50.000Z</time>
      </trkpt>
      <trkpt lat="42.901218" lon="-2.378098">
        <ele>629.8</ele>
        <time>1970-01-01T00:06:56.000Z</time>
      </trkpt>
      <trkpt lat="42.901071" lon="-2.377695">
        <ele>631.6</ele>
        <time>1970-01-01T00:07:03.000Z</time>
      </trkpt>
      <trkpt lat="42.900892" lon="-2.377281">
        <ele>632.2</ele>
        <time>1970-01-01T00:07:10.000Z</time>
      </trkpt>
      <trkpt lat="42.900816" lon="-2.377111">
        <ele>632.8</ele>
        <time>1970-01-01T00:07:13.000Z</time>
      </trkpt>
      <trkpt lat="42.900791" lon="-2.377059">
        <ele>632.8</ele>
        <time>1970-01-01T00:07:14.000Z</time>
      </trkpt>
      <trkpt lat="42.900667" lon="-2.376782">
        <ele>633.2</ele>
        <time>1970-01-01T00:07:19.000Z</time>
      </trkpt>
      <trkpt lat="42.900616" lon="-2.376675">
        <ele>633.6</ele>
        <time>1970-01-01T00:07:21.000Z</time>
      </trkpt>
      <trkpt lat="42.900431" lon="-2.376256">
        <ele>635.6</ele>
        <time>1970-01-01T00:07:28.000Z</time>
      </trkpt>
      <trkpt lat="42.900189" lon="-2.375696">
        <ele>636</ele>
        <time>1970-01-01T00:07:36.000Z</time>
      </trkpt>
      <trkpt lat="42.900126" lon="-2.37555">
        <ele>636.2</ele>
        <time>1970-01-01T00:07:38.000Z</time>
      </trkpt>
      <trkpt lat="42.899933" lon="-2.375108">
        <ele>636</ele>
        <time>1970-01-01T00:07:44.000Z</time>
      </trkpt>
      <trkpt lat="42.899763" lon="-2.374725">
        <ele>635.6</ele>
        <time>1970-01-01T00:07:49.000Z</time>
      </trkpt>
      <trkpt lat="42.899649" lon="-2.374497">
        <ele>635.2</ele>
        <time>1970-01-01T00:07:52.000Z</time>
      </trkpt>
      <trkpt lat="42.89946" lon="-2.374151">
        <ele>635</ele>
        <time>1970-01-01T00:07:57.000Z</time>
      </trkpt>
      <trkpt lat="42.899148" lon="-2.373594">
        <ele>635.6</ele>
        <time>1970-01-01T00:08:05.000Z</time>
      </trkpt>
      <trkpt lat="42.899109" lon="-2.373522">
        <ele>635.6</ele>
        <time>1970-01-01T00:08:06.000Z</time>
      </trkpt>
      <trkpt lat="42.898955" lon="-2.373244">
        <ele>636</ele>
        <time>1970-01-01T00:08:10.000Z</time>
      </trkpt>
      <trkpt lat="42.898846" lon="-2.373041">
        <ele>636.2</ele>
        <time>1970-01-01T00:08:13.000Z</time>
      </trkpt>
      <trkpt lat="42.898734" lon="-2.372842">
        <ele>636.8</ele>
        <time>1970-01-01T00:08:16.000Z</time>
      </trkpt>
      <trkpt lat="42.898696" lon="-2.372775">
        <ele>637.2</ele>
        <time>1970-01-01T00:08:17.000Z</time>
      </trkpt>
      <trkpt lat="42.898548" lon="-2.372506">
        <ele>638.2</ele>
        <time>1970-01-01T00:08:21.000Z</time>
      </trkpt>
      <trkpt lat="42.898475" lon="-2.372373">
        <ele>638.8</ele>
        <time>1970-01-01T00:08:23.000Z</time>
      </trkpt>
      <trkpt lat="42.898367" lon="-2.372176">
        <ele>639.6</ele>
        <time>1970-01-01T00:08:26.000Z</time>
      </trkpt>
      <trkpt lat="42.898333" lon="-2.37211">
        <ele>640</ele>
        <time>1970-01-01T00:08:27.000Z</time>
      </trkpt>
      <trkpt lat="42.898213" lon="-2.37183">
        <ele>640.8</ele>
        <time>1970-01-01T00:08:31.000Z</time>
      </trkpt>
      <trkpt lat="42.898126" lon="-2.371608">
        <ele>641.4</ele>
        <time>1970-01-01T00:08:34.000Z</time>
      </trkpt>
      <trkpt lat="42.898071" lon="-2.371461">
        <ele>642.2</ele>
        <time>1970-01-01T00:08:36.000Z</time>
      </trkpt>
      <trkpt lat="42.897873" lon="-2.370941">
        <ele>643.6</ele>
        <time>1970-01-01T00:08:43.000Z</time>
      </trkpt>
      <trkpt lat="42.897842" lon="-2.370869">
        <ele>643.6</ele>
        <time>1970-01-01T00:08:44.000Z</time>
      </trkpt>
      <trkpt lat="42.897763" lon="-2.370734">
        <ele>644.2</ele>
        <time>1970-01-01T00:08:46.000Z</time>
      </trkpt>
      <trkpt lat="42.897712" lon="-2.370675">
        <ele>644.2</ele>
        <time>1970-01-01T00:08:47.000Z</time>
      </trkpt>
      <trkpt lat="42.897654" lon="-2.370622">
        <ele>644.4</ele>
        <time>1970-01-01T00:08:48.000Z</time>
      </trkpt>
      <trkpt lat="42.897589" lon="-2.370572">
        <ele>644.2</ele>
        <time>1970-01-01T00:08:49.000Z</time>
      </trkpt>
      <trkpt lat="42.897444" lon="-2.370465">
        <ele>644.4</ele>
        <time>1970-01-01T00:08:51.000Z</time>
      </trkpt>
      <trkpt lat="42.897299" lon="-2.370337">
        <ele>644.4</ele>
        <time>1970-01-01T00:08:53.000Z</time>
      </trkpt>
      <trkpt lat="42.89723" lon="-2.370261">
        <ele>644.4</ele>
        <time>1970-01-01T00:08:54.000Z</time>
      </trkpt>
      <trkpt lat="42.897167" lon="-2.370176">
        <ele>644.4</ele>
        <time>1970-01-01T00:08:55.000Z</time>
      </trkpt>
      <trkpt lat="42.89711" lon="-2.37008">
        <ele>644.4</ele>
        <time>1970-01-01T00:08:56.000Z</time>
      </trkpt>
      <trkpt lat="42.897015" lon="-2.369873">
        <ele>643.8</ele>
        <time>1970-01-01T00:08:58.000Z</time>
      </trkpt>
      <trkpt lat="42.896962" lon="-2.369645">
        <ele>642.6</ele>
        <time>1970-01-01T00:09:00.000Z</time>
      </trkpt>
      <trkpt lat="42.89695" lon="-2.369415">
        <ele>641.8</ele>
        <time>1970-01-01T00:09:02.000Z</time>
      </trkpt>
      <trkpt lat="42.896968" lon="-2.369191">
        <ele>640.8</ele>
        <time>1970-01-01T00:09:04.000Z</time>
      </trkpt>
      <trkpt lat="42.897064" lon="-2.368444">
        <ele>640.2</ele>
        <time>1970-01-01T00:09:11.000Z</time>
      </trkpt>
      <trkpt lat="42.897079" lon="-2.36834">
        <ele>640.2</ele>
        <time>1970-01-01T00:09:12.000Z</time>
      </trkpt>
      <trkpt lat="42.89712" lon="-2.368029">
        <ele>640.2</ele>
        <time>1970-01-01T00:09:15.000Z</time>
      </trkpt>
      <trkpt lat="42.897135" lon="-2.367924">
        <ele>640.2</ele>
        <time>1970-01-01T00:09:16.000Z</time>
      </trkpt>
      <trkpt lat="42.897228" lon="-2.367219">
        <ele>640.6</ele>
        <time>1970-01-01T00:09:23.000Z</time>
      </trkpt>
      <trkpt lat="42.897365" lon="-2.366645">
        <ele>641</ele>
        <time>1970-01-01T00:09:29.000Z</time>
      </trkpt>
      <trkpt lat="42.897626" lon="-2.365943">
        <ele>641.6</ele>
        <time>1970-01-01T00:09:37.000Z</time>
      </trkpt>
      <trkpt lat="42.897749" lon="-2.365605">
        <ele>642</ele>
        <time>1970-01-01T00:09:41.000Z</time>
      </trkpt>
      <trkpt lat="42.897894" lon="-2.365184">
        <ele>642.2</ele>
        <time>1970-01-01T00:09:46.000Z</time>
      </trkpt>
      <trkpt lat="42.897923" lon="-2.364996">
        <ele>642.2</ele>
        <time>1970-01-01T00:09:48.000Z</time>
      </trkpt>
      <trkpt lat="42.897914" lon="-2.364798">
        <ele>642.6</ele>
        <time>1970-01-01T00:09:50.000Z</time>
      </trkpt>
      <trkpt lat="42.897864" lon="-2.36461">
        <ele>642.6</ele>
        <time>1970-01-01T00:09:52.000Z</time>
      </trkpt>
      <trkpt lat="42.897788" lon="-2.364437">
        <ele>642.8</ele>
        <time>1970-01-01T00:09:54.000Z</time>
      </trkpt>
      <trkpt lat="42.897486" lon="-2.36387">
        <ele>643.2</ele>
        <time>1970-01-01T00:10:01.000Z</time>
      </trkpt>
      <trkpt lat="42.897368" lon="-2.36365">
        <ele>643.2</ele>
        <time>1970-01-01T00:10:04.000Z</time>
      </trkpt>
      <trkpt lat="42.897296" lon="-2.363515">
        <ele>643.2</ele>
        <time>1970-01-01T00:10:06.000Z</time>
      </trkpt>
      <trkpt lat="42.897159" lon="-2.363269">
        <ele>643.8</ele>
        <time>1970-01-01T00:10:10.000Z</time>
      </trkpt>
      <trkpt lat="42.897126" lon="-2.363211">
        <ele>644.2</ele>
        <time>1970-01-01T00:10:11.000Z</time>
      </trkpt>
      <trkpt lat="42.897094" lon="-2.363153">
        <ele>644.6</ele>
        <time>1970-01-01T00:10:12.000Z</time>
      </trkpt>
      <trkpt lat="42.896997" lon="-2.362978">
        <ele>645.8</ele>
        <time>1970-01-01T00:10:15.000Z</time>
      </trkpt>
      <trkpt lat="42.896921" lon="-2.362798">
        <ele>646.8</ele>
        <time>1970-01-01T00:10:18.000Z</time>
      </trkpt>
      <trkpt lat="42.896873" lon="-2.362679">
        <ele>647.2</ele>
        <time>1970-01-01T00:10:20.000Z</time>
      </trkpt>
      <trkpt lat="42.896792" lon="-2.362597">
        <ele>648.6</ele>
        <time>1970-01-01T00:10:22.000Z</time>
      </trkpt>
      <trkpt lat="42.896738" lon="-2.362577">
        <ele>648.8</ele>
        <time>1970-01-01T00:10:23.000Z</time>
      </trkpt>
      <trkpt lat="42.896622" lon="-2.36254">
        <ele>649.6</ele>
        <time>1970-01-01T00:10:25.000Z</time>
      </trkpt>
      <trkpt lat="42.896518" lon="-2.362458">
        <ele>649.6</ele>
        <time>1970-01-01T00:10:27.000Z</time>
      </trkpt>
      <trkpt lat="42.896442" lon="-2.362322">
        <ele>649.8</ele>
        <time>1970-01-01T00:10:29.000Z</time>
      </trkpt>
      <trkpt lat="42.896412" lon="-2.362242">
        <ele>649.8</ele>
        <time>1970-01-01T00:10:30.000Z</time>
      </trkpt>
      <trkpt lat="42.896387" lon="-2.362156">
        <ele>649.8</ele>
        <time>1970-01-01T00:10:31.000Z</time>
      </trkpt>
      <trkpt lat="42.896329" lon="-2.361972">
        <ele>649.8</ele>
        <time>1970-01-01T00:10:33.000Z</time>
      </trkpt>
      <trkpt lat="42.896289" lon="-2.361883">
        <ele>649.8</ele>
        <time>1970-01-01T00:10:34.000Z</time>
      </trkpt>
      <trkpt lat="42.896238" lon="-2.3618">
        <ele>649.6</ele>
        <time>1970-01-01T00:10:35.000Z</time>
      </trkpt>
      <trkpt lat="42.896112" lon="-2.361647">
        <ele>649.6</ele>
        <time>1970-01-01T00:10:37.000Z</time>
      </trkpt>
      <trkpt lat="42.896039" lon="-2.361577">
        <ele>649.6</ele>
        <time>1970-01-01T00:10:38.000Z</time>
      </trkpt>
      <trkpt lat="42.895879" lon="-2.361446">
        <ele>649.2</ele>
        <time>1970-01-01T00:10:40.000Z</time>
      </trkpt>
      <trkpt lat="42.895792" lon="-2.361378">
        <ele>648.6</ele>
        <time>1970-01-01T00:10:41.000Z</time>
      </trkpt>
      <trkpt lat="42.895704" lon="-2.36131">
        <ele>648.2</ele>
        <time>1970-01-01T00:10:42.000Z</time>
      </trkpt>
      <trkpt lat="42.895614" lon="-2.361244">
        <ele>647.6</ele>
        <time>1970-01-01T00:10:43.000Z</time>
      </trkpt>
      <trkpt lat="42.895339" lon="-2.36106">
        <ele>646</ele>
        <time>1970-01-01T00:10:46.000Z</time>
      </trkpt>
      <trkpt lat="42.895158" lon="-2.360941">
        <ele>645.2</ele>
        <time>1970-01-01T00:10:48.000Z</time>
      </trkpt>
      <trkpt lat="42.895072" lon="-2.36088">
        <ele>644.4</ele>
        <time>1970-01-01T00:10:49.000Z</time>
      </trkpt>
      <trkpt lat="42.894818" lon="-2.360669">
        <ele>642.6</ele>
        <time>1970-01-01T00:10:52.000Z</time>
      </trkpt>
      <trkpt lat="42.894737" lon="-2.360579">
        <ele>642</ele>
        <time>1970-01-01T00:10:53.000Z</time>
      </trkpt>
      <trkpt lat="42.894586" lon="-2.360371">
        <ele>641.4</ele>
        <time>1970-01-01T00:10:55.000Z</time>
      </trkpt>
      <trkpt lat="42.894514" lon="-2.360258">
        <ele>641</ele>
        <time>1970-01-01T00:10:56.000Z</time>
      </trkpt>
      <trkpt lat="42.894368" lon="-2.360027">
        <ele>640.4</ele>
        <time>1970-01-01T00:10:58.000Z</time>
      </trkpt>
      <trkpt lat="42.894295" lon="-2.35991">
        <ele>640.2</ele>
        <time>1970-01-01T00:10:59.000Z</time>
      </trkpt>
      <trkpt lat="42.894149" lon="-2.359671">
        <ele>639.2</ele>
        <time>1970-01-01T00:11:01.000Z</time>
      </trkpt>
      <trkpt lat="42.894076" lon="-2.359552">
        <ele>639.2</ele>
        <time>1970-01-01T00:11:02.000Z</time>
      </trkpt>
      <trkpt lat="42.893928" lon="-2.359312">
        <ele>637.8</ele>
        <time>1970-01-01T00:11:04.000Z</time>
      </trkpt>
      <trkpt lat="42.893854" lon="-2.359191">
        <ele>636.8</ele>
        <time>1970-01-01T00:11:05.000Z</time>
      </trkpt>
      <trkpt lat="42.893702" lon="-2.358944">
        <ele>635.4</ele>
        <time>1970-01-01T00:11:07.000Z</time>
      </trkpt>
      <trkpt lat="42.893625" lon="-2.35882">
        <ele>634.8</ele>
        <time>1970-01-01T00:11:08.000Z</time>
      </trkpt>
      <trkpt lat="42.893548" lon="-2.358693">
        <ele>634.2</ele>
        <time>1970-01-01T00:11:09.000Z</time>
      </trkpt>
      <trkpt lat="42.893392" lon="-2.35844">
        <ele>633</ele>
        <time>1970-01-01T00:11:11.000Z</time>
      </trkpt>
      <trkpt lat="42.893234" lon="-2.358192">
        <ele>631.8</ele>
        <time>1970-01-01T00:11:13.000Z</time>
      </trkpt>
      <trkpt lat="42.893003" lon="-2.357825">
        <ele>629.2</ele>
        <time>1970-01-01T00:11:16.000Z</time>
      </trkpt>
      <trkpt lat="42.892779" lon="-2.357463">
        <ele>626.4</ele>
        <time>1970-01-01T00:11:19.000Z</time>
      </trkpt>
      <trkpt lat="42.892419" lon="-2.356878">
        <ele>623.4</ele>
        <time>1970-01-01T00:11:24.000Z</time>
      </trkpt>
      <trkpt lat="42.892348" lon="-2.356765">
        <ele>623.2</ele>
        <time>1970-01-01T00:11:25.000Z</time>
      </trkpt>
      <trkpt lat="42.892076" lon="-2.356333">
        <ele>622.4</ele>
        <time>1970-01-01T00:11:29.000Z</time>
      </trkpt>
      <trkpt lat="42.89188" lon="-2.356022">
        <ele>621.8</ele>
        <time>1970-01-01T00:11:32.000Z</time>
      </trkpt>
      <trkpt lat="42.891477" lon="-2.355444">
        <ele>621.2</ele>
        <time>1970-01-01T00:11:38.000Z</time>
      </trkpt>
      <trkpt lat="42.89134" lon="-2.355254">
        <ele>620.8</ele>
        <time>1970-01-01T00:11:40.000Z</time>
      </trkpt>
      <trkpt lat="42.890929" lon="-2.3547">
        <ele>620.4</ele>
        <time>1970-01-01T00:11:46.000Z</time>
      </trkpt>
      <trkpt lat="42.890733" lon="-2.354435">
        <ele>620.2</ele>
        <time>1970-01-01T00:11:49.000Z</time>
      </trkpt>
      <trkpt lat="42.890458" lon="-2.353965">
        <ele>620</ele>
        <time>1970-01-01T00:11:54.000Z</time>
      </trkpt>
      <trkpt lat="42.890413" lon="-2.353864">
        <ele>620</ele>
        <time>1970-01-01T00:11:55.000Z</time>
      </trkpt>
      <trkpt lat="42.890103" lon="-2.353174">
        <ele>619.4</ele>
        <time>1970-01-01T00:12:02.000Z</time>
      </trkpt>
      <trkpt lat="42.890057" lon="-2.353068">
        <ele>619</ele>
        <time>1970-01-01T00:12:03.000Z</time>
      </trkpt>
      <trkpt lat="42.889958" lon="-2.352851">
        <ele>618.4</ele>
        <time>1970-01-01T00:12:05.000Z</time>
      </trkpt>
      <trkpt lat="42.889907" lon="-2.35274">
        <ele>618.2</ele>
        <time>1970-01-01T00:12:06.000Z</time>
      </trkpt>
      <trkpt lat="42.889854" lon="-2.352627">
        <ele>618</ele>
        <time>1970-01-01T00:12:07.000Z</time>
      </trkpt>
      <trkpt lat="42.889799" lon="-2.352514">
        <ele>618.2</ele>
        <time>1970-01-01T00:12:08.000Z</time>
      </trkpt>
      <trkpt lat="42.889738" lon="-2.352405">
        <ele>617.8</ele>
        <time>1970-01-01T00:12:09.000Z</time>
      </trkpt>
      <trkpt lat="42.88959" lon="-2.35221">
        <ele>617.2</ele>
        <time>1970-01-01T00:12:11.000Z</time>
      </trkpt>
      <trkpt lat="42.8895" lon="-2.352129">
        <ele>616.6</ele>
        <time>1970-01-01T00:12:12.000Z</time>
      </trkpt>
      <trkpt lat="42.889402" lon="-2.352063">
        <ele>616.6</ele>
        <time>1970-01-01T00:12:13.000Z</time>
      </trkpt>
      <trkpt lat="42.889297" lon="-2.352005">
        <ele>616.2</ele>
        <time>1970-01-01T00:12:14.000Z</time>
      </trkpt>
      <trkpt lat="42.889082" lon="-2.35189">
        <ele>614.4</ele>
        <time>1970-01-01T00:12:16.000Z</time>
      </trkpt>
      <trkpt lat="42.888974" lon="-2.351823">
        <ele>613.4</ele>
        <time>1970-01-01T00:12:17.000Z</time>
      </trkpt>
      <trkpt lat="42.888872" lon="-2.351742">
        <ele>612.8</ele>
        <time>1970-01-01T00:12:18.000Z</time>
      </trkpt>
      <trkpt lat="42.888778" lon="-2.351645">
        <ele>612.4</ele>
        <time>1970-01-01T00:12:19.000Z</time>
      </trkpt>
      <trkpt lat="42.888538" lon="-2.351327">
        <ele>611.2</ele>
        <time>1970-01-01T00:12:22.000Z</time>
      </trkpt>
      <trkpt lat="42.888393" lon="-2.351122">
        <ele>609.6</ele>
        <time>1970-01-01T00:12:24.000Z</time>
      </trkpt>
      <trkpt lat="42.887994" lon="-2.350562">
        <ele>607.6</ele>
        <time>1970-01-01T00:12:30.000Z</time>
      </trkpt>
      <trkpt lat="42.887931" lon="-2.350477">
        <ele>607.6</ele>
        <time>1970-01-01T00:12:31.000Z</time>
      </trkpt>
      <trkpt lat="42.887533" lon="-2.349868">
        <ele>607.4</ele>
        <time>1970-01-01T00:12:38.000Z</time>
      </trkpt>
      <trkpt lat="42.887483" lon="-2.349777">
        <ele>607.6</ele>
        <time>1970-01-01T00:12:39.000Z</time>
      </trkpt>
      <trkpt lat="42.887161" lon="-2.349164">
        <ele>608</ele>
        <time>1970-01-01T00:12:46.000Z</time>
      </trkpt>
      <trkpt lat="42.887115" lon="-2.349087">
        <ele>607.8</ele>
        <time>1970-01-01T00:12:47.000Z</time>
      </trkpt>
      <trkpt lat="42.88694" lon="-2.34879">
        <ele>608</ele>
        <time>1970-01-01T00:12:51.000Z</time>
      </trkpt>
      <trkpt lat="42.886762" lon="-2.348499">
        <ele>608.4</ele>
        <time>1970-01-01T00:12:55.000Z</time>
      </trkpt>
      <trkpt lat="42.886711" lon="-2.348426">
        <ele>608.2</ele>
        <time>1970-01-01T00:12:56.000Z</time>
      </trkpt>
      <trkpt lat="42.886536" lon="-2.348217">
        <ele>608.2</ele>
        <time>1970-01-01T00:12:59.000Z</time>
      </trkpt>
      <trkpt lat="42.886467" lon="-2.348179">
        <ele>608.4</ele>
        <time>1970-01-01T00:13:00.000Z</time>
      </trkpt>
      <trkpt lat="42.886394" lon="-2.348178">
        <ele>608.2</ele>
        <time>1970-01-01T00:13:01.000Z</time>
      </trkpt>
      <trkpt lat="42.886244" lon="-2.348211">
        <ele>608.2</ele>
        <time>1970-01-01T00:13:03.000Z</time>
      </trkpt>
      <trkpt lat="42.885944" lon="-2.348233">
        <ele>607.4</ele>
        <time>1970-01-01T00:13:07.000Z</time>
      </trkpt>
      <trkpt lat="42.885876" lon="-2.348206">
        <ele>607</ele>
        <time>1970-01-01T00:13:08.000Z</time>
      </trkpt>
      <trkpt lat="42.885813" lon="-2.348156">
        <ele>606.6</ele>
        <time>1970-01-01T00:13:09.000Z</time>
      </trkpt>
      <trkpt lat="42.885717" lon="-2.348002">
        <ele>606</ele>
        <time>1970-01-01T00:13:11.000Z</time>
      </trkpt>
      <trkpt lat="42.885635" lon="-2.347724">
        <ele>605.8</ele>
        <time>1970-01-01T00:13:14.000Z</time>
      </trkpt>
      <trkpt lat="42.885623" lon="-2.347628">
        <ele>605.6</ele>
        <time>1970-01-01T00:13:15.000Z</time>
      </trkpt>
      <trkpt lat="42.885605" lon="-2.347539">
        <ele>605.4</ele>
        <time>1970-01-01T00:13:16.000Z</time>
      </trkpt>
      <trkpt lat="42.885522" lon="-2.347423">
        <ele>605.2</ele>
        <time>1970-01-01T00:13:18.000Z</time>
      </trkpt>
      <trkpt lat="42.885406" lon="-2.347433">
        <ele>605.2</ele>
        <time>1970-01-01T00:13:20.000Z</time>
      </trkpt>
      <trkpt lat="42.885227" lon="-2.347569">
        <ele>605.2</ele>
        <time>1970-01-01T00:13:23.000Z</time>
      </trkpt>
      <trkpt lat="42.885161" lon="-2.347621">
        <ele>605</ele>
        <time>1970-01-01T00:13:24.000Z</time>
      </trkpt>
      <trkpt lat="42.885096" lon="-2.347673">
        <ele>605</ele>
        <time>1970-01-01T00:13:25.000Z</time>
      </trkpt>
      <trkpt lat="42.884893" lon="-2.347835">
        <ele>604.6</ele>
        <time>1970-01-01T00:13:28.000Z</time>
      </trkpt>
      <trkpt lat="42.884756" lon="-2.347969">
        <ele>604.6</ele>
        <time>1970-01-01T00:13:30.000Z</time>
      </trkpt>
      <trkpt lat="42.884642" lon="-2.348139">
        <ele>604.4</ele>
        <time>1970-01-01T00:13:32.000Z</time>
      </trkpt>
      <trkpt lat="42.884545" lon="-2.34833">
        <ele>604.2</ele>
        <time>1970-01-01T00:13:34.000Z</time>
      </trkpt>
      <trkpt lat="42.88445" lon="-2.348528">
        <ele>604</ele>
        <time>1970-01-01T00:13:36.000Z</time>
      </trkpt>
      <trkpt lat="42.884216" lon="-2.349023">
        <ele>603</ele>
        <time>1970-01-01T00:13:41.000Z</time>
      </trkpt>
      <trkpt lat="42.884173" lon="-2.349117">
        <ele>603</ele>
        <time>1970-01-01T00:13:42.000Z</time>
      </trkpt>
      <trkpt lat="42.883936" lon="-2.34965">
        <ele>602.6</ele>
        <time>1970-01-01T00:13:48.000Z</time>
      </trkpt>
      <trkpt lat="42.883856" lon="-2.34982">
        <ele>602.6</ele>
        <time>1970-01-01T00:13:50.000Z</time>
      </trkpt>
      <trkpt lat="42.883638" lon="-2.350255">
        <ele>602.6</ele>
        <time>1970-01-01T00:13:55.000Z</time>
      </trkpt>
      <trkpt lat="42.883592" lon="-2.350342">
        <ele>602.4</ele>
        <time>1970-01-01T00:13:56.000Z</time>
      </trkpt>
      <trkpt lat="42.883495" lon="-2.350516">
        <ele>602.6</ele>
        <time>1970-01-01T00:13:58.000Z</time>
      </trkpt>
      <trkpt lat="42.883296" lon="-2.350863">
        <ele>602.4</ele>
        <time>1970-01-01T00:14:02.000Z</time>
      </trkpt>
      <trkpt lat="42.883244" lon="-2.350949">
        <ele>602.4</ele>
        <time>1970-01-01T00:14:03.000Z</time>
      </trkpt>
      <trkpt lat="42.883192" lon="-2.351037">
        <ele>602.4</ele>
        <time>1970-01-01T00:14:04.000Z</time>
      </trkpt>
      <trkpt lat="42.882825" lon="-2.351669">
        <ele>601.4</ele>
        <time>1970-01-01T00:14:11.000Z</time>
      </trkpt>
      <trkpt lat="42.882773" lon="-2.351762">
        <ele>601.2</ele>
        <time>1970-01-01T00:14:12.000Z</time>
      </trkpt>
      <trkpt lat="42.882534" lon="-2.352245">
        <ele>600.8</ele>
        <time>1970-01-01T00:14:17.000Z</time>
      </trkpt>
      <trkpt lat="42.882399" lon="-2.352539">
        <ele>600.4</ele>
        <time>1970-01-01T00:14:20.000Z</time>
      </trkpt>
      <trkpt lat="42.88231" lon="-2.352738">
        <ele>600.2</ele>
        <time>1970-01-01T00:14:22.000Z</time>
      </trkpt>
      <trkpt lat="42.881997" lon="-2.353436">
        <ele>599.4</ele>
        <time>1970-01-01T00:14:29.000Z</time>
      </trkpt>
      <trkpt lat="42.881905" lon="-2.353634">
        <ele>599</ele>
        <time>1970-01-01T00:14:31.000Z</time>
      </trkpt>
      <trkpt lat="42.881705" lon="-2.354019">
        <ele>598.2</ele>
        <time>1970-01-01T00:14:35.000Z</time>
      </trkpt>
      <trkpt lat="42.881654" lon="-2.354114">
        <ele>598.4</ele>
        <time>1970-01-01T00:14:36.000Z</time>
      </trkpt>
      <trkpt lat="42.881452" lon="-2.354496">
        <ele>598</ele>
        <time>1970-01-01T00:14:40.000Z</time>
      </trkpt>
      <trkpt lat="42.881083" lon="-2.355159">
        <ele>598.2</ele>
        <time>1970-01-01T00:14:47.000Z</time>
      </trkpt>
      <trkpt lat="42.880865" lon="-2.355534">
        <ele>598.2</ele>
        <time>1970-01-01T00:14:51.000Z</time>
      </trkpt>
      <trkpt lat="42.880505" lon="-2.356046">
        <ele>598.2</ele>
        <time>1970-01-01T00:14:57.000Z</time>
      </trkpt>
      <trkpt lat="42.880269" lon="-2.356361">
        <ele>598.4</ele>
        <time>1970-01-01T00:15:01.000Z</time>
      </trkpt>
      <trkpt lat="42.880212" lon="-2.356441">
        <ele>598.4</ele>
        <time>1970-01-01T00:15:02.000Z</time>
      </trkpt>
      <trkpt lat="42.880048" lon="-2.356683">
        <ele>598.4</ele>
        <time>1970-01-01T00:15:05.000Z</time>
      </trkpt>
      <trkpt lat="42.879889" lon="-2.356921">
        <ele>598.6</ele>
        <time>1970-01-01T00:15:08.000Z</time>
      </trkpt>
      <trkpt lat="42.879627" lon="-2.357318">
        <ele>598.6</ele>
        <time>1970-01-01T00:15:13.000Z</time>
      </trkpt>
      <trkpt lat="42.879475" lon="-2.357547">
        <ele>599</ele>
        <time>1970-01-01T00:15:16.000Z</time>
      </trkpt>
      <trkpt lat="42.879337" lon="-2.357757">
        <ele>599.2</ele>
        <time>1970-01-01T00:15:19.000Z</time>
      </trkpt>
      <trkpt lat="42.879296" lon="-2.357822">
        <ele>599.4</ele>
        <time>1970-01-01T00:15:20.000Z</time>
      </trkpt>
      <trkpt lat="42.879255" lon="-2.357884">
        <ele>599.4</ele>
        <time>1970-01-01T00:15:21.000Z</time>
      </trkpt>
      <trkpt lat="42.879175" lon="-2.358008">
        <ele>599.6</ele>
        <time>1970-01-01T00:15:23.000Z</time>
      </trkpt>
      <trkpt lat="42.879103" lon="-2.358131">
        <ele>600.2</ele>
        <time>1970-01-01T00:15:25.000Z</time>
      </trkpt>
      <trkpt lat="42.879039" lon="-2.358244">
        <ele>600.8</ele>
        <time>1970-01-01T00:15:27.000Z</time>
      </trkpt>
      <trkpt lat="42.878975" lon="-2.358347">
        <ele>602.2</ele>
        <time>1970-01-01T00:15:29.000Z</time>
      </trkpt>
      <trkpt lat="42.878943" lon="-2.358394">
        <ele>602.8</ele>
        <time>1970-01-01T00:15:30.000Z</time>
      </trkpt>
      <trkpt lat="42.878868" lon="-2.35847">
        <ele>604.4</ele>
        <time>1970-01-01T00:15:32.000Z</time>
      </trkpt>
      <trkpt lat="42.878827" lon="-2.358509">
        <ele>604.8</ele>
        <time>1970-01-01T00:15:33.000Z</time>
      </trkpt>
      <trkpt lat="42.878699" lon="-2.358664">
        <ele>607.2</ele>
        <time>1970-01-01T00:15:36.000Z</time>
      </trkpt>
      <trkpt lat="42.878655" lon="-2.358731">
        <ele>607.8</ele>
        <time>1970-01-01T00:15:37.000Z</time>
      </trkpt>
      <trkpt lat="42.878568" lon="-2.358892">
        <ele>608.4</ele>
        <time>1970-01-01T00:15:39.000Z</time>
      </trkpt>
      <trkpt lat="42.878479" lon="-2.359084">
        <ele>608.6</ele>
        <time>1970-01-01T00:15:41.000Z</time>
      </trkpt>
      <trkpt lat="42.87843" lon="-2.359193">
        <ele>608.6</ele>
        <time>1970-01-01T00:15:42.000Z</time>
      </trkpt>
      <trkpt lat="42.878327" lon="-2.359425">
        <ele>608.6</ele>
        <time>1970-01-01T00:15:44.000Z</time>
      </trkpt>
      <trkpt lat="42.878223" lon="-2.359667">
        <ele>608.6</ele>
        <time>1970-01-01T00:15:46.000Z</time>
      </trkpt>
      <trkpt lat="42.878115" lon="-2.359913">
        <ele>608.2</ele>
        <time>1970-01-01T00:15:48.000Z</time>
      </trkpt>
      <trkpt lat="42.877952" lon="-2.360289">
        <ele>605.8</ele>
        <time>1970-01-01T00:15:51.000Z</time>
      </trkpt>
      <trkpt lat="42.87779" lon="-2.36066">
        <ele>603</ele>
        <time>1970-01-01T00:15:54.000Z</time>
      </trkpt>
      <trkpt lat="42.877682" lon="-2.360906">
        <ele>601.6</ele>
        <time>1970-01-01T00:15:56.000Z</time>
      </trkpt>
      <trkpt lat="42.877573" lon="-2.361153">
        <ele>600.4</ele>
        <time>1970-01-01T00:15:58.000Z</time>
      </trkpt>
      <trkpt lat="42.877463" lon="-2.361404">
        <ele>599.4</ele>
        <time>1970-01-01T00:16:00.000Z</time>
      </trkpt>
      <trkpt lat="42.87735" lon="-2.361659">
        <ele>598.6</ele>
        <time>1970-01-01T00:16:02.000Z</time>
      </trkpt>
      <trkpt lat="42.877237" lon="-2.361914">
        <ele>598.2</ele>
        <time>1970-01-01T00:16:04.000Z</time>
      </trkpt>
      <trkpt lat="42.877181" lon="-2.36204">
        <ele>597.6</ele>
        <time>1970-01-01T00:16:05.000Z</time>
      </trkpt>
      <trkpt lat="42.877068" lon="-2.362285">
        <ele>597.4</ele>
        <time>1970-01-01T00:16:07.000Z</time>
      </trkpt>
      <trkpt lat="42.8769" lon="-2.362646">
        <ele>595.4</ele>
        <time>1970-01-01T00:16:10.000Z</time>
      </trkpt>
      <trkpt lat="42.876843" lon="-2.362765">
        <ele>594.6</ele>
        <time>1970-01-01T00:16:11.000Z</time>
      </trkpt>
      <trkpt lat="42.87667" lon="-2.363118">
        <ele>592.8</ele>
        <time>1970-01-01T00:16:14.000Z</time>
      </trkpt>
      <trkpt lat="42.876441" lon="-2.363587">
        <ele>592</ele>
        <time>1970-01-01T00:16:18.000Z</time>
      </trkpt>
      <trkpt lat="42.876273" lon="-2.363933">
        <ele>591.4</ele>
        <time>1970-01-01T00:16:21.000Z</time>
      </trkpt>
      <trkpt lat="42.876098" lon="-2.364402">
        <ele>590.6</ele>
        <time>1970-01-01T00:16:25.000Z</time>
      </trkpt>
      <trkpt lat="42.876088" lon="-2.364655">
        <ele>590.6</ele>
        <time>1970-01-01T00:16:27.000Z</time>
      </trkpt>
      <trkpt lat="42.876103" lon="-2.364782">
        <ele>590.6</ele>
        <time>1970-01-01T00:16:28.000Z</time>
      </trkpt>
      <trkpt lat="42.876186" lon="-2.365146">
        <ele>590.4</ele>
        <time>1970-01-01T00:16:31.000Z</time>
      </trkpt>
      <trkpt lat="42.876249" lon="-2.365386">
        <ele>590.4</ele>
        <time>1970-01-01T00:16:33.000Z</time>
      </trkpt>
      <trkpt lat="42.87631" lon="-2.365629">
        <ele>590.6</ele>
        <time>1970-01-01T00:16:35.000Z</time>
      </trkpt>
      <trkpt lat="42.876486" lon="-2.366354">
        <ele>590.4</ele>
        <time>1970-01-01T00:16:41.000Z</time>
      </trkpt>
      <trkpt lat="42.876627" lon="-2.366931">
        <ele>590.4</ele>
        <time>1970-01-01T00:16:46.000Z</time>
      </trkpt>
      <trkpt lat="42.876713" lon="-2.367361">
        <ele>590.4</ele>
        <time>1970-01-01T00:16:50.000Z</time>
      </trkpt>
      <trkpt lat="42.876735" lon="-2.367568">
        <ele>590.4</ele>
        <time>1970-01-01T00:16:52.000Z</time>
      </trkpt>
      <trkpt lat="42.876754" lon="-2.367863">
        <ele>590.6</ele>
        <time>1970-01-01T00:16:55.000Z</time>
      </trkpt>
      <trkpt lat="42.876759" lon="-2.367959">
        <ele>590.6</ele>
        <time>1970-01-01T00:16:56.000Z</time>
      </trkpt>
      <trkpt lat="42.876772" lon="-2.368239">
        <ele>591.8</ele>
        <time>1970-01-01T00:16:59.000Z</time>
      </trkpt>
      <trkpt lat="42.876775" lon="-2.36833">
        <ele>592.6</ele>
        <time>1970-01-01T00:17:00.000Z</time>
      </trkpt>
      <trkpt lat="42.876786" lon="-2.368601">
        <ele>594</ele>
        <time>1970-01-01T00:17:03.000Z</time>
      </trkpt>
      <trkpt lat="42.876793" lon="-2.368692">
        <ele>594.2</ele>
        <time>1970-01-01T00:17:04.000Z</time>
      </trkpt>
      <trkpt lat="42.876804" lon="-2.368979">
        <ele>595.6</ele>
        <time>1970-01-01T00:17:07.000Z</time>
      </trkpt>
      <trkpt lat="42.876814" lon="-2.369278">
        <ele>596.4</ele>
        <time>1970-01-01T00:17:10.000Z</time>
      </trkpt>
      <trkpt lat="42.876821" lon="-2.369378">
        <ele>596.8</ele>
        <time>1970-01-01T00:17:11.000Z</time>
      </trkpt>
      <trkpt lat="42.876894" lon="-2.369869">
        <ele>597.4</ele>
        <time>1970-01-01T00:17:16.000Z</time>
      </trkpt>
      <trkpt lat="42.876924" lon="-2.36996">
        <ele>597.4</ele>
        <time>1970-01-01T00:17:17.000Z</time>
      </trkpt>
      <trkpt lat="42.87713" lon="-2.37038">
        <ele>598</ele>
        <time>1970-01-01T00:17:22.000Z</time>
      </trkpt>
      <trkpt lat="42.877466" lon="-2.370995">
        <ele>598</ele>
        <time>1970-01-01T00:17:29.000Z</time>
      </trkpt>
      <trkpt lat="42.877559" lon="-2.37119">
        <ele>598</ele>
        <time>1970-01-01T00:17:31.000Z</time>
      </trkpt>
      <trkpt lat="42.877708" lon="-2.371616">
        <ele>597.6</ele>
        <time>1970-01-01T00:17:35.000Z</time>
      </trkpt>
      <trkpt lat="42.877741" lon="-2.371725">
        <ele>597.6</ele>
        <time>1970-01-01T00:17:36.000Z</time>
      </trkpt>
      <trkpt lat="42.877839" lon="-2.372053">
        <ele>597.2</ele>
        <time>1970-01-01T00:17:39.000Z</time>
      </trkpt>
      <trkpt lat="42.877938" lon="-2.372393">
        <ele>596.8</ele>
        <time>1970-01-01T00:17:42.000Z</time>
      </trkpt>
      <trkpt lat="42.877971" lon="-2.37251">
        <ele>597</ele>
        <time>1970-01-01T00:17:43.000Z</time>
      </trkpt>
      <trkpt lat="42.878003" lon="-2.372629">
        <ele>596.8</ele>
        <time>1970-01-01T00:17:44.000Z</time>
      </trkpt>
      <trkpt lat="42.878051" lon="-2.372879">
        <ele>596.8</ele>
        <time>1970-01-01T00:17:46.000Z</time>
      </trkpt>
      <trkpt lat="42.878049" lon="-2.373011">
        <ele>596.8</ele>
        <time>1970-01-01T00:17:47.000Z</time>
      </trkpt>
      <trkpt lat="42.878019" lon="-2.373143">
        <ele>596.8</ele>
        <time>1970-01-01T00:17:48.000Z</time>
      </trkpt>
      <trkpt lat="42.877962" lon="-2.373267">
        <ele>596.4</ele>
        <time>1970-01-01T00:17:49.000Z</time>
      </trkpt>
      <trkpt lat="42.877886" lon="-2.373375">
        <ele>596.2</ele>
        <time>1970-01-01T00:17:50.000Z</time>
      </trkpt>
      <trkpt lat="42.877795" lon="-2.373467">
        <ele>596</ele>
        <time>1970-01-01T00:17:51.000Z</time>
      </trkpt>
      <trkpt lat="42.877693" lon="-2.373556">
        <ele>595.6</ele>
        <time>1970-01-01T00:17:52.000Z</time>
      </trkpt>
      <trkpt lat="42.877478" lon="-2.373739">
        <ele>595.2</ele>
        <time>1970-01-01T00:17:54.000Z</time>
      </trkpt>
      <trkpt lat="42.877368" lon="-2.373832">
        <ele>594.2</ele>
        <time>1970-01-01T00:17:55.000Z</time>
      </trkpt>
      <trkpt lat="42.877259" lon="-2.373923">
        <ele>593.8</ele>
        <time>1970-01-01T00:17:56.000Z</time>
      </trkpt>
      <trkpt lat="42.877151" lon="-2.374014">
        <ele>592.8</ele>
        <time>1970-01-01T00:17:57.000Z</time>
      </trkpt>
      <trkpt lat="42.876939" lon="-2.37419">
        <ele>591.2</ele>
        <time>1970-01-01T00:17:59.000Z</time>
      </trkpt>
      <trkpt lat="42.876636" lon="-2.374445">
        <ele>587.4</ele>
        <time>1970-01-01T00:18:02.000Z</time>
      </trkpt>
      <trkpt lat="42.876255" lon="-2.374763">
        <ele>584.6</ele>
        <time>1970-01-01T00:18:06.000Z</time>
      </trkpt>
      <trkpt lat="42.875902" lon="-2.375061">
        <ele>584</ele>
        <time>1970-01-01T00:18:10.000Z</time>
      </trkpt>
      <trkpt lat="42.875817" lon="-2.375131">
        <ele>584</ele>
        <time>1970-01-01T00:18:11.000Z</time>
      </trkpt>
      <trkpt lat="42.875735" lon="-2.3752">
        <ele>584</ele>
        <time>1970-01-01T00:18:12.000Z</time>
      </trkpt>
      <trkpt lat="42.875655" lon="-2.375267">
        <ele>583.8</ele>
        <time>1970-01-01T00:18:13.000Z</time>
      </trkpt>
      <trkpt lat="42.875289" lon="-2.375579">
        <ele>584.2</ele>
        <time>1970-01-01T00:18:18.000Z</time>
      </trkpt>
      <trkpt lat="42.875167" lon="-2.375689">
        <ele>584.8</ele>
        <time>1970-01-01T00:18:20.000Z</time>
      </trkpt>
      <trkpt lat="42.875054" lon="-2.375794">
        <ele>585.2</ele>
        <time>1970-01-01T00:18:22.000Z</time>
      </trkpt>
      <trkpt lat="42.874999" lon="-2.375847">
        <ele>585.8</ele>
        <time>1970-01-01T00:18:23.000Z</time>
      </trkpt>
      <trkpt lat="42.874944" lon="-2.375901">
        <ele>586.4</ele>
        <time>1970-01-01T00:18:24.000Z</time>
      </trkpt>
      <trkpt lat="42.874895" lon="-2.37595">
        <ele>586.8</ele>
        <time>1970-01-01T00:18:25.000Z</time>
      </trkpt>
      <trkpt lat="42.874854" lon="-2.375998">
        <ele>587</ele>
        <time>1970-01-01T00:18:26.000Z</time>
      </trkpt>
      <trkpt lat="42.874775" lon="-2.376112">
        <ele>588</ele>
        <time>1970-01-01T00:18:28.000Z</time>
      </trkpt>
      <trkpt lat="42.87468" lon="-2.37624">
        <ele>589.2</ele>
        <time>1970-01-01T00:18:30.000Z</time>
      </trkpt>
      <trkpt lat="42.874552" lon="-2.376325">
        <ele>591</ele>
        <time>1970-01-01T00:18:32.000Z</time>
      </trkpt>
      <trkpt lat="42.874419" lon="-2.376307">
        <ele>591.6</ele>
        <time>1970-01-01T00:18:34.000Z</time>
      </trkpt>
      <trkpt lat="42.874354" lon="-2.376291">
        <ele>591.8</ele>
        <time>1970-01-01T00:18:35.000Z</time>
      </trkpt>
      <trkpt lat="42.87429" lon="-2.376304">
        <ele>592</ele>
        <time>1970-01-01T00:18:36.000Z</time>
      </trkpt>
      <trkpt lat="42.874224" lon="-2.376339">
        <ele>592.2</ele>
        <time>1970-01-01T00:18:37.000Z</time>
      </trkpt>
      <trkpt lat="42.874168" lon="-2.376386">
        <ele>592.2</ele>
        <time>1970-01-01T00:18:38.000Z</time>
      </trkpt>
      <trkpt lat="42.874079" lon="-2.37653">
        <ele>592.6</ele>
        <time>1970-01-01T00:18:40.000Z</time>
      </trkpt>
      <trkpt lat="42.873992" lon="-2.376693">
        <ele>592.8</ele>
        <time>1970-01-01T00:18:42.000Z</time>
      </trkpt>
      <trkpt lat="42.873878" lon="-2.376848">
        <ele>592.6</ele>
        <time>1970-01-01T00:18:44.000Z</time>
      </trkpt>
      <trkpt lat="42.873725" lon="-2.376961">
        <ele>592.4</ele>
        <time>1970-01-01T00:18:46.000Z</time>
      </trkpt>
      <trkpt lat="42.873635" lon="-2.376998">
        <ele>592.4</ele>
        <time>1970-01-01T00:18:47.000Z</time>
      </trkpt>
      <trkpt lat="42.873533" lon="-2.37703">
        <ele>592.2</ele>
        <time>1970-01-01T00:18:48.000Z</time>
      </trkpt>
      <trkpt lat="42.873315" lon="-2.377088">
        <ele>592</ele>
        <time>1970-01-01T00:18:50.000Z</time>
      </trkpt>
      <trkpt lat="42.873209" lon="-2.377122">
        <ele>592</ele>
        <time>1970-01-01T00:18:51.000Z</time>
      </trkpt>
      <trkpt lat="42.872796" lon="-2.377248">
        <ele>590</ele>
        <time>1970-01-01T00:18:55.000Z</time>
      </trkpt>
      <trkpt lat="42.872605" lon="-2.377308">
        <ele>588</ele>
        <time>1970-01-01T00:18:57.000Z</time>
      </trkpt>
      <trkpt lat="42.872346" lon="-2.377381">
        <ele>587.2</ele>
        <time>1970-01-01T00:19:00.000Z</time>
      </trkpt>
      <trkpt lat="42.872203" lon="-2.377399">
        <ele>587</ele>
        <time>1970-01-01T00:19:02.000Z</time>
      </trkpt>
      <trkpt lat="42.871864" lon="-2.377388">
        <ele>587</ele>
        <time>1970-01-01T00:19:07.000Z</time>
      </trkpt>
      <trkpt lat="42.871792" lon="-2.377388">
        <ele>587.6</ele>
        <time>1970-01-01T00:19:08.000Z</time>
      </trkpt>
      <trkpt lat="42.871645" lon="-2.377402">
        <ele>588.6</ele>
        <time>1970-01-01T00:19:10.000Z</time>
      </trkpt>
      <trkpt lat="42.871502" lon="-2.377458">
        <ele>590.4</ele>
        <time>1970-01-01T00:19:12.000Z</time>
      </trkpt>
      <trkpt lat="42.871396" lon="-2.377582">
        <ele>591.4</ele>
        <time>1970-01-01T00:19:14.000Z</time>
      </trkpt>
      <trkpt lat="42.871361" lon="-2.377662">
        <ele>591.6</ele>
        <time>1970-01-01T00:19:15.000Z</time>
      </trkpt>
      <trkpt lat="42.87134" lon="-2.377747">
        <ele>591.6</ele>
        <time>1970-01-01T00:19:16.000Z</time>
      </trkpt>
      <trkpt lat="42.871332" lon="-2.377924">
        <ele>591.8</ele>
        <time>1970-01-01T00:19:18.000Z</time>
      </trkpt>
      <trkpt lat="42.871381" lon="-2.378272">
        <ele>592.2</ele>
        <time>1970-01-01T00:19:22.000Z</time>
      </trkpt>
      <trkpt lat="42.871407" lon="-2.378443">
        <ele>593</ele>
        <time>1970-01-01T00:19:24.000Z</time>
      </trkpt>
      <trkpt lat="42.871422" lon="-2.378527">
        <ele>593.6</ele>
        <time>1970-01-01T00:19:25.000Z</time>
      </trkpt>
      <trkpt lat="42.871471" lon="-2.37886">
        <ele>594.8</ele>
        <time>1970-01-01T00:19:29.000Z</time>
      </trkpt>
      <trkpt lat="42.871477" lon="-2.378944">
        <ele>595</ele>
        <time>1970-01-01T00:19:30.000Z</time>
      </trkpt>
      <trkpt lat="42.871469" lon="-2.379117">
        <ele>595.8</ele>
        <time>1970-01-01T00:19:32.000Z</time>
      </trkpt>
      <trkpt lat="42.871423" lon="-2.379284">
        <ele>596.4</ele>
        <time>1970-01-01T00:19:34.000Z</time>
      </trkpt>
      <trkpt lat="42.871385" lon="-2.379356">
        <ele>596.6</ele>
        <time>1970-01-01T00:19:35.000Z</time>
      </trkpt>
      <trkpt lat="42.871339" lon="-2.37942">
        <ele>596.8</ele>
        <time>1970-01-01T00:19:36.000Z</time>
      </trkpt>
      <trkpt lat="42.871192" lon="-2.379586">
        <ele>597.8</ele>
        <time>1970-01-01T00:19:39.000Z</time>
      </trkpt>
      <trkpt lat="42.871141" lon="-2.379638">
        <ele>597.8</ele>
        <time>1970-01-01T00:19:40.000Z</time>
      </trkpt>
      <trkpt lat="42.870895" lon="-2.379896">
        <ele>598.4</ele>
        <time>1970-01-01T00:19:45.000Z</time>
      </trkpt>
      <trkpt lat="42.870701" lon="-2.380107">
        <ele>599</ele>
        <time>1970-01-01T00:19:49.000Z</time>
      </trkpt>
      <trkpt lat="42.870436" lon="-2.380397">
        <ele>600</ele>
        <time>1970-01-01T00:19:54.000Z</time>
      </trkpt>
      <trkpt lat="42.870376" lon="-2.380462">
        <ele>599.8</ele>
        <time>1970-01-01T00:19:55.000Z</time>
      </trkpt>
      <trkpt lat="42.869927" lon="-2.38096">
        <ele>600</ele>
        <time>1970-01-01T00:20:02.000Z</time>
      </trkpt>
      <trkpt lat="42.869857" lon="-2.381036">
        <ele>599.8</ele>
        <time>1970-01-01T00:20:03.000Z</time>
      </trkpt>
      <trkpt lat="42.869503" lon="-2.381424">
        <ele>599.2</ele>
        <time>1970-01-01T00:20:08.000Z</time>
      </trkpt>
      <trkpt lat="42.869156" lon="-2.381811">
        <ele>598.4</ele>
        <time>1970-01-01T00:20:13.000Z</time>
      </trkpt>
      <trkpt lat="42.869089" lon="-2.381882">
        <ele>598.2</ele>
        <time>1970-01-01T00:20:14.000Z</time>
      </trkpt>
      <trkpt lat="42.868714" lon="-2.382296">
        <ele>598.2</ele>
        <time>1970-01-01T00:20:20.000Z</time>
      </trkpt>
      <trkpt lat="42.868655" lon="-2.38236">
        <ele>598.2</ele>
        <time>1970-01-01T00:20:21.000Z</time>
      </trkpt>
      <trkpt lat="42.868312" lon="-2.382749">
        <ele>599.2</ele>
        <time>1970-01-01T00:20:27.000Z</time>
      </trkpt>
      <trkpt lat="42.868198" lon="-2.382877">
        <ele>599.8</ele>
        <time>1970-01-01T00:20:29.000Z</time>
      </trkpt>
      <trkpt lat="42.868084" lon="-2.383004">
        <ele>600.2</ele>
        <time>1970-01-01T00:20:31.000Z</time>
      </trkpt>
      <trkpt lat="42.867748" lon="-2.383391">
        <ele>601.6</ele>
        <time>1970-01-01T00:20:37.000Z</time>
      </trkpt>
      <trkpt lat="42.867693" lon="-2.383458">
        <ele>602.2</ele>
        <time>1970-01-01T00:20:38.000Z</time>
      </trkpt>
      <trkpt lat="42.86764" lon="-2.383529">
        <ele>602.2</ele>
        <time>1970-01-01T00:20:39.000Z</time>
      </trkpt>
      <trkpt lat="42.867398" lon="-2.383909">
        <ele>602.8</ele>
        <time>1970-01-01T00:20:44.000Z</time>
      </trkpt>
      <trkpt lat="42.867346" lon="-2.38398">
        <ele>602.8</ele>
        <time>1970-01-01T00:20:45.000Z</time>
      </trkpt>
      <trkpt lat="42.867219" lon="-2.384091">
        <ele>602.8</ele>
        <time>1970-01-01T00:20:47.000Z</time>
      </trkpt>
      <trkpt lat="42.867149" lon="-2.384135">
        <ele>602.8</ele>
        <time>1970-01-01T00:20:48.000Z</time>
      </trkpt>
      <trkpt lat="42.866782" lon="-2.384333">
        <ele>602.8</ele>
        <time>1970-01-01T00:20:53.000Z</time>
      </trkpt>
      <trkpt lat="42.866408" lon="-2.384535">
        <ele>602.8</ele>
        <time>1970-01-01T00:20:58.000Z</time>
      </trkpt>
      <trkpt lat="42.866328" lon="-2.384578">
        <ele>602.6</ele>
        <time>1970-01-01T00:20:59.000Z</time>
      </trkpt>
      <trkpt lat="42.866156" lon="-2.38467">
        <ele>602.4</ele>
        <time>1970-01-01T00:21:01.000Z</time>
      </trkpt>
      <trkpt lat="42.865974" lon="-2.384769">
        <ele>602.4</ele>
        <time>1970-01-01T00:21:03.000Z</time>
      </trkpt>
      <trkpt lat="42.865878" lon="-2.38482">
        <ele>602</ele>
        <time>1970-01-01T00:21:04.000Z</time>
      </trkpt>
      <trkpt lat="42.865681" lon="-2.384924">
        <ele>602.2</ele>
        <time>1970-01-01T00:21:06.000Z</time>
      </trkpt>
      <trkpt lat="42.865478" lon="-2.385034">
        <ele>601.8</ele>
        <time>1970-01-01T00:21:08.000Z</time>
      </trkpt>
      <trkpt lat="42.865166" lon="-2.385199">
        <ele>600</ele>
        <time>1970-01-01T00:21:11.000Z</time>
      </trkpt>
      <trkpt lat="42.865062" lon="-2.385255">
        <ele>599.6</ele>
        <time>1970-01-01T00:21:12.000Z</time>
      </trkpt>
      <trkpt lat="42.864958" lon="-2.385311">
        <ele>598.8</ele>
        <time>1970-01-01T00:21:13.000Z</time>
      </trkpt>
      <trkpt lat="42.864549" lon="-2.385531">
        <ele>596.2</ele>
        <time>1970-01-01T00:21:17.000Z</time>
      </trkpt>
      <trkpt lat="42.863951" lon="-2.385852">
        <ele>593.8</ele>
        <time>1970-01-01T00:21:23.000Z</time>
      </trkpt>
      <trkpt lat="42.863854" lon="-2.385904">
        <ele>593.4</ele>
        <time>1970-01-01T00:21:24.000Z</time>
      </trkpt>
      <trkpt lat="42.863377" lon="-2.386166">
        <ele>592.6</ele>
        <time>1970-01-01T00:21:29.000Z</time>
      </trkpt>
      <trkpt lat="42.862906" lon="-2.386421">
        <ele>592</ele>
        <time>1970-01-01T00:21:34.000Z</time>
      </trkpt>
      <trkpt lat="42.862618" lon="-2.386527">
        <ele>591.8</ele>
        <time>1970-01-01T00:21:37.000Z</time>
      </trkpt>
      <trkpt lat="42.862521" lon="-2.386539">
        <ele>591.6</ele>
        <time>1970-01-01T00:21:38.000Z</time>
      </trkpt>
      <trkpt lat="42.862129" lon="-2.386526">
        <ele>591.4</ele>
        <time>1970-01-01T00:21:42.000Z</time>
      </trkpt>
      <trkpt lat="42.861935" lon="-2.386514">
        <ele>591.4</ele>
        <time>1970-01-01T00:21:44.000Z</time>
      </trkpt>
      <trkpt lat="42.861365" lon="-2.386493">
        <ele>590.8</ele>
        <time>1970-01-01T00:21:50.000Z</time>
      </trkpt>
      <trkpt lat="42.861084" lon="-2.386501">
        <ele>590.6</ele>
        <time>1970-01-01T00:21:53.000Z</time>
      </trkpt>
      <trkpt lat="42.860714" lon="-2.386512">
        <ele>590.8</ele>
        <time>1970-01-01T00:21:57.000Z</time>
      </trkpt>
      <trkpt lat="42.860341" lon="-2.386528">
        <ele>590.8</ele>
        <time>1970-01-01T00:22:01.000Z</time>
      </trkpt>
      <trkpt lat="42.859783" lon="-2.386593">
        <ele>590.8</ele>
        <time>1970-01-01T00:22:07.000Z</time>
      </trkpt>
      <trkpt lat="42.859505" lon="-2.38664">
        <ele>590.6</ele>
        <time>1970-01-01T00:22:10.000Z</time>
      </trkpt>
      <trkpt lat="42.859321" lon="-2.386668">
        <ele>590.2</ele>
        <time>1970-01-01T00:22:12.000Z</time>
      </trkpt>
      <trkpt lat="42.858782" lon="-2.386769">
        <ele>589.8</ele>
        <time>1970-01-01T00:22:18.000Z</time>
      </trkpt>
      <trkpt lat="42.858692" lon="-2.386796">
        <ele>590</ele>
        <time>1970-01-01T00:22:19.000Z</time>
      </trkpt>
      <trkpt lat="42.85851" lon="-2.386854">
        <ele>589.8</ele>
        <time>1970-01-01T00:22:21.000Z</time>
      </trkpt>
      <trkpt lat="42.858225" lon="-2.386938">
        <ele>589.8</ele>
        <time>1970-01-01T00:22:24.000Z</time>
      </trkpt>
      <trkpt lat="42.857943" lon="-2.387024">
        <ele>589.6</ele>
        <time>1970-01-01T00:22:27.000Z</time>
      </trkpt>
      <trkpt lat="42.857763" lon="-2.387105">
        <ele>589.2</ele>
        <time>1970-01-01T00:22:29.000Z</time>
      </trkpt>
      <trkpt lat="42.857596" lon="-2.387222">
        <ele>588.6</ele>
        <time>1970-01-01T00:22:31.000Z</time>
      </trkpt>
      <trkpt lat="42.857438" lon="-2.387354">
        <ele>587.6</ele>
        <time>1970-01-01T00:22:33.000Z</time>
      </trkpt>
      <trkpt lat="42.857064" lon="-2.387689">
        <ele>586.4</ele>
        <time>1970-01-01T00:22:38.000Z</time>
      </trkpt>
      <trkpt lat="42.856548" lon="-2.388148">
        <ele>586.2</ele>
        <time>1970-01-01T00:22:45.000Z</time>
      </trkpt>
      <trkpt lat="42.856472" lon="-2.388219">
        <ele>586.2</ele>
        <time>1970-01-01T00:22:46.000Z</time>
      </trkpt>
      <trkpt lat="42.856316" lon="-2.388367">
        <ele>586.2</ele>
        <time>1970-01-01T00:22:48.000Z</time>
      </trkpt>
      <trkpt lat="42.856159" lon="-2.388518">
        <ele>586</ele>
        <time>1970-01-01T00:22:50.000Z</time>
      </trkpt>
      <trkpt lat="42.85608" lon="-2.38859">
        <ele>585.8</ele>
        <time>1970-01-01T00:22:51.000Z</time>
      </trkpt>
      <trkpt lat="42.855855" lon="-2.388803">
        <ele>585.6</ele>
        <time>1970-01-01T00:22:54.000Z</time>
      </trkpt>
      <trkpt lat="42.85578" lon="-2.388875">
        <ele>585.4</ele>
        <time>1970-01-01T00:22:55.000Z</time>
      </trkpt>
      <trkpt lat="42.855707" lon="-2.388946">
        <ele>585.2</ele>
        <time>1970-01-01T00:22:56.000Z</time>
      </trkpt>
      <trkpt lat="42.855414" lon="-2.389219">
        <ele>584</ele>
        <time>1970-01-01T00:23:00.000Z</time>
      </trkpt>
      <trkpt lat="42.855343" lon="-2.389289">
        <ele>583.8</ele>
        <time>1970-01-01T00:23:01.000Z</time>
      </trkpt>
      <trkpt lat="42.855275" lon="-2.389356">
        <ele>583.8</ele>
        <time>1970-01-01T00:23:02.000Z</time>
      </trkpt>
      <trkpt lat="42.855076" lon="-2.389511">
        <ele>583.8</ele>
        <time>1970-01-01T00:23:05.000Z</time>
      </trkpt>
      <trkpt lat="42.855011" lon="-2.389547">
        <ele>583.6</ele>
        <time>1970-01-01T00:23:06.000Z</time>
      </trkpt>
      <trkpt lat="42.854954" lon="-2.389582">
        <ele>583.8</ele>
        <time>1970-01-01T00:23:07.000Z</time>
      </trkpt>
      <trkpt lat="42.854854" lon="-2.38963">
        <ele>583.8</ele>
        <time>1970-01-01T00:23:09.000Z</time>
      </trkpt>
      <trkpt lat="42.854812" lon="-2.389621">
        <ele>584</ele>
        <time>1970-01-01T00:23:10.000Z</time>
      </trkpt>
      <trkpt lat="42.854781" lon="-2.389582">
        <ele>584</ele>
        <time>1970-01-01T00:23:11.000Z</time>
      </trkpt>
      <trkpt lat="42.854723" lon="-2.389475">
        <ele>584.2</ele>
        <time>1970-01-01T00:23:13.000Z</time>
      </trkpt>
      <trkpt lat="42.854684" lon="-2.389421">
        <ele>584.8</ele>
        <time>1970-01-01T00:23:14.000Z</time>
      </trkpt>
      <trkpt lat="42.854591" lon="-2.389327">
        <ele>585.8</ele>
        <time>1970-01-01T00:23:16.000Z</time>
      </trkpt>
      <trkpt lat="42.854543" lon="-2.389288">
        <ele>586.2</ele>
        <time>1970-01-01T00:23:17.000Z</time>
      </trkpt>
      <trkpt lat="42.854496" lon="-2.389252">
        <ele>586.4</ele>
        <time>1970-01-01T00:23:18.000Z</time>
      </trkpt>
      <trkpt lat="42.854402" lon="-2.389189">
        <ele>586.6</ele>
        <time>1970-01-01T00:23:20.000Z</time>
      </trkpt>
      <trkpt lat="42.854297" lon="-2.389148">
        <ele>587</ele>
        <time>1970-01-01T00:23:22.000Z</time>
      </trkpt>
      <trkpt lat="42.854243" lon="-2.389132">
        <ele>587</ele>
        <time>1970-01-01T00:23:23.000Z</time>
      </trkpt>
      <trkpt lat="42.854127" lon="-2.389099">
        <ele>587.2</ele>
        <time>1970-01-01T00:23:25.000Z</time>
      </trkpt>
      <trkpt lat="42.854006" lon="-2.389063">
        <ele>588.4</ele>
        <time>1970-01-01T00:23:27.000Z</time>
      </trkpt>
      <trkpt lat="42.853819" lon="-2.389006">
        <ele>589.8</ele>
        <time>1970-01-01T00:23:30.000Z</time>
      </trkpt>
      <trkpt lat="42.853756" lon="-2.388987">
        <ele>590</ele>
        <time>1970-01-01T00:23:31.000Z</time>
      </trkpt>
      <trkpt lat="42.853258" lon="-2.388841">
        <ele>591.2</ele>
        <time>1970-01-01T00:23:39.000Z</time>
      </trkpt>
      <trkpt lat="42.853196" lon="-2.388822">
        <ele>591.2</ele>
        <time>1970-01-01T00:23:40.000Z</time>
      </trkpt>
      <trkpt lat="42.852884" lon="-2.388729">
        <ele>591.6</ele>
        <time>1970-01-01T00:23:45.000Z</time>
      </trkpt>
      <trkpt lat="42.852755" lon="-2.388709">
        <ele>591.6</ele>
        <time>1970-01-01T00:23:47.000Z</time>
      </trkpt>
      <trkpt lat="42.852372" lon="-2.388705">
        <ele>592.6</ele>
        <time>1970-01-01T00:23:53.000Z</time>
      </trkpt>
      <trkpt lat="42.852309" lon="-2.388707">
        <ele>592.6</ele>
        <time>1970-01-01T00:23:54.000Z</time>
      </trkpt>
      <trkpt lat="42.85181" lon="-2.388654">
        <ele>592.8</ele>
        <time>1970-01-01T00:24:02.000Z</time>
      </trkpt>
      <trkpt lat="42.851567" lon="-2.388562">
        <ele>593.4</ele>
        <time>1970-01-01T00:24:06.000Z</time>
      </trkpt>
      <trkpt lat="42.851506" lon="-2.38854">
        <ele>593.6</ele>
        <time>1970-01-01T00:24:07.000Z</time>
      </trkpt>
      <trkpt lat="42.851384" lon="-2.388487">
        <ele>593.6</ele>
        <time>1970-01-01T00:24:09.000Z</time>
      </trkpt>
      <trkpt lat="42.850903" lon="-2.388297">
        <ele>594.4</ele>
        <time>1970-01-01T00:24:17.000Z</time>
      </trkpt>
      <trkpt lat="42.85067" lon="-2.388182">
        <ele>595</ele>
        <time>1970-01-01T00:24:21.000Z</time>
      </trkpt>
      <trkpt lat="42.850505" lon="-2.388073">
        <ele>595.2</ele>
        <time>1970-01-01T00:24:24.000Z</time>
      </trkpt>
      <trkpt lat="42.850345" lon="-2.387963">
        <ele>595.4</ele>
        <time>1970-01-01T00:24:27.000Z</time>
      </trkpt>
      <trkpt lat="42.850138" lon="-2.387823">
        <ele>596</ele>
        <time>1970-01-01T00:24:31.000Z</time>
      </trkpt>
      <trkpt lat="42.850038" lon="-2.387758">
        <ele>596.2</ele>
        <time>1970-01-01T00:24:33.000Z</time>
      </trkpt>
      <trkpt lat="42.849913" lon="-2.387665">
        <ele>597</ele>
        <time>1970-01-01T00:24:36.000Z</time>
      </trkpt>
      <trkpt lat="42.849789" lon="-2.387574">
        <ele>597.4</ele>
        <time>1970-01-01T00:24:39.000Z</time>
      </trkpt>
      <trkpt lat="42.849588" lon="-2.387448">
        <ele>598.4</ele>
        <time>1970-01-01T00:24:44.000Z</time>
      </trkpt>
      <trkpt lat="42.849549" lon="-2.38744">
        <ele>598.6</ele>
        <time>1970-01-01T00:24:45.000Z</time>
      </trkpt>
      <trkpt lat="42.849439" lon="-2.387382">
        <ele>600.2</ele>
        <time>1970-01-01T00:24:48.000Z</time>
      </trkpt>
      <trkpt lat="42.849418" lon="-2.387339">
        <ele>600.4</ele>
        <time>1970-01-01T00:24:49.000Z</time>
      </trkpt>
      <trkpt lat="42.849408" lon="-2.387254">
        <ele>600.6</ele>
        <time>1970-01-01T00:24:51.000Z</time>
      </trkpt>
      <trkpt lat="42.849426" lon="-2.387215">
        <ele>600.6</ele>
        <time>1970-01-01T00:24:52.000Z</time>
      </trkpt>
      <trkpt lat="42.849489" lon="-2.387132">
        <ele>600.6</ele>
        <time>1970-01-01T00:24:54.000Z</time>
      </trkpt>
      <trkpt lat="42.849541" lon="-2.387017">
        <ele>600.6</ele>
        <time>1970-01-01T00:24:56.000Z</time>
      </trkpt>
      <trkpt lat="42.849568" lon="-2.386945">
        <ele>600.8</ele>
        <time>1970-01-01T00:24:57.000Z</time>
      </trkpt>
      <trkpt lat="42.84965" lon="-2.3867">
        <ele>600.6</ele>
        <time>1970-01-01T00:25:00.000Z</time>
      </trkpt>
      <trkpt lat="42.84968" lon="-2.386611">
        <ele>600.6</ele>
        <time>1970-01-01T00:25:01.000Z</time>
      </trkpt>
      <trkpt lat="42.849777" lon="-2.386329">
        <ele>600.4</ele>
        <time>1970-01-01T00:25:04.000Z</time>
      </trkpt>
      <trkpt lat="42.849912" lon="-2.385912">
        <ele>598.6</ele>
        <time>1970-01-01T00:25:08.000Z</time>
      </trkpt>
      <trkpt lat="42.849998" lon="-2.38557">
        <ele>597.2</ele>
        <time>1970-01-01T00:25:11.000Z</time>
      </trkpt>
      <trkpt lat="42.850046" lon="-2.38522">
        <ele>596</ele>
        <time>1970-01-01T00:25:14.000Z</time>
      </trkpt>
      <trkpt lat="42.850043" lon="-2.384889">
        <ele>595.4</ele>
        <time>1970-01-01T00:25:17.000Z</time>
      </trkpt>
      <trkpt lat="42.850033" lon="-2.384785">
        <ele>595.2</ele>
        <time>1970-01-01T00:25:18.000Z</time>
      </trkpt>
      <trkpt lat="42.849976" lon="-2.384492">
        <ele>595.2</ele>
        <time>1970-01-01T00:25:21.000Z</time>
      </trkpt>
      <trkpt lat="42.849927" lon="-2.384317">
        <ele>595.4</ele>
        <time>1970-01-01T00:25:23.000Z</time>
      </trkpt>
      <trkpt lat="42.849898" lon="-2.384235">
        <ele>595.4</ele>
        <time>1970-01-01T00:25:24.000Z</time>
      </trkpt>
      <trkpt lat="42.849832" lon="-2.384081">
        <ele>595.6</ele>
        <time>1970-01-01T00:25:26.000Z</time>
      </trkpt>
      <trkpt lat="42.849757" lon="-2.383936">
        <ele>596.2</ele>
        <time>1970-01-01T00:25:28.000Z</time>
      </trkpt>
      <trkpt lat="42.849716" lon="-2.383868">
        <ele>596.4</ele>
        <time>1970-01-01T00:25:29.000Z</time>
      </trkpt>
      <trkpt lat="42.849623" lon="-2.383738">
        <ele>597.2</ele>
        <time>1970-01-01T00:25:31.000Z</time>
      </trkpt>
      <trkpt lat="42.849574" lon="-2.383676">
        <ele>597.6</ele>
        <time>1970-01-01T00:25:32.000Z</time>
      </trkpt>
      <trkpt lat="42.849475" lon="-2.383566">
        <ele>598.6</ele>
        <time>1970-01-01T00:25:34.000Z</time>
      </trkpt>
      <trkpt lat="42.849426" lon="-2.383516">
        <ele>599</ele>
        <time>1970-01-01T00:25:35.000Z</time>
      </trkpt>
      <trkpt lat="42.849326" lon="-2.383419">
        <ele>600</ele>
        <time>1970-01-01T00:25:37.000Z</time>
      </trkpt>
      <trkpt lat="42.848944" lon="-2.383101">
        <ele>602</ele>
        <time>1970-01-01T00:25:44.000Z</time>
      </trkpt>
      <trkpt lat="42.848635" lon="-2.382875">
        <ele>602.4</ele>
        <time>1970-01-01T00:25:49.000Z</time>
      </trkpt>
      <trkpt lat="42.84857" lon="-2.382825">
        <ele>602.4</ele>
        <time>1970-01-01T00:25:50.000Z</time>
      </trkpt>
      <trkpt lat="42.848438" lon="-2.382721">
        <ele>602.4</ele>
        <time>1970-01-01T00:25:52.000Z</time>
      </trkpt>
      <trkpt lat="42.84837" lon="-2.382667">
        <ele>602.4</ele>
        <time>1970-01-01T00:25:53.000Z</time>
      </trkpt>
      <trkpt lat="42.848148" lon="-2.38252">
        <ele>602.2</ele>
        <time>1970-01-01T00:25:56.000Z</time>
      </trkpt>
      <trkpt lat="42.848063" lon="-2.382503">
        <ele>602.4</ele>
        <time>1970-01-01T00:25:57.000Z</time>
      </trkpt>
      <trkpt lat="42.847975" lon="-2.38251">
        <ele>602.2</ele>
        <time>1970-01-01T00:25:58.000Z</time>
      </trkpt>
      <trkpt lat="42.847804" lon="-2.382543">
        <ele>601.8</ele>
        <time>1970-01-01T00:26:00.000Z</time>
      </trkpt>
      <trkpt lat="42.84772" lon="-2.382536">
        <ele>601.2</ele>
        <time>1970-01-01T00:26:01.000Z</time>
      </trkpt>
      <trkpt lat="42.847641" lon="-2.382505">
        <ele>600.8</ele>
        <time>1970-01-01T00:26:02.000Z</time>
      </trkpt>
      <trkpt lat="42.847569" lon="-2.382452">
        <ele>600.6</ele>
        <time>1970-01-01T00:26:03.000Z</time>
      </trkpt>
      <trkpt lat="42.847507" lon="-2.382378">
        <ele>600</ele>
        <time>1970-01-01T00:26:04.000Z</time>
      </trkpt>
      <trkpt lat="42.847426" lon="-2.382186">
        <ele>599.2</ele>
        <time>1970-01-01T00:26:06.000Z</time>
      </trkpt>
      <trkpt lat="42.847368" lon="-2.381865">
        <ele>598.8</ele>
        <time>1970-01-01T00:26:09.000Z</time>
      </trkpt>
      <trkpt lat="42.847332" lon="-2.381768">
        <ele>598.8</ele>
        <time>1970-01-01T00:26:10.000Z</time>
      </trkpt>
      <trkpt lat="42.847288" lon="-2.381682">
        <ele>598.8</ele>
        <time>1970-01-01T00:26:11.000Z</time>
      </trkpt>
      <trkpt lat="42.847126" lon="-2.381463">
        <ele>598.8</ele>
        <time>1970-01-01T00:26:14.000Z</time>
      </trkpt>
      <trkpt lat="42.84707" lon="-2.381397">
        <ele>598.8</ele>
        <time>1970-01-01T00:26:15.000Z</time>
      </trkpt>
      <trkpt lat="42.847013" lon="-2.381331">
        <ele>598.8</ele>
        <time>1970-01-01T00:26:16.000Z</time>
      </trkpt>
      <trkpt lat="42.846801" lon="-2.381064">
        <ele>599.6</ele>
        <time>1970-01-01T00:26:20.000Z</time>
      </trkpt>
      <trkpt lat="42.846695" lon="-2.380927">
        <ele>599.8</ele>
        <time>1970-01-01T00:26:22.000Z</time>
      </trkpt>
      <trkpt lat="42.846483" lon="-2.380646">
        <ele>601.6</ele>
        <time>1970-01-01T00:26:26.000Z</time>
      </trkpt>
      <trkpt lat="42.84633" lon="-2.380419">
        <ele>602.6</ele>
        <time>1970-01-01T00:26:29.000Z</time>
      </trkpt>
      <trkpt lat="42.845945" lon="-2.379782">
        <ele>603.2</ele>
        <time>1970-01-01T00:26:37.000Z</time>
      </trkpt>
      <trkpt lat="42.845852" lon="-2.379613">
        <ele>603.2</ele>
        <time>1970-01-01T00:26:39.000Z</time>
      </trkpt>
      <trkpt lat="42.845625" lon="-2.37918">
        <ele>603.2</ele>
        <time>1970-01-01T00:26:44.000Z</time>
      </trkpt>
      <trkpt lat="42.845437" lon="-2.37883">
        <ele>603</ele>
        <time>1970-01-01T00:26:48.000Z</time>
      </trkpt>
      <trkpt lat="42.84539" lon="-2.378743">
        <ele>603</ele>
        <time>1970-01-01T00:26:49.000Z</time>
      </trkpt>
      <trkpt lat="42.845299" lon="-2.378569">
        <ele>602.6</ele>
        <time>1970-01-01T00:26:51.000Z</time>
      </trkpt>
      <trkpt lat="42.845208" lon="-2.378398">
        <ele>602.2</ele>
        <time>1970-01-01T00:26:53.000Z</time>
      </trkpt>
      <trkpt lat="42.845164" lon="-2.378311">
        <ele>602.2</ele>
        <time>1970-01-01T00:26:54.000Z</time>
      </trkpt>
      <trkpt lat="42.845031" lon="-2.378058">
        <ele>602.2</ele>
        <time>1970-01-01T00:26:57.000Z</time>
      </trkpt>
      <trkpt lat="42.844988" lon="-2.377977">
        <ele>602.2</ele>
        <time>1970-01-01T00:26:58.000Z</time>
      </trkpt>
      <trkpt lat="42.844862" lon="-2.377737">
        <ele>601.6</ele>
        <time>1970-01-01T00:27:01.000Z</time>
      </trkpt>
      <trkpt lat="42.844779" lon="-2.377581">
        <ele>601.4</ele>
        <time>1970-01-01T00:27:03.000Z</time>
      </trkpt>
      <trkpt lat="42.844572" lon="-2.377187">
        <ele>601.4</ele>
        <time>1970-01-01T00:27:08.000Z</time>
      </trkpt>
      <trkpt lat="42.844286" lon="-2.376638">
        <ele>602.6</ele>
        <time>1970-01-01T00:27:15.000Z</time>
      </trkpt>
      <trkpt lat="42.84408" lon="-2.376242">
        <ele>603.2</ele>
        <time>1970-01-01T00:27:20.000Z</time>
      </trkpt>
      <trkpt lat="42.843957" lon="-2.376006">
        <ele>603.4</ele>
        <time>1970-01-01T00:27:23.000Z</time>
      </trkpt>
      <trkpt lat="42.843835" lon="-2.37577">
        <ele>604</ele>
        <time>1970-01-01T00:27:26.000Z</time>
      </trkpt>
      <trkpt lat="42.843794" lon="-2.375691">
        <ele>604.2</ele>
        <time>1970-01-01T00:27:27.000Z</time>
      </trkpt>
      <trkpt lat="42.843752" lon="-2.375613">
        <ele>604.4</ele>
        <time>1970-01-01T00:27:28.000Z</time>
      </trkpt>
      <trkpt lat="42.843671" lon="-2.375459">
        <ele>604.6</ele>
        <time>1970-01-01T00:27:30.000Z</time>
      </trkpt>
      <trkpt lat="42.84359" lon="-2.375306">
        <ele>605</ele>
        <time>1970-01-01T00:27:32.000Z</time>
      </trkpt>
      <trkpt lat="42.843509" lon="-2.375156">
        <ele>605</ele>
        <time>1970-01-01T00:27:34.000Z</time>
      </trkpt>
      <trkpt lat="42.843468" lon="-2.37508">
        <ele>605</ele>
        <time>1970-01-01T00:27:35.000Z</time>
      </trkpt>
      <trkpt lat="42.843303" lon="-2.374783">
        <ele>605.4</ele>
        <time>1970-01-01T00:27:39.000Z</time>
      </trkpt>
      <trkpt lat="42.843212" lon="-2.374641">
        <ele>605.4</ele>
        <time>1970-01-01T00:27:41.000Z</time>
      </trkpt>
      <trkpt lat="42.843164" lon="-2.374573">
        <ele>605.6</ele>
        <time>1970-01-01T00:27:42.000Z</time>
      </trkpt>
      <trkpt lat="42.842951" lon="-2.374331">
        <ele>606</ele>
        <time>1970-01-01T00:27:46.000Z</time>
      </trkpt>
      <trkpt lat="42.842895" lon="-2.374278">
        <ele>606</ele>
        <time>1970-01-01T00:27:47.000Z</time>
      </trkpt>
      <trkpt lat="42.842839" lon="-2.374226">
        <ele>606.2</ele>
        <time>1970-01-01T00:27:48.000Z</time>
      </trkpt>
      <trkpt lat="42.842729" lon="-2.374125">
        <ele>606.6</ele>
        <time>1970-01-01T00:27:50.000Z</time>
      </trkpt>
      <trkpt lat="42.842675" lon="-2.374075">
        <ele>607</ele>
        <time>1970-01-01T00:27:51.000Z</time>
      </trkpt>
      <trkpt lat="42.842514" lon="-2.37393">
        <ele>607.4</ele>
        <time>1970-01-01T00:27:54.000Z</time>
      </trkpt>
      <trkpt lat="42.842461" lon="-2.373883">
        <ele>607.8</ele>
        <time>1970-01-01T00:27:55.000Z</time>
      </trkpt>
      <trkpt lat="42.842358" lon="-2.373788">
        <ele>608.2</ele>
        <time>1970-01-01T00:27:57.000Z</time>
      </trkpt>
      <trkpt lat="42.842256" lon="-2.373695">
        <ele>608.6</ele>
        <time>1970-01-01T00:27:59.000Z</time>
      </trkpt>
      <trkpt lat="42.841952" lon="-2.373411">
        <ele>609.8</ele>
        <time>1970-01-01T00:28:05.000Z</time>
      </trkpt>
      <trkpt lat="42.841901" lon="-2.373366">
        <ele>610.2</ele>
        <time>1970-01-01T00:28:06.000Z</time>
      </trkpt>
      <trkpt lat="42.841801" lon="-2.373275">
        <ele>610.6</ele>
        <time>1970-01-01T00:28:08.000Z</time>
      </trkpt>
      <trkpt lat="42.841752" lon="-2.37323">
        <ele>610.6</ele>
        <time>1970-01-01T00:28:09.000Z</time>
      </trkpt>
      <trkpt lat="42.841701" lon="-2.373186">
        <ele>610.6</ele>
        <time>1970-01-01T00:28:10.000Z</time>
      </trkpt>
      <trkpt lat="42.841399" lon="-2.372908">
        <ele>611.4</ele>
        <time>1970-01-01T00:28:16.000Z</time>
      </trkpt>
      <trkpt lat="42.84125" lon="-2.372772">
        <ele>611.6</ele>
        <time>1970-01-01T00:28:19.000Z</time>
      </trkpt>
      <trkpt lat="42.841201" lon="-2.372729">
        <ele>611.8</ele>
        <time>1970-01-01T00:28:20.000Z</time>
      </trkpt>
      <trkpt lat="42.840914" lon="-2.372467">
        <ele>613</ele>
        <time>1970-01-01T00:28:26.000Z</time>
      </trkpt>
      <trkpt lat="42.840728" lon="-2.372299">
        <ele>614</ele>
        <time>1970-01-01T00:28:30.000Z</time>
      </trkpt>
      <trkpt lat="42.840684" lon="-2.372258">
        <ele>614.2</ele>
        <time>1970-01-01T00:28:31.000Z</time>
      </trkpt>
      <trkpt lat="42.840378" lon="-2.371976">
        <ele>616</ele>
        <time>1970-01-01T00:28:38.000Z</time>
      </trkpt>
      <trkpt lat="42.84029" lon="-2.371898">
        <ele>616.4</ele>
        <time>1970-01-01T00:28:40.000Z</time>
      </trkpt>
      <trkpt lat="42.840117" lon="-2.371747">
        <ele>617.4</ele>
        <time>1970-01-01T00:28:44.000Z</time>
      </trkpt>
      <trkpt lat="42.839943" lon="-2.371596">
        <ele>618.6</ele>
        <time>1970-01-01T00:28:48.000Z</time>
      </trkpt>
      <trkpt lat="42.839898" lon="-2.37156">
        <ele>618.6</ele>
        <time>1970-01-01T00:28:49.000Z</time>
      </trkpt>
      <trkpt lat="42.839808" lon="-2.371485">
        <ele>619</ele>
        <time>1970-01-01T00:28:51.000Z</time>
      </trkpt>
      <trkpt lat="42.839716" lon="-2.371411">
        <ele>619.6</ele>
        <time>1970-01-01T00:28:53.000Z</time>
      </trkpt>
      <trkpt lat="42.839356" lon="-2.37113">
        <ele>621.8</ele>
        <time>1970-01-01T00:29:01.000Z</time>
      </trkpt>
      <trkpt lat="42.839227" lon="-2.371028">
        <ele>622.4</ele>
        <time>1970-01-01T00:29:04.000Z</time>
      </trkpt>
      <trkpt lat="42.83901" lon="-2.370864">
        <ele>623</ele>
        <time>1970-01-01T00:29:09.000Z</time>
      </trkpt>
      <trkpt lat="42.838878" lon="-2.370762">
        <ele>623</ele>
        <time>1970-01-01T00:29:12.000Z</time>
      </trkpt>
      <trkpt lat="42.83879" lon="-2.370693">
        <ele>623.6</ele>
        <time>1970-01-01T00:29:14.000Z</time>
      </trkpt>
      <trkpt lat="42.838571" lon="-2.370515">
        <ele>625.2</ele>
        <time>1970-01-01T00:29:19.000Z</time>
      </trkpt>
      <trkpt lat="42.838359" lon="-2.37032">
        <ele>626.2</ele>
        <time>1970-01-01T00:29:24.000Z</time>
      </trkpt>
      <trkpt lat="42.838317" lon="-2.370279">
        <ele>626.6</ele>
        <time>1970-01-01T00:29:25.000Z</time>
      </trkpt>
      <trkpt lat="42.838194" lon="-2.370153">
        <ele>627</ele>
        <time>1970-01-01T00:29:28.000Z</time>
      </trkpt>
      <trkpt lat="42.837923" lon="-2.369842">
        <ele>629</ele>
        <time>1970-01-01T00:29:35.000Z</time>
      </trkpt>
      <trkpt lat="42.837887" lon="-2.369798">
        <ele>629.2</ele>
        <time>1970-01-01T00:29:36.000Z</time>
      </trkpt>
      <trkpt lat="42.83778" lon="-2.369668">
        <ele>629.6</ele>
        <time>1970-01-01T00:29:39.000Z</time>
      </trkpt>
      <trkpt lat="42.837535" lon="-2.369367">
        <ele>630.6</ele>
        <time>1970-01-01T00:29:46.000Z</time>
      </trkpt>
      <trkpt lat="42.837434" lon="-2.369243">
        <ele>631.6</ele>
        <time>1970-01-01T00:29:49.000Z</time>
      </trkpt>
      <trkpt lat="42.837228" lon="-2.368997">
        <ele>633.4</ele>
        <time>1970-01-01T00:29:55.000Z</time>
      </trkpt>
      <trkpt lat="42.837195" lon="-2.368954">
        <ele>634</ele>
        <time>1970-01-01T00:29:56.000Z</time>
      </trkpt>
      <trkpt lat="42.837015" lon="-2.368727">
        <ele>639</ele>
        <time>1970-01-01T00:30:01.000Z</time>
      </trkpt>
      <trkpt lat="42.836944" lon="-2.36864">
        <ele>635.8</ele>
        <time>1970-01-01T00:30:03.000Z</time>
      </trkpt>
      <trkpt lat="42.83691" lon="-2.368595">
        <ele>636</ele>
        <time>1970-01-01T00:30:04.000Z</time>
      </trkpt>
      <trkpt lat="42.836648" lon="-2.368278">
        <ele>637.4</ele>
        <time>1970-01-01T00:30:11.000Z</time>
      </trkpt>
      <trkpt lat="42.836608" lon="-2.368231">
        <ele>637.4</ele>
        <time>1970-01-01T00:30:12.000Z</time>
      </trkpt>
      <trkpt lat="42.83645" lon="-2.368043">
        <ele>637.8</ele>
        <time>1970-01-01T00:30:16.000Z</time>
      </trkpt>
      <trkpt lat="42.836245" lon="-2.367801">
        <ele>638.4</ele>
        <time>1970-01-01T00:30:21.000Z</time>
      </trkpt>
      <trkpt lat="42.836033" lon="-2.367547">
        <ele>639</ele>
        <time>1970-01-01T00:30:26.000Z</time>
      </trkpt>
      <trkpt lat="42.835949" lon="-2.367444">
        <ele>639.2</ele>
        <time>1970-01-01T00:30:28.000Z</time>
      </trkpt>
      <trkpt lat="42.835907" lon="-2.367393">
        <ele>639</ele>
        <time>1970-01-01T00:30:29.000Z</time>
      </trkpt>
      <trkpt lat="42.835867" lon="-2.367344">
        <ele>639.2</ele>
        <time>1970-01-01T00:30:30.000Z</time>
      </trkpt>
      <trkpt lat="42.835702" lon="-2.367144">
        <ele>639.2</ele>
        <time>1970-01-01T00:30:34.000Z</time>
      </trkpt>
      <trkpt lat="42.835533" lon="-2.366944">
        <ele>639.4</ele>
        <time>1970-01-01T00:30:38.000Z</time>
      </trkpt>
      <trkpt lat="42.835406" lon="-2.366788">
        <ele>639.8</ele>
        <time>1970-01-01T00:30:41.000Z</time>
      </trkpt>
      <trkpt lat="42.835231" lon="-2.366577">
        <ele>640.6</ele>
        <time>1970-01-01T00:30:45.000Z</time>
      </trkpt>
      <trkpt lat="42.835011" lon="-2.366311">
        <ele>641.2</ele>
        <time>1970-01-01T00:30:50.000Z</time>
      </trkpt>
      <trkpt lat="42.834966" lon="-2.366259">
        <ele>641</ele>
        <time>1970-01-01T00:30:51.000Z</time>
      </trkpt>
      <trkpt lat="42.834835" lon="-2.3661">
        <ele>641.6</ele>
        <time>1970-01-01T00:30:54.000Z</time>
      </trkpt>
      <trkpt lat="42.834746" lon="-2.365995">
        <ele>641.6</ele>
        <time>1970-01-01T00:30:56.000Z</time>
      </trkpt>
      <trkpt lat="42.834657" lon="-2.365889">
        <ele>641.8</ele>
        <time>1970-01-01T00:30:58.000Z</time>
      </trkpt>
      <trkpt lat="42.834614" lon="-2.365838">
        <ele>641.8</ele>
        <time>1970-01-01T00:30:59.000Z</time>
      </trkpt>
      <trkpt lat="42.834527" lon="-2.365733">
        <ele>641.8</ele>
        <time>1970-01-01T00:31:01.000Z</time>
      </trkpt>
      <trkpt lat="42.834484" lon="-2.365681">
        <ele>642</ele>
        <time>1970-01-01T00:31:02.000Z</time>
      </trkpt>
      <trkpt lat="42.834182" lon="-2.365322">
        <ele>643</ele>
        <time>1970-01-01T00:31:09.000Z</time>
      </trkpt>
      <trkpt lat="42.834141" lon="-2.36527">
        <ele>643.4</ele>
        <time>1970-01-01T00:31:10.000Z</time>
      </trkpt>
      <trkpt lat="42.834099" lon="-2.36522">
        <ele>643.4</ele>
        <time>1970-01-01T00:31:11.000Z</time>
      </trkpt>
      <trkpt lat="42.834058" lon="-2.36517">
        <ele>643.8</ele>
        <time>1970-01-01T00:31:12.000Z</time>
      </trkpt>
      <trkpt lat="42.833851" lon="-2.364917">
        <ele>644</ele>
        <time>1970-01-01T00:31:17.000Z</time>
      </trkpt>
      <trkpt lat="42.833809" lon="-2.364867">
        <ele>644</ele>
        <time>1970-01-01T00:31:18.000Z</time>
      </trkpt>
      <trkpt lat="42.833689" lon="-2.364718">
        <ele>644.2</ele>
        <time>1970-01-01T00:31:21.000Z</time>
      </trkpt>
      <trkpt lat="42.833649" lon="-2.364669">
        <ele>644.4</ele>
        <time>1970-01-01T00:31:22.000Z</time>
      </trkpt>
      <trkpt lat="42.833238" lon="-2.364185">
        <ele>646</ele>
        <time>1970-01-01T00:31:32.000Z</time>
      </trkpt>
      <trkpt lat="42.833066" lon="-2.364016">
        <ele>646</ele>
        <time>1970-01-01T00:31:36.000Z</time>
      </trkpt>
      <trkpt lat="42.832813" lon="-2.363777">
        <ele>646.6</ele>
        <time>1970-01-01T00:31:42.000Z</time>
      </trkpt>
      <trkpt lat="42.832646" lon="-2.363624">
        <ele>647.2</ele>
        <time>1970-01-01T00:31:46.000Z</time>
      </trkpt>
      <trkpt lat="42.8324" lon="-2.363399">
        <ele>648.2</ele>
        <time>1970-01-01T00:31:52.000Z</time>
      </trkpt>
      <trkpt lat="42.83232" lon="-2.363321">
        <ele>648.4</ele>
        <time>1970-01-01T00:31:54.000Z</time>
      </trkpt>
      <trkpt lat="42.832042" lon="-2.363067">
        <ele>649.6</ele>
        <time>1970-01-01T00:32:01.000Z</time>
      </trkpt>
      <trkpt lat="42.831962" lon="-2.362998">
        <ele>649.8</ele>
        <time>1970-01-01T00:32:03.000Z</time>
      </trkpt>
      <trkpt lat="42.831844" lon="-2.362891">
        <ele>650.6</ele>
        <time>1970-01-01T00:32:06.000Z</time>
      </trkpt>
      <trkpt lat="42.831687" lon="-2.36274">
        <ele>650.8</ele>
        <time>1970-01-01T00:32:10.000Z</time>
      </trkpt>
      <trkpt lat="42.831572" lon="-2.36263">
        <ele>651.2</ele>
        <time>1970-01-01T00:32:13.000Z</time>
      </trkpt>
      <trkpt lat="42.831304" lon="-2.362385">
        <ele>652.6</ele>
        <time>1970-01-01T00:32:20.000Z</time>
      </trkpt>
      <trkpt lat="42.831191" lon="-2.362285">
        <ele>653</ele>
        <time>1970-01-01T00:32:23.000Z</time>
      </trkpt>
      <trkpt lat="42.831114" lon="-2.362216">
        <ele>653.2</ele>
        <time>1970-01-01T00:32:25.000Z</time>
      </trkpt>
      <trkpt lat="42.830958" lon="-2.362072">
        <ele>653.6</ele>
        <time>1970-01-01T00:32:29.000Z</time>
      </trkpt>
      <trkpt lat="42.830768" lon="-2.361893">
        <ele>654.2</ele>
        <time>1970-01-01T00:32:34.000Z</time>
      </trkpt>
      <trkpt lat="42.830694" lon="-2.361822">
        <ele>654.4</ele>
        <time>1970-01-01T00:32:36.000Z</time>
      </trkpt>
      <trkpt lat="42.830656" lon="-2.361788">
        <ele>654.6</ele>
        <time>1970-01-01T00:32:37.000Z</time>
      </trkpt>
      <trkpt lat="42.830619" lon="-2.361754">
        <ele>654.6</ele>
        <time>1970-01-01T00:32:38.000Z</time>
      </trkpt>
      <trkpt lat="42.830437" lon="-2.36158">
        <ele>655</ele>
        <time>1970-01-01T00:32:43.000Z</time>
      </trkpt>
      <trkpt lat="42.83036" lon="-2.361513">
        <ele>655.2</ele>
        <time>1970-01-01T00:32:45.000Z</time>
      </trkpt>
      <trkpt lat="42.830013" lon="-2.361184">
        <ele>656.8</ele>
        <time>1970-01-01T00:32:54.000Z</time>
      </trkpt>
      <trkpt lat="42.829849" lon="-2.361046">
        <ele>657</ele>
        <time>1970-01-01T00:32:58.000Z</time>
      </trkpt>
      <trkpt lat="42.829808" lon="-2.361014">
        <ele>657.2</ele>
        <time>1970-01-01T00:32:59.000Z</time>
      </trkpt>
      <trkpt lat="42.829646" lon="-2.360886">
        <ele>657.6</ele>
        <time>1970-01-01T00:33:03.000Z</time>
      </trkpt>
      <trkpt lat="42.829363" lon="-2.360672">
        <ele>659.2</ele>
        <time>1970-01-01T00:33:10.000Z</time>
      </trkpt>
      <trkpt lat="42.829242" lon="-2.36059">
        <ele>659.8</ele>
        <time>1970-01-01T00:33:13.000Z</time>
      </trkpt>
      <trkpt lat="42.829203" lon="-2.360562">
        <ele>659.8</ele>
        <time>1970-01-01T00:33:14.000Z</time>
      </trkpt>
      <trkpt lat="42.828902" lon="-2.360328">
        <ele>661</ele>
        <time>1970-01-01T00:33:22.000Z</time>
      </trkpt>
      <trkpt lat="42.828866" lon="-2.360297">
        <ele>661.4</ele>
        <time>1970-01-01T00:33:23.000Z</time>
      </trkpt>
      <trkpt lat="42.828791" lon="-2.360237">
        <ele>662.2</ele>
        <time>1970-01-01T00:33:25.000Z</time>
      </trkpt>
      <trkpt lat="42.828753" lon="-2.360208">
        <ele>662.4</ele>
        <time>1970-01-01T00:33:26.000Z</time>
      </trkpt>
      <trkpt lat="42.828715" lon="-2.360178">
        <ele>662.4</ele>
        <time>1970-01-01T00:33:27.000Z</time>
      </trkpt>
      <trkpt lat="42.828531" lon="-2.360028">
        <ele>663.6</ele>
        <time>1970-01-01T00:33:32.000Z</time>
      </trkpt>
      <trkpt lat="42.828387" lon="-2.359904">
        <ele>665.2</ele>
        <time>1970-01-01T00:33:36.000Z</time>
      </trkpt>
      <trkpt lat="42.828352" lon="-2.359876">
        <ele>665.2</ele>
        <time>1970-01-01T00:33:37.000Z</time>
      </trkpt>
      <trkpt lat="42.828246" lon="-2.359791">
        <ele>665.4</ele>
        <time>1970-01-01T00:33:40.000Z</time>
      </trkpt>
      <trkpt lat="42.82821" lon="-2.359762">
        <ele>665.4</ele>
        <time>1970-01-01T00:33:41.000Z</time>
      </trkpt>
      <trkpt lat="42.827949" lon="-2.35955">
        <ele>667.4</ele>
        <time>1970-01-01T00:33:48.000Z</time>
      </trkpt>
      <trkpt lat="42.827753" lon="-2.359373">
        <ele>669</ele>
        <time>1970-01-01T00:33:54.000Z</time>
      </trkpt>
      <trkpt lat="42.82772" lon="-2.359343">
        <ele>669.4</ele>
        <time>1970-01-01T00:33:55.000Z</time>
      </trkpt>
      <trkpt lat="42.82744" lon="-2.35913">
        <ele>670</ele>
        <time>1970-01-01T00:34:02.000Z</time>
      </trkpt>
      <trkpt lat="42.827159" lon="-2.359013">
        <ele>671.4</ele>
        <time>1970-01-01T00:34:08.000Z</time>
      </trkpt>
      <trkpt lat="42.827077" lon="-2.358967">
        <ele>671.4</ele>
        <time>1970-01-01T00:34:10.000Z</time>
      </trkpt>
      <trkpt lat="42.826998" lon="-2.358914">
        <ele>671.6</ele>
        <time>1970-01-01T00:34:12.000Z</time>
      </trkpt>
      <trkpt lat="42.826842" lon="-2.35881">
        <ele>672.2</ele>
        <time>1970-01-01T00:34:16.000Z</time>
      </trkpt>
      <trkpt lat="42.826803" lon="-2.358785">
        <ele>672.2</ele>
        <time>1970-01-01T00:34:17.000Z</time>
      </trkpt>
      <trkpt lat="42.826614" lon="-2.358652">
        <ele>672.8</ele>
        <time>1970-01-01T00:34:22.000Z</time>
      </trkpt>
      <trkpt lat="42.826545" lon="-2.358581">
        <ele>673</ele>
        <time>1970-01-01T00:34:24.000Z</time>
      </trkpt>
      <trkpt lat="42.826325" lon="-2.358335">
        <ele>673</ele>
        <time>1970-01-01T00:34:30.000Z</time>
      </trkpt>
      <trkpt lat="42.826211" lon="-2.358207">
        <ele>673</ele>
        <time>1970-01-01T00:34:33.000Z</time>
      </trkpt>
      <trkpt lat="42.82606" lon="-2.358036">
        <ele>673.2</ele>
        <time>1970-01-01T00:34:37.000Z</time>
      </trkpt>
      <trkpt lat="42.82589" lon="-2.357822">
        <ele>673.6</ele>
        <time>1970-01-01T00:34:42.000Z</time>
      </trkpt>
      <trkpt lat="42.825863" lon="-2.357779">
        <ele>673.8</ele>
        <time>1970-01-01T00:34:43.000Z</time>
      </trkpt>
      <trkpt lat="42.825771" lon="-2.357613">
        <ele>674.8</ele>
        <time>1970-01-01T00:34:47.000Z</time>
      </trkpt>
      <trkpt lat="42.825716" lon="-2.357485">
        <ele>675.8</ele>
        <time>1970-01-01T00:34:50.000Z</time>
      </trkpt>
      <trkpt lat="42.825683" lon="-2.357398">
        <ele>676.4</ele>
        <time>1970-01-01T00:34:52.000Z</time>
      </trkpt>
      <trkpt lat="42.825649" lon="-2.35726">
        <ele>676.8</ele>
        <time>1970-01-01T00:34:55.000Z</time>
      </trkpt>
      <trkpt lat="42.825629" lon="-2.357168">
        <ele>677.2</ele>
        <time>1970-01-01T00:34:57.000Z</time>
      </trkpt>
      <trkpt lat="42.825596" lon="-2.357041">
        <ele>678</ele>
        <time>1970-01-01T00:35:00.000Z</time>
      </trkpt>
      <trkpt lat="42.825586" lon="-2.357002">
        <ele>678.2</ele>
        <time>1970-01-01T00:35:01.000Z</time>
      </trkpt>
      <trkpt lat="42.825545" lon="-2.356852">
        <ele>679.6</ele>
        <time>1970-01-01T00:35:05.000Z</time>
      </trkpt>
      <trkpt lat="42.825532" lon="-2.356814">
        <ele>679.8</ele>
        <time>1970-01-01T00:35:06.000Z</time>
      </trkpt>
      <trkpt lat="42.825485" lon="-2.356712">
        <ele>680</ele>
        <time>1970-01-01T00:35:09.000Z</time>
      </trkpt>
      <trkpt lat="42.825426" lon="-2.356621">
        <ele>681.2</ele>
        <time>1970-01-01T00:35:12.000Z</time>
      </trkpt>
      <trkpt lat="42.825381" lon="-2.356571">
        <ele>681.8</ele>
        <time>1970-01-01T00:35:14.000Z</time>
      </trkpt>
      <trkpt lat="42.825235" lon="-2.356452">
        <ele>684.4</ele>
        <time>1970-01-01T00:35:20.000Z</time>
      </trkpt>
      <trkpt lat="42.825211" lon="-2.356433">
        <ele>684.4</ele>
        <time>1970-01-01T00:35:21.000Z</time>
      </trkpt>
      <trkpt lat="42.825166" lon="-2.356395">
        <ele>684.6</ele>
        <time>1970-01-01T00:35:23.000Z</time>
      </trkpt>
      <trkpt lat="42.824995" lon="-2.356254">
        <ele>687.2</ele>
        <time>1970-01-01T00:35:30.000Z</time>
      </trkpt>
      <trkpt lat="42.8249" lon="-2.356171">
        <ele>688.8</ele>
        <time>1970-01-01T00:35:34.000Z</time>
      </trkpt>
      <trkpt lat="42.824789" lon="-2.356055">
        <ele>690</ele>
        <time>1970-01-01T00:35:39.000Z</time>
      </trkpt>
      <trkpt lat="42.824655" lon="-2.355926">
        <ele>691.4</ele>
        <time>1970-01-01T00:35:45.000Z</time>
      </trkpt>
      <trkpt lat="42.82461" lon="-2.355882">
        <ele>692</ele>
        <time>1970-01-01T00:35:47.000Z</time>
      </trkpt>
      <trkpt lat="42.824542" lon="-2.355827">
        <ele>692.4</ele>
        <time>1970-01-01T00:35:50.000Z</time>
      </trkpt>
      <trkpt lat="42.824424" lon="-2.355745">
        <ele>693.8</ele>
        <time>1970-01-01T00:35:55.000Z</time>
      </trkpt>
      <trkpt lat="42.824377" lon="-2.355716">
        <ele>694.2</ele>
        <time>1970-01-01T00:35:57.000Z</time>
      </trkpt>
      <trkpt lat="42.824293" lon="-2.355678">
        <ele>694.6</ele>
        <time>1970-01-01T00:36:00.000Z</time>
      </trkpt>
      <trkpt lat="42.824202" lon="-2.355642">
        <ele>695</ele>
        <time>1970-01-01T00:36:03.000Z</time>
      </trkpt>
      <trkpt lat="42.824111" lon="-2.355605">
        <ele>695.4</ele>
        <time>1970-01-01T00:36:06.000Z</time>
      </trkpt>
      <trkpt lat="42.824016" lon="-2.355569">
        <ele>696.4</ele>
        <time>1970-01-01T00:36:09.000Z</time>
      </trkpt>
      <trkpt lat="42.823985" lon="-2.355558">
        <ele>696.8</ele>
        <time>1970-01-01T00:36:10.000Z</time>
      </trkpt>
      <trkpt lat="42.823862" lon="-2.355509">
        <ele>698.2</ele>
        <time>1970-01-01T00:36:14.000Z</time>
      </trkpt>
      <trkpt lat="42.823798" lon="-2.355479">
        <ele>698.4</ele>
        <time>1970-01-01T00:36:16.000Z</time>
      </trkpt>
      <trkpt lat="42.823602" lon="-2.355393">
        <ele>700.8</ele>
        <time>1970-01-01T00:36:22.000Z</time>
      </trkpt>
      <trkpt lat="42.823538" lon="-2.355365">
        <ele>701.8</ele>
        <time>1970-01-01T00:36:24.000Z</time>
      </trkpt>
      <trkpt lat="42.823388" lon="-2.355304">
        <ele>702.6</ele>
        <time>1970-01-01T00:36:29.000Z</time>
      </trkpt>
      <trkpt lat="42.823304" lon="-2.355266">
        <ele>702.8</ele>
        <time>1970-01-01T00:36:32.000Z</time>
      </trkpt>
      <trkpt lat="42.823275" lon="-2.355254">
        <ele>703.2</ele>
        <time>1970-01-01T00:36:33.000Z</time>
      </trkpt>
      <trkpt lat="42.823218" lon="-2.355231">
        <ele>703.6</ele>
        <time>1970-01-01T00:36:35.000Z</time>
      </trkpt>
      <trkpt lat="42.823139" lon="-2.355197">
        <ele>704.2</ele>
        <time>1970-01-01T00:36:38.000Z</time>
      </trkpt>
      <trkpt lat="42.823068" lon="-2.355156">
        <ele>705.2</ele>
        <time>1970-01-01T00:36:41.000Z</time>
      </trkpt>
      <trkpt lat="42.822982" lon="-2.355125">
        <ele>706.4</ele>
        <time>1970-01-01T00:36:44.000Z</time>
      </trkpt>
      <trkpt lat="42.822879" lon="-2.355087">
        <ele>707.4</ele>
        <time>1970-01-01T00:36:48.000Z</time>
      </trkpt>
      <trkpt lat="42.822827" lon="-2.355067">
        <ele>708</ele>
        <time>1970-01-01T00:36:50.000Z</time>
      </trkpt>
      <trkpt lat="42.822749" lon="-2.355045">
        <ele>708.6</ele>
        <time>1970-01-01T00:36:53.000Z</time>
      </trkpt>
      <trkpt lat="42.822672" lon="-2.355017">
        <ele>709.8</ele>
        <time>1970-01-01T00:36:56.000Z</time>
      </trkpt>
      <trkpt lat="42.822569" lon="-2.35499">
        <ele>711.2</ele>
        <time>1970-01-01T00:37:00.000Z</time>
      </trkpt>
      <trkpt lat="42.822543" lon="-2.354984">
        <ele>711.4</ele>
        <time>1970-01-01T00:37:01.000Z</time>
      </trkpt>
      <trkpt lat="42.82242" lon="-2.354952">
        <ele>712.8</ele>
        <time>1970-01-01T00:37:06.000Z</time>
      </trkpt>
      <trkpt lat="42.82232" lon="-2.354931">
        <ele>714</ele>
        <time>1970-01-01T00:37:10.000Z</time>
      </trkpt>
      <trkpt lat="42.822294" lon="-2.354928">
        <ele>714.2</ele>
        <time>1970-01-01T00:37:11.000Z</time>
      </trkpt>
      <trkpt lat="42.822217" lon="-2.354918">
        <ele>714.6</ele>
        <time>1970-01-01T00:37:14.000Z</time>
      </trkpt>
      <trkpt lat="42.822086" lon="-2.354916">
        <ele>715.8</ele>
        <time>1970-01-01T00:37:19.000Z</time>
      </trkpt>
      <trkpt lat="42.821965" lon="-2.354921">
        <ele>717.4</ele>
        <time>1970-01-01T00:37:24.000Z</time>
      </trkpt>
      <trkpt lat="42.821893" lon="-2.35493">
        <ele>718.4</ele>
        <time>1970-01-01T00:37:27.000Z</time>
      </trkpt>
      <trkpt lat="42.821845" lon="-2.354932">
        <ele>719.2</ele>
        <time>1970-01-01T00:37:29.000Z</time>
      </trkpt>
      <trkpt lat="42.821822" lon="-2.354934">
        <ele>719.6</ele>
        <time>1970-01-01T00:37:30.000Z</time>
      </trkpt>
      <trkpt lat="42.821778" lon="-2.354938">
        <ele>720.2</ele>
        <time>1970-01-01T00:37:32.000Z</time>
      </trkpt>
      <trkpt lat="42.821665" lon="-2.354959">
        <ele>722.2</ele>
        <time>1970-01-01T00:37:37.000Z</time>
      </trkpt>
      <trkpt lat="42.821643" lon="-2.354962">
        <ele>722.2</ele>
        <time>1970-01-01T00:37:38.000Z</time>
      </trkpt>
      <trkpt lat="42.821529" lon="-2.354976">
        <ele>723.6</ele>
        <time>1970-01-01T00:37:43.000Z</time>
      </trkpt>
      <trkpt lat="42.821435" lon="-2.354982">
        <ele>724.4</ele>
        <time>1970-01-01T00:37:47.000Z</time>
      </trkpt>
      <trkpt lat="42.821386" lon="-2.354989">
        <ele>725.2</ele>
        <time>1970-01-01T00:37:49.000Z</time>
      </trkpt>
      <trkpt lat="42.821295" lon="-2.354989">
        <ele>726.2</ele>
        <time>1970-01-01T00:37:53.000Z</time>
      </trkpt>
      <trkpt lat="42.821247" lon="-2.354985">
        <ele>726.8</ele>
        <time>1970-01-01T00:37:55.000Z</time>
      </trkpt>
      <trkpt lat="42.821174" lon="-2.354983">
        <ele>728</ele>
        <time>1970-01-01T00:37:58.000Z</time>
      </trkpt>
      <trkpt lat="42.821078" lon="-2.354966">
        <ele>728.4</ele>
        <time>1970-01-01T00:38:02.000Z</time>
      </trkpt>
      <trkpt lat="42.820981" lon="-2.354949">
        <ele>730.2</ele>
        <time>1970-01-01T00:38:06.000Z</time>
      </trkpt>
      <trkpt lat="42.820907" lon="-2.354916">
        <ele>730.8</ele>
        <time>1970-01-01T00:38:09.000Z</time>
      </trkpt>
      <trkpt lat="42.820814" lon="-2.354854">
        <ele>731.8</ele>
        <time>1970-01-01T00:38:13.000Z</time>
      </trkpt>
      <trkpt lat="42.82079" lon="-2.354834">
        <ele>732.4</ele>
        <time>1970-01-01T00:38:14.000Z</time>
      </trkpt>
      <trkpt lat="42.820724" lon="-2.354753">
        <ele>733.2</ele>
        <time>1970-01-01T00:38:17.000Z</time>
      </trkpt>
      <trkpt lat="42.820671" lon="-2.354645">
        <ele>734.4</ele>
        <time>1970-01-01T00:38:20.000Z</time>
      </trkpt>
      <trkpt lat="42.820625" lon="-2.35452">
        <ele>735.2</ele>
        <time>1970-01-01T00:38:23.000Z</time>
      </trkpt>
      <trkpt lat="42.820613" lon="-2.354474">
        <ele>735.4</ele>
        <time>1970-01-01T00:38:24.000Z</time>
      </trkpt>
      <trkpt lat="42.82058" lon="-2.354325">
        <ele>736</ele>
        <time>1970-01-01T00:38:27.000Z</time>
      </trkpt>
      <trkpt lat="42.820518" lon="-2.354089">
        <ele>737</ele>
        <time>1970-01-01T00:38:32.000Z</time>
      </trkpt>
      <trkpt lat="42.820469" lon="-2.353916">
        <ele>739.2</ele>
        <time>1970-01-01T00:38:36.000Z</time>
      </trkpt>
      <trkpt lat="42.820457" lon="-2.353874">
        <ele>739.4</ele>
        <time>1970-01-01T00:38:37.000Z</time>
      </trkpt>
      <trkpt lat="42.820396" lon="-2.35372">
        <ele>740.2</ele>
        <time>1970-01-01T00:38:41.000Z</time>
      </trkpt>
      <trkpt lat="42.820321" lon="-2.353573">
        <ele>741</ele>
        <time>1970-01-01T00:38:45.000Z</time>
      </trkpt>
      <trkpt lat="42.820304" lon="-2.353536">
        <ele>741.2</ele>
        <time>1970-01-01T00:38:46.000Z</time>
      </trkpt>
      <trkpt lat="42.820207" lon="-2.353371">
        <ele>742.2</ele>
        <time>1970-01-01T00:38:51.000Z</time>
      </trkpt>
      <trkpt lat="42.820187" lon="-2.353336">
        <ele>742.4</ele>
        <time>1970-01-01T00:38:52.000Z</time>
      </trkpt>
      <trkpt lat="42.820148" lon="-2.353266">
        <ele>743</ele>
        <time>1970-01-01T00:38:54.000Z</time>
      </trkpt>
      <trkpt lat="42.820093" lon="-2.353147">
        <ele>744</ele>
        <time>1970-01-01T00:38:57.000Z</time>
      </trkpt>
      <trkpt lat="42.820048" lon="-2.353017">
        <ele>744.6</ele>
        <time>1970-01-01T00:39:00.000Z</time>
      </trkpt>
      <trkpt lat="42.820034" lon="-2.352966">
        <ele>745</ele>
        <time>1970-01-01T00:39:01.000Z</time>
      </trkpt>
      <trkpt lat="42.820036" lon="-2.352687">
        <ele>746.8</ele>
        <time>1970-01-01T00:39:06.000Z</time>
      </trkpt>
      <trkpt lat="42.82005" lon="-2.352631">
        <ele>747.4</ele>
        <time>1970-01-01T00:39:07.000Z</time>
      </trkpt>
      <trkpt lat="42.820087" lon="-2.352527">
        <ele>747.6</ele>
        <time>1970-01-01T00:39:09.000Z</time>
      </trkpt>
      <trkpt lat="42.82011" lon="-2.352478">
        <ele>748.2</ele>
        <time>1970-01-01T00:39:10.000Z</time>
      </trkpt>
      <trkpt lat="42.820136" lon="-2.352429">
        <ele>748.6</ele>
        <time>1970-01-01T00:39:11.000Z</time>
      </trkpt>
      <trkpt lat="42.820329" lon="-2.352192">
        <ele>749.6</ele>
        <time>1970-01-01T00:39:16.000Z</time>
      </trkpt>
      <trkpt lat="42.820382" lon="-2.352148">
        <ele>749.6</ele>
        <time>1970-01-01T00:39:17.000Z</time>
      </trkpt>
      <trkpt lat="42.82065" lon="-2.351943">
        <ele>751.2</ele>
        <time>1970-01-01T00:39:22.000Z</time>
      </trkpt>
      <trkpt lat="42.820702" lon="-2.351901">
        <ele>751.4</ele>
        <time>1970-01-01T00:39:23.000Z</time>
      </trkpt>
      <trkpt lat="42.820754" lon="-2.351853">
        <ele>751.4</ele>
        <time>1970-01-01T00:39:24.000Z</time>
      </trkpt>
      <trkpt lat="42.8209" lon="-2.351665">
        <ele>752.2</ele>
        <time>1970-01-01T00:39:27.000Z</time>
      </trkpt>
      <trkpt lat="42.820973" lon="-2.351512">
        <ele>752.2</ele>
        <time>1970-01-01T00:39:29.000Z</time>
      </trkpt>
      <trkpt lat="42.821051" lon="-2.351277">
        <ele>752.8</ele>
        <time>1970-01-01T00:39:32.000Z</time>
      </trkpt>
      <trkpt lat="42.821072" lon="-2.351202">
        <ele>753</ele>
        <time>1970-01-01T00:39:33.000Z</time>
      </trkpt>
      <trkpt lat="42.821128" lon="-2.350923">
        <ele>753.6</ele>
        <time>1970-01-01T00:39:37.000Z</time>
      </trkpt>
      <trkpt lat="42.821141" lon="-2.35086">
        <ele>753.8</ele>
        <time>1970-01-01T00:39:38.000Z</time>
      </trkpt>
      <trkpt lat="42.821161" lon="-2.350685">
        <ele>754.8</ele>
        <time>1970-01-01T00:39:41.000Z</time>
      </trkpt>
      <trkpt lat="42.821172" lon="-2.350526">
        <ele>756</ele>
        <time>1970-01-01T00:39:44.000Z</time>
      </trkpt>
      <trkpt lat="42.821178" lon="-2.35038">
        <ele>757.4</ele>
        <time>1970-01-01T00:39:47.000Z</time>
      </trkpt>
      <trkpt lat="42.821183" lon="-2.350242">
        <ele>758.2</ele>
        <time>1970-01-01T00:39:50.000Z</time>
      </trkpt>
      <trkpt lat="42.821188" lon="-2.35006">
        <ele>759.6</ele>
        <time>1970-01-01T00:39:54.000Z</time>
      </trkpt>
      <trkpt lat="42.8212" lon="-2.349925">
        <ele>761</ele>
        <time>1970-01-01T00:39:57.000Z</time>
      </trkpt>
      <trkpt lat="42.821211" lon="-2.349752">
        <ele>762</ele>
        <time>1970-01-01T00:40:01.000Z</time>
      </trkpt>
      <trkpt lat="42.821218" lon="-2.349579">
        <ele>762.6</ele>
        <time>1970-01-01T00:40:05.000Z</time>
      </trkpt>
      <trkpt lat="42.821239" lon="-2.34942">
        <ele>763.8</ele>
        <time>1970-01-01T00:40:09.000Z</time>
      </trkpt>
      <trkpt lat="42.821261" lon="-2.349304">
        <ele>764.8</ele>
        <time>1970-01-01T00:40:12.000Z</time>
      </trkpt>
      <trkpt lat="42.821268" lon="-2.349264">
        <ele>765</ele>
        <time>1970-01-01T00:40:13.000Z</time>
      </trkpt>
      <trkpt lat="42.821322" lon="-2.349059">
        <ele>766.6</ele>
        <time>1970-01-01T00:40:18.000Z</time>
      </trkpt>
      <trkpt lat="42.821358" lon="-2.348939">
        <ele>767.4</ele>
        <time>1970-01-01T00:40:21.000Z</time>
      </trkpt>
      <trkpt lat="42.821369" lon="-2.348856">
        <ele>767.8</ele>
        <time>1970-01-01T00:40:23.000Z</time>
      </trkpt>
      <trkpt lat="42.821392" lon="-2.34865">
        <ele>769</ele>
        <time>1970-01-01T00:40:28.000Z</time>
      </trkpt>
      <trkpt lat="42.821394" lon="-2.34861">
        <ele>769.2</ele>
        <time>1970-01-01T00:40:29.000Z</time>
      </trkpt>
      <trkpt lat="42.821394" lon="-2.348572">
        <ele>769.6</ele>
        <time>1970-01-01T00:40:30.000Z</time>
      </trkpt>
      <trkpt lat="42.821406" lon="-2.348424">
        <ele>770.8</ele>
        <time>1970-01-01T00:40:34.000Z</time>
      </trkpt>
      <trkpt lat="42.821404" lon="-2.348357">
        <ele>771.2</ele>
        <time>1970-01-01T00:40:36.000Z</time>
      </trkpt>
      <trkpt lat="42.821401" lon="-2.348286">
        <ele>771.6</ele>
        <time>1970-01-01T00:40:38.000Z</time>
      </trkpt>
      <trkpt lat="42.821397" lon="-2.34825">
        <ele>772</ele>
        <time>1970-01-01T00:40:39.000Z</time>
      </trkpt>
      <trkpt lat="42.821387" lon="-2.348142">
        <ele>773.2</ele>
        <time>1970-01-01T00:40:42.000Z</time>
      </trkpt>
      <trkpt lat="42.821372" lon="-2.348005">
        <ele>774.2</ele>
        <time>1970-01-01T00:40:46.000Z</time>
      </trkpt>
      <trkpt lat="42.821362" lon="-2.34793">
        <ele>774.8</ele>
        <time>1970-01-01T00:40:48.000Z</time>
      </trkpt>
      <trkpt lat="42.821342" lon="-2.347774">
        <ele>776.4</ele>
        <time>1970-01-01T00:40:52.000Z</time>
      </trkpt>
      <trkpt lat="42.821324" lon="-2.347652">
        <ele>777.4</ele>
        <time>1970-01-01T00:40:55.000Z</time>
      </trkpt>
      <trkpt lat="42.821313" lon="-2.347488">
        <ele>778.2</ele>
        <time>1970-01-01T00:40:59.000Z</time>
      </trkpt>
      <trkpt lat="42.821315" lon="-2.347314">
        <ele>779.4</ele>
        <time>1970-01-01T00:41:03.000Z</time>
      </trkpt>
      <trkpt lat="42.821317" lon="-2.347131">
        <ele>780.4</ele>
        <time>1970-01-01T00:41:07.000Z</time>
      </trkpt>
      <trkpt lat="42.82133" lon="-2.346964">
        <ele>781.2</ele>
        <time>1970-01-01T00:41:11.000Z</time>
      </trkpt>
      <trkpt lat="42.821333" lon="-2.346883">
        <ele>781.8</ele>
        <time>1970-01-01T00:41:13.000Z</time>
      </trkpt>
      <trkpt lat="42.821332" lon="-2.346767">
        <ele>782.2</ele>
        <time>1970-01-01T00:41:16.000Z</time>
      </trkpt>
      <trkpt lat="42.82132" lon="-2.346653">
        <ele>783.2</ele>
        <time>1970-01-01T00:41:19.000Z</time>
      </trkpt>
      <trkpt lat="42.821321" lon="-2.346616">
        <ele>783.6</ele>
        <time>1970-01-01T00:41:20.000Z</time>
      </trkpt>
      <trkpt lat="42.821306" lon="-2.346503">
        <ele>784.4</ele>
        <time>1970-01-01T00:41:23.000Z</time>
      </trkpt>
      <trkpt lat="42.821303" lon="-2.346429">
        <ele>785.2</ele>
        <time>1970-01-01T00:41:25.000Z</time>
      </trkpt>
      <trkpt lat="42.821301" lon="-2.34639">
        <ele>785.4</ele>
        <time>1970-01-01T00:41:26.000Z</time>
      </trkpt>
      <trkpt lat="42.8213" lon="-2.346274">
        <ele>786.4</ele>
        <time>1970-01-01T00:41:29.000Z</time>
      </trkpt>
      <trkpt lat="42.821297" lon="-2.346054">
        <ele>787.8</ele>
        <time>1970-01-01T00:41:34.000Z</time>
      </trkpt>
      <trkpt lat="42.821308" lon="-2.345924">
        <ele>789</ele>
        <time>1970-01-01T00:41:37.000Z</time>
      </trkpt>
      <trkpt lat="42.821314" lon="-2.345833">
        <ele>789.8</ele>
        <time>1970-01-01T00:41:39.000Z</time>
      </trkpt>
      <trkpt lat="42.821307" lon="-2.345711">
        <ele>790.6</ele>
        <time>1970-01-01T00:41:42.000Z</time>
      </trkpt>
      <trkpt lat="42.821282" lon="-2.345551">
        <ele>792.2</ele>
        <time>1970-01-01T00:41:46.000Z</time>
      </trkpt>
      <trkpt lat="42.821275" lon="-2.345423">
        <ele>793.2</ele>
        <time>1970-01-01T00:41:49.000Z</time>
      </trkpt>
      <trkpt lat="42.821274" lon="-2.345343">
        <ele>794.2</ele>
        <time>1970-01-01T00:41:51.000Z</time>
      </trkpt>
      <trkpt lat="42.821272" lon="-2.345257">
        <ele>795.2</ele>
        <time>1970-01-01T00:41:53.000Z</time>
      </trkpt>
      <trkpt lat="42.82126" lon="-2.345099">
        <ele>796.2</ele>
        <time>1970-01-01T00:41:57.000Z</time>
      </trkpt>
      <trkpt lat="42.821245" lon="-2.34502">
        <ele>797</ele>
        <time>1970-01-01T00:41:59.000Z</time>
      </trkpt>
      <trkpt lat="42.821225" lon="-2.344906">
        <ele>798</ele>
        <time>1970-01-01T00:42:02.000Z</time>
      </trkpt>
      <trkpt lat="42.821202" lon="-2.344744">
        <ele>799.8</ele>
        <time>1970-01-01T00:42:07.000Z</time>
      </trkpt>
      <trkpt lat="42.821197" lon="-2.344711">
        <ele>800.2</ele>
        <time>1970-01-01T00:42:08.000Z</time>
      </trkpt>
      <trkpt lat="42.821188" lon="-2.344614">
        <ele>801.4</ele>
        <time>1970-01-01T00:42:11.000Z</time>
      </trkpt>
      <trkpt lat="42.821178" lon="-2.344488">
        <ele>802.2</ele>
        <time>1970-01-01T00:42:15.000Z</time>
      </trkpt>
      <trkpt lat="42.821176" lon="-2.344458">
        <ele>802.6</ele>
        <time>1970-01-01T00:42:16.000Z</time>
      </trkpt>
      <trkpt lat="42.821165" lon="-2.344309">
        <ele>803.8</ele>
        <time>1970-01-01T00:42:21.000Z</time>
      </trkpt>
      <trkpt lat="42.821149" lon="-2.344216">
        <ele>804.6</ele>
        <time>1970-01-01T00:42:24.000Z</time>
      </trkpt>
      <trkpt lat="42.821144" lon="-2.344184">
        <ele>805</ele>
        <time>1970-01-01T00:42:25.000Z</time>
      </trkpt>
      <trkpt lat="42.821136" lon="-2.344057">
        <ele>806</ele>
        <time>1970-01-01T00:42:29.000Z</time>
      </trkpt>
      <trkpt lat="42.821122" lon="-2.343997">
        <ele>807</ele>
        <time>1970-01-01T00:42:31.000Z</time>
      </trkpt>
      <trkpt lat="42.821105" lon="-2.343937">
        <ele>807.4</ele>
        <time>1970-01-01T00:42:33.000Z</time>
      </trkpt>
      <trkpt lat="42.821084" lon="-2.34384">
        <ele>808.4</ele>
        <time>1970-01-01T00:42:36.000Z</time>
      </trkpt>
      <trkpt lat="42.821064" lon="-2.343731">
        <ele>809.2</ele>
        <time>1970-01-01T00:42:39.000Z</time>
      </trkpt>
      <trkpt lat="42.821055" lon="-2.343506">
        <ele>810.2</ele>
        <time>1970-01-01T00:42:45.000Z</time>
      </trkpt>
      <trkpt lat="42.821074" lon="-2.343432">
        <ele>811</ele>
        <time>1970-01-01T00:42:47.000Z</time>
      </trkpt>
      <trkpt lat="42.821087" lon="-2.343396">
        <ele>811.4</ele>
        <time>1970-01-01T00:42:48.000Z</time>
      </trkpt>
      <trkpt lat="42.821174" lon="-2.34321">
        <ele>813</ele>
        <time>1970-01-01T00:42:53.000Z</time>
      </trkpt>
      <trkpt lat="42.821233" lon="-2.343128">
        <ele>813.4</ele>
        <time>1970-01-01T00:42:55.000Z</time>
      </trkpt>
      <trkpt lat="42.821311" lon="-2.343058">
        <ele>814</ele>
        <time>1970-01-01T00:42:57.000Z</time>
      </trkpt>
      <trkpt lat="42.821357" lon="-2.34303">
        <ele>814.2</ele>
        <time>1970-01-01T00:42:58.000Z</time>
      </trkpt>
      <trkpt lat="42.821464" lon="-2.342997">
        <ele>814.2</ele>
        <time>1970-01-01T00:43:00.000Z</time>
      </trkpt>
      <trkpt lat="42.821589" lon="-2.342999">
        <ele>814.4</ele>
        <time>1970-01-01T00:43:02.000Z</time>
      </trkpt>
      <trkpt lat="42.821649" lon="-2.343009">
        <ele>814.4</ele>
        <time>1970-01-01T00:43:03.000Z</time>
      </trkpt>
      <trkpt lat="42.821885" lon="-2.343078">
        <ele>814.6</ele>
        <time>1970-01-01T00:43:07.000Z</time>
      </trkpt>
      <trkpt lat="42.821943" lon="-2.343101">
        <ele>814.6</ele>
        <time>1970-01-01T00:43:08.000Z</time>
      </trkpt>
      <trkpt lat="42.822188" lon="-2.343178">
        <ele>814.8</ele>
        <time>1970-01-01T00:43:12.000Z</time>
      </trkpt>
      <trkpt lat="42.822452" lon="-2.343226">
        <ele>815.6</ele>
        <time>1970-01-01T00:43:16.000Z</time>
      </trkpt>
      <trkpt lat="42.82273" lon="-2.343219">
        <ele>816.2</ele>
        <time>1970-01-01T00:43:20.000Z</time>
      </trkpt>
      <trkpt lat="42.82288" lon="-2.343176">
        <ele>816.8</ele>
        <time>1970-01-01T00:43:22.000Z</time>
      </trkpt>
      <trkpt lat="42.823103" lon="-2.343052">
        <ele>817.2</ele>
        <time>1970-01-01T00:43:25.000Z</time>
      </trkpt>
      <trkpt lat="42.823174" lon="-2.342994">
        <ele>817.2</ele>
        <time>1970-01-01T00:43:26.000Z</time>
      </trkpt>
      <trkpt lat="42.823303" lon="-2.342853">
        <ele>817.4</ele>
        <time>1970-01-01T00:43:28.000Z</time>
      </trkpt>
      <trkpt lat="42.823406" lon="-2.342687">
        <ele>817.4</ele>
        <time>1970-01-01T00:43:30.000Z</time>
      </trkpt>
      <trkpt lat="42.823448" lon="-2.342599">
        <ele>817.4</ele>
        <time>1970-01-01T00:43:31.000Z</time>
      </trkpt>
      <trkpt lat="42.823553" lon="-2.34234">
        <ele>818</ele>
        <time>1970-01-01T00:43:34.000Z</time>
      </trkpt>
      <trkpt lat="42.823585" lon="-2.342263">
        <ele>818</ele>
        <time>1970-01-01T00:43:35.000Z</time>
      </trkpt>
      <trkpt lat="42.823675" lon="-2.342052">
        <ele>818.4</ele>
        <time>1970-01-01T00:43:38.000Z</time>
      </trkpt>
      <trkpt lat="42.823731" lon="-2.341932">
        <ele>818.8</ele>
        <time>1970-01-01T00:43:40.000Z</time>
      </trkpt>
      <trkpt lat="42.82376" lon="-2.341878">
        <ele>818.6</ele>
        <time>1970-01-01T00:43:41.000Z</time>
      </trkpt>
      <trkpt lat="42.823904" lon="-2.341604">
        <ele>819.2</ele>
        <time>1970-01-01T00:43:46.000Z</time>
      </trkpt>
      <trkpt lat="42.823953" lon="-2.341486">
        <ele>819.6</ele>
        <time>1970-01-01T00:43:48.000Z</time>
      </trkpt>
      <trkpt lat="42.824046" lon="-2.341257">
        <ele>820.6</ele>
        <time>1970-01-01T00:43:52.000Z</time>
      </trkpt>
      <trkpt lat="42.824145" lon="-2.340992">
        <ele>821.2</ele>
        <time>1970-01-01T00:43:57.000Z</time>
      </trkpt>
      <trkpt lat="42.824187" lon="-2.34084">
        <ele>822</ele>
        <time>1970-01-01T00:44:00.000Z</time>
      </trkpt>
      <trkpt lat="42.82425" lon="-2.340662">
        <ele>823.2</ele>
        <time>1970-01-01T00:44:04.000Z</time>
      </trkpt>
      <trkpt lat="42.82427" lon="-2.340621">
        <ele>823.4</ele>
        <time>1970-01-01T00:44:05.000Z</time>
      </trkpt>
      <trkpt lat="42.824315" lon="-2.340536">
        <ele>824.6</ele>
        <time>1970-01-01T00:44:07.000Z</time>
      </trkpt>
      <trkpt lat="42.824426" lon="-2.340401">
        <ele>826</ele>
        <time>1970-01-01T00:44:11.000Z</time>
      </trkpt>
      <trkpt lat="42.82456" lon="-2.34029">
        <ele>826.8</ele>
        <time>1970-01-01T00:44:15.000Z</time>
      </trkpt>
      <trkpt lat="42.824663" lon="-2.340222">
        <ele>828.6</ele>
        <time>1970-01-01T00:44:18.000Z</time>
      </trkpt>
      <trkpt lat="42.824793" lon="-2.340049">
        <ele>830.6</ele>
        <time>1970-01-01T00:44:23.000Z</time>
      </trkpt>
      <trkpt lat="42.824803" lon="-2.340005">
        <ele>830.8</ele>
        <time>1970-01-01T00:44:24.000Z</time>
      </trkpt>
      <trkpt lat="42.824792" lon="-2.339832">
        <ele>832.4</ele>
        <time>1970-01-01T00:44:28.000Z</time>
      </trkpt>
      <trkpt lat="42.824755" lon="-2.339765">
        <ele>833</ele>
        <time>1970-01-01T00:44:30.000Z</time>
      </trkpt>
      <trkpt lat="42.824702" lon="-2.339719">
        <ele>833.2</ele>
        <time>1970-01-01T00:44:32.000Z</time>
      </trkpt>
      <trkpt lat="42.824648" lon="-2.339677">
        <ele>833.8</ele>
        <time>1970-01-01T00:44:34.000Z</time>
      </trkpt>
      <trkpt lat="42.824524" lon="-2.339626">
        <ele>835</ele>
        <time>1970-01-01T00:44:38.000Z</time>
      </trkpt>
      <trkpt lat="42.824494" lon="-2.33961">
        <ele>835.8</ele>
        <time>1970-01-01T00:44:39.000Z</time>
      </trkpt>
      <trkpt lat="42.824338" lon="-2.339537">
        <ele>837.8</ele>
        <time>1970-01-01T00:44:44.000Z</time>
      </trkpt>
      <trkpt lat="42.824275" lon="-2.339502">
        <ele>838.6</ele>
        <time>1970-01-01T00:44:46.000Z</time>
      </trkpt>
      <trkpt lat="42.82403" lon="-2.339386">
        <ele>840.6</ele>
        <time>1970-01-01T00:44:54.000Z</time>
      </trkpt>
      <trkpt lat="42.823939" lon="-2.339352">
        <ele>841.2</ele>
        <time>1970-01-01T00:44:57.000Z</time>
      </trkpt>
      <trkpt lat="42.823751" lon="-2.339311">
        <ele>841.8</ele>
        <time>1970-01-01T00:45:03.000Z</time>
      </trkpt>
      <trkpt lat="42.823692" lon="-2.339297">
        <ele>842</ele>
        <time>1970-01-01T00:45:05.000Z</time>
      </trkpt>
      <trkpt lat="42.823579" lon="-2.339288">
        <ele>843.6</ele>
        <time>1970-01-01T00:45:09.000Z</time>
      </trkpt>
      <trkpt lat="42.823552" lon="-2.339282">
        <ele>843.8</ele>
        <time>1970-01-01T00:45:10.000Z</time>
      </trkpt>
      <trkpt lat="42.8235" lon="-2.339267">
        <ele>844.2</ele>
        <time>1970-01-01T00:45:12.000Z</time>
      </trkpt>
      <trkpt lat="42.823322" lon="-2.339249">
        <ele>846.4</ele>
        <time>1970-01-01T00:45:18.000Z</time>
      </trkpt>
      <trkpt lat="42.823202" lon="-2.339234">
        <ele>847.4</ele>
        <time>1970-01-01T00:45:22.000Z</time>
      </trkpt>
      <trkpt lat="42.823088" lon="-2.33922">
        <ele>848.4</ele>
        <time>1970-01-01T00:45:26.000Z</time>
      </trkpt>
      <trkpt lat="42.82303" lon="-2.339213">
        <ele>849.2</ele>
        <time>1970-01-01T00:45:28.000Z</time>
      </trkpt>
      <trkpt lat="42.822914" lon="-2.339208">
        <ele>850.6</ele>
        <time>1970-01-01T00:45:32.000Z</time>
      </trkpt>
      <trkpt lat="42.822799" lon="-2.339212">
        <ele>851.8</ele>
        <time>1970-01-01T00:45:36.000Z</time>
      </trkpt>
      <trkpt lat="42.822741" lon="-2.339215">
        <ele>852.6</ele>
        <time>1970-01-01T00:45:38.000Z</time>
      </trkpt>
      <trkpt lat="42.822626" lon="-2.339216">
        <ele>853.6</ele>
        <time>1970-01-01T00:45:42.000Z</time>
      </trkpt>
      <trkpt lat="42.822568" lon="-2.33922">
        <ele>853.8</ele>
        <time>1970-01-01T00:45:44.000Z</time>
      </trkpt>
      <trkpt lat="42.822455" lon="-2.339212">
        <ele>854.8</ele>
        <time>1970-01-01T00:45:48.000Z</time>
      </trkpt>
      <trkpt lat="42.822345" lon="-2.339191">
        <ele>856</ele>
        <time>1970-01-01T00:45:52.000Z</time>
      </trkpt>
      <trkpt lat="42.822266" lon="-2.339172">
        <ele>856.6</ele>
        <time>1970-01-01T00:45:55.000Z</time>
      </trkpt>
      <trkpt lat="42.822211" lon="-2.339159">
        <ele>857.4</ele>
        <time>1970-01-01T00:45:57.000Z</time>
      </trkpt>
      <trkpt lat="42.822096" lon="-2.339131">
        <ele>858.8</ele>
        <time>1970-01-01T00:46:01.000Z</time>
      </trkpt>
      <trkpt lat="42.822039" lon="-2.339113">
        <ele>859.4</ele>
        <time>1970-01-01T00:46:03.000Z</time>
      </trkpt>
      <trkpt lat="42.821984" lon="-2.339095">
        <ele>859.8</ele>
        <time>1970-01-01T00:46:05.000Z</time>
      </trkpt>
      <trkpt lat="42.821956" lon="-2.339089">
        <ele>860.2</ele>
        <time>1970-01-01T00:46:06.000Z</time>
      </trkpt>
      <trkpt lat="42.821841" lon="-2.339079">
        <ele>861.2</ele>
        <time>1970-01-01T00:46:10.000Z</time>
      </trkpt>
      <trkpt lat="42.821753" lon="-2.339085">
        <ele>862</ele>
        <time>1970-01-01T00:46:13.000Z</time>
      </trkpt>
      <trkpt lat="42.821556" lon="-2.339193">
        <ele>864.4</ele>
        <time>1970-01-01T00:46:20.000Z</time>
      </trkpt>
      <trkpt lat="42.821526" lon="-2.339218">
        <ele>864.8</ele>
        <time>1970-01-01T00:46:21.000Z</time>
      </trkpt>
      <trkpt lat="42.82144" lon="-2.339286">
        <ele>865.8</ele>
        <time>1970-01-01T00:46:24.000Z</time>
      </trkpt>
      <trkpt lat="42.821334" lon="-2.339372">
        <ele>866.2</ele>
        <time>1970-01-01T00:46:28.000Z</time>
      </trkpt>
      <trkpt lat="42.82131" lon="-2.339393">
        <ele>866.4</ele>
        <time>1970-01-01T00:46:29.000Z</time>
      </trkpt>
      <trkpt lat="42.82116" lon="-2.339528">
        <ele>868.2</ele>
        <time>1970-01-01T00:46:35.000Z</time>
      </trkpt>
      <trkpt lat="42.821055" lon="-2.339609">
        <ele>869.4</ele>
        <time>1970-01-01T00:46:39.000Z</time>
      </trkpt>
      <trkpt lat="42.82103" lon="-2.339632">
        <ele>869.6</ele>
        <time>1970-01-01T00:46:40.000Z</time>
      </trkpt>
      <trkpt lat="42.820924" lon="-2.339732">
        <ele>870.2</ele>
        <time>1970-01-01T00:46:44.000Z</time>
      </trkpt>
      <trkpt lat="42.820818" lon="-2.339824">
        <ele>870.8</ele>
        <time>1970-01-01T00:46:48.000Z</time>
      </trkpt>
      <trkpt lat="42.820605" lon="-2.339857">
        <ele>873</ele>
        <time>1970-01-01T00:46:55.000Z</time>
      </trkpt>
      <trkpt lat="42.820486" lon="-2.339703">
        <ele>873.8</ele>
        <time>1970-01-01T00:47:00.000Z</time>
      </trkpt>
      <trkpt lat="42.820452" lon="-2.339631">
        <ele>874.2</ele>
        <time>1970-01-01T00:47:02.000Z</time>
      </trkpt>
      <trkpt lat="42.820393" lon="-2.339486">
        <ele>875.8</ele>
        <time>1970-01-01T00:47:06.000Z</time>
      </trkpt>
      <trkpt lat="42.820367" lon="-2.339424">
        <ele>876.2</ele>
        <time>1970-01-01T00:47:08.000Z</time>
      </trkpt>
      <trkpt lat="42.820352" lon="-2.339394">
        <ele>876.8</ele>
        <time>1970-01-01T00:47:09.000Z</time>
      </trkpt>
      <trkpt lat="42.820259" lon="-2.339248">
        <ele>878.8</ele>
        <time>1970-01-01T00:47:14.000Z</time>
      </trkpt>
      <trkpt lat="42.820241" lon="-2.339219">
        <ele>879.2</ele>
        <time>1970-01-01T00:47:15.000Z</time>
      </trkpt>
      <trkpt lat="42.820223" lon="-2.339188">
        <ele>879.6</ele>
        <time>1970-01-01T00:47:16.000Z</time>
      </trkpt>
      <trkpt lat="42.82014" lon="-2.339063">
        <ele>880.4</ele>
        <time>1970-01-01T00:47:20.000Z</time>
      </trkpt>
      <trkpt lat="42.820077" lon="-2.338984">
        <ele>881</ele>
        <time>1970-01-01T00:47:23.000Z</time>
      </trkpt>
      <trkpt lat="42.820058" lon="-2.338958">
        <ele>881.4</ele>
        <time>1970-01-01T00:47:24.000Z</time>
      </trkpt>
      <trkpt lat="42.819985" lon="-2.338859">
        <ele>883.2</ele>
        <time>1970-01-01T00:47:28.000Z</time>
      </trkpt>
      <trkpt lat="42.819924" lon="-2.338802">
        <ele>884</ele>
        <time>1970-01-01T00:47:31.000Z</time>
      </trkpt>
      <trkpt lat="42.819879" lon="-2.338775">
        <ele>884.6</ele>
        <time>1970-01-01T00:47:33.000Z</time>
      </trkpt>
      <trkpt lat="42.819786" lon="-2.338733">
        <ele>885.6</ele>
        <time>1970-01-01T00:47:37.000Z</time>
      </trkpt>
      <trkpt lat="42.819735" lon="-2.338725">
        <ele>886.2</ele>
        <time>1970-01-01T00:47:39.000Z</time>
      </trkpt>
      <trkpt lat="42.819635" lon="-2.338711">
        <ele>888</ele>
        <time>1970-01-01T00:47:43.000Z</time>
      </trkpt>
      <trkpt lat="42.81952" lon="-2.338684">
        <ele>889.8</ele>
        <time>1970-01-01T00:47:48.000Z</time>
      </trkpt>
      <trkpt lat="42.819405" lon="-2.338656">
        <ele>891.2</ele>
        <time>1970-01-01T00:47:53.000Z</time>
      </trkpt>
      <trkpt lat="42.819334" lon="-2.338628">
        <ele>892</ele>
        <time>1970-01-01T00:47:56.000Z</time>
      </trkpt>
      <trkpt lat="42.819313" lon="-2.338614">
        <ele>892</ele>
        <time>1970-01-01T00:47:57.000Z</time>
      </trkpt>
      <trkpt lat="42.81925" lon="-2.338576">
        <ele>893</ele>
        <time>1970-01-01T00:48:00.000Z</time>
      </trkpt>
      <trkpt lat="42.819196" lon="-2.338529">
        <ele>893.4</ele>
        <time>1970-01-01T00:48:03.000Z</time>
      </trkpt>
      <trkpt lat="42.81918" lon="-2.338511">
        <ele>893.6</ele>
        <time>1970-01-01T00:48:04.000Z</time>
      </trkpt>
      <trkpt lat="42.819129" lon="-2.338451">
        <ele>894.2</ele>
        <time>1970-01-01T00:48:07.000Z</time>
      </trkpt>
      <trkpt lat="42.819065" lon="-2.33835">
        <ele>895.6</ele>
        <time>1970-01-01T00:48:11.000Z</time>
      </trkpt>
      <trkpt lat="42.819058" lon="-2.338319">
        <ele>896</ele>
        <time>1970-01-01T00:48:12.000Z</time>
      </trkpt>
      <trkpt lat="42.819074" lon="-2.338214">
        <ele>896.8</ele>
        <time>1970-01-01T00:48:15.000Z</time>
      </trkpt>
      <trkpt lat="42.819093" lon="-2.338173">
        <ele>897.4</ele>
        <time>1970-01-01T00:48:16.000Z</time>
      </trkpt>
      <trkpt lat="42.819219" lon="-2.338056">
        <ele>898.6</ele>
        <time>1970-01-01T00:48:20.000Z</time>
      </trkpt>
      <trkpt lat="42.819381" lon="-2.338048">
        <ele>900.2</ele>
        <time>1970-01-01T00:48:24.000Z</time>
      </trkpt>
      <trkpt lat="42.819425" lon="-2.338052">
        <ele>900.4</ele>
        <time>1970-01-01T00:48:25.000Z</time>
      </trkpt>
      <trkpt lat="42.819754" lon="-2.338038">
        <ele>901.6</ele>
        <time>1970-01-01T00:48:32.000Z</time>
      </trkpt>
      <trkpt lat="42.819852" lon="-2.338024">
        <ele>902.2</ele>
        <time>1970-01-01T00:48:34.000Z</time>
      </trkpt>
      <trkpt lat="42.820107" lon="-2.337984">
        <ele>903</ele>
        <time>1970-01-01T00:48:39.000Z</time>
      </trkpt>
      <trkpt lat="42.820217" lon="-2.337944">
        <ele>903.4</ele>
        <time>1970-01-01T00:48:41.000Z</time>
      </trkpt>
      <trkpt lat="42.820319" lon="-2.337895">
        <ele>903.8</ele>
        <time>1970-01-01T00:48:43.000Z</time>
      </trkpt>
      <trkpt lat="42.820365" lon="-2.337866">
        <ele>904</ele>
        <time>1970-01-01T00:48:44.000Z</time>
      </trkpt>
      <trkpt lat="42.820491" lon="-2.337772">
        <ele>904.4</ele>
        <time>1970-01-01T00:48:47.000Z</time>
      </trkpt>
      <trkpt lat="42.820561" lon="-2.337703">
        <ele>904.8</ele>
        <time>1970-01-01T00:48:49.000Z</time>
      </trkpt>
      <trkpt lat="42.820595" lon="-2.337668">
        <ele>905</ele>
        <time>1970-01-01T00:48:50.000Z</time>
      </trkpt>
      <trkpt lat="42.820681" lon="-2.337553">
        <ele>905.4</ele>
        <time>1970-01-01T00:48:53.000Z</time>
      </trkpt>
      <trkpt lat="42.820743" lon="-2.33742">
        <ele>906.6</ele>
        <time>1970-01-01T00:48:56.000Z</time>
      </trkpt>
      <trkpt lat="42.82076" lon="-2.337371">
        <ele>907.2</ele>
        <time>1970-01-01T00:48:57.000Z</time>
      </trkpt>
      <trkpt lat="42.820773" lon="-2.33732">
        <ele>907.4</ele>
        <time>1970-01-01T00:48:58.000Z</time>
      </trkpt>
      <trkpt lat="42.820794" lon="-2.337214">
        <ele>908.2</ele>
        <time>1970-01-01T00:49:00.000Z</time>
      </trkpt>
      <trkpt lat="42.820818" lon="-2.336983">
        <ele>908.8</ele>
        <time>1970-01-01T00:49:04.000Z</time>
      </trkpt>
      <trkpt lat="42.820829" lon="-2.336812">
        <ele>910.4</ele>
        <time>1970-01-01T00:49:07.000Z</time>
      </trkpt>
      <trkpt lat="42.820844" lon="-2.336601">
        <ele>911.8</ele>
        <time>1970-01-01T00:49:11.000Z</time>
      </trkpt>
      <trkpt lat="42.820863" lon="-2.336411">
        <ele>912.4</ele>
        <time>1970-01-01T00:49:15.000Z</time>
      </trkpt>
      <trkpt lat="42.820867" lon="-2.336315">
        <ele>912.6</ele>
        <time>1970-01-01T00:49:17.000Z</time>
      </trkpt>
      <trkpt lat="42.820875" lon="-2.336113">
        <ele>913.2</ele>
        <time>1970-01-01T00:49:21.000Z</time>
      </trkpt>
      <trkpt lat="42.820877" lon="-2.336062">
        <ele>913.2</ele>
        <time>1970-01-01T00:49:22.000Z</time>
      </trkpt>
      <trkpt lat="42.820887" lon="-2.335795">
        <ele>914.4</ele>
        <time>1970-01-01T00:49:27.000Z</time>
      </trkpt>
      <trkpt lat="42.820904" lon="-2.335581">
        <ele>915</ele>
        <time>1970-01-01T00:49:31.000Z</time>
      </trkpt>
      <trkpt lat="42.820909" lon="-2.335314">
        <ele>916.2</ele>
        <time>1970-01-01T00:49:36.000Z</time>
      </trkpt>
      <trkpt lat="42.820925" lon="-2.33516">
        <ele>916.8</ele>
        <time>1970-01-01T00:49:39.000Z</time>
      </trkpt>
      <trkpt lat="42.820933" lon="-2.335057">
        <ele>917.2</ele>
        <time>1970-01-01T00:49:41.000Z</time>
      </trkpt>
      <trkpt lat="42.820947" lon="-2.334907">
        <ele>918.2</ele>
        <time>1970-01-01T00:49:44.000Z</time>
      </trkpt>
      <trkpt lat="42.820965" lon="-2.334713">
        <ele>919</ele>
        <time>1970-01-01T00:49:48.000Z</time>
      </trkpt>
      <trkpt lat="42.820969" lon="-2.334669">
        <ele>919.2</ele>
        <time>1970-01-01T00:49:49.000Z</time>
      </trkpt>
      <trkpt lat="42.82098" lon="-2.334582">
        <ele>920.2</ele>
        <time>1970-01-01T00:49:51.000Z</time>
      </trkpt>
      <trkpt lat="42.820989" lon="-2.334371">
        <ele>921.6</ele>
        <time>1970-01-01T00:49:56.000Z</time>
      </trkpt>
      <trkpt lat="42.820995" lon="-2.334286">
        <ele>922</ele>
        <time>1970-01-01T00:49:58.000Z</time>
      </trkpt>
      <trkpt lat="42.821008" lon="-2.334084">
        <ele>923.8</ele>
        <time>1970-01-01T00:50:03.000Z</time>
      </trkpt>
      <trkpt lat="42.821011" lon="-2.334046">
        <ele>923.8</ele>
        <time>1970-01-01T00:50:04.000Z</time>
      </trkpt>
      <trkpt lat="42.821015" lon="-2.334006">
        <ele>924.2</ele>
        <time>1970-01-01T00:50:05.000Z</time>
      </trkpt>
      <trkpt lat="42.821019" lon="-2.333806">
        <ele>925.2</ele>
        <time>1970-01-01T00:50:10.000Z</time>
      </trkpt>
      <trkpt lat="42.821021" lon="-2.333631">
        <ele>926.8</ele>
        <time>1970-01-01T00:50:14.000Z</time>
      </trkpt>
      <trkpt lat="42.821026" lon="-2.333405">
        <ele>928.4</ele>
        <time>1970-01-01T00:50:19.000Z</time>
      </trkpt>
      <trkpt lat="42.821029" lon="-2.333277">
        <ele>929.4</ele>
        <time>1970-01-01T00:50:22.000Z</time>
      </trkpt>
      <trkpt lat="42.821031" lon="-2.333233">
        <ele>929.6</ele>
        <time>1970-01-01T00:50:23.000Z</time>
      </trkpt>
      <trkpt lat="42.821018" lon="-2.333043">
        <ele>930.2</ele>
        <time>1970-01-01T00:50:27.000Z</time>
      </trkpt>
      <trkpt lat="42.821014" lon="-2.332995">
        <ele>930.6</ele>
        <time>1970-01-01T00:50:28.000Z</time>
      </trkpt>
      <trkpt lat="42.820994" lon="-2.332802">
        <ele>931.8</ele>
        <time>1970-01-01T00:50:32.000Z</time>
      </trkpt>
      <trkpt lat="42.821003" lon="-2.332579">
        <ele>933</ele>
        <time>1970-01-01T00:50:36.000Z</time>
      </trkpt>
      <trkpt lat="42.821005" lon="-2.332523">
        <ele>933.4</ele>
        <time>1970-01-01T00:50:37.000Z</time>
      </trkpt>
      <trkpt lat="42.82101" lon="-2.332276">
        <ele>934.4</ele>
        <time>1970-01-01T00:50:41.000Z</time>
      </trkpt>
      <trkpt lat="42.821015" lon="-2.332214">
        <ele>934.6</ele>
        <time>1970-01-01T00:50:42.000Z</time>
      </trkpt>
      <trkpt lat="42.821026" lon="-2.332095">
        <ele>935</ele>
        <time>1970-01-01T00:50:44.000Z</time>
      </trkpt>
      <trkpt lat="42.821047" lon="-2.331986">
        <ele>935.6</ele>
        <time>1970-01-01T00:50:46.000Z</time>
      </trkpt>
      <trkpt lat="42.821037" lon="-2.33184">
        <ele>936</ele>
        <time>1970-01-01T00:50:49.000Z</time>
      </trkpt>
      <trkpt lat="42.820949" lon="-2.331843">
        <ele>936.8</ele>
        <time>1970-01-01T00:50:52.000Z</time>
      </trkpt>
      <trkpt lat="42.820902" lon="-2.33194">
        <ele>937.4</ele>
        <time>1970-01-01T00:50:54.000Z</time>
      </trkpt>
      <trkpt lat="42.82088" lon="-2.331997">
        <ele>937.6</ele>
        <time>1970-01-01T00:50:55.000Z</time>
      </trkpt>
      <trkpt lat="42.820833" lon="-2.332114">
        <ele>938.4</ele>
        <time>1970-01-01T00:50:57.000Z</time>
      </trkpt>
      <trkpt lat="42.820762" lon="-2.332276">
        <ele>939.8</ele>
        <time>1970-01-01T00:51:00.000Z</time>
      </trkpt>
      <trkpt lat="42.820743" lon="-2.332329">
        <ele>939.8</ele>
        <time>1970-01-01T00:51:01.000Z</time>
      </trkpt>
      <trkpt lat="42.820703" lon="-2.332437">
        <ele>940</ele>
        <time>1970-01-01T00:51:03.000Z</time>
      </trkpt>
      <trkpt lat="42.820554" lon="-2.332745">
        <ele>941.6</ele>
        <time>1970-01-01T00:51:09.000Z</time>
      </trkpt>
      <trkpt lat="42.820522" lon="-2.332794">
        <ele>941.8</ele>
        <time>1970-01-01T00:51:10.000Z</time>
      </trkpt>
      <trkpt lat="42.820486" lon="-2.332838">
        <ele>942</ele>
        <time>1970-01-01T00:51:11.000Z</time>
      </trkpt>
      <trkpt lat="42.820341" lon="-2.333014">
        <ele>942.8</ele>
        <time>1970-01-01T00:51:15.000Z</time>
      </trkpt>
      <trkpt lat="42.820223" lon="-2.333144">
        <ele>943.2</ele>
        <time>1970-01-01T00:51:18.000Z</time>
      </trkpt>
      <trkpt lat="42.820092" lon="-2.33324">
        <ele>944.4</ele>
        <time>1970-01-01T00:51:21.000Z</time>
      </trkpt>
      <trkpt lat="42.819999" lon="-2.333292">
        <ele>944.8</ele>
        <time>1970-01-01T00:51:23.000Z</time>
      </trkpt>
      <trkpt lat="42.81995" lon="-2.33331">
        <ele>945</ele>
        <time>1970-01-01T00:51:24.000Z</time>
      </trkpt>
      <trkpt lat="42.819804" lon="-2.333342">
        <ele>945.6</ele>
        <time>1970-01-01T00:51:27.000Z</time>
      </trkpt>
      <trkpt lat="42.819707" lon="-2.33335">
        <ele>946.2</ele>
        <time>1970-01-01T00:51:29.000Z</time>
      </trkpt>
      <trkpt lat="42.819519" lon="-2.333361">
        <ele>946.8</ele>
        <time>1970-01-01T00:51:33.000Z</time>
      </trkpt>
      <trkpt lat="42.819428" lon="-2.333356">
        <ele>946.8</ele>
        <time>1970-01-01T00:51:35.000Z</time>
      </trkpt>
      <trkpt lat="42.819344" lon="-2.33334">
        <ele>947.2</ele>
        <time>1970-01-01T00:51:37.000Z</time>
      </trkpt>
      <trkpt lat="42.819261" lon="-2.333289">
        <ele>948.2</ele>
        <time>1970-01-01T00:51:39.000Z</time>
      </trkpt>
      <trkpt lat="42.819226" lon="-2.333254">
        <ele>948.4</ele>
        <time>1970-01-01T00:51:40.000Z</time>
      </trkpt>
      <trkpt lat="42.819179" lon="-2.33316">
        <ele>949.2</ele>
        <time>1970-01-01T00:51:42.000Z</time>
      </trkpt>
      <trkpt lat="42.819166" lon="-2.333104">
        <ele>949.6</ele>
        <time>1970-01-01T00:51:43.000Z</time>
      </trkpt>
      <trkpt lat="42.81916" lon="-2.333047">
        <ele>949.8</ele>
        <time>1970-01-01T00:51:44.000Z</time>
      </trkpt>
      <trkpt lat="42.819162" lon="-2.332989">
        <ele>950</ele>
        <time>1970-01-01T00:51:45.000Z</time>
      </trkpt>
      <trkpt lat="42.819172" lon="-2.332931">
        <ele>950</ele>
        <time>1970-01-01T00:51:46.000Z</time>
      </trkpt>
      <trkpt lat="42.819221" lon="-2.332832">
        <ele>950.6</ele>
        <time>1970-01-01T00:51:48.000Z</time>
      </trkpt>
      <trkpt lat="42.819413" lon="-2.332642">
        <ele>952.8</ele>
        <time>1970-01-01T00:51:53.000Z</time>
      </trkpt>
      <trkpt lat="42.819531" lon="-2.332567">
        <ele>953.4</ele>
        <time>1970-01-01T00:51:56.000Z</time>
      </trkpt>
      <trkpt lat="42.819649" lon="-2.33251">
        <ele>953.8</ele>
        <time>1970-01-01T00:51:59.000Z</time>
      </trkpt>
      <trkpt lat="42.819689" lon="-2.332492">
        <ele>953.8</ele>
        <time>1970-01-01T00:52:00.000Z</time>
      </trkpt>
      <trkpt lat="42.819724" lon="-2.332474">
        <ele>954</ele>
        <time>1970-01-01T00:52:01.000Z</time>
      </trkpt>
      <trkpt lat="42.81985" lon="-2.332363">
        <ele>954.8</ele>
        <time>1970-01-01T00:52:05.000Z</time>
      </trkpt>
      <trkpt lat="42.819865" lon="-2.33232">
        <ele>955.2</ele>
        <time>1970-01-01T00:52:06.000Z</time>
      </trkpt>
      <trkpt lat="42.819869" lon="-2.332229">
        <ele>956</ele>
        <time>1970-01-01T00:52:08.000Z</time>
      </trkpt>
      <trkpt lat="42.819854" lon="-2.332185">
        <ele>956.2</ele>
        <time>1970-01-01T00:52:09.000Z</time>
      </trkpt>
      <trkpt lat="42.819758" lon="-2.332105">
        <ele>957.8</ele>
        <time>1970-01-01T00:52:12.000Z</time>
      </trkpt>
      <trkpt lat="42.819718" lon="-2.332097">
        <ele>958.2</ele>
        <time>1970-01-01T00:52:13.000Z</time>
      </trkpt>
      <trkpt lat="42.819597" lon="-2.3321">
        <ele>959</ele>
        <time>1970-01-01T00:52:16.000Z</time>
      </trkpt>
      <trkpt lat="42.819485" lon="-2.332116">
        <ele>960</ele>
        <time>1970-01-01T00:52:19.000Z</time>
      </trkpt>
      <trkpt lat="42.819335" lon="-2.332137">
        <ele>961.2</ele>
        <time>1970-01-01T00:52:23.000Z</time>
      </trkpt>
      <trkpt lat="42.819184" lon="-2.332156">
        <ele>962.4</ele>
        <time>1970-01-01T00:52:27.000Z</time>
      </trkpt>
      <trkpt lat="42.81911" lon="-2.332166">
        <ele>963.2</ele>
        <time>1970-01-01T00:52:29.000Z</time>
      </trkpt>
      <trkpt lat="42.819037" lon="-2.332172">
        <ele>964.2</ele>
        <time>1970-01-01T00:52:31.000Z</time>
      </trkpt>
      <trkpt lat="42.818928" lon="-2.332189">
        <ele>965.2</ele>
        <time>1970-01-01T00:52:34.000Z</time>
      </trkpt>
      <trkpt lat="42.818825" lon="-2.3322">
        <ele>966.2</ele>
        <time>1970-01-01T00:52:37.000Z</time>
      </trkpt>
      <trkpt lat="42.818755" lon="-2.33221">
        <ele>966.6</ele>
        <time>1970-01-01T00:52:39.000Z</time>
      </trkpt>
      <trkpt lat="42.818533" lon="-2.332268">
        <ele>969</ele>
        <time>1970-01-01T00:52:46.000Z</time>
      </trkpt>
      <trkpt lat="42.818443" lon="-2.332296">
        <ele>970.2</ele>
        <time>1970-01-01T00:52:49.000Z</time>
      </trkpt>
      <trkpt lat="42.818381" lon="-2.332319">
        <ele>971</ele>
        <time>1970-01-01T00:52:51.000Z</time>
      </trkpt>
      <trkpt lat="42.818291" lon="-2.332346">
        <ele>971.4</ele>
        <time>1970-01-01T00:52:54.000Z</time>
      </trkpt>
      <trkpt lat="42.818202" lon="-2.332375">
        <ele>972.2</ele>
        <time>1970-01-01T00:52:57.000Z</time>
      </trkpt>
      <trkpt lat="42.818172" lon="-2.332386">
        <ele>972.4</ele>
        <time>1970-01-01T00:52:58.000Z</time>
      </trkpt>
      <trkpt lat="42.818114" lon="-2.33241">
        <ele>972.8</ele>
        <time>1970-01-01T00:53:00.000Z</time>
      </trkpt>
      <trkpt lat="42.818017" lon="-2.33246">
        <ele>974.4</ele>
        <time>1970-01-01T00:53:04.000Z</time>
      </trkpt>
      <trkpt lat="42.817977" lon="-2.332489">
        <ele>974.8</ele>
        <time>1970-01-01T00:53:06.000Z</time>
      </trkpt>
      <trkpt lat="42.817949" lon="-2.332515">
        <ele>975.8</ele>
        <time>1970-01-01T00:53:08.000Z</time>
      </trkpt>
      <trkpt lat="42.817853" lon="-2.332577">
        <ele>977.4</ele>
        <time>1970-01-01T00:53:12.000Z</time>
      </trkpt>
      <trkpt lat="42.817799" lon="-2.332624">
        <ele>978</ele>
        <time>1970-01-01T00:53:15.000Z</time>
      </trkpt>
      <trkpt lat="42.817691" lon="-2.332729">
        <ele>979.6</ele>
        <time>1970-01-01T00:53:20.000Z</time>
      </trkpt>
      <trkpt lat="42.817671" lon="-2.332753">
        <ele>980</ele>
        <time>1970-01-01T00:53:21.000Z</time>
      </trkpt>
      <trkpt lat="42.817536" lon="-2.332859">
        <ele>981.4</ele>
        <time>1970-01-01T00:53:26.000Z</time>
      </trkpt>
      <trkpt lat="42.817395" lon="-2.333015">
        <ele>983</ele>
        <time>1970-01-01T00:53:32.000Z</time>
      </trkpt>
      <trkpt lat="42.817367" lon="-2.333046">
        <ele>983.2</ele>
        <time>1970-01-01T00:53:33.000Z</time>
      </trkpt>
      <trkpt lat="42.817298" lon="-2.333128">
        <ele>984</ele>
        <time>1970-01-01T00:53:36.000Z</time>
      </trkpt>
      <trkpt lat="42.817203" lon="-2.33324">
        <ele>984.8</ele>
        <time>1970-01-01T00:53:40.000Z</time>
      </trkpt>
      <trkpt lat="42.81718" lon="-2.333267">
        <ele>984.8</ele>
        <time>1970-01-01T00:53:41.000Z</time>
      </trkpt>
      <trkpt lat="42.817144" lon="-2.333323">
        <ele>985.4</ele>
        <time>1970-01-01T00:53:43.000Z</time>
      </trkpt>
      <trkpt lat="42.817049" lon="-2.33341">
        <ele>986.4</ele>
        <time>1970-01-01T00:53:46.000Z</time>
      </trkpt>
      <trkpt lat="42.816956" lon="-2.333496">
        <ele>987.4</ele>
        <time>1970-01-01T00:53:49.000Z</time>
      </trkpt>
      <trkpt lat="42.816811" lon="-2.3336">
        <ele>988.2</ele>
        <time>1970-01-01T00:53:53.000Z</time>
      </trkpt>
      <trkpt lat="42.816773" lon="-2.333624">
        <ele>988.8</ele>
        <time>1970-01-01T00:53:54.000Z</time>
      </trkpt>
      <trkpt lat="42.816543" lon="-2.3337">
        <ele>991</ele>
        <time>1970-01-01T00:54:00.000Z</time>
      </trkpt>
      <trkpt lat="42.81641" lon="-2.333678">
        <ele>992.2</ele>
        <time>1970-01-01T00:54:04.000Z</time>
      </trkpt>
      <trkpt lat="42.816315" lon="-2.333638">
        <ele>992.8</ele>
        <time>1970-01-01T00:54:07.000Z</time>
      </trkpt>
      <trkpt lat="42.816259" lon="-2.333599">
        <ele>993.4</ele>
        <time>1970-01-01T00:54:09.000Z</time>
      </trkpt>
      <trkpt lat="42.816175" lon="-2.333486">
        <ele>993.8</ele>
        <time>1970-01-01T00:54:12.000Z</time>
      </trkpt>
      <trkpt lat="42.81616" lon="-2.333449">
        <ele>994.4</ele>
        <time>1970-01-01T00:54:13.000Z</time>
      </trkpt>
      <trkpt lat="42.816108" lon="-2.333253">
        <ele>995.8</ele>
        <time>1970-01-01T00:54:19.000Z</time>
      </trkpt>
      <trkpt lat="42.816098" lon="-2.333215">
        <ele>996.2</ele>
        <time>1970-01-01T00:54:20.000Z</time>
      </trkpt>
      <trkpt lat="42.81609" lon="-2.333178">
        <ele>996.4</ele>
        <time>1970-01-01T00:54:21.000Z</time>
      </trkpt>
      <trkpt lat="42.816071" lon="-2.333063">
        <ele>997.2</ele>
        <time>1970-01-01T00:54:24.000Z</time>
      </trkpt>
      <trkpt lat="42.81604" lon="-2.332865">
        <ele>998.8</ele>
        <time>1970-01-01T00:54:29.000Z</time>
      </trkpt>
      <trkpt lat="42.816012" lon="-2.332749">
        <ele>1000.2</ele>
        <time>1970-01-01T00:54:32.000Z</time>
      </trkpt>
      <trkpt lat="42.815992" lon="-2.332555">
        <ele>1000.8</ele>
        <time>1970-01-01T00:54:36.000Z</time>
      </trkpt>
      <trkpt lat="42.815966" lon="-2.332339">
        <ele>1002</ele>
        <time>1970-01-01T00:54:41.000Z</time>
      </trkpt>
      <trkpt lat="42.815939" lon="-2.332253">
        <ele>1002.8</ele>
        <time>1970-01-01T00:54:43.000Z</time>
      </trkpt>
      <trkpt lat="42.815939" lon="-2.332253">
        <ele>1003.2</ele>
        <time>1970-01-01T00:54:44.000Z</time>
      </trkpt>
      <trkpt lat="42.815779" lon="-2.332119">
        <ele>1003.8</ele>
        <time>1970-01-01T00:54:48.000Z</time>
      </trkpt>
      <trkpt lat="42.815695" lon="-2.332094">
        <ele>1003.8</ele>
        <time>1970-01-01T00:54:50.000Z</time>
      </trkpt>
      <trkpt lat="42.815494" lon="-2.332021">
        <ele>1005.2</ele>
        <time>1970-01-01T00:54:55.000Z</time>
      </trkpt>
      <trkpt lat="42.815494" lon="-2.332021">
        <ele>1005.4</ele>
        <time>1970-01-01T00:54:56.000Z</time>
      </trkpt>
      <trkpt lat="42.815328" lon="-2.331949">
        <ele>1006.2</ele>
        <time>1970-01-01T00:55:00.000Z</time>
      </trkpt>
      <trkpt lat="42.81516" lon="-2.331881">
        <ele>1007.2</ele>
        <time>1970-01-01T00:55:04.000Z</time>
      </trkpt>
      <trkpt lat="42.815116" lon="-2.331863">
        <ele>1007.4</ele>
        <time>1970-01-01T00:55:05.000Z</time>
      </trkpt>
      <trkpt lat="42.814968" lon="-2.331801">
        <ele>1007.8</ele>
        <time>1970-01-01T00:55:08.000Z</time>
      </trkpt>
      <trkpt lat="42.814919" lon="-2.331776">
        <ele>1007.8</ele>
        <time>1970-01-01T00:55:09.000Z</time>
      </trkpt>
      <trkpt lat="42.814828" lon="-2.331732">
        <ele>1008</ele>
        <time>1970-01-01T00:55:11.000Z</time>
      </trkpt>
      <trkpt lat="42.814785" lon="-2.331714">
        <ele>1008</ele>
        <time>1970-01-01T00:55:12.000Z</time>
      </trkpt>
      <trkpt lat="42.814668" lon="-2.331652">
        <ele>1008.4</ele>
        <time>1970-01-01T00:55:15.000Z</time>
      </trkpt>
      <trkpt lat="42.814628" lon="-2.331636">
        <ele>1008.6</ele>
        <time>1970-01-01T00:55:16.000Z</time>
      </trkpt>
      <trkpt lat="42.814462" lon="-2.331546">
        <ele>1008.8</ele>
        <time>1970-01-01T00:55:20.000Z</time>
      </trkpt>
      <trkpt lat="42.814873" lon="-2.331785">
        <ele>1010.4</ele>
        <time>1970-01-01T01:00:49.000Z</time>
      </trkpt>
      <trkpt lat="42.814873" lon="-2.331784">
        <ele>1010.6</ele>
        <time>1970-01-01T01:00:50.000Z</time>
      </trkpt>
      <trkpt lat="42.81484" lon="-2.331744">
        <ele>1010.6</ele>
        <time>1970-01-01T01:00:55.000Z</time>
      </trkpt>
      <trkpt lat="42.814796" lon="-2.331722">
        <ele>1010.4</ele>
        <time>1970-01-01T01:00:57.000Z</time>
      </trkpt>
      <trkpt lat="42.814627" lon="-2.331628">
        <ele>1010.6</ele>
        <time>1970-01-01T01:01:01.000Z</time>
      </trkpt>
      <trkpt lat="42.814586" lon="-2.331607">
        <ele>1010.6</ele>
        <time>1970-01-01T01:01:03.000Z</time>
      </trkpt>
      <trkpt lat="42.814499" lon="-2.331554">
        <ele>1010.4</ele>
        <time>1970-01-01T01:01:05.000Z</time>
      </trkpt>
      <trkpt lat="42.814403" lon="-2.331494">
        <ele>1010.2</ele>
        <time>1970-01-01T01:01:07.000Z</time>
      </trkpt>
      <trkpt lat="42.814293" lon="-2.331437">
        <ele>1010</ele>
        <time>1970-01-01T01:01:09.000Z</time>
      </trkpt>
      <trkpt lat="42.813912" lon="-2.331208">
        <ele>1008.4</ele>
        <time>1970-01-01T01:01:15.000Z</time>
      </trkpt>
      <trkpt lat="42.813841" lon="-2.331167">
        <ele>1008</ele>
        <time>1970-01-01T01:01:16.000Z</time>
      </trkpt>
      <trkpt lat="42.813334" lon="-2.330874">
        <ele>1005.8</ele>
        <time>1970-01-01T01:01:22.000Z</time>
      </trkpt>
      <trkpt lat="42.813263" lon="-2.330831">
        <ele>1005.6</ele>
        <time>1970-01-01T01:01:23.000Z</time>
      </trkpt>
      <trkpt lat="42.812989" lon="-2.330677">
        <ele>1005.2</ele>
        <time>1970-01-01T01:01:27.000Z</time>
      </trkpt>
      <trkpt lat="42.812859" lon="-2.330604">
        <ele>1005.2</ele>
        <time>1970-01-01T01:01:29.000Z</time>
      </trkpt>
      <trkpt lat="42.812797" lon="-2.330568">
        <ele>1005.2</ele>
        <time>1970-01-01T01:01:31.000Z</time>
      </trkpt>
      <trkpt lat="42.812624" lon="-2.330466">
        <ele>1005</ele>
        <time>1970-01-01T01:01:33.000Z</time>
      </trkpt>
      <trkpt lat="42.812559" lon="-2.330423">
        <ele>1005</ele>
        <time>1970-01-01T01:01:34.000Z</time>
      </trkpt>
      <trkpt lat="42.812494" lon="-2.330383">
        <ele>1005</ele>
        <time>1970-01-01T01:01:35.000Z</time>
      </trkpt>
      <trkpt lat="42.812295" lon="-2.330267">
        <ele>1004.8</ele>
        <time>1970-01-01T01:01:38.000Z</time>
      </trkpt>
      <trkpt lat="42.812175" lon="-2.330197">
        <ele>1005.2</ele>
        <time>1970-01-01T01:01:40.000Z</time>
      </trkpt>
      <trkpt lat="42.812116" lon="-2.330167">
        <ele>1005</ele>
        <time>1970-01-01T01:01:41.000Z</time>
      </trkpt>
      <trkpt lat="42.811722" lon="-2.329935">
        <ele>1005.2</ele>
        <time>1970-01-01T01:01:47.000Z</time>
      </trkpt>
      <trkpt lat="42.811586" lon="-2.329853">
        <ele>1005</ele>
        <time>1970-01-01T01:01:49.000Z</time>
      </trkpt>
      <trkpt lat="42.811449" lon="-2.329771">
        <ele>1004.6</ele>
        <time>1970-01-01T01:01:51.000Z</time>
      </trkpt>
      <trkpt lat="42.811232" lon="-2.329652">
        <ele>1004.2</ele>
        <time>1970-01-01T01:01:54.000Z</time>
      </trkpt>
      <trkpt lat="42.811016" lon="-2.329532">
        <ele>1003.6</ele>
        <time>1970-01-01T01:01:57.000Z</time>
      </trkpt>
      <trkpt lat="42.810867" lon="-2.329449">
        <ele>1003.4</ele>
        <time>1970-01-01T01:01:59.000Z</time>
      </trkpt>
      <trkpt lat="42.810714" lon="-2.329358">
        <ele>1002.8</ele>
        <time>1970-01-01T01:02:01.000Z</time>
      </trkpt>
      <trkpt lat="42.810479" lon="-2.329216">
        <ele>1001.8</ele>
        <time>1970-01-01T01:02:04.000Z</time>
      </trkpt>
      <trkpt lat="42.809978" lon="-2.32892">
        <ele>1000.2</ele>
        <time>1970-01-01T01:02:10.000Z</time>
      </trkpt>
      <trkpt lat="42.809892" lon="-2.32887">
        <ele>999.8</ele>
        <time>1970-01-01T01:02:11.000Z</time>
      </trkpt>
      <trkpt lat="42.809806" lon="-2.32882">
        <ele>999.2</ele>
        <time>1970-01-01T01:02:12.000Z</time>
      </trkpt>
      <trkpt lat="42.809401" lon="-2.328585">
        <ele>997.4</ele>
        <time>1970-01-01T01:02:17.000Z</time>
      </trkpt>
      <trkpt lat="42.809259" lon="-2.328503">
        <ele>996.8</ele>
        <time>1970-01-01T01:02:19.000Z</time>
      </trkpt>
      <trkpt lat="42.809124" lon="-2.328426">
        <ele>996.4</ele>
        <time>1970-01-01T01:02:21.000Z</time>
      </trkpt>
      <trkpt lat="42.80899" lon="-2.328354">
        <ele>996.2</ele>
        <time>1970-01-01T01:02:23.000Z</time>
      </trkpt>
      <trkpt lat="42.808858" lon="-2.328277">
        <ele>996.2</ele>
        <time>1970-01-01T01:02:26.000Z</time>
      </trkpt>
      <trkpt lat="42.808558" lon="-2.328102">
        <ele>996.6</ele>
        <time>1970-01-01T01:02:30.000Z</time>
      </trkpt>
      <trkpt lat="42.80839" lon="-2.328005">
        <ele>997.6</ele>
        <time>1970-01-01T01:02:33.000Z</time>
      </trkpt>
      <trkpt lat="42.808224" lon="-2.327908">
        <ele>998.6</ele>
        <time>1970-01-01T01:02:36.000Z</time>
      </trkpt>
      <trkpt lat="42.808112" lon="-2.32784">
        <ele>999.2</ele>
        <time>1970-01-01T01:02:38.000Z</time>
      </trkpt>
      <trkpt lat="42.807934" lon="-2.327731">
        <ele>1000.8</ele>
        <time>1970-01-01T01:02:41.000Z</time>
      </trkpt>
      <trkpt lat="42.807872" lon="-2.327692">
        <ele>1001</ele>
        <time>1970-01-01T01:02:42.000Z</time>
      </trkpt>
      <trkpt lat="42.807616" lon="-2.327533">
        <ele>1001.2</ele>
        <time>1970-01-01T01:02:46.000Z</time>
      </trkpt>
      <trkpt lat="42.807552" lon="-2.327474">
        <ele>1001.2</ele>
        <time>1970-01-01T01:02:48.000Z</time>
      </trkpt>
      <trkpt lat="42.807493" lon="-2.327399">
        <ele>1001.2</ele>
        <time>1970-01-01T01:02:49.000Z</time>
      </trkpt>
      <trkpt lat="42.807344" lon="-2.327106">
        <ele>1001.2</ele>
        <time>1970-01-01T01:02:51.000Z</time>
      </trkpt>
      <trkpt lat="42.807174" lon="-2.326677">
        <ele>1000.8</ele>
        <time>1970-01-01T01:02:55.000Z</time>
      </trkpt>
      <trkpt lat="42.807131" lon="-2.326566">
        <ele>1001</ele>
        <time>1970-01-01T01:02:56.000Z</time>
      </trkpt>
      <trkpt lat="42.806993" lon="-2.326234">
        <ele>999.4</ele>
        <time>1970-01-01T01:02:59.000Z</time>
      </trkpt>
      <trkpt lat="42.806889" lon="-2.325997">
        <ele>998.4</ele>
        <time>1970-01-01T01:03:01.000Z</time>
      </trkpt>
      <trkpt lat="42.806736" lon="-2.325641">
        <ele>997.6</ele>
        <time>1970-01-01T01:03:04.000Z</time>
      </trkpt>
      <trkpt lat="42.806633" lon="-2.325395">
        <ele>996.2</ele>
        <time>1970-01-01T01:03:06.000Z</time>
      </trkpt>
      <trkpt lat="42.80653" lon="-2.325144">
        <ele>995.4</ele>
        <time>1970-01-01T01:03:08.000Z</time>
      </trkpt>
      <trkpt lat="42.806476" lon="-2.325015">
        <ele>993.6</ele>
        <time>1970-01-01T01:03:10.000Z</time>
      </trkpt>
      <trkpt lat="42.80639" lon="-2.324859">
        <ele>992.8</ele>
        <time>1970-01-01T01:03:11.000Z</time>
      </trkpt>
      <trkpt lat="42.806217" lon="-2.324548">
        <ele>992.2</ele>
        <time>1970-01-01T01:03:13.000Z</time>
      </trkpt>
      <trkpt lat="42.806062" lon="-2.324346">
        <ele>991.2</ele>
        <time>1970-01-01T01:03:15.000Z</time>
      </trkpt>
      <trkpt lat="42.805902" lon="-2.324157">
        <ele>990.8</ele>
        <time>1970-01-01T01:03:17.000Z</time>
      </trkpt>
      <trkpt lat="42.805663" lon="-2.323866">
        <ele>988.6</ele>
        <time>1970-01-01T01:03:20.000Z</time>
      </trkpt>
      <trkpt lat="42.8055" lon="-2.323679">
        <ele>987.6</ele>
        <time>1970-01-01T01:03:22.000Z</time>
      </trkpt>
      <trkpt lat="42.805414" lon="-2.32359">
        <ele>987.2</ele>
        <time>1970-01-01T01:03:23.000Z</time>
      </trkpt>
      <trkpt lat="42.805234" lon="-2.323437">
        <ele>986</ele>
        <time>1970-01-01T01:03:25.000Z</time>
      </trkpt>
      <trkpt lat="42.805142" lon="-2.323365">
        <ele>985.4</ele>
        <time>1970-01-01T01:03:26.000Z</time>
      </trkpt>
      <trkpt lat="42.804766" lon="-2.32314">
        <ele>983.8</ele>
        <time>1970-01-01T01:03:30.000Z</time>
      </trkpt>
      <trkpt lat="42.804476" lon="-2.32301">
        <ele>981.8</ele>
        <time>1970-01-01T01:03:33.000Z</time>
      </trkpt>
      <trkpt lat="42.804195" lon="-2.322897">
        <ele>980.4</ele>
        <time>1970-01-01T01:03:36.000Z</time>
      </trkpt>
      <trkpt lat="42.80377" lon="-2.322733">
        <ele>979.4</ele>
        <time>1970-01-01T01:03:41.000Z</time>
      </trkpt>
      <trkpt lat="42.803694" lon="-2.322704">
        <ele>979.2</ele>
        <time>1970-01-01T01:03:42.000Z</time>
      </trkpt>
      <trkpt lat="42.803618" lon="-2.322676">
        <ele>979</ele>
        <time>1970-01-01T01:03:43.000Z</time>
      </trkpt>
      <trkpt lat="42.803339" lon="-2.322562">
        <ele>979</ele>
        <time>1970-01-01T01:03:47.000Z</time>
      </trkpt>
      <trkpt lat="42.803199" lon="-2.322495">
        <ele>979</ele>
        <time>1970-01-01T01:03:49.000Z</time>
      </trkpt>
      <trkpt lat="42.802974" lon="-2.322419">
        <ele>979.8</ele>
        <time>1970-01-01T01:03:52.000Z</time>
      </trkpt>
      <trkpt lat="42.802892" lon="-2.322413">
        <ele>980</ele>
        <time>1970-01-01T01:03:53.000Z</time>
      </trkpt>
      <trkpt lat="42.802809" lon="-2.322419">
        <ele>979.8</ele>
        <time>1970-01-01T01:03:54.000Z</time>
      </trkpt>
      <trkpt lat="42.802546" lon="-2.322447">
        <ele>980</ele>
        <time>1970-01-01T01:03:57.000Z</time>
      </trkpt>
      <trkpt lat="42.802455" lon="-2.322459">
        <ele>980</ele>
        <time>1970-01-01T01:03:58.000Z</time>
      </trkpt>
      <trkpt lat="42.802359" lon="-2.322472">
        <ele>980</ele>
        <time>1970-01-01T01:03:59.000Z</time>
      </trkpt>
      <trkpt lat="42.802159" lon="-2.322498">
        <ele>980</ele>
        <time>1970-01-01T01:04:01.000Z</time>
      </trkpt>
      <trkpt lat="42.801949" lon="-2.322531">
        <ele>979.2</ele>
        <time>1970-01-01T01:04:03.000Z</time>
      </trkpt>
      <trkpt lat="42.801843" lon="-2.322559">
        <ele>979.2</ele>
        <time>1970-01-01T01:04:04.000Z</time>
      </trkpt>
      <trkpt lat="42.801737" lon="-2.322605">
        <ele>978.6</ele>
        <time>1970-01-01T01:04:05.000Z</time>
      </trkpt>
      <trkpt lat="42.801636" lon="-2.322668">
        <ele>978.4</ele>
        <time>1970-01-01T01:04:06.000Z</time>
      </trkpt>
      <trkpt lat="42.801536" lon="-2.322741">
        <ele>978</ele>
        <time>1970-01-01T01:04:07.000Z</time>
      </trkpt>
      <trkpt lat="42.801355" lon="-2.322899">
        <ele>976.4</ele>
        <time>1970-01-01T01:04:09.000Z</time>
      </trkpt>
      <trkpt lat="42.801175" lon="-2.323059">
        <ele>974.8</ele>
        <time>1970-01-01T01:04:11.000Z</time>
      </trkpt>
      <trkpt lat="42.801085" lon="-2.323145">
        <ele>974.4</ele>
        <time>1970-01-01T01:04:12.000Z</time>
      </trkpt>
      <trkpt lat="42.800996" lon="-2.323227">
        <ele>973.8</ele>
        <time>1970-01-01T01:04:13.000Z</time>
      </trkpt>
      <trkpt lat="42.800913" lon="-2.323302">
        <ele>973.2</ele>
        <time>1970-01-01T01:04:14.000Z</time>
      </trkpt>
      <trkpt lat="42.80076" lon="-2.323435">
        <ele>971.6</ele>
        <time>1970-01-01T01:04:16.000Z</time>
      </trkpt>
      <trkpt lat="42.800528" lon="-2.323629">
        <ele>970.4</ele>
        <time>1970-01-01T01:04:19.000Z</time>
      </trkpt>
      <trkpt lat="42.800445" lon="-2.323692">
        <ele>970.2</ele>
        <time>1970-01-01T01:04:20.000Z</time>
      </trkpt>
      <trkpt lat="42.800357" lon="-2.323749">
        <ele>970</ele>
        <time>1970-01-01T01:04:21.000Z</time>
      </trkpt>
      <trkpt lat="42.800263" lon="-2.323798">
        <ele>970</ele>
        <time>1970-01-01T01:04:22.000Z</time>
      </trkpt>
      <trkpt lat="42.800165" lon="-2.323835">
        <ele>969.6</ele>
        <time>1970-01-01T01:04:23.000Z</time>
      </trkpt>
      <trkpt lat="42.799958" lon="-2.323874">
        <ele>969.2</ele>
        <time>1970-01-01T01:04:25.000Z</time>
      </trkpt>
      <trkpt lat="42.799746" lon="-2.323908">
        <ele>969</ele>
        <time>1970-01-01T01:04:27.000Z</time>
      </trkpt>
      <trkpt lat="42.799637" lon="-2.323939">
        <ele>969</ele>
        <time>1970-01-01T01:04:28.000Z</time>
      </trkpt>
      <trkpt lat="42.799533" lon="-2.323971">
        <ele>968.2</ele>
        <time>1970-01-01T01:04:29.000Z</time>
      </trkpt>
      <trkpt lat="42.799336" lon="-2.324023">
        <ele>967.2</ele>
        <time>1970-01-01T01:04:31.000Z</time>
      </trkpt>
      <trkpt lat="42.799146" lon="-2.324088">
        <ele>966</ele>
        <time>1970-01-01T01:04:33.000Z</time>
      </trkpt>
      <trkpt lat="42.799057" lon="-2.324139">
        <ele>965.4</ele>
        <time>1970-01-01T01:04:34.000Z</time>
      </trkpt>
      <trkpt lat="42.798733" lon="-2.324384">
        <ele>962.2</ele>
        <time>1970-01-01T01:04:38.000Z</time>
      </trkpt>
      <trkpt lat="42.798664" lon="-2.324444">
        <ele>961.8</ele>
        <time>1970-01-01T01:04:39.000Z</time>
      </trkpt>
      <trkpt lat="42.798546" lon="-2.324607">
        <ele>961.2</ele>
        <time>1970-01-01T01:04:41.000Z</time>
      </trkpt>
      <trkpt lat="42.798498" lon="-2.324714">
        <ele>961</ele>
        <time>1970-01-01T01:04:42.000Z</time>
      </trkpt>
      <trkpt lat="42.798465" lon="-2.324828">
        <ele>960.8</ele>
        <time>1970-01-01T01:04:43.000Z</time>
      </trkpt>
      <trkpt lat="42.798421" lon="-2.325063">
        <ele>960.6</ele>
        <time>1970-01-01T01:04:45.000Z</time>
      </trkpt>
      <trkpt lat="42.798347" lon="-2.325401">
        <ele>960.6</ele>
        <time>1970-01-01T01:04:48.000Z</time>
      </trkpt>
      <trkpt lat="42.798312" lon="-2.325498">
        <ele>960.6</ele>
        <time>1970-01-01T01:04:49.000Z</time>
      </trkpt>
      <trkpt lat="42.798267" lon="-2.325581">
        <ele>960.6</ele>
        <time>1970-01-01T01:04:50.000Z</time>
      </trkpt>
      <trkpt lat="42.798207" lon="-2.32565">
        <ele>960.6</ele>
        <time>1970-01-01T01:04:51.000Z</time>
      </trkpt>
      <trkpt lat="42.798085" lon="-2.325754">
        <ele>960.6</ele>
        <time>1970-01-01T01:04:53.000Z</time>
      </trkpt>
      <trkpt lat="42.798027" lon="-2.325785">
        <ele>960.8</ele>
        <time>1970-01-01T01:04:54.000Z</time>
      </trkpt>
      <trkpt lat="42.797967" lon="-2.325811">
        <ele>960.8</ele>
        <time>1970-01-01T01:04:55.000Z</time>
      </trkpt>
      <trkpt lat="42.79784" lon="-2.325851">
        <ele>961</ele>
        <time>1970-01-01T01:04:57.000Z</time>
      </trkpt>
      <trkpt lat="42.797709" lon="-2.325892">
        <ele>962</ele>
        <time>1970-01-01T01:04:59.000Z</time>
      </trkpt>
      <trkpt lat="42.797495" lon="-2.325957">
        <ele>963.4</ele>
        <time>1970-01-01T01:05:02.000Z</time>
      </trkpt>
      <trkpt lat="42.797424" lon="-2.325979">
        <ele>963.6</ele>
        <time>1970-01-01T01:05:03.000Z</time>
      </trkpt>
      <trkpt lat="42.79735" lon="-2.326001">
        <ele>964</ele>
        <time>1970-01-01T01:05:04.000Z</time>
      </trkpt>
      <trkpt lat="42.797055" lon="-2.326091">
        <ele>964.8</ele>
        <time>1970-01-01T01:05:08.000Z</time>
      </trkpt>
      <trkpt lat="42.79669" lon="-2.326205">
        <ele>964.6</ele>
        <time>1970-01-01T01:05:13.000Z</time>
      </trkpt>
      <trkpt lat="42.796356" lon="-2.326368">
        <ele>964.6</ele>
        <time>1970-01-01T01:05:18.000Z</time>
      </trkpt>
      <trkpt lat="42.796246" lon="-2.326472">
        <ele>964.6</ele>
        <time>1970-01-01T01:05:20.000Z</time>
      </trkpt>
      <trkpt lat="42.796162" lon="-2.326608">
        <ele>964.4</ele>
        <time>1970-01-01T01:05:22.000Z</time>
      </trkpt>
      <trkpt lat="42.796073" lon="-2.326833">
        <ele>964.8</ele>
        <time>1970-01-01T01:05:25.000Z</time>
      </trkpt>
      <trkpt lat="42.796042" lon="-2.32698">
        <ele>964.8</ele>
        <time>1970-01-01T01:05:27.000Z</time>
      </trkpt>
      <trkpt lat="42.796034" lon="-2.327053">
        <ele>965.2</ele>
        <time>1970-01-01T01:05:28.000Z</time>
      </trkpt>
      <trkpt lat="42.796023" lon="-2.327269">
        <ele>965.6</ele>
        <time>1970-01-01T01:05:31.000Z</time>
      </trkpt>
      <trkpt lat="42.796041" lon="-2.327464">
        <ele>966.4</ele>
        <time>1970-01-01T01:05:34.000Z</time>
      </trkpt>
      <trkpt lat="42.7961" lon="-2.327695">
        <ele>967.6</ele>
        <time>1970-01-01T01:05:38.000Z</time>
      </trkpt>
      <trkpt lat="42.796147" lon="-2.32787">
        <ele>969.6</ele>
        <time>1970-01-01T01:05:42.000Z</time>
      </trkpt>
      <trkpt lat="42.796298" lon="-2.328352">
        <ele>972.6</ele>
        <time>1970-01-01T01:05:49.000Z</time>
      </trkpt>
      <trkpt lat="42.796319" lon="-2.328418">
        <ele>972.8</ele>
        <time>1970-01-01T01:05:50.000Z</time>
      </trkpt>
      <trkpt lat="42.79641" lon="-2.328761">
        <ele>974.2</ele>
        <time>1970-01-01T01:05:55.000Z</time>
      </trkpt>
      <trkpt lat="42.79644" lon="-2.32889">
        <ele>974.4</ele>
        <time>1970-01-01T01:05:57.000Z</time>
      </trkpt>
      <trkpt lat="42.796453" lon="-2.328952">
        <ele>974.6</ele>
        <time>1970-01-01T01:05:58.000Z</time>
      </trkpt>
      <trkpt lat="42.796488" lon="-2.329208">
        <ele>975</ele>
        <time>1970-01-01T01:06:02.000Z</time>
      </trkpt>
      <trkpt lat="42.79648" lon="-2.329337">
        <ele>975</ele>
        <time>1970-01-01T01:06:04.000Z</time>
      </trkpt>
      <trkpt lat="42.796466" lon="-2.329401">
        <ele>975.4</ele>
        <time>1970-01-01T01:06:05.000Z</time>
      </trkpt>
      <trkpt lat="42.796446" lon="-2.329461">
        <ele>976</ele>
        <time>1970-01-01T01:06:06.000Z</time>
      </trkpt>
      <trkpt lat="42.796376" lon="-2.329559">
        <ele>976.6</ele>
        <time>1970-01-01T01:06:08.000Z</time>
      </trkpt>
      <trkpt lat="42.796282" lon="-2.329626">
        <ele>977.4</ele>
        <time>1970-01-01T01:06:10.000Z</time>
      </trkpt>
      <trkpt lat="42.796235" lon="-2.329644">
        <ele>977.8</ele>
        <time>1970-01-01T01:06:11.000Z</time>
      </trkpt>
      <trkpt lat="42.796188" lon="-2.329657">
        <ele>978.2</ele>
        <time>1970-01-01T01:06:12.000Z</time>
      </trkpt>
      <trkpt lat="42.795816" lon="-2.329749">
        <ele>980</ele>
        <time>1970-01-01T01:06:19.000Z</time>
      </trkpt>
      <trkpt lat="42.795698" lon="-2.329784">
        <ele>980.2</ele>
        <time>1970-01-01T01:06:21.000Z</time>
      </trkpt>
      <trkpt lat="42.79532" lon="-2.329901">
        <ele>980.2</ele>
        <time>1970-01-01T01:06:27.000Z</time>
      </trkpt>
      <trkpt lat="42.795188" lon="-2.329933">
        <ele>980.4</ele>
        <time>1970-01-01T01:06:29.000Z</time>
      </trkpt>
      <trkpt lat="42.794989" lon="-2.329989">
        <ele>980.2</ele>
        <time>1970-01-01T01:06:32.000Z</time>
      </trkpt>
      <trkpt lat="42.794852" lon="-2.330028">
        <ele>980.2</ele>
        <time>1970-01-01T01:06:34.000Z</time>
      </trkpt>
      <trkpt lat="42.794636" lon="-2.33009">
        <ele>980</ele>
        <time>1970-01-01T01:06:37.000Z</time>
      </trkpt>
      <trkpt lat="42.794562" lon="-2.330112">
        <ele>979.4</ele>
        <time>1970-01-01T01:06:39.000Z</time>
      </trkpt>
      <trkpt lat="42.794272" lon="-2.330202">
        <ele>979</ele>
        <time>1970-01-01T01:06:42.000Z</time>
      </trkpt>
      <trkpt lat="42.793981" lon="-2.330286">
        <ele>978.6</ele>
        <time>1970-01-01T01:06:46.000Z</time>
      </trkpt>
      <trkpt lat="42.793834" lon="-2.330332">
        <ele>978.2</ele>
        <time>1970-01-01T01:06:48.000Z</time>
      </trkpt>
      <trkpt lat="42.79361" lon="-2.330421">
        <ele>977.8</ele>
        <time>1970-01-01T01:06:51.000Z</time>
      </trkpt>
      <trkpt lat="42.793538" lon="-2.330466">
        <ele>977.8</ele>
        <time>1970-01-01T01:06:52.000Z</time>
      </trkpt>
      <trkpt lat="42.793408" lon="-2.330587">
        <ele>977.6</ele>
        <time>1970-01-01T01:06:54.000Z</time>
      </trkpt>
      <trkpt lat="42.793349" lon="-2.330658">
        <ele>977.4</ele>
        <time>1970-01-01T01:06:56.000Z</time>
      </trkpt>
      <trkpt lat="42.793298" lon="-2.330734">
        <ele>977.2</ele>
        <time>1970-01-01T01:06:57.000Z</time>
      </trkpt>
      <trkpt lat="42.79322" lon="-2.330872">
        <ele>977.2</ele>
        <time>1970-01-01T01:06:58.000Z</time>
      </trkpt>
      <trkpt lat="42.793193" lon="-2.330935">
        <ele>977</ele>
        <time>1970-01-01T01:06:59.000Z</time>
      </trkpt>
      <trkpt lat="42.79314" lon="-2.33106">
        <ele>977.2</ele>
        <time>1970-01-01T01:07:00.000Z</time>
      </trkpt>
      <trkpt lat="42.793116" lon="-2.331148">
        <ele>977</ele>
        <time>1970-01-01T01:07:01.000Z</time>
      </trkpt>
      <trkpt lat="42.793062" lon="-2.331512">
        <ele>977</ele>
        <time>1970-01-01T01:07:05.000Z</time>
      </trkpt>
      <trkpt lat="42.79305" lon="-2.33213">
        <ele>978</ele>
        <time>1970-01-01T01:07:12.000Z</time>
      </trkpt>
      <trkpt lat="42.79305" lon="-2.33213">
        <ele>978.2</ele>
        <time>1970-01-01T01:07:13.000Z</time>
      </trkpt>
      <trkpt lat="42.793045" lon="-2.332451">
        <ele>978.8</ele>
        <time>1970-01-01T01:07:16.000Z</time>
      </trkpt>
      <trkpt lat="42.793035" lon="-2.332704">
        <ele>979.2</ele>
        <time>1970-01-01T01:07:19.000Z</time>
      </trkpt>
      <trkpt lat="42.79303" lon="-2.33279">
        <ele>979.2</ele>
        <time>1970-01-01T01:07:20.000Z</time>
      </trkpt>
      <trkpt lat="42.793026" lon="-2.333163">
        <ele>981</ele>
        <time>1970-01-01T01:07:24.000Z</time>
      </trkpt>
      <trkpt lat="42.793046" lon="-2.333362">
        <ele>982.2</ele>
        <time>1970-01-01T01:07:26.000Z</time>
      </trkpt>
      <trkpt lat="42.793087" lon="-2.333676">
        <ele>983</ele>
        <time>1970-01-01T01:07:29.000Z</time>
      </trkpt>
      <trkpt lat="42.793134" lon="-2.334024">
        <ele>983</ele>
        <time>1970-01-01T01:07:32.000Z</time>
      </trkpt>
      <trkpt lat="42.79315" lon="-2.334147">
        <ele>983</ele>
        <time>1970-01-01T01:07:33.000Z</time>
      </trkpt>
      <trkpt lat="42.793193" lon="-2.334534">
        <ele>983.2</ele>
        <time>1970-01-01T01:07:36.000Z</time>
      </trkpt>
      <trkpt lat="42.793225" lon="-2.334804">
        <ele>983</ele>
        <time>1970-01-01T01:07:38.000Z</time>
      </trkpt>
      <trkpt lat="42.793237" lon="-2.334943">
        <ele>982.8</ele>
        <time>1970-01-01T01:07:39.000Z</time>
      </trkpt>
      <trkpt lat="42.793248" lon="-2.335229">
        <ele>982</ele>
        <time>1970-01-01T01:07:41.000Z</time>
      </trkpt>
      <trkpt lat="42.793231" lon="-2.335526">
        <ele>980.8</ele>
        <time>1970-01-01T01:07:43.000Z</time>
      </trkpt>
      <trkpt lat="42.793214" lon="-2.335678">
        <ele>980.4</ele>
        <time>1970-01-01T01:07:44.000Z</time>
      </trkpt>
      <trkpt lat="42.79317" lon="-2.335995">
        <ele>979.6</ele>
        <time>1970-01-01T01:07:46.000Z</time>
      </trkpt>
      <trkpt lat="42.793147" lon="-2.33616">
        <ele>978.8</ele>
        <time>1970-01-01T01:07:47.000Z</time>
      </trkpt>
      <trkpt lat="42.79312" lon="-2.336329">
        <ele>977.8</ele>
        <time>1970-01-01T01:07:48.000Z</time>
      </trkpt>
      <trkpt lat="42.79309" lon="-2.3365">
        <ele>977</ele>
        <time>1970-01-01T01:07:49.000Z</time>
      </trkpt>
      <trkpt lat="42.793037" lon="-2.336844">
        <ele>975.4</ele>
        <time>1970-01-01T01:07:51.000Z</time>
      </trkpt>
      <trkpt lat="42.793014" lon="-2.337016">
        <ele>975</ele>
        <time>1970-01-01T01:07:52.000Z</time>
      </trkpt>
      <trkpt lat="42.792964" lon="-2.337358">
        <ele>974.2</ele>
        <time>1970-01-01T01:07:54.000Z</time>
      </trkpt>
      <trkpt lat="42.792866" lon="-2.338051">
        <ele>970.4</ele>
        <time>1970-01-01T01:07:58.000Z</time>
      </trkpt>
      <trkpt lat="42.792841" lon="-2.338228">
        <ele>969.6</ele>
        <time>1970-01-01T01:07:59.000Z</time>
      </trkpt>
      <trkpt lat="42.792765" lon="-2.338766">
        <ele>967</ele>
        <time>1970-01-01T01:08:02.000Z</time>
      </trkpt>
      <trkpt lat="42.79271" lon="-2.339131">
        <ele>966</ele>
        <time>1970-01-01T01:08:04.000Z</time>
      </trkpt>
      <trkpt lat="42.79263" lon="-2.339673">
        <ele>963.4</ele>
        <time>1970-01-01T01:08:08.000Z</time>
      </trkpt>
      <trkpt lat="42.792544" lon="-2.340169">
        <ele>962.2</ele>
        <time>1970-01-01T01:08:10.000Z</time>
      </trkpt>
      <trkpt lat="42.792501" lon="-2.340316">
        <ele>961.2</ele>
        <time>1970-01-01T01:08:11.000Z</time>
      </trkpt>
      <trkpt lat="42.792389" lon="-2.340575">
        <ele>960.4</ele>
        <time>1970-01-01T01:08:13.000Z</time>
      </trkpt>
      <trkpt lat="42.792039" lon="-2.341101">
        <ele>959.4</ele>
        <time>1970-01-01T01:08:18.000Z</time>
      </trkpt>
      <trkpt lat="42.791963" lon="-2.341205">
        <ele>959.6</ele>
        <time>1970-01-01T01:08:19.000Z</time>
      </trkpt>
      <trkpt lat="42.791767" lon="-2.341535">
        <ele>959</ele>
        <time>1970-01-01T01:08:22.000Z</time>
      </trkpt>
      <trkpt lat="42.791717" lon="-2.341658">
        <ele>958.6</ele>
        <time>1970-01-01T01:08:23.000Z</time>
      </trkpt>
      <trkpt lat="42.791535" lon="-2.342309">
        <ele>958.6</ele>
        <time>1970-01-01T01:08:28.000Z</time>
      </trkpt>
      <trkpt lat="42.791442" lon="-2.342696">
        <ele>958.4</ele>
        <time>1970-01-01T01:08:31.000Z</time>
      </trkpt>
      <trkpt lat="42.791408" lon="-2.342821">
        <ele>958</ele>
        <time>1970-01-01T01:08:32.000Z</time>
      </trkpt>
      <trkpt lat="42.791377" lon="-2.342946">
        <ele>957.8</ele>
        <time>1970-01-01T01:08:33.000Z</time>
      </trkpt>
      <trkpt lat="42.79128" lon="-2.343323">
        <ele>957.8</ele>
        <time>1970-01-01T01:08:36.000Z</time>
      </trkpt>
      <trkpt lat="42.791251" lon="-2.343451">
        <ele>957.6</ele>
        <time>1970-01-01T01:08:37.000Z</time>
      </trkpt>
      <trkpt lat="42.791154" lon="-2.343829">
        <ele>957.6</ele>
        <time>1970-01-01T01:08:40.000Z</time>
      </trkpt>
      <trkpt lat="42.791154" lon="-2.343829">
        <ele>957.8</ele>
        <time>1970-01-01T01:08:41.000Z</time>
      </trkpt>
      <trkpt lat="42.790976" lon="-2.344574">
        <ele>957</ele>
        <time>1970-01-01T01:08:46.000Z</time>
      </trkpt>
      <trkpt lat="42.790945" lon="-2.344697">
        <ele>957.2</ele>
        <time>1970-01-01T01:08:47.000Z</time>
      </trkpt>
      <trkpt lat="42.790794" lon="-2.345288">
        <ele>956.8</ele>
        <time>1970-01-01T01:08:52.000Z</time>
      </trkpt>
      <trkpt lat="42.790771" lon="-2.345395">
        <ele>956.8</ele>
        <time>1970-01-01T01:08:53.000Z</time>
      </trkpt>
      <trkpt lat="42.790624" lon="-2.346028">
        <ele>957.2</ele>
        <time>1970-01-01T01:08:59.000Z</time>
      </trkpt>
      <trkpt lat="42.790571" lon="-2.346251">
        <ele>957.4</ele>
        <time>1970-01-01T01:09:01.000Z</time>
      </trkpt>
      <trkpt lat="42.790431" lon="-2.346835">
        <ele>957.8</ele>
        <time>1970-01-01T01:09:06.000Z</time>
      </trkpt>
      <trkpt lat="42.790369" lon="-2.34708">
        <ele>957.8</ele>
        <time>1970-01-01T01:09:08.000Z</time>
      </trkpt>
      <trkpt lat="42.790183" lon="-2.347819">
        <ele>957.6</ele>
        <time>1970-01-01T01:09:14.000Z</time>
      </trkpt>
      <trkpt lat="42.790101" lon="-2.34817">
        <ele>957</ele>
        <time>1970-01-01T01:09:17.000Z</time>
      </trkpt>
      <trkpt lat="42.790076" lon="-2.348282">
        <ele>956.6</ele>
        <time>1970-01-01T01:09:18.000Z</time>
      </trkpt>
      <trkpt lat="42.790023" lon="-2.348495">
        <ele>956.2</ele>
        <time>1970-01-01T01:09:20.000Z</time>
      </trkpt>
      <trkpt lat="42.789914" lon="-2.348901">
        <ele>956</ele>
        <time>1970-01-01T01:09:24.000Z</time>
      </trkpt>
      <trkpt lat="42.789843" lon="-2.349195">
        <ele>956</ele>
        <time>1970-01-01T01:09:27.000Z</time>
      </trkpt>
      <trkpt lat="42.789774" lon="-2.349485">
        <ele>957</ele>
        <time>1970-01-01T01:09:30.000Z</time>
      </trkpt>
      <trkpt lat="42.789691" lon="-2.349805">
        <ele>957.4</ele>
        <time>1970-01-01T01:09:33.000Z</time>
      </trkpt>
      <trkpt lat="42.789609" lon="-2.350137">
        <ele>957.6</ele>
        <time>1970-01-01T01:09:36.000Z</time>
      </trkpt>
      <trkpt lat="42.789538" lon="-2.35059">
        <ele>957.8</ele>
        <time>1970-01-01T01:09:40.000Z</time>
      </trkpt>
      <trkpt lat="42.789538" lon="-2.350704">
        <ele>957.6</ele>
        <time>1970-01-01T01:09:41.000Z</time>
      </trkpt>
      <trkpt lat="42.789571" lon="-2.351041">
        <ele>957.2</ele>
        <time>1970-01-01T01:09:44.000Z</time>
      </trkpt>
      <trkpt lat="42.789649" lon="-2.351592">
        <ele>957.2</ele>
        <time>1970-01-01T01:09:49.000Z</time>
      </trkpt>
      <trkpt lat="42.789684" lon="-2.351805">
        <ele>957</ele>
        <time>1970-01-01T01:09:51.000Z</time>
      </trkpt>
      <trkpt lat="42.789699" lon="-2.351915">
        <ele>957.2</ele>
        <time>1970-01-01T01:09:52.000Z</time>
      </trkpt>
      <trkpt lat="42.789713" lon="-2.352027">
        <ele>957.2</ele>
        <time>1970-01-01T01:09:53.000Z</time>
      </trkpt>
      <trkpt lat="42.789743" lon="-2.352258">
        <ele>957.2</ele>
        <time>1970-01-01T01:09:55.000Z</time>
      </trkpt>
      <trkpt lat="42.789756" lon="-2.352378">
        <ele>957.4</ele>
        <time>1970-01-01T01:09:56.000Z</time>
      </trkpt>
      <trkpt lat="42.789759" lon="-2.352499">
        <ele>957</ele>
        <time>1970-01-01T01:09:57.000Z</time>
      </trkpt>
      <trkpt lat="42.789732" lon="-2.352743">
        <ele>957.2</ele>
        <time>1970-01-01T01:09:59.000Z</time>
      </trkpt>
      <trkpt lat="42.789703" lon="-2.352862">
        <ele>957</ele>
        <time>1970-01-01T01:10:00.000Z</time>
      </trkpt>
      <trkpt lat="42.789663" lon="-2.352975">
        <ele>957</ele>
        <time>1970-01-01T01:10:01.000Z</time>
      </trkpt>
      <trkpt lat="42.789615" lon="-2.353083">
        <ele>957</ele>
        <time>1970-01-01T01:10:02.000Z</time>
      </trkpt>
      <trkpt lat="42.789509" lon="-2.353292">
        <ele>956.4</ele>
        <time>1970-01-01T01:10:04.000Z</time>
      </trkpt>
      <trkpt lat="42.789455" lon="-2.353395">
        <ele>955.8</ele>
        <time>1970-01-01T01:10:05.000Z</time>
      </trkpt>
      <trkpt lat="42.78909" lon="-2.35409">
        <ele>954.4</ele>
        <time>1970-01-01T01:10:12.000Z</time>
      </trkpt>
      <trkpt lat="42.789039" lon="-2.354188">
        <ele>954.4</ele>
        <time>1970-01-01T01:10:13.000Z</time>
      </trkpt>
      <trkpt lat="42.788682" lon="-2.354872">
        <ele>953</ele>
        <time>1970-01-01T01:10:20.000Z</time>
      </trkpt>
      <trkpt lat="42.788582" lon="-2.355068">
        <ele>953</ele>
        <time>1970-01-01T01:10:22.000Z</time>
      </trkpt>
      <trkpt lat="42.788228" lon="-2.355754">
        <ele>952.4</ele>
        <time>1970-01-01T01:10:29.000Z</time>
      </trkpt>
      <trkpt lat="42.788079" lon="-2.356052">
        <ele>951.8</ele>
        <time>1970-01-01T01:10:32.000Z</time>
      </trkpt>
      <trkpt lat="42.787937" lon="-2.356324">
        <ele>951.6</ele>
        <time>1970-01-01T01:10:35.000Z</time>
      </trkpt>
      <trkpt lat="42.787807" lon="-2.356577">
        <ele>951.8</ele>
        <time>1970-01-01T01:10:38.000Z</time>
      </trkpt>
      <trkpt lat="42.787766" lon="-2.356657">
        <ele>951.6</ele>
        <time>1970-01-01T01:10:39.000Z</time>
      </trkpt>
      <trkpt lat="42.787611" lon="-2.356951">
        <ele>951.6</ele>
        <time>1970-01-01T01:10:43.000Z</time>
      </trkpt>
      <trkpt lat="42.787575" lon="-2.357022">
        <ele>951.8</ele>
        <time>1970-01-01T01:10:44.000Z</time>
      </trkpt>
      <trkpt lat="42.787385" lon="-2.357387">
        <ele>953.2</ele>
        <time>1970-01-01T01:10:49.000Z</time>
      </trkpt>
      <trkpt lat="42.787292" lon="-2.357561">
        <ele>954.2</ele>
        <time>1970-01-01T01:10:51.000Z</time>
      </trkpt>
      <trkpt lat="42.787243" lon="-2.357652">
        <ele>954.2</ele>
        <time>1970-01-01T01:10:52.000Z</time>
      </trkpt>
      <trkpt lat="42.786963" lon="-2.358181">
        <ele>954.6</ele>
        <time>1970-01-01T01:10:58.000Z</time>
      </trkpt>
      <trkpt lat="42.786923" lon="-2.358256">
        <ele>954.6</ele>
        <time>1970-01-01T01:10:59.000Z</time>
      </trkpt>
      <trkpt lat="42.786656" lon="-2.358782">
        <ele>955.8</ele>
        <time>1970-01-01T01:11:06.000Z</time>
      </trkpt>
      <trkpt lat="42.786457" lon="-2.359166">
        <ele>956</ele>
        <time>1970-01-01T01:11:11.000Z</time>
      </trkpt>
      <trkpt lat="42.786324" lon="-2.359423">
        <ele>956</ele>
        <time>1970-01-01T01:11:14.000Z</time>
      </trkpt>
      <trkpt lat="42.786279" lon="-2.359511">
        <ele>956</ele>
        <time>1970-01-01T01:11:15.000Z</time>
      </trkpt>
      <trkpt lat="42.786099" lon="-2.359871">
        <ele>956</ele>
        <time>1970-01-01T01:11:19.000Z</time>
      </trkpt>
      <trkpt lat="42.785968" lon="-2.360125">
        <ele>955.8</ele>
        <time>1970-01-01T01:11:22.000Z</time>
      </trkpt>
      <trkpt lat="42.78585" lon="-2.360353">
        <ele>954.6</ele>
        <time>1970-01-01T01:11:25.000Z</time>
      </trkpt>
      <trkpt lat="42.785659" lon="-2.360717">
        <ele>954.4</ele>
        <time>1970-01-01T01:11:30.000Z</time>
      </trkpt>
      <trkpt lat="42.785621" lon="-2.360788">
        <ele>954.2</ele>
        <time>1970-01-01T01:11:31.000Z</time>
      </trkpt>
      <trkpt lat="42.785307" lon="-2.361389">
        <ele>955.6</ele>
        <time>1970-01-01T01:11:39.000Z</time>
      </trkpt>
      <trkpt lat="42.785265" lon="-2.361471">
        <ele>955.6</ele>
        <time>1970-01-01T01:11:40.000Z</time>
      </trkpt>
      <trkpt lat="42.785042" lon="-2.361902">
        <ele>956</ele>
        <time>1970-01-01T01:11:45.000Z</time>
      </trkpt>
      <trkpt lat="42.784943" lon="-2.362089">
        <ele>955.8</ele>
        <time>1970-01-01T01:11:47.000Z</time>
      </trkpt>
      <trkpt lat="42.784658" lon="-2.362642">
        <ele>954.6</ele>
        <time>1970-01-01T01:11:53.000Z</time>
      </trkpt>
      <trkpt lat="42.784614" lon="-2.362732">
        <ele>954.2</ele>
        <time>1970-01-01T01:11:54.000Z</time>
      </trkpt>
      <trkpt lat="42.78448" lon="-2.362997">
        <ele>953.2</ele>
        <time>1970-01-01T01:11:57.000Z</time>
      </trkpt>
      <trkpt lat="42.784436" lon="-2.363082">
        <ele>953</ele>
        <time>1970-01-01T01:11:58.000Z</time>
      </trkpt>
      <trkpt lat="42.784221" lon="-2.363505">
        <ele>952.4</ele>
        <time>1970-01-01T01:12:03.000Z</time>
      </trkpt>
      <trkpt lat="42.784177" lon="-2.363589">
        <ele>952.2</ele>
        <time>1970-01-01T01:12:04.000Z</time>
      </trkpt>
      <trkpt lat="42.783878" lon="-2.364173">
        <ele>952.2</ele>
        <time>1970-01-01T01:12:11.000Z</time>
      </trkpt>
      <trkpt lat="42.783835" lon="-2.364256">
        <ele>952</ele>
        <time>1970-01-01T01:12:12.000Z</time>
      </trkpt>
      <trkpt lat="42.783792" lon="-2.36434">
        <ele>952.2</ele>
        <time>1970-01-01T01:12:13.000Z</time>
      </trkpt>
      <trkpt lat="42.783749" lon="-2.364425">
        <ele>952.2</ele>
        <time>1970-01-01T01:12:14.000Z</time>
      </trkpt>
      <trkpt lat="42.783663" lon="-2.364593">
        <ele>952</ele>
        <time>1970-01-01T01:12:16.000Z</time>
      </trkpt>
      <trkpt lat="42.783314" lon="-2.365273">
        <ele>951.4</ele>
        <time>1970-01-01T01:12:24.000Z</time>
      </trkpt>
      <trkpt lat="42.783224" lon="-2.365447">
        <ele>951.4</ele>
        <time>1970-01-01T01:12:26.000Z</time>
      </trkpt>
      <trkpt lat="42.783008" lon="-2.365869">
        <ele>951.2</ele>
        <time>1970-01-01T01:12:31.000Z</time>
      </trkpt>
      <trkpt lat="42.782885" lon="-2.366106">
        <ele>951.2</ele>
        <time>1970-01-01T01:12:34.000Z</time>
      </trkpt>
      <trkpt lat="42.782807" lon="-2.366256">
        <ele>951.2</ele>
        <time>1970-01-01T01:12:36.000Z</time>
      </trkpt>
      <trkpt lat="42.782583" lon="-2.36669">
        <ele>952</ele>
        <time>1970-01-01T01:12:42.000Z</time>
      </trkpt>
      <trkpt lat="42.782429" lon="-2.366982">
        <ele>952.8</ele>
        <time>1970-01-01T01:12:46.000Z</time>
      </trkpt>
      <trkpt lat="42.78239" lon="-2.367056">
        <ele>952.8</ele>
        <time>1970-01-01T01:12:47.000Z</time>
      </trkpt>
      <trkpt lat="42.782242" lon="-2.367349">
        <ele>953.4</ele>
        <time>1970-01-01T01:12:51.000Z</time>
      </trkpt>
      <trkpt lat="42.782034" lon="-2.367754">
        <ele>953.8</ele>
        <time>1970-01-01T01:12:57.000Z</time>
      </trkpt>
      <trkpt lat="42.78196" lon="-2.367898">
        <ele>953.8</ele>
        <time>1970-01-01T01:12:59.000Z</time>
      </trkpt>
      <trkpt lat="42.781885" lon="-2.36805">
        <ele>953.8</ele>
        <time>1970-01-01T01:13:01.000Z</time>
      </trkpt>
      <trkpt lat="42.781812" lon="-2.36821">
        <ele>953.8</ele>
        <time>1970-01-01T01:13:03.000Z</time>
      </trkpt>
      <trkpt lat="42.781718" lon="-2.368451">
        <ele>954.2</ele>
        <time>1970-01-01T01:13:06.000Z</time>
      </trkpt>
      <trkpt lat="42.781637" lon="-2.368758">
        <ele>954.6</ele>
        <time>1970-01-01T01:13:10.000Z</time>
      </trkpt>
      <trkpt lat="42.781609" lon="-2.368905">
        <ele>955</ele>
        <time>1970-01-01T01:13:12.000Z</time>
      </trkpt>
      <trkpt lat="42.781547" lon="-2.369273">
        <ele>955.8</ele>
        <time>1970-01-01T01:13:17.000Z</time>
      </trkpt>
      <trkpt lat="42.781525" lon="-2.36941">
        <ele>956.2</ele>
        <time>1970-01-01T01:13:19.000Z</time>
      </trkpt>
      <trkpt lat="42.781471" lon="-2.369759">
        <ele>957.8</ele>
        <time>1970-01-01T01:13:24.000Z</time>
      </trkpt>
      <trkpt lat="42.781424" lon="-2.370044">
        <ele>959.2</ele>
        <time>1970-01-01T01:13:28.000Z</time>
      </trkpt>
      <trkpt lat="42.781374" lon="-2.370347">
        <ele>959.8</ele>
        <time>1970-01-01T01:13:32.000Z</time>
      </trkpt>
      <trkpt lat="42.781326" lon="-2.370648">
        <ele>960.4</ele>
        <time>1970-01-01T01:13:36.000Z</time>
      </trkpt>
      <trkpt lat="42.781268" lon="-2.370955">
        <ele>960.8</ele>
        <time>1970-01-01T01:13:40.000Z</time>
      </trkpt>
      <trkpt lat="42.781212" lon="-2.371217">
        <ele>961</ele>
        <time>1970-01-01T01:13:43.000Z</time>
      </trkpt>
      <trkpt lat="42.781147" lon="-2.371525">
        <ele>961.2</ele>
        <time>1970-01-01T01:13:46.000Z</time>
      </trkpt>
      <trkpt lat="42.781124" lon="-2.371634">
        <ele>961</ele>
        <time>1970-01-01T01:13:47.000Z</time>
      </trkpt>
      <trkpt lat="42.781076" lon="-2.371863">
        <ele>961.2</ele>
        <time>1970-01-01T01:13:49.000Z</time>
      </trkpt>
      <trkpt lat="42.78105" lon="-2.371982">
        <ele>961</ele>
        <time>1970-01-01T01:13:50.000Z</time>
      </trkpt>
      <trkpt lat="42.781025" lon="-2.372105">
        <ele>961.2</ele>
        <time>1970-01-01T01:13:51.000Z</time>
      </trkpt>
      <trkpt lat="42.78097" lon="-2.372357">
        <ele>961</ele>
        <time>1970-01-01T01:13:53.000Z</time>
      </trkpt>
      <trkpt lat="42.780941" lon="-2.372488">
        <ele>960.8</ele>
        <time>1970-01-01T01:13:54.000Z</time>
      </trkpt>
      <trkpt lat="42.780911" lon="-2.372622">
        <ele>960.4</ele>
        <time>1970-01-01T01:13:55.000Z</time>
      </trkpt>
      <trkpt lat="42.780882" lon="-2.372761">
        <ele>959.6</ele>
        <time>1970-01-01T01:13:56.000Z</time>
      </trkpt>
      <trkpt lat="42.780789" lon="-2.373196">
        <ele>957.8</ele>
        <time>1970-01-01T01:13:59.000Z</time>
      </trkpt>
      <trkpt lat="42.780727" lon="-2.373491">
        <ele>957</ele>
        <time>1970-01-01T01:14:01.000Z</time>
      </trkpt>
      <trkpt lat="42.780667" lon="-2.37378">
        <ele>956.2</ele>
        <time>1970-01-01T01:14:03.000Z</time>
      </trkpt>
      <trkpt lat="42.780546" lon="-2.374354">
        <ele>952.6</ele>
        <time>1970-01-01T01:14:07.000Z</time>
      </trkpt>
      <trkpt lat="42.780514" lon="-2.374498">
        <ele>951.8</ele>
        <time>1970-01-01T01:14:08.000Z</time>
      </trkpt>
      <trkpt lat="42.780389" lon="-2.375065">
        <ele>950</ele>
        <time>1970-01-01T01:14:12.000Z</time>
      </trkpt>
      <trkpt lat="42.780359" lon="-2.375203">
        <ele>949.6</ele>
        <time>1970-01-01T01:14:13.000Z</time>
      </trkpt>
      <trkpt lat="42.780188" lon="-2.376019">
        <ele>948.6</ele>
        <time>1970-01-01T01:14:19.000Z</time>
      </trkpt>
      <trkpt lat="42.780131" lon="-2.376282">
        <ele>948.2</ele>
        <time>1970-01-01T01:14:21.000Z</time>
      </trkpt>
      <trkpt lat="42.780038" lon="-2.376671">
        <ele>947.8</ele>
        <time>1970-01-01T01:14:24.000Z</time>
      </trkpt>
      <trkpt lat="42.779915" lon="-2.37706">
        <ele>947.8</ele>
        <time>1970-01-01T01:14:27.000Z</time>
      </trkpt>
      <trkpt lat="42.779817" lon="-2.377319">
        <ele>947.6</ele>
        <time>1970-01-01T01:14:29.000Z</time>
      </trkpt>
      <trkpt lat="42.779714" lon="-2.377573">
        <ele>947.4</ele>
        <time>1970-01-01T01:14:31.000Z</time>
      </trkpt>
      <trkpt lat="42.779568" lon="-2.377935">
        <ele>946.8</ele>
        <time>1970-01-01T01:14:34.000Z</time>
      </trkpt>
      <trkpt lat="42.779523" lon="-2.378047">
        <ele>946.6</ele>
        <time>1970-01-01T01:14:35.000Z</time>
      </trkpt>
      <trkpt lat="42.779322" lon="-2.378583">
        <ele>945.4</ele>
        <time>1970-01-01T01:14:40.000Z</time>
      </trkpt>
      <trkpt lat="42.77929" lon="-2.378697">
        <ele>945.4</ele>
        <time>1970-01-01T01:14:41.000Z</time>
      </trkpt>
      <trkpt lat="42.77923" lon="-2.379073">
        <ele>945.2</ele>
        <time>1970-01-01T01:14:44.000Z</time>
      </trkpt>
      <trkpt lat="42.779199" lon="-2.379351">
        <ele>944.8</ele>
        <time>1970-01-01T01:14:46.000Z</time>
      </trkpt>
      <trkpt lat="42.779183" lon="-2.379497">
        <ele>944.4</ele>
        <time>1970-01-01T01:14:47.000Z</time>
      </trkpt>
      <trkpt lat="42.779135" lon="-2.379953">
        <ele>944</ele>
        <time>1970-01-01T01:14:50.000Z</time>
      </trkpt>
      <trkpt lat="42.779089" lon="-2.380436">
        <ele>943.8</ele>
        <time>1970-01-01T01:14:53.000Z</time>
      </trkpt>
      <trkpt lat="42.779072" lon="-2.380603">
        <ele>943.4</ele>
        <time>1970-01-01T01:14:54.000Z</time>
      </trkpt>
      <trkpt lat="42.779055" lon="-2.380772">
        <ele>942.8</ele>
        <time>1970-01-01T01:14:55.000Z</time>
      </trkpt>
      <trkpt lat="42.779038" lon="-2.380942">
        <ele>941.4</ele>
        <time>1970-01-01T01:14:56.000Z</time>
      </trkpt>
      <trkpt lat="42.778981" lon="-2.381558">
        <ele>938.6</ele>
        <time>1970-01-01T01:15:00.000Z</time>
      </trkpt>
      <trkpt lat="42.77891" lon="-2.381939">
        <ele>937.2</ele>
        <time>1970-01-01T01:15:03.000Z</time>
      </trkpt>
      <trkpt lat="42.778857" lon="-2.382053">
        <ele>936</ele>
        <time>1970-01-01T01:15:04.000Z</time>
      </trkpt>
      <trkpt lat="42.77879" lon="-2.382156">
        <ele>934.8</ele>
        <time>1970-01-01T01:15:05.000Z</time>
      </trkpt>
      <trkpt lat="42.778705" lon="-2.382242">
        <ele>934.2</ele>
        <time>1970-01-01T01:15:06.000Z</time>
      </trkpt>
      <trkpt lat="42.77861" lon="-2.382304">
        <ele>933.6</ele>
        <time>1970-01-01T01:15:07.000Z</time>
      </trkpt>
      <trkpt lat="42.778407" lon="-2.382337">
        <ele>933.2</ele>
        <time>1970-01-01T01:15:09.000Z</time>
      </trkpt>
      <trkpt lat="42.778304" lon="-2.382323">
        <ele>933</ele>
        <time>1970-01-01T01:15:10.000Z</time>
      </trkpt>
      <trkpt lat="42.777892" lon="-2.382234">
        <ele>931.6</ele>
        <time>1970-01-01T01:15:14.000Z</time>
      </trkpt>
      <trkpt lat="42.777788" lon="-2.382211">
        <ele>930.6</ele>
        <time>1970-01-01T01:15:15.000Z</time>
      </trkpt>
      <trkpt lat="42.777468" lon="-2.382139">
        <ele>929.2</ele>
        <time>1970-01-01T01:15:18.000Z</time>
      </trkpt>
      <trkpt lat="42.777252" lon="-2.382054">
        <ele>928</ele>
        <time>1970-01-01T01:15:20.000Z</time>
      </trkpt>
      <trkpt lat="42.777143" lon="-2.382">
        <ele>927.8</ele>
        <time>1970-01-01T01:15:21.000Z</time>
      </trkpt>
      <trkpt lat="42.777031" lon="-2.381949">
        <ele>927.2</ele>
        <time>1970-01-01T01:15:22.000Z</time>
      </trkpt>
      <trkpt lat="42.776726" lon="-2.381869">
        <ele>925</ele>
        <time>1970-01-01T01:15:25.000Z</time>
      </trkpt>
      <trkpt lat="42.77657" lon="-2.38195">
        <ele>924.2</ele>
        <time>1970-01-01T01:15:27.000Z</time>
      </trkpt>
      <trkpt lat="42.776521" lon="-2.382035">
        <ele>923.2</ele>
        <time>1970-01-01T01:15:28.000Z</time>
      </trkpt>
      <trkpt lat="42.776499" lon="-2.382129">
        <ele>922.6</ele>
        <time>1970-01-01T01:15:29.000Z</time>
      </trkpt>
      <trkpt lat="42.776496" lon="-2.382227">
        <ele>922.4</ele>
        <time>1970-01-01T01:15:30.000Z</time>
      </trkpt>
      <trkpt lat="42.776506" lon="-2.38232">
        <ele>922.4</ele>
        <time>1970-01-01T01:15:31.000Z</time>
      </trkpt>
      <trkpt lat="42.77653" lon="-2.382486">
        <ele>922</ele>
        <time>1970-01-01T01:15:33.000Z</time>
      </trkpt>
      <trkpt lat="42.776537" lon="-2.382567">
        <ele>922.2</ele>
        <time>1970-01-01T01:15:34.000Z</time>
      </trkpt>
      <trkpt lat="42.776545" lon="-2.382731">
        <ele>922.2</ele>
        <time>1970-01-01T01:15:36.000Z</time>
      </trkpt>
      <trkpt lat="42.776548" lon="-2.382814">
        <ele>922</ele>
        <time>1970-01-01T01:15:37.000Z</time>
      </trkpt>
      <trkpt lat="42.776557" lon="-2.382977">
        <ele>922.6</ele>
        <time>1970-01-01T01:15:39.000Z</time>
      </trkpt>
      <trkpt lat="42.776558" lon="-2.383141">
        <ele>922.6</ele>
        <time>1970-01-01T01:15:41.000Z</time>
      </trkpt>
      <trkpt lat="42.776546" lon="-2.383305">
        <ele>923.8</ele>
        <time>1970-01-01T01:15:43.000Z</time>
      </trkpt>
      <trkpt lat="42.776535" lon="-2.383384">
        <ele>924</ele>
        <time>1970-01-01T01:15:44.000Z</time>
      </trkpt>
      <trkpt lat="42.77651" lon="-2.383538">
        <ele>924.6</ele>
        <time>1970-01-01T01:15:46.000Z</time>
      </trkpt>
      <trkpt lat="42.776494" lon="-2.383612">
        <ele>925</ele>
        <time>1970-01-01T01:15:47.000Z</time>
      </trkpt>
      <trkpt lat="42.776459" lon="-2.383761">
        <ele>925.8</ele>
        <time>1970-01-01T01:15:49.000Z</time>
      </trkpt>
      <trkpt lat="42.776412" lon="-2.384005">
        <ele>926.8</ele>
        <time>1970-01-01T01:15:52.000Z</time>
      </trkpt>
      <trkpt lat="42.7764" lon="-2.384085">
        <ele>927.2</ele>
        <time>1970-01-01T01:15:53.000Z</time>
      </trkpt>
      <trkpt lat="42.776389" lon="-2.384246">
        <ele>927.8</ele>
        <time>1970-01-01T01:15:55.000Z</time>
      </trkpt>
      <trkpt lat="42.776387" lon="-2.384323">
        <ele>928.2</ele>
        <time>1970-01-01T01:15:56.000Z</time>
      </trkpt>
      <trkpt lat="42.776391" lon="-2.384398">
        <ele>928.8</ele>
        <time>1970-01-01T01:15:57.000Z</time>
      </trkpt>
      <trkpt lat="42.776397" lon="-2.38447">
        <ele>929.2</ele>
        <time>1970-01-01T01:15:58.000Z</time>
      </trkpt>
      <trkpt lat="42.776422" lon="-2.384679">
        <ele>929.6</ele>
        <time>1970-01-01T01:16:01.000Z</time>
      </trkpt>
      <trkpt lat="42.776463" lon="-2.384895">
        <ele>930</ele>
        <time>1970-01-01T01:16:04.000Z</time>
      </trkpt>
      <trkpt lat="42.776482" lon="-2.384968">
        <ele>930.4</ele>
        <time>1970-01-01T01:16:05.000Z</time>
      </trkpt>
      <trkpt lat="42.776545" lon="-2.385257">
        <ele>931.8</ele>
        <time>1970-01-01T01:16:09.000Z</time>
      </trkpt>
      <trkpt lat="42.776581" lon="-2.385474">
        <ele>932.8</ele>
        <time>1970-01-01T01:16:12.000Z</time>
      </trkpt>
      <trkpt lat="42.776596" lon="-2.385546">
        <ele>933.2</ele>
        <time>1970-01-01T01:16:13.000Z</time>
      </trkpt>
      <trkpt lat="42.776653" lon="-2.385749">
        <ele>934.2</ele>
        <time>1970-01-01T01:16:16.000Z</time>
      </trkpt>
      <trkpt lat="42.776675" lon="-2.385811">
        <ele>934.2</ele>
        <time>1970-01-01T01:16:17.000Z</time>
      </trkpt>
      <trkpt lat="42.776697" lon="-2.385867">
        <ele>934.4</ele>
        <time>1970-01-01T01:16:18.000Z</time>
      </trkpt>
      <trkpt lat="42.776748" lon="-2.38597">
        <ele>934.8</ele>
        <time>1970-01-01T01:16:20.000Z</time>
      </trkpt>
      <trkpt lat="42.776871" lon="-2.386179">
        <ele>935.4</ele>
        <time>1970-01-01T01:16:24.000Z</time>
      </trkpt>
      <trkpt lat="42.7769" lon="-2.386237">
        <ele>935.6</ele>
        <time>1970-01-01T01:16:25.000Z</time>
      </trkpt>
      <trkpt lat="42.776998" lon="-2.386403">
        <ele>936.6</ele>
        <time>1970-01-01T01:16:28.000Z</time>
      </trkpt>
      <trkpt lat="42.777078" lon="-2.386556">
        <ele>937.4</ele>
        <time>1970-01-01T01:16:31.000Z</time>
      </trkpt>
      <trkpt lat="42.777143" lon="-2.386707">
        <ele>938</ele>
        <time>1970-01-01T01:16:34.000Z</time>
      </trkpt>
      <trkpt lat="42.777228" lon="-2.386947">
        <ele>940</ele>
        <time>1970-01-01T01:16:39.000Z</time>
      </trkpt>
      <trkpt lat="42.777246" lon="-2.386997">
        <ele>940.4</ele>
        <time>1970-01-01T01:16:40.000Z</time>
      </trkpt>
      <trkpt lat="42.777333" lon="-2.387269">
        <ele>942.2</ele>
        <time>1970-01-01T01:16:45.000Z</time>
      </trkpt>
      <trkpt lat="42.777363" lon="-2.387376">
        <ele>942.6</ele>
        <time>1970-01-01T01:16:47.000Z</time>
      </trkpt>
      <trkpt lat="42.777391" lon="-2.387542">
        <ele>943.2</ele>
        <time>1970-01-01T01:16:50.000Z</time>
      </trkpt>
      <trkpt lat="42.777417" lon="-2.387645">
        <ele>943.6</ele>
        <time>1970-01-01T01:16:52.000Z</time>
      </trkpt>
      <trkpt lat="42.777437" lon="-2.387749">
        <ele>944.2</ele>
        <time>1970-01-01T01:16:54.000Z</time>
      </trkpt>
      <trkpt lat="42.777471" lon="-2.388006">
        <ele>945.4</ele>
        <time>1970-01-01T01:16:59.000Z</time>
      </trkpt>
      <trkpt lat="42.777479" lon="-2.388054">
        <ele>945.4</ele>
        <time>1970-01-01T01:17:00.000Z</time>
      </trkpt>
      <trkpt lat="42.777495" lon="-2.388149">
        <ele>945.8</ele>
        <time>1970-01-01T01:17:02.000Z</time>
      </trkpt>
      <trkpt lat="42.777545" lon="-2.388534">
        <ele>948</ele>
        <time>1970-01-01T01:17:10.000Z</time>
      </trkpt>
      <trkpt lat="42.777544" lon="-2.388579">
        <ele>948.8</ele>
        <time>1970-01-01T01:17:11.000Z</time>
      </trkpt>
      <trkpt lat="42.777544" lon="-2.388757">
        <ele>949.6</ele>
        <time>1970-01-01T01:17:15.000Z</time>
      </trkpt>
      <trkpt lat="42.777537" lon="-2.388853">
        <ele>950</ele>
        <time>1970-01-01T01:17:17.000Z</time>
      </trkpt>
      <trkpt lat="42.777459" lon="-2.389144">
        <ele>951.2</ele>
        <time>1970-01-01T01:17:23.000Z</time>
      </trkpt>
      <trkpt lat="42.777438" lon="-2.389189">
        <ele>951.4</ele>
        <time>1970-01-01T01:17:24.000Z</time>
      </trkpt>
      <trkpt lat="42.777306" lon="-2.389385">
        <ele>952.6</ele>
        <time>1970-01-01T01:17:29.000Z</time>
      </trkpt>
      <trkpt lat="42.777248" lon="-2.38946">
        <ele>952.8</ele>
        <time>1970-01-01T01:17:31.000Z</time>
      </trkpt>
      <trkpt lat="42.777217" lon="-2.389502">
        <ele>952.8</ele>
        <time>1970-01-01T01:17:32.000Z</time>
      </trkpt>
      <trkpt lat="42.776998" lon="-2.389746">
        <ele>953.4</ele>
        <time>1970-01-01T01:17:38.000Z</time>
      </trkpt>
      <trkpt lat="42.776956" lon="-2.389776">
        <ele>953.8</ele>
        <time>1970-01-01T01:17:39.000Z</time>
      </trkpt>
      <trkpt lat="42.776789" lon="-2.389849">
        <ele>954.4</ele>
        <time>1970-01-01T01:17:43.000Z</time>
      </trkpt>
      <trkpt lat="42.776706" lon="-2.389859">
        <ele>954.8</ele>
        <time>1970-01-01T01:17:45.000Z</time>
      </trkpt>
      <trkpt lat="42.776576" lon="-2.389861">
        <ele>955.6</ele>
        <time>1970-01-01T01:17:48.000Z</time>
      </trkpt>
      <trkpt lat="42.776488" lon="-2.389861">
        <ele>956</ele>
        <time>1970-01-01T01:17:50.000Z</time>
      </trkpt>
      <trkpt lat="42.7761" lon="-2.389916">
        <ele>958.4</ele>
        <time>1970-01-01T01:17:58.000Z</time>
      </trkpt>
      <trkpt lat="42.775949" lon="-2.390022">
        <ele>958.8</ele>
        <time>1970-01-01T01:18:02.000Z</time>
      </trkpt>
      <trkpt lat="42.775886" lon="-2.390086">
        <ele>959.2</ele>
        <time>1970-01-01T01:18:04.000Z</time>
      </trkpt>
      <trkpt lat="42.775799" lon="-2.390185">
        <ele>959.4</ele>
        <time>1970-01-01T01:18:07.000Z</time>
      </trkpt>
      <trkpt lat="42.775674" lon="-2.390329">
        <ele>960.8</ele>
        <time>1970-01-01T01:18:11.000Z</time>
      </trkpt>
      <trkpt lat="42.775641" lon="-2.390368">
        <ele>961.4</ele>
        <time>1970-01-01T01:18:12.000Z</time>
      </trkpt>
      <trkpt lat="42.775338" lon="-2.390721">
        <ele>963.8</ele>
        <time>1970-01-01T01:18:20.000Z</time>
      </trkpt>
      <trkpt lat="42.775297" lon="-2.390764">
        <ele>964</ele>
        <time>1970-01-01T01:18:21.000Z</time>
      </trkpt>
      <trkpt lat="42.775141" lon="-2.390953">
        <ele>964.2</ele>
        <time>1970-01-01T01:18:25.000Z</time>
      </trkpt>
      <trkpt lat="42.775099" lon="-2.390998">
        <ele>964.4</ele>
        <time>1970-01-01T01:18:26.000Z</time>
      </trkpt>
      <trkpt lat="42.774846" lon="-2.39134">
        <ele>965.4</ele>
        <time>1970-01-01T01:18:32.000Z</time>
      </trkpt>
      <trkpt lat="42.774653" lon="-2.39163">
        <ele>965.6</ele>
        <time>1970-01-01T01:18:36.000Z</time>
      </trkpt>
      <trkpt lat="42.774598" lon="-2.391715">
        <ele>965.6</ele>
        <time>1970-01-01T01:18:37.000Z</time>
      </trkpt>
      <trkpt lat="42.77454" lon="-2.391805">
        <ele>965.4</ele>
        <time>1970-01-01T01:18:38.000Z</time>
      </trkpt>
      <trkpt lat="42.774416" lon="-2.391993">
        <ele>965.4</ele>
        <time>1970-01-01T01:18:40.000Z</time>
      </trkpt>
      <trkpt lat="42.774233" lon="-2.392273">
        <ele>965.4</ele>
        <time>1970-01-01T01:18:43.000Z</time>
      </trkpt>
      <trkpt lat="42.774116" lon="-2.392451">
        <ele>964.2</ele>
        <time>1970-01-01T01:18:45.000Z</time>
      </trkpt>
      <trkpt lat="42.773834" lon="-2.392896">
        <ele>961.6</ele>
        <time>1970-01-01T01:18:50.000Z</time>
      </trkpt>
      <trkpt lat="42.773556" lon="-2.393317">
        <ele>961</ele>
        <time>1970-01-01T01:18:55.000Z</time>
      </trkpt>
      <trkpt lat="42.773446" lon="-2.393479">
        <ele>961</ele>
        <time>1970-01-01T01:18:57.000Z</time>
      </trkpt>
      <trkpt lat="42.773048" lon="-2.394081">
        <ele>961.4</ele>
        <time>1970-01-01T01:19:04.000Z</time>
      </trkpt>
      <trkpt lat="42.772993" lon="-2.394166">
        <ele>961.4</ele>
        <time>1970-01-01T01:19:05.000Z</time>
      </trkpt>
      <trkpt lat="42.77278" lon="-2.394503">
        <ele>961.6</ele>
        <time>1970-01-01T01:19:09.000Z</time>
      </trkpt>
      <trkpt lat="42.772671" lon="-2.394675">
        <ele>961.6</ele>
        <time>1970-01-01T01:19:11.000Z</time>
      </trkpt>
      <trkpt lat="42.772498" lon="-2.394935">
        <ele>961.6</ele>
        <time>1970-01-01T01:19:14.000Z</time>
      </trkpt>
      <trkpt lat="42.772438" lon="-2.395026">
        <ele>961.6</ele>
        <time>1970-01-01T01:19:15.000Z</time>
      </trkpt>
      <trkpt lat="42.772307" lon="-2.395208">
        <ele>961.6</ele>
        <time>1970-01-01T01:19:17.000Z</time>
      </trkpt>
      <trkpt lat="42.772093" lon="-2.395468">
        <ele>960.8</ele>
        <time>1970-01-01T01:19:20.000Z</time>
      </trkpt>
      <trkpt lat="42.772015" lon="-2.395553">
        <ele>960.6</ele>
        <time>1970-01-01T01:19:21.000Z</time>
      </trkpt>
      <trkpt lat="42.77186" lon="-2.395714">
        <ele>959.6</ele>
        <time>1970-01-01T01:19:23.000Z</time>
      </trkpt>
      <trkpt lat="42.771706" lon="-2.395884">
        <ele>958.4</ele>
        <time>1970-01-01T01:19:25.000Z</time>
      </trkpt>
      <trkpt lat="42.771551" lon="-2.396058">
        <ele>957.6</ele>
        <time>1970-01-01T01:19:27.000Z</time>
      </trkpt>
      <trkpt lat="42.771397" lon="-2.396229">
        <ele>957</ele>
        <time>1970-01-01T01:19:29.000Z</time>
      </trkpt>
      <trkpt lat="42.771319" lon="-2.396315">
        <ele>956.4</ele>
        <time>1970-01-01T01:19:30.000Z</time>
      </trkpt>
      <trkpt lat="42.771241" lon="-2.396398">
        <ele>956.4</ele>
        <time>1970-01-01T01:19:31.000Z</time>
      </trkpt>
      <trkpt lat="42.771165" lon="-2.396478">
        <ele>956</ele>
        <time>1970-01-01T01:19:32.000Z</time>
      </trkpt>
      <trkpt lat="42.770926" lon="-2.39672">
        <ele>955.6</ele>
        <time>1970-01-01T01:19:35.000Z</time>
      </trkpt>
      <trkpt lat="42.770772" lon="-2.396887">
        <ele>955</ele>
        <time>1970-01-01T01:19:37.000Z</time>
      </trkpt>
      <trkpt lat="42.770696" lon="-2.396974">
        <ele>954.6</ele>
        <time>1970-01-01T01:19:38.000Z</time>
      </trkpt>
      <trkpt lat="42.770626" lon="-2.397073">
        <ele>954.2</ele>
        <time>1970-01-01T01:19:39.000Z</time>
      </trkpt>
      <trkpt lat="42.770566" lon="-2.397184">
        <ele>953.8</ele>
        <time>1970-01-01T01:19:40.000Z</time>
      </trkpt>
      <trkpt lat="42.770515" lon="-2.397306">
        <ele>953.6</ele>
        <time>1970-01-01T01:19:41.000Z</time>
      </trkpt>
      <trkpt lat="42.770436" lon="-2.397573">
        <ele>952.8</ele>
        <time>1970-01-01T01:19:43.000Z</time>
      </trkpt>
      <trkpt lat="42.770365" lon="-2.397851">
        <ele>952.4</ele>
        <time>1970-01-01T01:19:45.000Z</time>
      </trkpt>
      <trkpt lat="42.770329" lon="-2.397994">
        <ele>951.8</ele>
        <time>1970-01-01T01:19:46.000Z</time>
      </trkpt>
      <trkpt lat="42.770226" lon="-2.398586">
        <ele>950.4</ele>
        <time>1970-01-01T01:19:50.000Z</time>
      </trkpt>
      <trkpt lat="42.770217" lon="-2.3989">
        <ele>949.6</ele>
        <time>1970-01-01T01:19:52.000Z</time>
      </trkpt>
      <trkpt lat="42.770218" lon="-2.399057">
        <ele>949.4</ele>
        <time>1970-01-01T01:19:53.000Z</time>
      </trkpt>
      <trkpt lat="42.770218" lon="-2.399211">
        <ele>948.8</ele>
        <time>1970-01-01T01:19:54.000Z</time>
      </trkpt>
      <trkpt lat="42.770217" lon="-2.399752">
        <ele>947.6</ele>
        <time>1970-01-01T01:19:58.000Z</time>
      </trkpt>
      <trkpt lat="42.770185" lon="-2.399878">
        <ele>947.2</ele>
        <time>1970-01-01T01:19:59.000Z</time>
      </trkpt>
      <trkpt lat="42.770114" lon="-2.399987">
        <ele>946.4</ele>
        <time>1970-01-01T01:20:00.000Z</time>
      </trkpt>
      <trkpt lat="42.770031" lon="-2.400086">
        <ele>945.8</ele>
        <time>1970-01-01T01:20:01.000Z</time>
      </trkpt>
      <trkpt lat="42.769866" lon="-2.400284">
        <ele>945.4</ele>
        <time>1970-01-01T01:20:03.000Z</time>
      </trkpt>
      <trkpt lat="42.76964" lon="-2.400623">
        <ele>944.6</ele>
        <time>1970-01-01T01:20:06.000Z</time>
      </trkpt>
      <trkpt lat="42.769507" lon="-2.400863">
        <ele>943.8</ele>
        <time>1970-01-01T01:20:08.000Z</time>
      </trkpt>
      <trkpt lat="42.769441" lon="-2.400981">
        <ele>942.4</ele>
        <time>1970-01-01T01:20:09.000Z</time>
      </trkpt>
      <trkpt lat="42.769314" lon="-2.401209">
        <ele>940.2</ele>
        <time>1970-01-01T01:20:11.000Z</time>
      </trkpt>
      <trkpt lat="42.769253" lon="-2.401323">
        <ele>939.2</ele>
        <time>1970-01-01T01:20:12.000Z</time>
      </trkpt>
      <trkpt lat="42.769003" lon="-2.401749">
        <ele>936.8</ele>
        <time>1970-01-01T01:20:16.000Z</time>
      </trkpt>
      <trkpt lat="42.768924" lon="-2.401839">
        <ele>936.4</ele>
        <time>1970-01-01T01:20:17.000Z</time>
      </trkpt>
      <trkpt lat="42.768831" lon="-2.401917">
        <ele>936</ele>
        <time>1970-01-01T01:20:18.000Z</time>
      </trkpt>
      <trkpt lat="42.768634" lon="-2.402025">
        <ele>935.6</ele>
        <time>1970-01-01T01:20:20.000Z</time>
      </trkpt>
      <trkpt lat="42.768545" lon="-2.402074">
        <ele>935.4</ele>
        <time>1970-01-01T01:20:21.000Z</time>
      </trkpt>
      <trkpt lat="42.768465" lon="-2.402137">
        <ele>935</ele>
        <time>1970-01-01T01:20:22.000Z</time>
      </trkpt>
      <trkpt lat="42.768401" lon="-2.402227">
        <ele>935</ele>
        <time>1970-01-01T01:20:23.000Z</time>
      </trkpt>
      <trkpt lat="42.768359" lon="-2.402333">
        <ele>934.8</ele>
        <time>1970-01-01T01:20:24.000Z</time>
      </trkpt>
      <trkpt lat="42.768326" lon="-2.402568">
        <ele>934.2</ele>
        <time>1970-01-01T01:20:26.000Z</time>
      </trkpt>
      <trkpt lat="42.768303" lon="-2.402818">
        <ele>933.4</ele>
        <time>1970-01-01T01:20:28.000Z</time>
      </trkpt>
      <trkpt lat="42.768225" lon="-2.403054">
        <ele>933</ele>
        <time>1970-01-01T01:20:30.000Z</time>
      </trkpt>
      <trkpt lat="42.768093" lon="-2.403241">
        <ele>932.4</ele>
        <time>1970-01-01T01:20:32.000Z</time>
      </trkpt>
      <trkpt lat="42.768018" lon="-2.403323">
        <ele>932</ele>
        <time>1970-01-01T01:20:33.000Z</time>
      </trkpt>
      <trkpt lat="42.767798" lon="-2.403573">
        <ele>931.4</ele>
        <time>1970-01-01T01:20:36.000Z</time>
      </trkpt>
      <trkpt lat="42.767688" lon="-2.403792">
        <ele>931.2</ele>
        <time>1970-01-01T01:20:38.000Z</time>
      </trkpt>
      <trkpt lat="42.767649" lon="-2.40405">
        <ele>931</ele>
        <time>1970-01-01T01:20:40.000Z</time>
      </trkpt>
      <trkpt lat="42.767649" lon="-2.404181">
        <ele>931</ele>
        <time>1970-01-01T01:20:41.000Z</time>
      </trkpt>
      <trkpt lat="42.767677" lon="-2.404861">
        <ele>930.6</ele>
        <time>1970-01-01T01:20:46.000Z</time>
      </trkpt>
      <trkpt lat="42.767689" lon="-2.405008">
        <ele>930.4</ele>
        <time>1970-01-01T01:20:47.000Z</time>
      </trkpt>
      <trkpt lat="42.767698" lon="-2.405159">
        <ele>930.2</ele>
        <time>1970-01-01T01:20:48.000Z</time>
      </trkpt>
      <trkpt lat="42.767706" lon="-2.405317">
        <ele>930.2</ele>
        <time>1970-01-01T01:20:49.000Z</time>
      </trkpt>
      <trkpt lat="42.767717" lon="-2.40564">
        <ele>930</ele>
        <time>1970-01-01T01:20:51.000Z</time>
      </trkpt>
      <trkpt lat="42.767705" lon="-2.40597">
        <ele>929.6</ele>
        <time>1970-01-01T01:20:53.000Z</time>
      </trkpt>
      <trkpt lat="42.767687" lon="-2.406136">
        <ele>929.4</ele>
        <time>1970-01-01T01:20:54.000Z</time>
      </trkpt>
      <trkpt lat="42.767641" lon="-2.406471">
        <ele>928.4</ele>
        <time>1970-01-01T01:20:56.000Z</time>
      </trkpt>
      <trkpt lat="42.767591" lon="-2.406811">
        <ele>927.2</ele>
        <time>1970-01-01T01:20:58.000Z</time>
      </trkpt>
      <trkpt lat="42.767477" lon="-2.407497">
        <ele>924.6</ele>
        <time>1970-01-01T01:21:02.000Z</time>
      </trkpt>
      <trkpt lat="42.767448" lon="-2.407667">
        <ele>923.6</ele>
        <time>1970-01-01T01:21:03.000Z</time>
      </trkpt>
      <trkpt lat="42.767414" lon="-2.407834">
        <ele>923</ele>
        <time>1970-01-01T01:21:04.000Z</time>
      </trkpt>
      <trkpt lat="42.767301" lon="-2.408306">
        <ele>921.6</ele>
        <time>1970-01-01T01:21:07.000Z</time>
      </trkpt>
      <trkpt lat="42.767208" lon="-2.408591">
        <ele>920</ele>
        <time>1970-01-01T01:21:09.000Z</time>
      </trkpt>
      <trkpt lat="42.767164" lon="-2.408727">
        <ele>919.6</ele>
        <time>1970-01-01T01:21:10.000Z</time>
      </trkpt>
      <trkpt lat="42.767123" lon="-2.408862">
        <ele>919.2</ele>
        <time>1970-01-01T01:21:11.000Z</time>
      </trkpt>
      <trkpt lat="42.767004" lon="-2.409243">
        <ele>918.4</ele>
        <time>1970-01-01T01:21:14.000Z</time>
      </trkpt>
      <trkpt lat="42.766964" lon="-2.409368">
        <ele>918.2</ele>
        <time>1970-01-01T01:21:15.000Z</time>
      </trkpt>
      <trkpt lat="42.766885" lon="-2.409618">
        <ele>918</ele>
        <time>1970-01-01T01:21:17.000Z</time>
      </trkpt>
      <trkpt lat="42.766839" lon="-2.409736">
        <ele>918.2</ele>
        <time>1970-01-01T01:21:18.000Z</time>
      </trkpt>
      <trkpt lat="42.766783" lon="-2.409842">
        <ele>918</ele>
        <time>1970-01-01T01:21:19.000Z</time>
      </trkpt>
      <trkpt lat="42.766713" lon="-2.409933">
        <ele>917.8</ele>
        <time>1970-01-01T01:21:20.000Z</time>
      </trkpt>
      <trkpt lat="42.76663" lon="-2.410007">
        <ele>917.8</ele>
        <time>1970-01-01T01:21:21.000Z</time>
      </trkpt>
      <trkpt lat="42.766532" lon="-2.41006">
        <ele>917.4</ele>
        <time>1970-01-01T01:21:22.000Z</time>
      </trkpt>
      <trkpt lat="42.766425" lon="-2.410091">
        <ele>917.4</ele>
        <time>1970-01-01T01:21:23.000Z</time>
      </trkpt>
      <trkpt lat="42.766311" lon="-2.410107">
        <ele>917.2</ele>
        <time>1970-01-01T01:21:24.000Z</time>
      </trkpt>
      <trkpt lat="42.766195" lon="-2.410119">
        <ele>917.2</ele>
        <time>1970-01-01T01:21:25.000Z</time>
      </trkpt>
      <trkpt lat="42.766074" lon="-2.410133">
        <ele>917.2</ele>
        <time>1970-01-01T01:21:26.000Z</time>
      </trkpt>
      <trkpt lat="42.765953" lon="-2.410146">
        <ele>917.2</ele>
        <time>1970-01-01T01:21:27.000Z</time>
      </trkpt>
      <trkpt lat="42.765832" lon="-2.410161">
        <ele>916.8</ele>
        <time>1970-01-01T01:21:28.000Z</time>
      </trkpt>
      <trkpt lat="42.765352" lon="-2.410219">
        <ele>915.4</ele>
        <time>1970-01-01T01:21:32.000Z</time>
      </trkpt>
      <trkpt lat="42.765233" lon="-2.410234">
        <ele>914.6</ele>
        <time>1970-01-01T01:21:33.000Z</time>
      </trkpt>
      <trkpt lat="42.765117" lon="-2.41025">
        <ele>913.4</ele>
        <time>1970-01-01T01:21:34.000Z</time>
      </trkpt>
      <trkpt lat="42.764897" lon="-2.410277">
        <ele>911.6</ele>
        <time>1970-01-01T01:21:36.000Z</time>
      </trkpt>
      <trkpt lat="42.764697" lon="-2.410305">
        <ele>909.4</ele>
        <time>1970-01-01T01:21:38.000Z</time>
      </trkpt>
      <trkpt lat="42.764607" lon="-2.410318">
        <ele>908.6</ele>
        <time>1970-01-01T01:21:39.000Z</time>
      </trkpt>
      <trkpt lat="42.764442" lon="-2.41034">
        <ele>908.2</ele>
        <time>1970-01-01T01:21:41.000Z</time>
      </trkpt>
      <trkpt lat="42.764367" lon="-2.410349">
        <ele>908</ele>
        <time>1970-01-01T01:21:42.000Z</time>
      </trkpt>
      <trkpt lat="42.764296" lon="-2.410357">
        <ele>908</ele>
        <time>1970-01-01T01:21:43.000Z</time>
      </trkpt>
      <trkpt lat="42.764166" lon="-2.410371">
        <ele>907.8</ele>
        <time>1970-01-01T01:21:45.000Z</time>
      </trkpt>
      <trkpt lat="42.763991" lon="-2.410387">
        <ele>908.8</ele>
        <time>1970-01-01T01:21:48.000Z</time>
      </trkpt>
      <trkpt lat="42.763938" lon="-2.410393">
        <ele>909.4</ele>
        <time>1970-01-01T01:21:49.000Z</time>
      </trkpt>
      <trkpt lat="42.763726" lon="-2.410419">
        <ele>912</ele>
        <time>1970-01-01T01:21:53.000Z</time>
      </trkpt>
      <trkpt lat="42.763516" lon="-2.410444">
        <ele>914.2</ele>
        <time>1970-01-01T01:21:57.000Z</time>
      </trkpt>
      <trkpt lat="42.763463" lon="-2.41045">
        <ele>914.6</ele>
        <time>1970-01-01T01:21:58.000Z</time>
      </trkpt>
      <trkpt lat="42.763246" lon="-2.410478">
        <ele>916.6</ele>
        <time>1970-01-01T01:22:02.000Z</time>
      </trkpt>
      <trkpt lat="42.763065" lon="-2.410521">
        <ele>917.6</ele>
        <time>1970-01-01T01:22:05.000Z</time>
      </trkpt>
      <trkpt lat="42.762773" lon="-2.410624">
        <ele>918</ele>
        <time>1970-01-01T01:22:09.000Z</time>
      </trkpt>
      <trkpt lat="42.762695" lon="-2.41066">
        <ele>918</ele>
        <time>1970-01-01T01:22:10.000Z</time>
      </trkpt>
      <trkpt lat="42.762613" lon="-2.410698">
        <ele>918</ele>
        <time>1970-01-01T01:22:11.000Z</time>
      </trkpt>
      <trkpt lat="42.762249" lon="-2.410865">
        <ele>918.2</ele>
        <time>1970-01-01T01:22:15.000Z</time>
      </trkpt>
      <trkpt lat="42.762148" lon="-2.410911">
        <ele>918</ele>
        <time>1970-01-01T01:22:16.000Z</time>
      </trkpt>
      <trkpt lat="42.762045" lon="-2.410961">
        <ele>917.8</ele>
        <time>1970-01-01T01:22:17.000Z</time>
      </trkpt>
      <trkpt lat="42.761834" lon="-2.411065">
        <ele>917</ele>
        <time>1970-01-01T01:22:19.000Z</time>
      </trkpt>
      <trkpt lat="42.761725" lon="-2.411117">
        <ele>916.8</ele>
        <time>1970-01-01T01:22:20.000Z</time>
      </trkpt>
      <trkpt lat="42.761614" lon="-2.411167">
        <ele>915.8</ele>
        <time>1970-01-01T01:22:21.000Z</time>
      </trkpt>
      <trkpt lat="42.761385" lon="-2.411268">
        <ele>915</ele>
        <time>1970-01-01T01:22:23.000Z</time>
      </trkpt>
      <trkpt lat="42.761148" lon="-2.411375">
        <ele>913.2</ele>
        <time>1970-01-01T01:22:25.000Z</time>
      </trkpt>
      <trkpt lat="42.76091" lon="-2.411481">
        <ele>911.4</ele>
        <time>1970-01-01T01:22:27.000Z</time>
      </trkpt>
      <trkpt lat="42.760553" lon="-2.411643">
        <ele>908.4</ele>
        <time>1970-01-01T01:22:30.000Z</time>
      </trkpt>
      <trkpt lat="42.760429" lon="-2.411703">
        <ele>907.6</ele>
        <time>1970-01-01T01:22:31.000Z</time>
      </trkpt>
      <trkpt lat="42.760308" lon="-2.411762">
        <ele>907</ele>
        <time>1970-01-01T01:22:32.000Z</time>
      </trkpt>
      <trkpt lat="42.760194" lon="-2.411815">
        <ele>906.4</ele>
        <time>1970-01-01T01:22:33.000Z</time>
      </trkpt>
      <trkpt lat="42.760084" lon="-2.411858">
        <ele>905.8</ele>
        <time>1970-01-01T01:22:34.000Z</time>
      </trkpt>
      <trkpt lat="42.759976" lon="-2.411889">
        <ele>905.4</ele>
        <time>1970-01-01T01:22:35.000Z</time>
      </trkpt>
      <trkpt lat="42.759868" lon="-2.411909">
        <ele>903.6</ele>
        <time>1970-01-01T01:22:36.000Z</time>
      </trkpt>
      <trkpt lat="42.759486" lon="-2.411964">
        <ele>900.4</ele>
        <time>1970-01-01T01:22:40.000Z</time>
      </trkpt>
      <trkpt lat="42.759412" lon="-2.41199">
        <ele>899.4</ele>
        <time>1970-01-01T01:22:41.000Z</time>
      </trkpt>
      <trkpt lat="42.759305" lon="-2.412112">
        <ele>898.2</ele>
        <time>1970-01-01T01:22:43.000Z</time>
      </trkpt>
      <trkpt lat="42.759288" lon="-2.412214">
        <ele>897.8</ele>
        <time>1970-01-01T01:22:44.000Z</time>
      </trkpt>
      <trkpt lat="42.759301" lon="-2.41233">
        <ele>897</ele>
        <time>1970-01-01T01:22:45.000Z</time>
      </trkpt>
      <trkpt lat="42.759341" lon="-2.412444">
        <ele>896.2</ele>
        <time>1970-01-01T01:22:46.000Z</time>
      </trkpt>
      <trkpt lat="42.759396" lon="-2.412552">
        <ele>895.8</ele>
        <time>1970-01-01T01:22:47.000Z</time>
      </trkpt>
      <trkpt lat="42.759468" lon="-2.412647">
        <ele>895.6</ele>
        <time>1970-01-01T01:22:48.000Z</time>
      </trkpt>
      <trkpt lat="42.759552" lon="-2.412731">
        <ele>895.2</ele>
        <time>1970-01-01T01:22:49.000Z</time>
      </trkpt>
      <trkpt lat="42.759744" lon="-2.412849">
        <ele>894.4</ele>
        <time>1970-01-01T01:22:51.000Z</time>
      </trkpt>
      <trkpt lat="42.760054" lon="-2.412917">
        <ele>891.8</ele>
        <time>1970-01-01T01:22:54.000Z</time>
      </trkpt>
      <trkpt lat="42.760161" lon="-2.412937">
        <ele>890</ele>
        <time>1970-01-01T01:22:55.000Z</time>
      </trkpt>
      <trkpt lat="42.760268" lon="-2.412963">
        <ele>889.4</ele>
        <time>1970-01-01T01:22:56.000Z</time>
      </trkpt>
      <trkpt lat="42.760481" lon="-2.413053">
        <ele>888</ele>
        <time>1970-01-01T01:22:58.000Z</time>
      </trkpt>
      <trkpt lat="42.760584" lon="-2.413124">
        <ele>887.6</ele>
        <time>1970-01-01T01:22:59.000Z</time>
      </trkpt>
      <trkpt lat="42.760678" lon="-2.413216">
        <ele>887.2</ele>
        <time>1970-01-01T01:23:00.000Z</time>
      </trkpt>
      <trkpt lat="42.760764" lon="-2.413322">
        <ele>887</ele>
        <time>1970-01-01T01:23:01.000Z</time>
      </trkpt>
      <trkpt lat="42.760845" lon="-2.413427">
        <ele>887</ele>
        <time>1970-01-01T01:23:02.000Z</time>
      </trkpt>
      <trkpt lat="42.760996" lon="-2.413602">
        <ele>886.4</ele>
        <time>1970-01-01T01:23:04.000Z</time>
      </trkpt>
      <trkpt lat="42.761075" lon="-2.413663">
        <ele>885.8</ele>
        <time>1970-01-01T01:23:05.000Z</time>
      </trkpt>
      <trkpt lat="42.761167" lon="-2.4137">
        <ele>885.4</ele>
        <time>1970-01-01T01:23:06.000Z</time>
      </trkpt>
      <trkpt lat="42.761262" lon="-2.413706">
        <ele>884.8</ele>
        <time>1970-01-01T01:23:07.000Z</time>
      </trkpt>
      <trkpt lat="42.761361" lon="-2.413704">
        <ele>884</ele>
        <time>1970-01-01T01:23:08.000Z</time>
      </trkpt>
      <trkpt lat="42.761463" lon="-2.413719">
        <ele>883.6</ele>
        <time>1970-01-01T01:23:09.000Z</time>
      </trkpt>
      <trkpt lat="42.761555" lon="-2.413768">
        <ele>883.2</ele>
        <time>1970-01-01T01:23:10.000Z</time>
      </trkpt>
      <trkpt lat="42.761637" lon="-2.41385">
        <ele>882.4</ele>
        <time>1970-01-01T01:23:11.000Z</time>
      </trkpt>
      <trkpt lat="42.761701" lon="-2.413959">
        <ele>881.8</ele>
        <time>1970-01-01T01:23:12.000Z</time>
      </trkpt>
      <trkpt lat="42.761755" lon="-2.414081">
        <ele>881.2</ele>
        <time>1970-01-01T01:23:13.000Z</time>
      </trkpt>
      <trkpt lat="42.761809" lon="-2.414207">
        <ele>881</ele>
        <time>1970-01-01T01:23:14.000Z</time>
      </trkpt>
      <trkpt lat="42.761874" lon="-2.414325">
        <ele>880.2</ele>
        <time>1970-01-01T01:23:15.000Z</time>
      </trkpt>
      <trkpt lat="42.762032" lon="-2.414545">
        <ele>878.8</ele>
        <time>1970-01-01T01:23:17.000Z</time>
      </trkpt>
      <trkpt lat="42.762109" lon="-2.414668">
        <ele>878.2</ele>
        <time>1970-01-01T01:23:18.000Z</time>
      </trkpt>
      <trkpt lat="42.762174" lon="-2.414806">
        <ele>877.6</ele>
        <time>1970-01-01T01:23:19.000Z</time>
      </trkpt>
      <trkpt lat="42.762225" lon="-2.414954">
        <ele>877.2</ele>
        <time>1970-01-01T01:23:20.000Z</time>
      </trkpt>
      <trkpt lat="42.762299" lon="-2.415264">
        <ele>875.8</ele>
        <time>1970-01-01T01:23:22.000Z</time>
      </trkpt>
      <trkpt lat="42.762362" lon="-2.415595">
        <ele>875.2</ele>
        <time>1970-01-01T01:23:24.000Z</time>
      </trkpt>
      <trkpt lat="42.762382" lon="-2.415772">
        <ele>875</ele>
        <time>1970-01-01T01:23:25.000Z</time>
      </trkpt>
      <trkpt lat="42.762388" lon="-2.415958">
        <ele>875</ele>
        <time>1970-01-01T01:23:26.000Z</time>
      </trkpt>
      <trkpt lat="42.762387" lon="-2.416153">
        <ele>874.8</ele>
        <time>1970-01-01T01:23:27.000Z</time>
      </trkpt>
      <trkpt lat="42.762381" lon="-2.416351">
        <ele>874</ele>
        <time>1970-01-01T01:23:28.000Z</time>
      </trkpt>
      <trkpt lat="42.762374" lon="-2.416553">
        <ele>872</ele>
        <time>1970-01-01T01:23:29.000Z</time>
      </trkpt>
      <trkpt lat="42.76235" lon="-2.417161">
        <ele>869.4</ele>
        <time>1970-01-01T01:23:32.000Z</time>
      </trkpt>
      <trkpt lat="42.762328" lon="-2.417567">
        <ele>868.4</ele>
        <time>1970-01-01T01:23:34.000Z</time>
      </trkpt>
      <trkpt lat="42.762303" lon="-2.417984">
        <ele>866.2</ele>
        <time>1970-01-01T01:23:36.000Z</time>
      </trkpt>
      <trkpt lat="42.76229" lon="-2.418199">
        <ele>864.6</ele>
        <time>1970-01-01T01:23:37.000Z</time>
      </trkpt>
      <trkpt lat="42.762268" lon="-2.418624">
        <ele>860.8</ele>
        <time>1970-01-01T01:23:39.000Z</time>
      </trkpt>
      <trkpt lat="42.76226" lon="-2.418825">
        <ele>860.2</ele>
        <time>1970-01-01T01:23:40.000Z</time>
      </trkpt>
      <trkpt lat="42.762239" lon="-2.419382">
        <ele>857.8</ele>
        <time>1970-01-01T01:23:43.000Z</time>
      </trkpt>
      <trkpt lat="42.762232" lon="-2.419551">
        <ele>856.8</ele>
        <time>1970-01-01T01:23:44.000Z</time>
      </trkpt>
      <trkpt lat="42.762242" lon="-2.419865">
        <ele>854.2</ele>
        <time>1970-01-01T01:23:46.000Z</time>
      </trkpt>
      <trkpt lat="42.762267" lon="-2.420021">
        <ele>853.4</ele>
        <time>1970-01-01T01:23:47.000Z</time>
      </trkpt>
      <trkpt lat="42.76237" lon="-2.420491">
        <ele>849.8</ele>
        <time>1970-01-01T01:23:50.000Z</time>
      </trkpt>
      <trkpt lat="42.762407" lon="-2.420632">
        <ele>848.6</ele>
        <time>1970-01-01T01:23:51.000Z</time>
      </trkpt>
      <trkpt lat="42.762479" lon="-2.420908">
        <ele>846</ele>
        <time>1970-01-01T01:23:53.000Z</time>
      </trkpt>
      <trkpt lat="42.762517" lon="-2.421043">
        <ele>845</ele>
        <time>1970-01-01T01:23:54.000Z</time>
      </trkpt>
      <trkpt lat="42.762557" lon="-2.421178">
        <ele>844.2</ele>
        <time>1970-01-01T01:23:55.000Z</time>
      </trkpt>
      <trkpt lat="42.762667" lon="-2.421454">
        <ele>843.6</ele>
        <time>1970-01-01T01:23:57.000Z</time>
      </trkpt>
      <trkpt lat="42.762741" lon="-2.421587">
        <ele>843</ele>
        <time>1970-01-01T01:23:58.000Z</time>
      </trkpt>
      <trkpt lat="42.762827" lon="-2.421713">
        <ele>842</ele>
        <time>1970-01-01T01:23:59.000Z</time>
      </trkpt>
      <trkpt lat="42.76292" lon="-2.421834">
        <ele>841</ele>
        <time>1970-01-01T01:24:00.000Z</time>
      </trkpt>
      <trkpt lat="42.763126" lon="-2.422062">
        <ele>839.6</ele>
        <time>1970-01-01T01:24:02.000Z</time>
      </trkpt>
      <trkpt lat="42.763232" lon="-2.422172">
        <ele>838.6</ele>
        <time>1970-01-01T01:24:03.000Z</time>
      </trkpt>
      <trkpt lat="42.763436" lon="-2.422395">
        <ele>836</ele>
        <time>1970-01-01T01:24:05.000Z</time>
      </trkpt>
      <trkpt lat="42.763632" lon="-2.422619">
        <ele>833</ele>
        <time>1970-01-01T01:24:07.000Z</time>
      </trkpt>
      <trkpt lat="42.763817" lon="-2.422826">
        <ele>830</ele>
        <time>1970-01-01T01:24:09.000Z</time>
      </trkpt>
      <trkpt lat="42.763902" lon="-2.422916">
        <ele>829.2</ele>
        <time>1970-01-01T01:24:10.000Z</time>
      </trkpt>
      <trkpt lat="42.763981" lon="-2.423002">
        <ele>829.2</ele>
        <time>1970-01-01T01:24:11.000Z</time>
      </trkpt>
      <trkpt lat="42.764117" lon="-2.423195">
        <ele>827.6</ele>
        <time>1970-01-01T01:24:13.000Z</time>
      </trkpt>
      <trkpt lat="42.764172" lon="-2.423313">
        <ele>827.2</ele>
        <time>1970-01-01T01:24:14.000Z</time>
      </trkpt>
      <trkpt lat="42.764208" lon="-2.423442">
        <ele>826.6</ele>
        <time>1970-01-01T01:24:15.000Z</time>
      </trkpt>
      <trkpt lat="42.764226" lon="-2.423575">
        <ele>826.2</ele>
        <time>1970-01-01T01:24:16.000Z</time>
      </trkpt>
      <trkpt lat="42.764227" lon="-2.423706">
        <ele>826</ele>
        <time>1970-01-01T01:24:17.000Z</time>
      </trkpt>
      <trkpt lat="42.764201" lon="-2.423831">
        <ele>825.2</ele>
        <time>1970-01-01T01:24:18.000Z</time>
      </trkpt>
      <trkpt lat="42.764153" lon="-2.423943">
        <ele>824.8</ele>
        <time>1970-01-01T01:24:19.000Z</time>
      </trkpt>
      <trkpt lat="42.764075" lon="-2.424036">
        <ele>824.6</ele>
        <time>1970-01-01T01:24:20.000Z</time>
      </trkpt>
      <trkpt lat="42.763974" lon="-2.424098">
        <ele>824.4</ele>
        <time>1970-01-01T01:24:21.000Z</time>
      </trkpt>
      <trkpt lat="42.763862" lon="-2.424131">
        <ele>824</ele>
        <time>1970-01-01T01:24:22.000Z</time>
      </trkpt>
      <trkpt lat="42.763743" lon="-2.42414">
        <ele>823.6</ele>
        <time>1970-01-01T01:24:23.000Z</time>
      </trkpt>
      <trkpt lat="42.763627" lon="-2.424132">
        <ele>823.4</ele>
        <time>1970-01-01T01:24:24.000Z</time>
      </trkpt>
      <trkpt lat="42.763391" lon="-2.424113">
        <ele>821.2</ele>
        <time>1970-01-01T01:24:26.000Z</time>
      </trkpt>
      <trkpt lat="42.763155" lon="-2.42409">
        <ele>818.2</ele>
        <time>1970-01-01T01:24:28.000Z</time>
      </trkpt>
      <trkpt lat="42.762929" lon="-2.424041">
        <ele>815.4</ele>
        <time>1970-01-01T01:24:30.000Z</time>
      </trkpt>
      <trkpt lat="42.762823" lon="-2.423987">
        <ele>814.6</ele>
        <time>1970-01-01T01:24:31.000Z</time>
      </trkpt>
      <trkpt lat="42.762426" lon="-2.423702">
        <ele>811.2</ele>
        <time>1970-01-01T01:24:35.000Z</time>
      </trkpt>
      <trkpt lat="42.762262" lon="-2.423613">
        <ele>809.4</ele>
        <time>1970-01-01T01:24:37.000Z</time>
      </trkpt>
      <trkpt lat="42.762179" lon="-2.423609">
        <ele>808.6</ele>
        <time>1970-01-01T01:24:38.000Z</time>
      </trkpt>
      <trkpt lat="42.762094" lon="-2.423637">
        <ele>808.2</ele>
        <time>1970-01-01T01:24:39.000Z</time>
      </trkpt>
      <trkpt lat="42.762013" lon="-2.423699">
        <ele>807.8</ele>
        <time>1970-01-01T01:24:40.000Z</time>
      </trkpt>
      <trkpt lat="42.761946" lon="-2.423795">
        <ele>807.2</ele>
        <time>1970-01-01T01:24:41.000Z</time>
      </trkpt>
      <trkpt lat="42.761891" lon="-2.423915">
        <ele>806.8</ele>
        <time>1970-01-01T01:24:42.000Z</time>
      </trkpt>
      <trkpt lat="42.76184" lon="-2.424047">
        <ele>806.4</ele>
        <time>1970-01-01T01:24:43.000Z</time>
      </trkpt>
      <trkpt lat="42.761793" lon="-2.42418">
        <ele>805.6</ele>
        <time>1970-01-01T01:24:44.000Z</time>
      </trkpt>
      <trkpt lat="42.761687" lon="-2.424425">
        <ele>805</ele>
        <time>1970-01-01T01:24:46.000Z</time>
      </trkpt>
      <trkpt lat="42.761614" lon="-2.424523">
        <ele>804.6</ele>
        <time>1970-01-01T01:24:47.000Z</time>
      </trkpt>
      <trkpt lat="42.761522" lon="-2.424596">
        <ele>804.4</ele>
        <time>1970-01-01T01:24:48.000Z</time>
      </trkpt>
      <trkpt lat="42.761415" lon="-2.424646">
        <ele>803.8</ele>
        <time>1970-01-01T01:24:49.000Z</time>
      </trkpt>
      <trkpt lat="42.761298" lon="-2.424672">
        <ele>803.4</ele>
        <time>1970-01-01T01:24:50.000Z</time>
      </trkpt>
      <trkpt lat="42.761058" lon="-2.42471">
        <ele>802</ele>
        <time>1970-01-01T01:24:52.000Z</time>
      </trkpt>
      <trkpt lat="42.760941" lon="-2.424719">
        <ele>801</ele>
        <time>1970-01-01T01:24:53.000Z</time>
      </trkpt>
      <trkpt lat="42.760716" lon="-2.424668">
        <ele>800.2</ele>
        <time>1970-01-01T01:24:55.000Z</time>
      </trkpt>
      <trkpt lat="42.760609" lon="-2.424621">
        <ele>798.6</ele>
        <time>1970-01-01T01:24:56.000Z</time>
      </trkpt>
      <trkpt lat="42.760501" lon="-2.42459">
        <ele>798.6</ele>
        <time>1970-01-01T01:24:57.000Z</time>
      </trkpt>
      <trkpt lat="42.76039" lon="-2.424585">
        <ele>797</ele>
        <time>1970-01-01T01:24:58.000Z</time>
      </trkpt>
      <trkpt lat="42.760278" lon="-2.424614">
        <ele>795.6</ele>
        <time>1970-01-01T01:24:59.000Z</time>
      </trkpt>
      <trkpt lat="42.760057" lon="-2.424736">
        <ele>794.2</ele>
        <time>1970-01-01T01:25:01.000Z</time>
      </trkpt>
      <trkpt lat="42.759816" lon="-2.424875">
        <ele>792.4</ele>
        <time>1970-01-01T01:25:03.000Z</time>
      </trkpt>
      <trkpt lat="42.759569" lon="-2.425025">
        <ele>791.2</ele>
        <time>1970-01-01T01:25:05.000Z</time>
      </trkpt>
      <trkpt lat="42.759446" lon="-2.425096">
        <ele>790</ele>
        <time>1970-01-01T01:25:06.000Z</time>
      </trkpt>
      <trkpt lat="42.759323" lon="-2.425169">
        <ele>789.6</ele>
        <time>1970-01-01T01:25:07.000Z</time>
      </trkpt>
      <trkpt lat="42.759197" lon="-2.425239">
        <ele>788.8</ele>
        <time>1970-01-01T01:25:08.000Z</time>
      </trkpt>
      <trkpt lat="42.758956" lon="-2.425342">
        <ele>787.4</ele>
        <time>1970-01-01T01:25:10.000Z</time>
      </trkpt>
      <trkpt lat="42.758747" lon="-2.425406">
        <ele>784.4</ele>
        <time>1970-01-01T01:25:12.000Z</time>
      </trkpt>
      <trkpt lat="42.758645" lon="-2.425456">
        <ele>783.6</ele>
        <time>1970-01-01T01:25:13.000Z</time>
      </trkpt>
      <trkpt lat="42.758462" lon="-2.425642">
        <ele>782</ele>
        <time>1970-01-01T01:25:15.000Z</time>
      </trkpt>
      <trkpt lat="42.758387" lon="-2.425773">
        <ele>781.2</ele>
        <time>1970-01-01T01:25:16.000Z</time>
      </trkpt>
      <trkpt lat="42.758236" lon="-2.426046">
        <ele>779.6</ele>
        <time>1970-01-01T01:25:18.000Z</time>
      </trkpt>
      <trkpt lat="42.758152" lon="-2.426174">
        <ele>779.2</ele>
        <time>1970-01-01T01:25:19.000Z</time>
      </trkpt>
      <trkpt lat="42.758062" lon="-2.426295">
        <ele>779.2</ele>
        <time>1970-01-01T01:25:20.000Z</time>
      </trkpt>
      <trkpt lat="42.757874" lon="-2.426531">
        <ele>778</ele>
        <time>1970-01-01T01:25:22.000Z</time>
      </trkpt>
      <trkpt lat="42.757775" lon="-2.426647">
        <ele>777.6</ele>
        <time>1970-01-01T01:25:23.000Z</time>
      </trkpt>
      <trkpt lat="42.757572" lon="-2.426881">
        <ele>776.2</ele>
        <time>1970-01-01T01:25:25.000Z</time>
      </trkpt>
      <trkpt lat="42.75747" lon="-2.426998">
        <ele>774.6</ele>
        <time>1970-01-01T01:25:26.000Z</time>
      </trkpt>
      <trkpt lat="42.757278" lon="-2.427216">
        <ele>773</ele>
        <time>1970-01-01T01:25:28.000Z</time>
      </trkpt>
      <trkpt lat="42.757196" lon="-2.427308">
        <ele>772</ele>
        <time>1970-01-01T01:25:29.000Z</time>
      </trkpt>
      <trkpt lat="42.757061" lon="-2.427483">
        <ele>770</ele>
        <time>1970-01-01T01:25:31.000Z</time>
      </trkpt>
      <trkpt lat="42.75702" lon="-2.42758">
        <ele>769</ele>
        <time>1970-01-01T01:25:32.000Z</time>
      </trkpt>
      <trkpt lat="42.756995" lon="-2.427689">
        <ele>768.2</ele>
        <time>1970-01-01T01:25:33.000Z</time>
      </trkpt>
      <trkpt lat="42.757013" lon="-2.427916">
        <ele>766.6</ele>
        <time>1970-01-01T01:25:35.000Z</time>
      </trkpt>
      <trkpt lat="42.757095" lon="-2.428098">
        <ele>765.4</ele>
        <time>1970-01-01T01:25:37.000Z</time>
      </trkpt>
      <trkpt lat="42.757167" lon="-2.428163">
        <ele>764.8</ele>
        <time>1970-01-01T01:25:38.000Z</time>
      </trkpt>
      <trkpt lat="42.757257" lon="-2.428201">
        <ele>764.2</ele>
        <time>1970-01-01T01:25:39.000Z</time>
      </trkpt>
      <trkpt lat="42.757362" lon="-2.42821">
        <ele>764</ele>
        <time>1970-01-01T01:25:40.000Z</time>
      </trkpt>
      <trkpt lat="42.757469" lon="-2.428198">
        <ele>763.8</ele>
        <time>1970-01-01T01:25:41.000Z</time>
      </trkpt>
      <trkpt lat="42.757582" lon="-2.428195">
        <ele>763.6</ele>
        <time>1970-01-01T01:25:42.000Z</time>
      </trkpt>
      <trkpt lat="42.757696" lon="-2.42821">
        <ele>763.6</ele>
        <time>1970-01-01T01:25:43.000Z</time>
      </trkpt>
      <trkpt lat="42.757811" lon="-2.428238">
        <ele>763.4</ele>
        <time>1970-01-01T01:25:44.000Z</time>
      </trkpt>
      <trkpt lat="42.758047" lon="-2.428291">
        <ele>761.8</ele>
        <time>1970-01-01T01:25:46.000Z</time>
      </trkpt>
      <trkpt lat="42.758164" lon="-2.428288">
        <ele>761</ele>
        <time>1970-01-01T01:25:47.000Z</time>
      </trkpt>
      <trkpt lat="42.758268" lon="-2.428258">
        <ele>759</ele>
        <time>1970-01-01T01:25:48.000Z</time>
      </trkpt>
      <trkpt lat="42.758451" lon="-2.42818">
        <ele>757</ele>
        <time>1970-01-01T01:25:50.000Z</time>
      </trkpt>
      <trkpt lat="42.758642" lon="-2.428225">
        <ele>754.6</ele>
        <time>1970-01-01T01:25:52.000Z</time>
      </trkpt>
      <trkpt lat="42.758807" lon="-2.428394">
        <ele>752.4</ele>
        <time>1970-01-01T01:25:54.000Z</time>
      </trkpt>
      <trkpt lat="42.758882" lon="-2.428496">
        <ele>751.8</ele>
        <time>1970-01-01T01:25:55.000Z</time>
      </trkpt>
      <trkpt lat="42.758968" lon="-2.428588">
        <ele>751.6</ele>
        <time>1970-01-01T01:25:56.000Z</time>
      </trkpt>
      <trkpt lat="42.759065" lon="-2.428666">
        <ele>751.2</ele>
        <time>1970-01-01T01:25:57.000Z</time>
      </trkpt>
      <trkpt lat="42.759168" lon="-2.428733">
        <ele>751</ele>
        <time>1970-01-01T01:25:58.000Z</time>
      </trkpt>
      <trkpt lat="42.759356" lon="-2.428836">
        <ele>749.4</ele>
        <time>1970-01-01T01:26:00.000Z</time>
      </trkpt>
      <trkpt lat="42.759426" lon="-2.428896">
        <ele>748.4</ele>
        <time>1970-01-01T01:26:01.000Z</time>
      </trkpt>
      <trkpt lat="42.759469" lon="-2.42898">
        <ele>748</ele>
        <time>1970-01-01T01:26:02.000Z</time>
      </trkpt>
      <trkpt lat="42.759472" lon="-2.429091">
        <ele>747.6</ele>
        <time>1970-01-01T01:26:03.000Z</time>
      </trkpt>
      <trkpt lat="42.759434" lon="-2.429208">
        <ele>747.2</ele>
        <time>1970-01-01T01:26:04.000Z</time>
      </trkpt>
      <trkpt lat="42.759371" lon="-2.429307">
        <ele>746.6</ele>
        <time>1970-01-01T01:26:05.000Z</time>
      </trkpt>
      <trkpt lat="42.75929" lon="-2.429391">
        <ele>746.6</ele>
        <time>1970-01-01T01:26:06.000Z</time>
      </trkpt>
      <trkpt lat="42.759207" lon="-2.429477">
        <ele>746</ele>
        <time>1970-01-01T01:26:07.000Z</time>
      </trkpt>
      <trkpt lat="42.759125" lon="-2.429572">
        <ele>745</ele>
        <time>1970-01-01T01:26:08.000Z</time>
      </trkpt>
      <trkpt lat="42.759043" lon="-2.429677">
        <ele>744.2</ele>
        <time>1970-01-01T01:26:09.000Z</time>
      </trkpt>
      <trkpt lat="42.758877" lon="-2.429894">
        <ele>743</ele>
        <time>1970-01-01T01:26:11.000Z</time>
      </trkpt>
      <trkpt lat="42.758715" lon="-2.430119">
        <ele>741.6</ele>
        <time>1970-01-01T01:26:13.000Z</time>
      </trkpt>
      <trkpt lat="42.758632" lon="-2.430235">
        <ele>740.4</ele>
        <time>1970-01-01T01:26:14.000Z</time>
      </trkpt>
      <trkpt lat="42.758547" lon="-2.430351">
        <ele>739.4</ele>
        <time>1970-01-01T01:26:15.000Z</time>
      </trkpt>
      <trkpt lat="42.758283" lon="-2.430692">
        <ele>737.2</ele>
        <time>1970-01-01T01:26:18.000Z</time>
      </trkpt>
      <trkpt lat="42.7581" lon="-2.430916">
        <ele>735.4</ele>
        <time>1970-01-01T01:26:20.000Z</time>
      </trkpt>
      <trkpt lat="42.757915" lon="-2.431133">
        <ele>733.6</ele>
        <time>1970-01-01T01:26:22.000Z</time>
      </trkpt>
      <trkpt lat="42.757736" lon="-2.431356">
        <ele>732</ele>
        <time>1970-01-01T01:26:24.000Z</time>
      </trkpt>
      <trkpt lat="42.757557" lon="-2.431577">
        <ele>730.8</ele>
        <time>1970-01-01T01:26:26.000Z</time>
      </trkpt>
      <trkpt lat="42.757466" lon="-2.43169">
        <ele>729.8</ele>
        <time>1970-01-01T01:26:27.000Z</time>
      </trkpt>
      <trkpt lat="42.757194" lon="-2.432042">
        <ele>728.2</ele>
        <time>1970-01-01T01:26:30.000Z</time>
      </trkpt>
      <trkpt lat="42.757012" lon="-2.432284">
        <ele>726.2</ele>
        <time>1970-01-01T01:26:32.000Z</time>
      </trkpt>
      <trkpt lat="42.75684" lon="-2.432558">
        <ele>725</ele>
        <time>1970-01-01T01:26:34.000Z</time>
      </trkpt>
      <trkpt lat="42.756669" lon="-2.432847">
        <ele>723.8</ele>
        <time>1970-01-01T01:26:36.000Z</time>
      </trkpt>
      <trkpt lat="42.75658" lon="-2.432999">
        <ele>723.2</ele>
        <time>1970-01-01T01:26:37.000Z</time>
      </trkpt>
      <trkpt lat="42.756488" lon="-2.433156">
        <ele>722.6</ele>
        <time>1970-01-01T01:26:38.000Z</time>
      </trkpt>
      <trkpt lat="42.756394" lon="-2.433315">
        <ele>721.6</ele>
        <time>1970-01-01T01:26:39.000Z</time>
      </trkpt>
      <trkpt lat="42.756297" lon="-2.433475">
        <ele>721</ele>
        <time>1970-01-01T01:26:40.000Z</time>
      </trkpt>
      <trkpt lat="42.756201" lon="-2.433639">
        <ele>720.6</ele>
        <time>1970-01-01T01:26:41.000Z</time>
      </trkpt>
      <trkpt lat="42.756106" lon="-2.433805">
        <ele>720.4</ele>
        <time>1970-01-01T01:26:42.000Z</time>
      </trkpt>
      <trkpt lat="42.756011" lon="-2.433971">
        <ele>719.2</ele>
        <time>1970-01-01T01:26:43.000Z</time>
      </trkpt>
      <trkpt lat="42.755821" lon="-2.434304">
        <ele>717.4</ele>
        <time>1970-01-01T01:26:45.000Z</time>
      </trkpt>
      <trkpt lat="42.755628" lon="-2.434641">
        <ele>713.6</ele>
        <time>1970-01-01T01:26:47.000Z</time>
      </trkpt>
      <trkpt lat="42.75553" lon="-2.434814">
        <ele>711.8</ele>
        <time>1970-01-01T01:26:48.000Z</time>
      </trkpt>
      <trkpt lat="42.755429" lon="-2.434991">
        <ele>710.2</ele>
        <time>1970-01-01T01:26:49.000Z</time>
      </trkpt>
      <trkpt lat="42.755227" lon="-2.435345">
        <ele>707.4</ele>
        <time>1970-01-01T01:26:51.000Z</time>
      </trkpt>
      <trkpt lat="42.754926" lon="-2.435873">
        <ele>705.6</ele>
        <time>1970-01-01T01:26:54.000Z</time>
      </trkpt>
      <trkpt lat="42.754733" lon="-2.436217">
        <ele>703.2</ele>
        <time>1970-01-01T01:26:56.000Z</time>
      </trkpt>
      <trkpt lat="42.754637" lon="-2.436387">
        <ele>701.4</ele>
        <time>1970-01-01T01:26:57.000Z</time>
      </trkpt>
      <trkpt lat="42.754542" lon="-2.436553">
        <ele>700</ele>
        <time>1970-01-01T01:26:58.000Z</time>
      </trkpt>
      <trkpt lat="42.754356" lon="-2.436883">
        <ele>696</ele>
        <time>1970-01-01T01:27:00.000Z</time>
      </trkpt>
      <trkpt lat="42.754264" lon="-2.437044">
        <ele>694.6</ele>
        <time>1970-01-01T01:27:01.000Z</time>
      </trkpt>
      <trkpt lat="42.754089" lon="-2.437351">
        <ele>692.2</ele>
        <time>1970-01-01T01:27:03.000Z</time>
      </trkpt>
      <trkpt lat="42.753921" lon="-2.437645">
        <ele>690.4</ele>
        <time>1970-01-01T01:27:05.000Z</time>
      </trkpt>
      <trkpt lat="42.753838" lon="-2.437789">
        <ele>689.4</ele>
        <time>1970-01-01T01:27:06.000Z</time>
      </trkpt>
      <trkpt lat="42.753677" lon="-2.438079">
        <ele>688</ele>
        <time>1970-01-01T01:27:08.000Z</time>
      </trkpt>
      <trkpt lat="42.753459" lon="-2.438466">
        <ele>685</ele>
        <time>1970-01-01T01:27:11.000Z</time>
      </trkpt>
      <trkpt lat="42.753324" lon="-2.438707">
        <ele>683.8</ele>
        <time>1970-01-01T01:27:13.000Z</time>
      </trkpt>
      <trkpt lat="42.753157" lon="-2.43911">
        <ele>681.2</ele>
        <time>1970-01-01T01:27:16.000Z</time>
      </trkpt>
      <trkpt lat="42.753118" lon="-2.439259">
        <ele>680.4</ele>
        <time>1970-01-01T01:27:17.000Z</time>
      </trkpt>
      <trkpt lat="42.753079" lon="-2.439418">
        <ele>679.6</ele>
        <time>1970-01-01T01:27:18.000Z</time>
      </trkpt>
      <trkpt lat="42.753039" lon="-2.439583">
        <ele>679.2</ele>
        <time>1970-01-01T01:27:19.000Z</time>
      </trkpt>
      <trkpt lat="42.753" lon="-2.439752">
        <ele>678.8</ele>
        <time>1970-01-01T01:27:20.000Z</time>
      </trkpt>
      <trkpt lat="42.75296" lon="-2.439925">
        <ele>678.4</ele>
        <time>1970-01-01T01:27:21.000Z</time>
      </trkpt>
      <trkpt lat="42.75292" lon="-2.440095">
        <ele>678.4</ele>
        <time>1970-01-01T01:27:22.000Z</time>
      </trkpt>
      <trkpt lat="42.752828" lon="-2.440412">
        <ele>676.8</ele>
        <time>1970-01-01T01:27:24.000Z</time>
      </trkpt>
      <trkpt lat="42.752766" lon="-2.440559">
        <ele>675.6</ele>
        <time>1970-01-01T01:27:25.000Z</time>
      </trkpt>
      <trkpt lat="42.752691" lon="-2.440702">
        <ele>674.4</ele>
        <time>1970-01-01T01:27:26.000Z</time>
      </trkpt>
      <trkpt lat="42.752526" lon="-2.44098">
        <ele>671.6</ele>
        <time>1970-01-01T01:27:28.000Z</time>
      </trkpt>
      <trkpt lat="42.752444" lon="-2.441117">
        <ele>669.8</ele>
        <time>1970-01-01T01:27:29.000Z</time>
      </trkpt>
      <trkpt lat="42.752199" lon="-2.441498">
        <ele>666</ele>
        <time>1970-01-01T01:27:32.000Z</time>
      </trkpt>
      <trkpt lat="42.752025" lon="-2.441709">
        <ele>665</ele>
        <time>1970-01-01T01:27:34.000Z</time>
      </trkpt>
      <trkpt lat="42.75193" lon="-2.441806">
        <ele>664</ele>
        <time>1970-01-01T01:27:35.000Z</time>
      </trkpt>
      <trkpt lat="42.751609" lon="-2.442058">
        <ele>662.8</ele>
        <time>1970-01-01T01:27:38.000Z</time>
      </trkpt>
      <trkpt lat="42.751497" lon="-2.442139">
        <ele>662</ele>
        <time>1970-01-01T01:27:39.000Z</time>
      </trkpt>
      <trkpt lat="42.751391" lon="-2.442217">
        <ele>661.6</ele>
        <time>1970-01-01T01:27:40.000Z</time>
      </trkpt>
      <trkpt lat="42.751291" lon="-2.44229">
        <ele>661.4</ele>
        <time>1970-01-01T01:27:41.000Z</time>
      </trkpt>
      <trkpt lat="42.751186" lon="-2.442344">
        <ele>660.8</ele>
        <time>1970-01-01T01:27:42.000Z</time>
      </trkpt>
      <trkpt lat="42.751073" lon="-2.442375">
        <ele>660.4</ele>
        <time>1970-01-01T01:27:43.000Z</time>
      </trkpt>
      <trkpt lat="42.750953" lon="-2.442383">
        <ele>660.2</ele>
        <time>1970-01-01T01:27:44.000Z</time>
      </trkpt>
      <trkpt lat="42.750831" lon="-2.44237">
        <ele>658.8</ele>
        <time>1970-01-01T01:27:45.000Z</time>
      </trkpt>
      <trkpt lat="42.750708" lon="-2.442342">
        <ele>658</ele>
        <time>1970-01-01T01:27:46.000Z</time>
      </trkpt>
      <trkpt lat="42.750337" lon="-2.442263">
        <ele>655.6</ele>
        <time>1970-01-01T01:27:49.000Z</time>
      </trkpt>
      <trkpt lat="42.750221" lon="-2.442261">
        <ele>654.8</ele>
        <time>1970-01-01T01:27:50.000Z</time>
      </trkpt>
      <trkpt lat="42.75" lon="-2.442342">
        <ele>653.6</ele>
        <time>1970-01-01T01:27:52.000Z</time>
      </trkpt>
      <trkpt lat="42.749904" lon="-2.442412">
        <ele>652.6</ele>
        <time>1970-01-01T01:27:53.000Z</time>
      </trkpt>
      <trkpt lat="42.749807" lon="-2.442496">
        <ele>652</ele>
        <time>1970-01-01T01:27:54.000Z</time>
      </trkpt>
      <trkpt lat="42.74942" lon="-2.44286">
        <ele>647.6</ele>
        <time>1970-01-01T01:27:58.000Z</time>
      </trkpt>
      <trkpt lat="42.749339" lon="-2.442952">
        <ele>646.4</ele>
        <time>1970-01-01T01:27:59.000Z</time>
      </trkpt>
      <trkpt lat="42.749241" lon="-2.443172">
        <ele>645.8</ele>
        <time>1970-01-01T01:28:01.000Z</time>
      </trkpt>
      <trkpt lat="42.749171" lon="-2.443546">
        <ele>643.6</ele>
        <time>1970-01-01T01:28:04.000Z</time>
      </trkpt>
      <trkpt lat="42.749132" lon="-2.443666">
        <ele>643.2</ele>
        <time>1970-01-01T01:28:05.000Z</time>
      </trkpt>
      <trkpt lat="42.749086" lon="-2.443783">
        <ele>643</ele>
        <time>1970-01-01T01:28:06.000Z</time>
      </trkpt>
      <trkpt lat="42.749031" lon="-2.443898">
        <ele>642.6</ele>
        <time>1970-01-01T01:28:07.000Z</time>
      </trkpt>
      <trkpt lat="42.748897" lon="-2.44411">
        <ele>642.4</ele>
        <time>1970-01-01T01:28:09.000Z</time>
      </trkpt>
      <trkpt lat="42.748748" lon="-2.4443">
        <ele>642.2</ele>
        <time>1970-01-01T01:28:11.000Z</time>
      </trkpt>
      <trkpt lat="42.748668" lon="-2.444389">
        <ele>642</ele>
        <time>1970-01-01T01:28:12.000Z</time>
      </trkpt>
      <trkpt lat="42.748505" lon="-2.444556">
        <ele>642</ele>
        <time>1970-01-01T01:28:14.000Z</time>
      </trkpt>
      <trkpt lat="42.748343" lon="-2.444711">
        <ele>641.8</ele>
        <time>1970-01-01T01:28:16.000Z</time>
      </trkpt>
      <trkpt lat="42.748083" lon="-2.444931">
        <ele>641.8</ele>
        <time>1970-01-01T01:28:19.000Z</time>
      </trkpt>
      <trkpt lat="42.747999" lon="-2.445001">
        <ele>641.4</ele>
        <time>1970-01-01T01:28:20.000Z</time>
      </trkpt>
      <trkpt lat="42.747912" lon="-2.445066">
        <ele>641.4</ele>
        <time>1970-01-01T01:28:21.000Z</time>
      </trkpt>
      <trkpt lat="42.747663" lon="-2.445257">
        <ele>641.4</ele>
        <time>1970-01-01T01:28:24.000Z</time>
      </trkpt>
      <trkpt lat="42.74743" lon="-2.44543">
        <ele>641.6</ele>
        <time>1970-01-01T01:28:27.000Z</time>
      </trkpt>
      <trkpt lat="42.747281" lon="-2.445546">
        <ele>641.8</ele>
        <time>1970-01-01T01:28:29.000Z</time>
      </trkpt>
      <trkpt lat="42.747045" lon="-2.445674">
        <ele>642.2</ele>
        <time>1970-01-01T01:28:32.000Z</time>
      </trkpt>
      <trkpt lat="42.746966" lon="-2.445703">
        <ele>642.4</ele>
        <time>1970-01-01T01:28:33.000Z</time>
      </trkpt>
      <trkpt lat="42.746812" lon="-2.445751">
        <ele>642.4</ele>
        <time>1970-01-01T01:28:35.000Z</time>
      </trkpt>
      <trkpt lat="42.746736" lon="-2.44577">
        <ele>642.4</ele>
        <time>1970-01-01T01:28:36.000Z</time>
      </trkpt>
      <trkpt lat="42.74666" lon="-2.44579">
        <ele>642.6</ele>
        <time>1970-01-01T01:28:37.000Z</time>
      </trkpt>
      <trkpt lat="42.746585" lon="-2.445811">
        <ele>642.8</ele>
        <time>1970-01-01T01:28:38.000Z</time>
      </trkpt>
      <trkpt lat="42.746508" lon="-2.445831">
        <ele>643</ele>
        <time>1970-01-01T01:28:39.000Z</time>
      </trkpt>
      <trkpt lat="42.746353" lon="-2.445865">
        <ele>643.4</ele>
        <time>1970-01-01T01:28:41.000Z</time>
      </trkpt>
      <trkpt lat="42.746276" lon="-2.44588">
        <ele>643.4</ele>
        <time>1970-01-01T01:28:42.000Z</time>
      </trkpt>
      <trkpt lat="42.746121" lon="-2.445918">
        <ele>643.4</ele>
        <time>1970-01-01T01:28:44.000Z</time>
      </trkpt>
      <trkpt lat="42.746042" lon="-2.445939">
        <ele>643.6</ele>
        <time>1970-01-01T01:28:45.000Z</time>
      </trkpt>
      <trkpt lat="42.74588" lon="-2.445981">
        <ele>643.6</ele>
        <time>1970-01-01T01:28:47.000Z</time>
      </trkpt>
      <trkpt lat="42.745796" lon="-2.446004">
        <ele>643.6</ele>
        <time>1970-01-01T01:28:48.000Z</time>
      </trkpt>
      <trkpt lat="42.745442" lon="-2.446092">
        <ele>643.8</ele>
        <time>1970-01-01T01:28:52.000Z</time>
      </trkpt>
      <trkpt lat="42.74507" lon="-2.446187">
        <ele>642.6</ele>
        <time>1970-01-01T01:28:56.000Z</time>
      </trkpt>
      <trkpt lat="42.744976" lon="-2.446213">
        <ele>642.4</ele>
        <time>1970-01-01T01:28:57.000Z</time>
      </trkpt>
      <trkpt lat="42.744412" lon="-2.446353">
        <ele>641.2</ele>
        <time>1970-01-01T01:29:03.000Z</time>
      </trkpt>
      <trkpt lat="42.744224" lon="-2.446401">
        <ele>640.8</ele>
        <time>1970-01-01T01:29:05.000Z</time>
      </trkpt>
      <trkpt lat="42.744037" lon="-2.446446">
        <ele>640.6</ele>
        <time>1970-01-01T01:29:07.000Z</time>
      </trkpt>
      <trkpt lat="42.743493" lon="-2.446581">
        <ele>640</ele>
        <time>1970-01-01T01:29:13.000Z</time>
      </trkpt>
      <trkpt lat="42.743316" lon="-2.446622">
        <ele>639.8</ele>
        <time>1970-01-01T01:29:15.000Z</time>
      </trkpt>
      <trkpt lat="42.743227" lon="-2.446643">
        <ele>639.8</ele>
        <time>1970-01-01T01:29:16.000Z</time>
      </trkpt>
      <trkpt lat="42.743139" lon="-2.44667">
        <ele>639.6</ele>
        <time>1970-01-01T01:29:17.000Z</time>
      </trkpt>
      <trkpt lat="42.742967" lon="-2.446741">
        <ele>639.2</ele>
        <time>1970-01-01T01:29:19.000Z</time>
      </trkpt>
      <trkpt lat="42.742883" lon="-2.446784">
        <ele>639.2</ele>
        <time>1970-01-01T01:29:20.000Z</time>
      </trkpt>
      <trkpt lat="42.742727" lon="-2.446893">
        <ele>639.2</ele>
        <time>1970-01-01T01:29:22.000Z</time>
      </trkpt>
      <trkpt lat="42.742657" lon="-2.446958">
        <ele>639</ele>
        <time>1970-01-01T01:29:23.000Z</time>
      </trkpt>
      <trkpt lat="42.742593" lon="-2.447027">
        <ele>639</ele>
        <time>1970-01-01T01:29:24.000Z</time>
      </trkpt>
      <trkpt lat="42.742535" lon="-2.447103">
        <ele>639</ele>
        <time>1970-01-01T01:29:25.000Z</time>
      </trkpt>
      <trkpt lat="42.742384" lon="-2.447358">
        <ele>639</ele>
        <time>1970-01-01T01:29:28.000Z</time>
      </trkpt>
      <trkpt lat="42.742196" lon="-2.447858">
        <ele>640.4</ele>
        <time>1970-01-01T01:29:33.000Z</time>
      </trkpt>
      <trkpt lat="42.742116" lon="-2.448309">
        <ele>641</ele>
        <time>1970-01-01T01:29:37.000Z</time>
      </trkpt>
      <trkpt lat="42.742098" lon="-2.448418">
        <ele>641</ele>
        <time>1970-01-01T01:29:38.000Z</time>
      </trkpt>
      <trkpt lat="42.742079" lon="-2.448527">
        <ele>641</ele>
        <time>1970-01-01T01:29:39.000Z</time>
      </trkpt>
      <trkpt lat="42.742041" lon="-2.448738">
        <ele>641.2</ele>
        <time>1970-01-01T01:29:41.000Z</time>
      </trkpt>
      <trkpt lat="42.741997" lon="-2.448935">
        <ele>641.4</ele>
        <time>1970-01-01T01:29:43.000Z</time>
      </trkpt>
      <trkpt lat="42.741945" lon="-2.449116">
        <ele>641.6</ele>
        <time>1970-01-01T01:29:45.000Z</time>
      </trkpt>
      <trkpt lat="42.741881" lon="-2.449286">
        <ele>641.8</ele>
        <time>1970-01-01T01:29:47.000Z</time>
      </trkpt>
      <trkpt lat="42.741788" lon="-2.449415">
        <ele>641.6</ele>
        <time>1970-01-01T01:29:49.000Z</time>
      </trkpt>
      <trkpt lat="42.741732" lon="-2.449459">
        <ele>641.8</ele>
        <time>1970-01-01T01:29:50.000Z</time>
      </trkpt>
      <trkpt lat="42.741679" lon="-2.449491">
        <ele>641.8</ele>
        <time>1970-01-01T01:29:51.000Z</time>
      </trkpt>
      <trkpt lat="42.741556" lon="-2.44953">
        <ele>642</ele>
        <time>1970-01-01T01:29:53.000Z</time>
      </trkpt>
      <trkpt lat="42.741161" lon="-2.449651">
        <ele>642.8</ele>
        <time>1970-01-01T01:30:00.000Z</time>
      </trkpt>
      <trkpt lat="42.741122" lon="-2.449666">
        <ele>642.6</ele>
        <time>1970-01-01T01:30:01.000Z</time>
      </trkpt>
      <trkpt lat="42.741024" lon="-2.449697">
        <ele>642.8</ele>
        <time>1970-01-01T01:30:04.000Z</time>
      </trkpt>
      <trkpt lat="42.74099" lon="-2.449705">
        <ele>642.8</ele>
        <time>1970-01-01T01:30:05.000Z</time>
      </trkpt>
      <trkpt lat="42.740916" lon="-2.449727">
        <ele>643</ele>
        <time>1970-01-01T01:30:07.000Z</time>
      </trkpt>
      <trkpt lat="42.740752" lon="-2.449778">
        <ele>644.6</ele>
        <time>1970-01-01T01:30:11.000Z</time>
      </trkpt>
      <trkpt lat="42.740713" lon="-2.449789">
        <ele>645</ele>
        <time>1970-01-01T01:30:12.000Z</time>
      </trkpt>
      <trkpt lat="42.740598" lon="-2.449825">
        <ele>646.4</ele>
        <time>1970-01-01T01:30:15.000Z</time>
      </trkpt>
      <trkpt lat="42.740482" lon="-2.44986">
        <ele>647.8</ele>
        <time>1970-01-01T01:30:18.000Z</time>
      </trkpt>
      <trkpt lat="42.740408" lon="-2.449882">
        <ele>648.6</ele>
        <time>1970-01-01T01:30:20.000Z</time>
      </trkpt>
      <trkpt lat="42.740303" lon="-2.449925">
        <ele>649.4</ele>
        <time>1970-01-01T01:30:23.000Z</time>
      </trkpt>
      <trkpt lat="42.740238" lon="-2.449962">
        <ele>649.6</ele>
        <time>1970-01-01T01:30:25.000Z</time>
      </trkpt>
      <trkpt lat="42.740185" lon="-2.450001">
        <ele>650.4</ele>
        <time>1970-01-01T01:30:27.000Z</time>
      </trkpt>
      <trkpt lat="42.740139" lon="-2.450037">
        <ele>651.2</ele>
        <time>1970-01-01T01:30:29.000Z</time>
      </trkpt>
      <trkpt lat="42.740021" lon="-2.450155">
        <ele>654</ele>
        <time>1970-01-01T01:30:34.000Z</time>
      </trkpt>
      <trkpt lat="42.739982" lon="-2.450205">
        <ele>654.6</ele>
        <time>1970-01-01T01:30:36.000Z</time>
      </trkpt>
      <trkpt lat="42.739959" lon="-2.450232">
        <ele>655</ele>
        <time>1970-01-01T01:30:37.000Z</time>
      </trkpt>
      <trkpt lat="42.73986" lon="-2.450382">
        <ele>656.4</ele>
        <time>1970-01-01T01:30:42.000Z</time>
      </trkpt>
      <trkpt lat="42.739823" lon="-2.450443">
        <ele>657.2</ele>
        <time>1970-01-01T01:30:44.000Z</time>
      </trkpt>
      <trkpt lat="42.73969" lon="-2.450667">
        <ele>659</ele>
        <time>1970-01-01T01:30:51.000Z</time>
      </trkpt>
      <trkpt lat="42.739676" lon="-2.450706">
        <ele>659.2</ele>
        <time>1970-01-01T01:30:52.000Z</time>
      </trkpt>
      <trkpt lat="42.739681" lon="-2.450906">
        <ele>659.8</ele>
        <time>1970-01-01T01:30:56.000Z</time>
      </trkpt>
      <trkpt lat="42.739785" lon="-2.451198">
        <ele>660.4</ele>
        <time>1970-01-01T01:31:01.000Z</time>
      </trkpt>
      <trkpt lat="42.739941" lon="-2.451614">
        <ele>660.6</ele>
        <time>1970-01-01T01:31:07.000Z</time>
      </trkpt>
      <trkpt lat="42.739969" lon="-2.45169">
        <ele>660.6</ele>
        <time>1970-01-01T01:31:08.000Z</time>
      </trkpt>
      <trkpt lat="42.740116" lon="-2.45209">
        <ele>660.6</ele>
        <time>1970-01-01T01:31:13.000Z</time>
      </trkpt>
      <trkpt lat="42.740211" lon="-2.452354">
        <ele>660.2</ele>
        <time>1970-01-01T01:31:16.000Z</time>
      </trkpt>
      <trkpt lat="42.740276" lon="-2.452541">
        <ele>659.8</ele>
        <time>1970-01-01T01:31:18.000Z</time>
      </trkpt>
      <trkpt lat="42.740405" lon="-2.452932">
        <ele>659.6</ele>
        <time>1970-01-01T01:31:22.000Z</time>
      </trkpt>
      <trkpt lat="42.740439" lon="-2.45303">
        <ele>659.8</ele>
        <time>1970-01-01T01:31:23.000Z</time>
      </trkpt>
      <trkpt lat="42.740473" lon="-2.453129">
        <ele>659.2</ele>
        <time>1970-01-01T01:31:24.000Z</time>
      </trkpt>
      <trkpt lat="42.740574" lon="-2.453433">
        <ele>658.8</ele>
        <time>1970-01-01T01:31:27.000Z</time>
      </trkpt>
      <trkpt lat="42.740684" lon="-2.453748">
        <ele>658</ele>
        <time>1970-01-01T01:31:30.000Z</time>
      </trkpt>
      <trkpt lat="42.740764" lon="-2.453963">
        <ele>657.8</ele>
        <time>1970-01-01T01:31:32.000Z</time>
      </trkpt>
      <trkpt lat="42.740803" lon="-2.454072">
        <ele>657.6</ele>
        <time>1970-01-01T01:31:33.000Z</time>
      </trkpt>
      <trkpt lat="42.740919" lon="-2.454402">
        <ele>657.4</ele>
        <time>1970-01-01T01:31:36.000Z</time>
      </trkpt>
      <trkpt lat="42.741085" lon="-2.45485">
        <ele>657</ele>
        <time>1970-01-01T01:31:40.000Z</time>
      </trkpt>
      <trkpt lat="42.741169" lon="-2.455082">
        <ele>656.8</ele>
        <time>1970-01-01T01:31:42.000Z</time>
      </trkpt>
      <trkpt lat="42.741385" lon="-2.455674">
        <ele>656</ele>
        <time>1970-01-01T01:31:47.000Z</time>
      </trkpt>
      <trkpt lat="42.741429" lon="-2.455793">
        <ele>656</ele>
        <time>1970-01-01T01:31:48.000Z</time>
      </trkpt>
      <trkpt lat="42.741606" lon="-2.456265">
        <ele>655.4</ele>
        <time>1970-01-01T01:31:52.000Z</time>
      </trkpt>
      <trkpt lat="42.741845" lon="-2.456838">
        <ele>654.4</ele>
        <time>1970-01-01T01:31:57.000Z</time>
      </trkpt>
      <trkpt lat="42.741895" lon="-2.456949">
        <ele>654</ele>
        <time>1970-01-01T01:31:58.000Z</time>
      </trkpt>
      <trkpt lat="42.741947" lon="-2.457059">
        <ele>653.8</ele>
        <time>1970-01-01T01:31:59.000Z</time>
      </trkpt>
      <trkpt lat="42.742218" lon="-2.457581">
        <ele>653.2</ele>
        <time>1970-01-01T01:32:04.000Z</time>
      </trkpt>
      <trkpt lat="42.742328" lon="-2.457775">
        <ele>653</ele>
        <time>1970-01-01T01:32:06.000Z</time>
      </trkpt>
      <trkpt lat="42.742547" lon="-2.458151">
        <ele>652.8</ele>
        <time>1970-01-01T01:32:10.000Z</time>
      </trkpt>
      <trkpt lat="42.742872" lon="-2.458696">
        <ele>652.6</ele>
        <time>1970-01-01T01:32:16.000Z</time>
      </trkpt>
      <trkpt lat="42.743182" lon="-2.459224">
        <ele>652.6</ele>
        <time>1970-01-01T01:32:22.000Z</time>
      </trkpt>
      <trkpt lat="42.743329" lon="-2.459475">
        <ele>652.8</ele>
        <time>1970-01-01T01:32:25.000Z</time>
      </trkpt>
      <trkpt lat="42.743423" lon="-2.459636">
        <ele>652.8</ele>
        <time>1970-01-01T01:32:27.000Z</time>
      </trkpt>
      <trkpt lat="42.743743" lon="-2.460175">
        <ele>653.6</ele>
        <time>1970-01-01T01:32:34.000Z</time>
      </trkpt>
      <trkpt lat="42.743876" lon="-2.4604">
        <ele>654.2</ele>
        <time>1970-01-01T01:32:37.000Z</time>
      </trkpt>
      <trkpt lat="42.744005" lon="-2.460625">
        <ele>655</ele>
        <time>1970-01-01T01:32:40.000Z</time>
      </trkpt>
      <trkpt lat="42.744226" lon="-2.460992">
        <ele>655.6</ele>
        <time>1970-01-01T01:32:45.000Z</time>
      </trkpt>
      <trkpt lat="42.744271" lon="-2.461068">
        <ele>655.6</ele>
        <time>1970-01-01T01:32:46.000Z</time>
      </trkpt>
      <trkpt lat="42.744316" lon="-2.461143">
        <ele>656</ele>
        <time>1970-01-01T01:32:47.000Z</time>
      </trkpt>
      <trkpt lat="42.74449" lon="-2.461436">
        <ele>657</ele>
        <time>1970-01-01T01:32:51.000Z</time>
      </trkpt>
      <trkpt lat="42.744618" lon="-2.46165">
        <ele>657.8</ele>
        <time>1970-01-01T01:32:54.000Z</time>
      </trkpt>
      <trkpt lat="42.744827" lon="-2.462005">
        <ele>658.8</ele>
        <time>1970-01-01T01:32:59.000Z</time>
      </trkpt>
      <trkpt lat="42.74487" lon="-2.462077">
        <ele>658.8</ele>
        <time>1970-01-01T01:33:00.000Z</time>
      </trkpt>
      <trkpt lat="42.745212" lon="-2.462655">
        <ele>660.6</ele>
        <time>1970-01-01T01:33:08.000Z</time>
      </trkpt>
      <trkpt lat="42.745385" lon="-2.46295">
        <ele>661</ele>
        <time>1970-01-01T01:33:12.000Z</time>
      </trkpt>
      <trkpt lat="42.745732" lon="-2.46354">
        <ele>661.2</ele>
        <time>1970-01-01T01:33:20.000Z</time>
      </trkpt>
      <trkpt lat="42.745776" lon="-2.463614">
        <ele>661.4</ele>
        <time>1970-01-01T01:33:21.000Z</time>
      </trkpt>
      <trkpt lat="42.745863" lon="-2.463762">
        <ele>661.4</ele>
        <time>1970-01-01T01:33:23.000Z</time>
      </trkpt>
      <trkpt lat="42.746219" lon="-2.464365">
        <ele>661.8</ele>
        <time>1970-01-01T01:33:31.000Z</time>
      </trkpt>
      <trkpt lat="42.746354" lon="-2.464595">
        <ele>662.2</ele>
        <time>1970-01-01T01:33:34.000Z</time>
      </trkpt>
      <trkpt lat="42.7464" lon="-2.464671">
        <ele>662.2</ele>
        <time>1970-01-01T01:33:35.000Z</time>
      </trkpt>
      <trkpt lat="42.746764" lon="-2.465289">
        <ele>663</ele>
        <time>1970-01-01T01:33:43.000Z</time>
      </trkpt>
      <trkpt lat="42.747035" lon="-2.465753">
        <ele>663.6</ele>
        <time>1970-01-01T01:33:49.000Z</time>
      </trkpt>
      <trkpt lat="42.747299" lon="-2.466206">
        <ele>664</ele>
        <time>1970-01-01T01:33:55.000Z</time>
      </trkpt>
      <trkpt lat="42.747343" lon="-2.46628">
        <ele>664.2</ele>
        <time>1970-01-01T01:33:56.000Z</time>
      </trkpt>
      <trkpt lat="42.747473" lon="-2.466501">
        <ele>664.2</ele>
        <time>1970-01-01T01:33:59.000Z</time>
      </trkpt>
      <trkpt lat="42.747645" lon="-2.466789">
        <ele>664.8</ele>
        <time>1970-01-01T01:34:03.000Z</time>
      </trkpt>
      <trkpt lat="42.747815" lon="-2.467074">
        <ele>665.4</ele>
        <time>1970-01-01T01:34:07.000Z</time>
      </trkpt>
      <trkpt lat="42.747941" lon="-2.467286">
        <ele>665.8</ele>
        <time>1970-01-01T01:34:10.000Z</time>
      </trkpt>
      <trkpt lat="42.748315" lon="-2.467912">
        <ele>668.4</ele>
        <time>1970-01-01T01:34:19.000Z</time>
      </trkpt>
      <trkpt lat="42.748479" lon="-2.468189">
        <ele>668.8</ele>
        <time>1970-01-01T01:34:23.000Z</time>
      </trkpt>
      <trkpt lat="42.748847" lon="-2.468823">
        <ele>669.8</ele>
        <time>1970-01-01T01:34:32.000Z</time>
      </trkpt>
      <trkpt lat="42.748888" lon="-2.468897">
        <ele>669.8</ele>
        <time>1970-01-01T01:34:33.000Z</time>
      </trkpt>
      <trkpt lat="42.748971" lon="-2.469047">
        <ele>670</ele>
        <time>1970-01-01T01:34:35.000Z</time>
      </trkpt>
      <trkpt lat="42.749055" lon="-2.469198">
        <ele>670</ele>
        <time>1970-01-01T01:34:37.000Z</time>
      </trkpt>
      <trkpt lat="42.749097" lon="-2.469275">
        <ele>670</ele>
        <time>1970-01-01T01:34:38.000Z</time>
      </trkpt>
      <trkpt lat="42.749381" lon="-2.469827">
        <ele>670.2</ele>
        <time>1970-01-01T01:34:45.000Z</time>
      </trkpt>
      <trkpt lat="42.749422" lon="-2.469907">
        <ele>670.2</ele>
        <time>1970-01-01T01:34:46.000Z</time>
      </trkpt>
      <trkpt lat="42.749506" lon="-2.470068">
        <ele>670.2</ele>
        <time>1970-01-01T01:34:48.000Z</time>
      </trkpt>
      <trkpt lat="42.74959" lon="-2.47023">
        <ele>670.2</ele>
        <time>1970-01-01T01:34:50.000Z</time>
      </trkpt>
      <trkpt lat="42.749629" lon="-2.470314">
        <ele>670</ele>
        <time>1970-01-01T01:34:51.000Z</time>
      </trkpt>
      <trkpt lat="42.74971" lon="-2.470482">
        <ele>670</ele>
        <time>1970-01-01T01:34:53.000Z</time>
      </trkpt>
      <trkpt lat="42.749752" lon="-2.470564">
        <ele>670</ele>
        <time>1970-01-01T01:34:54.000Z</time>
      </trkpt>
      <trkpt lat="42.749793" lon="-2.470644">
        <ele>670</ele>
        <time>1970-01-01T01:34:55.000Z</time>
      </trkpt>
      <trkpt lat="42.750033" lon="-2.471107">
        <ele>670</ele>
        <time>1970-01-01T01:35:01.000Z</time>
      </trkpt>
      <trkpt lat="42.750072" lon="-2.471181">
        <ele>670</ele>
        <time>1970-01-01T01:35:02.000Z</time>
      </trkpt>
      <trkpt lat="42.75011" lon="-2.471256">
        <ele>670</ele>
        <time>1970-01-01T01:35:03.000Z</time>
      </trkpt>
      <trkpt lat="42.750184" lon="-2.471402">
        <ele>670</ele>
        <time>1970-01-01T01:35:05.000Z</time>
      </trkpt>
      <trkpt lat="42.750329" lon="-2.471694">
        <ele>670.6</ele>
        <time>1970-01-01T01:35:09.000Z</time>
      </trkpt>
      <trkpt lat="42.750364" lon="-2.471768">
        <ele>670.6</ele>
        <time>1970-01-01T01:35:10.000Z</time>
      </trkpt>
      <trkpt lat="42.7504" lon="-2.471841">
        <ele>670.8</ele>
        <time>1970-01-01T01:35:11.000Z</time>
      </trkpt>
      <trkpt lat="42.750435" lon="-2.471912">
        <ele>671</ele>
        <time>1970-01-01T01:35:12.000Z</time>
      </trkpt>
      <trkpt lat="42.750504" lon="-2.472047">
        <ele>671.4</ele>
        <time>1970-01-01T01:35:14.000Z</time>
      </trkpt>
      <trkpt lat="42.750638" lon="-2.472315">
        <ele>671.6</ele>
        <time>1970-01-01T01:35:18.000Z</time>
      </trkpt>
      <trkpt lat="42.750705" lon="-2.472446">
        <ele>672.4</ele>
        <time>1970-01-01T01:35:20.000Z</time>
      </trkpt>
      <trkpt lat="42.750737" lon="-2.472511">
        <ele>672.6</ele>
        <time>1970-01-01T01:35:21.000Z</time>
      </trkpt>
      <trkpt lat="42.75077" lon="-2.472578">
        <ele>672.8</ele>
        <time>1970-01-01T01:35:22.000Z</time>
      </trkpt>
      <trkpt lat="42.750801" lon="-2.472644">
        <ele>672.8</ele>
        <time>1970-01-01T01:35:23.000Z</time>
      </trkpt>
      <trkpt lat="42.750833" lon="-2.472711">
        <ele>672.8</ele>
        <time>1970-01-01T01:35:24.000Z</time>
      </trkpt>
      <trkpt lat="42.750897" lon="-2.472843">
        <ele>673.2</ele>
        <time>1970-01-01T01:35:26.000Z</time>
      </trkpt>
      <trkpt lat="42.751098" lon="-2.473241">
        <ele>674.6</ele>
        <time>1970-01-01T01:35:32.000Z</time>
      </trkpt>
      <trkpt lat="42.751201" lon="-2.473441">
        <ele>675.6</ele>
        <time>1970-01-01T01:35:35.000Z</time>
      </trkpt>
      <trkpt lat="42.751478" lon="-2.473986">
        <ele>676.2</ele>
        <time>1970-01-01T01:35:43.000Z</time>
      </trkpt>
      <trkpt lat="42.751512" lon="-2.474054">
        <ele>676.4</ele>
        <time>1970-01-01T01:35:44.000Z</time>
      </trkpt>
      <trkpt lat="42.75165" lon="-2.474327">
        <ele>676.6</ele>
        <time>1970-01-01T01:35:48.000Z</time>
      </trkpt>
      <trkpt lat="42.751941" lon="-2.474899">
        <ele>677.4</ele>
        <time>1970-01-01T01:35:56.000Z</time>
      </trkpt>
      <trkpt lat="42.752016" lon="-2.475047">
        <ele>677.6</ele>
        <time>1970-01-01T01:35:58.000Z</time>
      </trkpt>
      <trkpt lat="42.752054" lon="-2.47512">
        <ele>677.8</ele>
        <time>1970-01-01T01:35:59.000Z</time>
      </trkpt>
      <trkpt lat="42.752168" lon="-2.475341">
        <ele>678</ele>
        <time>1970-01-01T01:36:02.000Z</time>
      </trkpt>
      <trkpt lat="42.752319" lon="-2.475638">
        <ele>678.2</ele>
        <time>1970-01-01T01:36:06.000Z</time>
      </trkpt>
      <trkpt lat="42.752515" lon="-2.476013">
        <ele>678.4</ele>
        <time>1970-01-01T01:36:11.000Z</time>
      </trkpt>
      <trkpt lat="42.752592" lon="-2.476167">
        <ele>678.2</ele>
        <time>1970-01-01T01:36:13.000Z</time>
      </trkpt>
      <trkpt lat="42.752747" lon="-2.476473">
        <ele>678.2</ele>
        <time>1970-01-01T01:36:17.000Z</time>
      </trkpt>
      <trkpt lat="42.752863" lon="-2.476699">
        <ele>678.2</ele>
        <time>1970-01-01T01:36:20.000Z</time>
      </trkpt>
      <trkpt lat="42.753016" lon="-2.476993">
        <ele>678.4</ele>
        <time>1970-01-01T01:36:24.000Z</time>
      </trkpt>
      <trkpt lat="42.753341" lon="-2.477467">
        <ele>679.2</ele>
        <time>1970-01-01T01:36:31.000Z</time>
      </trkpt>
      <trkpt lat="42.753514" lon="-2.477629">
        <ele>679.6</ele>
        <time>1970-01-01T01:36:34.000Z</time>
      </trkpt>
      <trkpt lat="42.753698" lon="-2.47775">
        <ele>679.8</ele>
        <time>1970-01-01T01:36:37.000Z</time>
      </trkpt>
      <trkpt lat="42.754068" lon="-2.477876">
        <ele>680</ele>
        <time>1970-01-01T01:36:43.000Z</time>
      </trkpt>
      <trkpt lat="42.754128" lon="-2.477884">
        <ele>680.2</ele>
        <time>1970-01-01T01:36:44.000Z</time>
      </trkpt>
      <trkpt lat="42.754187" lon="-2.477888">
        <ele>680.2</ele>
        <time>1970-01-01T01:36:45.000Z</time>
      </trkpt>
      <trkpt lat="42.754361" lon="-2.47789">
        <ele>680.6</ele>
        <time>1970-01-01T01:36:48.000Z</time>
      </trkpt>
      <trkpt lat="42.754417" lon="-2.477884">
        <ele>680.8</ele>
        <time>1970-01-01T01:36:49.000Z</time>
      </trkpt>
      <trkpt lat="42.754474" lon="-2.477872">
        <ele>681</ele>
        <time>1970-01-01T01:36:50.000Z</time>
      </trkpt>
      <trkpt lat="42.754696" lon="-2.477791">
        <ele>682.6</ele>
        <time>1970-01-01T01:36:54.000Z</time>
      </trkpt>
      <trkpt lat="42.75475" lon="-2.477763">
        <ele>683</ele>
        <time>1970-01-01T01:36:55.000Z</time>
      </trkpt>
      <trkpt lat="42.755031" lon="-2.477577">
        <ele>684.2</ele>
        <time>1970-01-01T01:37:00.000Z</time>
      </trkpt>
      <trkpt lat="42.755085" lon="-2.477528">
        <ele>684.4</ele>
        <time>1970-01-01T01:37:01.000Z</time>
      </trkpt>
      <trkpt lat="42.755305" lon="-2.477328">
        <ele>685</ele>
        <time>1970-01-01T01:37:05.000Z</time>
      </trkpt>
      <trkpt lat="42.755406" lon="-2.477223">
        <ele>685.4</ele>
        <time>1970-01-01T01:37:07.000Z</time>
      </trkpt>
      <trkpt lat="42.755761" lon="-2.476881">
        <ele>687.4</ele>
        <time>1970-01-01T01:37:14.000Z</time>
      </trkpt>
      <trkpt lat="42.755815" lon="-2.476837">
        <ele>688</ele>
        <time>1970-01-01T01:37:15.000Z</time>
      </trkpt>
      <trkpt lat="42.75598" lon="-2.476728">
        <ele>688.4</ele>
        <time>1970-01-01T01:37:18.000Z</time>
      </trkpt>
      <trkpt lat="42.756085" lon="-2.476672">
        <ele>688.8</ele>
        <time>1970-01-01T01:37:20.000Z</time>
      </trkpt>
      <trkpt lat="42.756381" lon="-2.476595">
        <ele>689.2</ele>
        <time>1970-01-01T01:37:25.000Z</time>
      </trkpt>
      <trkpt lat="42.756442" lon="-2.476588">
        <ele>689.6</ele>
        <time>1970-01-01T01:37:26.000Z</time>
      </trkpt>
      <trkpt lat="42.756506" lon="-2.476587">
        <ele>689.8</ele>
        <time>1970-01-01T01:37:27.000Z</time>
      </trkpt>
      <trkpt lat="42.756803" lon="-2.476613">
        <ele>690.8</ele>
        <time>1970-01-01T01:37:32.000Z</time>
      </trkpt>
      <trkpt lat="42.756919" lon="-2.476625">
        <ele>691.2</ele>
        <time>1970-01-01T01:37:34.000Z</time>
      </trkpt>
      <trkpt lat="42.757191" lon="-2.476617">
        <ele>692.6</ele>
        <time>1970-01-01T01:37:39.000Z</time>
      </trkpt>
      <trkpt lat="42.757478" lon="-2.476519">
        <ele>693.2</ele>
        <time>1970-01-01T01:37:45.000Z</time>
      </trkpt>
      <trkpt lat="42.757523" lon="-2.476493">
        <ele>693.4</ele>
        <time>1970-01-01T01:37:46.000Z</time>
      </trkpt>
      <trkpt lat="42.757712" lon="-2.476362">
        <ele>695.6</ele>
        <time>1970-01-01T01:37:51.000Z</time>
      </trkpt>
      <trkpt lat="42.757783" lon="-2.476305">
        <ele>696</ele>
        <time>1970-01-01T01:37:53.000Z</time>
      </trkpt>
      <trkpt lat="42.757819" lon="-2.476276">
        <ele>696.4</ele>
        <time>1970-01-01T01:37:54.000Z</time>
      </trkpt>
      <trkpt lat="42.757966" lon="-2.476163">
        <ele>697.8</ele>
        <time>1970-01-01T01:37:58.000Z</time>
      </trkpt>
      <trkpt lat="42.758105" lon="-2.476051">
        <ele>699.4</ele>
        <time>1970-01-01T01:38:02.000Z</time>
      </trkpt>
      <trkpt lat="42.758306" lon="-2.475914">
        <ele>701.6</ele>
        <time>1970-01-01T01:38:08.000Z</time>
      </trkpt>
      <trkpt lat="42.758375" lon="-2.475877">
        <ele>702</ele>
        <time>1970-01-01T01:38:10.000Z</time>
      </trkpt>
      <trkpt lat="42.758513" lon="-2.47582">
        <ele>702.8</ele>
        <time>1970-01-01T01:38:14.000Z</time>
      </trkpt>
      <trkpt lat="42.758693" lon="-2.475788">
        <ele>704.2</ele>
        <time>1970-01-01T01:38:19.000Z</time>
      </trkpt>
      <trkpt lat="42.758728" lon="-2.475785">
        <ele>704.4</ele>
        <time>1970-01-01T01:38:20.000Z</time>
      </trkpt>
      <trkpt lat="42.758865" lon="-2.475776">
        <ele>705.4</ele>
        <time>1970-01-01T01:38:24.000Z</time>
      </trkpt>
      <trkpt lat="42.759038" lon="-2.475797">
        <ele>706.6</ele>
        <time>1970-01-01T01:38:29.000Z</time>
      </trkpt>
      <trkpt lat="42.759073" lon="-2.475805">
        <ele>706.8</ele>
        <time>1970-01-01T01:38:30.000Z</time>
      </trkpt>
      <trkpt lat="42.759214" lon="-2.475847">
        <ele>708</ele>
        <time>1970-01-01T01:38:34.000Z</time>
      </trkpt>
      <trkpt lat="42.759347" lon="-2.47591">
        <ele>708.8</ele>
        <time>1970-01-01T01:38:38.000Z</time>
      </trkpt>
      <trkpt lat="42.75938" lon="-2.475926">
        <ele>709</ele>
        <time>1970-01-01T01:38:39.000Z</time>
      </trkpt>
      <trkpt lat="42.759517" lon="-2.475995">
        <ele>709.8</ele>
        <time>1970-01-01T01:38:43.000Z</time>
      </trkpt>
      <trkpt lat="42.759631" lon="-2.476096">
        <ele>710.8</ele>
        <time>1970-01-01T01:38:47.000Z</time>
      </trkpt>
      <trkpt lat="42.759658" lon="-2.476125">
        <ele>711.2</ele>
        <time>1970-01-01T01:38:48.000Z</time>
      </trkpt>
      <trkpt lat="42.759767" lon="-2.476236">
        <ele>712.2</ele>
        <time>1970-01-01T01:38:52.000Z</time>
      </trkpt>
      <trkpt lat="42.759818" lon="-2.476294">
        <ele>712.6</ele>
        <time>1970-01-01T01:38:54.000Z</time>
      </trkpt>
      <trkpt lat="42.759866" lon="-2.476359">
        <ele>713.2</ele>
        <time>1970-01-01T01:38:56.000Z</time>
      </trkpt>
      <trkpt lat="42.760002" lon="-2.476565">
        <ele>714.6</ele>
        <time>1970-01-01T01:39:02.000Z</time>
      </trkpt>
      <trkpt lat="42.760063" lon="-2.47668">
        <ele>715</ele>
        <time>1970-01-01T01:39:05.000Z</time>
      </trkpt>
      <trkpt lat="42.760083" lon="-2.476718">
        <ele>715.4</ele>
        <time>1970-01-01T01:39:06.000Z</time>
      </trkpt>
      <trkpt lat="42.760182" lon="-2.476964">
        <ele>717.2</ele>
        <time>1970-01-01T01:39:12.000Z</time>
      </trkpt>
      <trkpt lat="42.760197" lon="-2.477006">
        <ele>717.4</ele>
        <time>1970-01-01T01:39:13.000Z</time>
      </trkpt>
      <trkpt lat="42.760268" lon="-2.477227">
        <ele>718.6</ele>
        <time>1970-01-01T01:39:18.000Z</time>
      </trkpt>
      <trkpt lat="42.760344" lon="-2.477456">
        <ele>719.6</ele>
        <time>1970-01-01T01:39:23.000Z</time>
      </trkpt>
      <trkpt lat="42.76036" lon="-2.477503">
        <ele>719.8</ele>
        <time>1970-01-01T01:39:24.000Z</time>
      </trkpt>
      <trkpt lat="42.76042" lon="-2.477691">
        <ele>720.4</ele>
        <time>1970-01-01T01:39:28.000Z</time>
      </trkpt>
      <trkpt lat="42.760488" lon="-2.477889">
        <ele>721.2</ele>
        <time>1970-01-01T01:39:32.000Z</time>
      </trkpt>
      <trkpt lat="42.760611" lon="-2.478277">
        <ele>723.4</ele>
        <time>1970-01-01T01:39:39.000Z</time>
      </trkpt>
      <trkpt lat="42.760627" lon="-2.478336">
        <ele>723.6</ele>
        <time>1970-01-01T01:39:40.000Z</time>
      </trkpt>
      <trkpt lat="42.760764" lon="-2.478743">
        <ele>724.4</ele>
        <time>1970-01-01T01:39:46.000Z</time>
      </trkpt>
      <trkpt lat="42.760886" lon="-2.479045">
        <ele>725</ele>
        <time>1970-01-01T01:39:50.000Z</time>
      </trkpt>
      <trkpt lat="42.760945" lon="-2.479203">
        <ele>725.2</ele>
        <time>1970-01-01T01:39:52.000Z</time>
      </trkpt>
      <trkpt lat="42.761057" lon="-2.479554">
        <ele>725.6</ele>
        <time>1970-01-01T01:39:56.000Z</time>
      </trkpt>
      <trkpt lat="42.761117" lon="-2.479732">
        <ele>726</ele>
        <time>1970-01-01T01:39:58.000Z</time>
      </trkpt>
      <trkpt lat="42.761256" lon="-2.480193">
        <ele>726.8</ele>
        <time>1970-01-01T01:40:03.000Z</time>
      </trkpt>
      <trkpt lat="42.761333" lon="-2.480483">
        <ele>727.4</ele>
        <time>1970-01-01T01:40:06.000Z</time>
      </trkpt>
      <trkpt lat="42.761424" lon="-2.48076">
        <ele>728</ele>
        <time>1970-01-01T01:40:09.000Z</time>
      </trkpt>
      <trkpt lat="42.761519" lon="-2.48102">
        <ele>728.2</ele>
        <time>1970-01-01T01:40:12.000Z</time>
      </trkpt>
      <trkpt lat="42.761721" lon="-2.481481">
        <ele>729.2</ele>
        <time>1970-01-01T01:40:18.000Z</time>
      </trkpt>
      <trkpt lat="42.761752" lon="-2.481548">
        <ele>729.6</ele>
        <time>1970-01-01T01:40:19.000Z</time>
      </trkpt>
      <trkpt lat="42.761933" lon="-2.481855">
        <ele>730.6</ele>
        <time>1970-01-01T01:40:24.000Z</time>
      </trkpt>
      <trkpt lat="42.76197" lon="-2.481918">
        <ele>730.6</ele>
        <time>1970-01-01T01:40:25.000Z</time>
      </trkpt>
      <trkpt lat="42.762045" lon="-2.482042">
        <ele>731</ele>
        <time>1970-01-01T01:40:27.000Z</time>
      </trkpt>
      <trkpt lat="42.762197" lon="-2.482282">
        <ele>731.6</ele>
        <time>1970-01-01T01:40:31.000Z</time>
      </trkpt>
      <trkpt lat="42.762237" lon="-2.482343">
        <ele>732</ele>
        <time>1970-01-01T01:40:32.000Z</time>
      </trkpt>
      <trkpt lat="42.762522" lon="-2.482775">
        <ele>732.8</ele>
        <time>1970-01-01T01:40:39.000Z</time>
      </trkpt>
      <trkpt lat="42.762604" lon="-2.482898">
        <ele>733</ele>
        <time>1970-01-01T01:40:41.000Z</time>
      </trkpt>
      <trkpt lat="42.762813" lon="-2.483191">
        <ele>734</ele>
        <time>1970-01-01T01:40:46.000Z</time>
      </trkpt>
      <trkpt lat="42.763025" lon="-2.483474">
        <ele>734.4</ele>
        <time>1970-01-01T01:40:51.000Z</time>
      </trkpt>
      <trkpt lat="42.76307" lon="-2.483529">
        <ele>734.6</ele>
        <time>1970-01-01T01:40:52.000Z</time>
      </trkpt>
      <trkpt lat="42.763302" lon="-2.483797">
        <ele>735.4</ele>
        <time>1970-01-01T01:40:57.000Z</time>
      </trkpt>
      <trkpt lat="42.7635" lon="-2.484014">
        <ele>736.2</ele>
        <time>1970-01-01T01:41:01.000Z</time>
      </trkpt>
      <trkpt lat="42.763702" lon="-2.484238">
        <ele>737</ele>
        <time>1970-01-01T01:41:05.000Z</time>
      </trkpt>
      <trkpt lat="42.764013" lon="-2.484574">
        <ele>737.8</ele>
        <time>1970-01-01T01:41:11.000Z</time>
      </trkpt>
      <trkpt lat="42.764065" lon="-2.484629">
        <ele>738</ele>
        <time>1970-01-01T01:41:12.000Z</time>
      </trkpt>
      <trkpt lat="42.764428" lon="-2.48502">
        <ele>739.6</ele>
        <time>1970-01-01T01:41:19.000Z</time>
      </trkpt>
      <trkpt lat="42.764528" lon="-2.485128">
        <ele>739.6</ele>
        <time>1970-01-01T01:41:21.000Z</time>
      </trkpt>
      <trkpt lat="42.764719" lon="-2.485338">
        <ele>740.4</ele>
        <time>1970-01-01T01:41:25.000Z</time>
      </trkpt>
      <trkpt lat="42.764969" lon="-2.485583">
        <ele>741.2</ele>
        <time>1970-01-01T01:41:30.000Z</time>
      </trkpt>
      <trkpt lat="42.765024" lon="-2.485628">
        <ele>741.4</ele>
        <time>1970-01-01T01:41:31.000Z</time>
      </trkpt>
      <trkpt lat="42.76508" lon="-2.48567">
        <ele>741.6</ele>
        <time>1970-01-01T01:41:32.000Z</time>
      </trkpt>
      <trkpt lat="42.765368" lon="-2.485829">
        <ele>742.8</ele>
        <time>1970-01-01T01:41:37.000Z</time>
      </trkpt>
      <trkpt lat="42.765425" lon="-2.485851">
        <ele>742.8</ele>
        <time>1970-01-01T01:41:38.000Z</time>
      </trkpt>
      <trkpt lat="42.765647" lon="-2.485943">
        <ele>743.4</ele>
        <time>1970-01-01T01:41:42.000Z</time>
      </trkpt>
      <trkpt lat="42.765852" lon="-2.486067">
        <ele>743.6</ele>
        <time>1970-01-01T01:41:46.000Z</time>
      </trkpt>
      <trkpt lat="42.7659" lon="-2.486101">
        <ele>743.8</ele>
        <time>1970-01-01T01:41:47.000Z</time>
      </trkpt>
      <trkpt lat="42.766128" lon="-2.486282">
        <ele>745</ele>
        <time>1970-01-01T01:41:52.000Z</time>
      </trkpt>
      <trkpt lat="42.766209" lon="-2.486375">
        <ele>745.6</ele>
        <time>1970-01-01T01:41:54.000Z</time>
      </trkpt>
      <trkpt lat="42.766251" lon="-2.486428">
        <ele>745.8</ele>
        <time>1970-01-01T01:41:55.000Z</time>
      </trkpt>
      <trkpt lat="42.766361" lon="-2.4866">
        <ele>746.4</ele>
        <time>1970-01-01T01:41:58.000Z</time>
      </trkpt>
      <trkpt lat="42.766426" lon="-2.48672">
        <ele>746.8</ele>
        <time>1970-01-01T01:42:00.000Z</time>
      </trkpt>
      <trkpt lat="42.766515" lon="-2.486922">
        <ele>748</ele>
        <time>1970-01-01T01:42:03.000Z</time>
      </trkpt>
      <trkpt lat="42.766597" lon="-2.487119">
        <ele>748.8</ele>
        <time>1970-01-01T01:42:06.000Z</time>
      </trkpt>
      <trkpt lat="42.766741" lon="-2.487459">
        <ele>750.4</ele>
        <time>1970-01-01T01:42:11.000Z</time>
      </trkpt>
      <trkpt lat="42.766805" lon="-2.487595">
        <ele>750.6</ele>
        <time>1970-01-01T01:42:13.000Z</time>
      </trkpt>
      <trkpt lat="42.766924" lon="-2.487848">
        <ele>751.2</ele>
        <time>1970-01-01T01:42:17.000Z</time>
      </trkpt>
      <trkpt lat="42.767051" lon="-2.488022">
        <ele>752.2</ele>
        <time>1970-01-01T01:42:20.000Z</time>
      </trkpt>
      <trkpt lat="42.767146" lon="-2.488125">
        <ele>752.4</ele>
        <time>1970-01-01T01:42:22.000Z</time>
      </trkpt>
      <trkpt lat="42.767399" lon="-2.488354">
        <ele>753.6</ele>
        <time>1970-01-01T01:42:27.000Z</time>
      </trkpt>
      <trkpt lat="42.767451" lon="-2.488398">
        <ele>753.8</ele>
        <time>1970-01-01T01:42:28.000Z</time>
      </trkpt>
      <trkpt lat="42.76775" lon="-2.488677">
        <ele>754.6</ele>
        <time>1970-01-01T01:42:34.000Z</time>
      </trkpt>
      <trkpt lat="42.7678" lon="-2.488723">
        <ele>754.8</ele>
        <time>1970-01-01T01:42:35.000Z</time>
      </trkpt>
      <trkpt lat="42.768132" lon="-2.489053">
        <ele>756.2</ele>
        <time>1970-01-01T01:42:42.000Z</time>
      </trkpt>
      <trkpt lat="42.768178" lon="-2.489101">
        <ele>756.2</ele>
        <time>1970-01-01T01:42:43.000Z</time>
      </trkpt>
      <trkpt lat="42.768575" lon="-2.489528">
        <ele>758.2</ele>
        <time>1970-01-01T01:42:52.000Z</time>
      </trkpt>
      <trkpt lat="42.768663" lon="-2.489626">
        <ele>758.4</ele>
        <time>1970-01-01T01:42:54.000Z</time>
      </trkpt>
      <trkpt lat="42.768989" lon="-2.489994">
        <ele>759.8</ele>
        <time>1970-01-01T01:43:01.000Z</time>
      </trkpt>
      <trkpt lat="42.769039" lon="-2.490047">
        <ele>760</ele>
        <time>1970-01-01T01:43:02.000Z</time>
      </trkpt>
      <trkpt lat="42.769356" lon="-2.490313">
        <ele>760.8</ele>
        <time>1970-01-01T01:43:08.000Z</time>
      </trkpt>
      <trkpt lat="42.769409" lon="-2.490343">
        <ele>760.8</ele>
        <time>1970-01-01T01:43:09.000Z</time>
      </trkpt>
      <trkpt lat="42.769523" lon="-2.490392">
        <ele>761</ele>
        <time>1970-01-01T01:43:11.000Z</time>
      </trkpt>
      <trkpt lat="42.769639" lon="-2.490421">
        <ele>761.2</ele>
        <time>1970-01-01T01:43:13.000Z</time>
      </trkpt>
      <trkpt lat="42.769867" lon="-2.490453">
        <ele>761.2</ele>
        <time>1970-01-01T01:43:17.000Z</time>
      </trkpt>
      <trkpt lat="42.769925" lon="-2.490458">
        <ele>761.4</ele>
        <time>1970-01-01T01:43:18.000Z</time>
      </trkpt>
      <trkpt lat="42.770161" lon="-2.490486">
        <ele>762.4</ele>
        <time>1970-01-01T01:43:22.000Z</time>
      </trkpt>
      <trkpt lat="42.770277" lon="-2.490505">
        <ele>763</ele>
        <time>1970-01-01T01:43:24.000Z</time>
      </trkpt>
      <trkpt lat="42.770334" lon="-2.490515">
        <ele>763.6</ele>
        <time>1970-01-01T01:43:25.000Z</time>
      </trkpt>
      <trkpt lat="42.770629" lon="-2.490609">
        <ele>765</ele>
        <time>1970-01-01T01:43:30.000Z</time>
      </trkpt>
      <trkpt lat="42.770682" lon="-2.490635">
        <ele>765.4</ele>
        <time>1970-01-01T01:43:31.000Z</time>
      </trkpt>
      <trkpt lat="42.770796" lon="-2.490689">
        <ele>766</ele>
        <time>1970-01-01T01:43:33.000Z</time>
      </trkpt>
      <trkpt lat="42.77102" lon="-2.490805">
        <ele>767.2</ele>
        <time>1970-01-01T01:43:37.000Z</time>
      </trkpt>
      <trkpt lat="42.771076" lon="-2.490842">
        <ele>767.4</ele>
        <time>1970-01-01T01:43:38.000Z</time>
      </trkpt>
      <trkpt lat="42.77124" lon="-2.490953">
        <ele>767.8</ele>
        <time>1970-01-01T01:43:41.000Z</time>
      </trkpt>
      <trkpt lat="42.771513" lon="-2.491147">
        <ele>769.6</ele>
        <time>1970-01-01T01:43:46.000Z</time>
      </trkpt>
      <trkpt lat="42.771673" lon="-2.491259">
        <ele>769.8</ele>
        <time>1970-01-01T01:43:49.000Z</time>
      </trkpt>
      <trkpt lat="42.77183" lon="-2.491366">
        <ele>770.4</ele>
        <time>1970-01-01T01:43:52.000Z</time>
      </trkpt>
      <trkpt lat="42.772083" lon="-2.491541">
        <ele>771.2</ele>
        <time>1970-01-01T01:43:57.000Z</time>
      </trkpt>
      <trkpt lat="42.772132" lon="-2.491577">
        <ele>771.4</ele>
        <time>1970-01-01T01:43:58.000Z</time>
      </trkpt>
      <trkpt lat="42.772279" lon="-2.491688">
        <ele>772.6</ele>
        <time>1970-01-01T01:44:01.000Z</time>
      </trkpt>
      <trkpt lat="42.772571" lon="-2.49189">
        <ele>773.6</ele>
        <time>1970-01-01T01:44:07.000Z</time>
      </trkpt>
      <trkpt lat="42.772755" lon="-2.492034">
        <ele>774.8</ele>
        <time>1970-01-01T01:44:11.000Z</time>
      </trkpt>
      <trkpt lat="42.77297" lon="-2.492242">
        <ele>776</ele>
        <time>1970-01-01T01:44:16.000Z</time>
      </trkpt>
      <trkpt lat="42.773009" lon="-2.492289">
        <ele>776.2</ele>
        <time>1970-01-01T01:44:17.000Z</time>
      </trkpt>
      <trkpt lat="42.773229" lon="-2.492615">
        <ele>778.2</ele>
        <time>1970-01-01T01:44:23.000Z</time>
      </trkpt>
      <trkpt lat="42.773364" lon="-2.492865">
        <ele>778.6</ele>
        <time>1970-01-01T01:44:27.000Z</time>
      </trkpt>
      <trkpt lat="42.77348" lon="-2.493127">
        <ele>779.4</ele>
        <time>1970-01-01T01:44:31.000Z</time>
      </trkpt>
      <trkpt lat="42.77358" lon="-2.493398">
        <ele>779.8</ele>
        <time>1970-01-01T01:44:35.000Z</time>
      </trkpt>
      <trkpt lat="42.773632" lon="-2.493528">
        <ele>780.2</ele>
        <time>1970-01-01T01:44:37.000Z</time>
      </trkpt>
      <trkpt lat="42.773661" lon="-2.493593">
        <ele>780.2</ele>
        <time>1970-01-01T01:44:38.000Z</time>
      </trkpt>
      <trkpt lat="42.773874" lon="-2.493953">
        <ele>781.2</ele>
        <time>1970-01-01T01:44:44.000Z</time>
      </trkpt>
      <trkpt lat="42.773916" lon="-2.494002">
        <ele>781.6</ele>
        <time>1970-01-01T01:44:45.000Z</time>
      </trkpt>
      <trkpt lat="42.774092" lon="-2.494179">
        <ele>782.6</ele>
        <time>1970-01-01T01:44:49.000Z</time>
      </trkpt>
      <trkpt lat="42.774186" lon="-2.494255">
        <ele>782.8</ele>
        <time>1970-01-01T01:44:51.000Z</time>
      </trkpt>
      <trkpt lat="42.774329" lon="-2.494377">
        <ele>783.2</ele>
        <time>1970-01-01T01:44:54.000Z</time>
      </trkpt>
      <trkpt lat="42.774682" lon="-2.494664">
        <ele>785.4</ele>
        <time>1970-01-01T01:45:01.000Z</time>
      </trkpt>
      <trkpt lat="42.77478" lon="-2.494747">
        <ele>785.8</ele>
        <time>1970-01-01T01:45:03.000Z</time>
      </trkpt>
      <trkpt lat="42.775069" lon="-2.494982">
        <ele>786.8</ele>
        <time>1970-01-01T01:45:09.000Z</time>
      </trkpt>
      <trkpt lat="42.775407" lon="-2.49526">
        <ele>788.2</ele>
        <time>1970-01-01T01:45:16.000Z</time>
      </trkpt>
      <trkpt lat="42.775655" lon="-2.495466">
        <ele>789.2</ele>
        <time>1970-01-01T01:45:21.000Z</time>
      </trkpt>
      <trkpt lat="42.775706" lon="-2.495508">
        <ele>789.4</ele>
        <time>1970-01-01T01:45:22.000Z</time>
      </trkpt>
      <trkpt lat="42.776018" lon="-2.495771">
        <ele>790.6</ele>
        <time>1970-01-01T01:45:28.000Z</time>
      </trkpt>
      <trkpt lat="42.776232" lon="-2.495952">
        <ele>791.2</ele>
        <time>1970-01-01T01:45:32.000Z</time>
      </trkpt>
      <trkpt lat="42.776499" lon="-2.496193">
        <ele>792</ele>
        <time>1970-01-01T01:45:37.000Z</time>
      </trkpt>
      <trkpt lat="42.776774" lon="-2.496451">
        <ele>792.6</ele>
        <time>1970-01-01T01:45:42.000Z</time>
      </trkpt>
      <trkpt lat="42.777153" lon="-2.496825">
        <ele>793</ele>
        <time>1970-01-01T01:45:49.000Z</time>
      </trkpt>
      <trkpt lat="42.777314" lon="-2.496989">
        <ele>793.2</ele>
        <time>1970-01-01T01:45:52.000Z</time>
      </trkpt>
      <trkpt lat="42.777628" lon="-2.497322">
        <ele>793</ele>
        <time>1970-01-01T01:45:58.000Z</time>
      </trkpt>
      <trkpt lat="42.777679" lon="-2.497379">
        <ele>793.2</ele>
        <time>1970-01-01T01:45:59.000Z</time>
      </trkpt>
      <trkpt lat="42.777977" lon="-2.497716">
        <ele>794</ele>
        <time>1970-01-01T01:46:05.000Z</time>
      </trkpt>
      <trkpt lat="42.778166" lon="-2.497937">
        <ele>794.4</ele>
        <time>1970-01-01T01:46:09.000Z</time>
      </trkpt>
      <trkpt lat="42.778376" lon="-2.498194">
        <ele>795.6</ele>
        <time>1970-01-01T01:46:14.000Z</time>
      </trkpt>
      <trkpt lat="42.778408" lon="-2.498243">
        <ele>795.8</ele>
        <time>1970-01-01T01:46:15.000Z</time>
      </trkpt>
      <trkpt lat="42.778447" lon="-2.49841">
        <ele>796.2</ele>
        <time>1970-01-01T01:46:18.000Z</time>
      </trkpt>
      <trkpt lat="42.77846" lon="-2.498499">
        <ele>796.6</ele>
        <time>1970-01-01T01:46:20.000Z</time>
      </trkpt>
      <trkpt lat="42.778475" lon="-2.498554">
        <ele>796.6</ele>
        <time>1970-01-01T01:46:22.000Z</time>
      </trkpt>
      <trkpt lat="42.778478" lon="-2.498569">
        <ele>797.2</ele>
        <time>1970-01-01T01:46:25.000Z</time>
      </trkpt>
      <trkpt lat="42.778982" lon="-2.498884">
        <ele>798.6</ele>
        <time>1970-01-01T01:47:12.000Z</time>
      </trkpt>
      <trkpt lat="42.779121" lon="-2.499051">
        <ele>798.6</ele>
        <time>1970-01-01T01:47:15.000Z</time>
      </trkpt>
      <trkpt lat="42.779262" lon="-2.499226">
        <ele>798.8</ele>
        <time>1970-01-01T01:47:18.000Z</time>
      </trkpt>
      <trkpt lat="42.779402" lon="-2.499397">
        <ele>799</ele>
        <time>1970-01-01T01:47:21.000Z</time>
      </trkpt>
      <trkpt lat="42.779588" lon="-2.499639">
        <ele>799.4</ele>
        <time>1970-01-01T01:47:25.000Z</time>
      </trkpt>
      <trkpt lat="42.779679" lon="-2.499764">
        <ele>799.6</ele>
        <time>1970-01-01T01:47:27.000Z</time>
      </trkpt>
      <trkpt lat="42.77986" lon="-2.500014">
        <ele>800</ele>
        <time>1970-01-01T01:47:31.000Z</time>
      </trkpt>
      <trkpt lat="42.779992" lon="-2.500191">
        <ele>800.4</ele>
        <time>1970-01-01T01:47:34.000Z</time>
      </trkpt>
      <trkpt lat="42.780116" lon="-2.500364">
        <ele>801</ele>
        <time>1970-01-01T01:47:37.000Z</time>
      </trkpt>
      <trkpt lat="42.78023" lon="-2.500533">
        <ele>802</ele>
        <time>1970-01-01T01:47:40.000Z</time>
      </trkpt>
      <trkpt lat="42.780342" lon="-2.500687">
        <ele>803</ele>
        <time>1970-01-01T01:47:43.000Z</time>
      </trkpt>
      <trkpt lat="42.780375" lon="-2.500738">
        <ele>803.4</ele>
        <time>1970-01-01T01:47:44.000Z</time>
      </trkpt>
      <trkpt lat="42.780547" lon="-2.500982">
        <ele>805</ele>
        <time>1970-01-01T01:47:49.000Z</time>
      </trkpt>
      <trkpt lat="42.780648" lon="-2.501126">
        <ele>806</ele>
        <time>1970-01-01T01:47:52.000Z</time>
      </trkpt>
      <trkpt lat="42.780685" lon="-2.501177">
        <ele>806.4</ele>
        <time>1970-01-01T01:47:53.000Z</time>
      </trkpt>
      <trkpt lat="42.780928" lon="-2.501522">
        <ele>808.2</ele>
        <time>1970-01-01T01:47:59.000Z</time>
      </trkpt>
      <trkpt lat="42.780972" lon="-2.501582">
        <ele>808.6</ele>
        <time>1970-01-01T01:48:00.000Z</time>
      </trkpt>
      <trkpt lat="42.781168" lon="-2.50187">
        <ele>809.8</ele>
        <time>1970-01-01T01:48:05.000Z</time>
      </trkpt>
      <trkpt lat="42.781241" lon="-2.501974">
        <ele>810.2</ele>
        <time>1970-01-01T01:48:07.000Z</time>
      </trkpt>
      <trkpt lat="42.781277" lon="-2.502024">
        <ele>810.2</ele>
        <time>1970-01-01T01:48:08.000Z</time>
      </trkpt>
      <trkpt lat="42.781417" lon="-2.50222">
        <ele>811.2</ele>
        <time>1970-01-01T01:48:12.000Z</time>
      </trkpt>
      <trkpt lat="42.781549" lon="-2.502401">
        <ele>811.8</ele>
        <time>1970-01-01T01:48:16.000Z</time>
      </trkpt>
      <trkpt lat="42.781673" lon="-2.502579">
        <ele>813</ele>
        <time>1970-01-01T01:48:20.000Z</time>
      </trkpt>
      <trkpt lat="42.781793" lon="-2.502748">
        <ele>814.4</ele>
        <time>1970-01-01T01:48:24.000Z</time>
      </trkpt>
      <trkpt lat="42.781881" lon="-2.502868">
        <ele>815.4</ele>
        <time>1970-01-01T01:48:27.000Z</time>
      </trkpt>
      <trkpt lat="42.78191" lon="-2.502909">
        <ele>815.6</ele>
        <time>1970-01-01T01:48:28.000Z</time>
      </trkpt>
      <trkpt lat="42.781998" lon="-2.50303">
        <ele>816.6</ele>
        <time>1970-01-01T01:48:31.000Z</time>
      </trkpt>
      <trkpt lat="42.782144" lon="-2.503231">
        <ele>817.6</ele>
        <time>1970-01-01T01:48:36.000Z</time>
      </trkpt>
      <trkpt lat="42.782238" lon="-2.503343">
        <ele>818.6</ele>
        <time>1970-01-01T01:48:39.000Z</time>
      </trkpt>
      <trkpt lat="42.78227" lon="-2.503379">
        <ele>819.2</ele>
        <time>1970-01-01T01:48:40.000Z</time>
      </trkpt>
      <trkpt lat="42.782437" lon="-2.503543">
        <ele>820.8</ele>
        <time>1970-01-01T01:48:45.000Z</time>
      </trkpt>
      <trkpt lat="42.782575" lon="-2.503656">
        <ele>821.8</ele>
        <time>1970-01-01T01:48:49.000Z</time>
      </trkpt>
      <trkpt lat="42.78261" lon="-2.503682">
        <ele>822</ele>
        <time>1970-01-01T01:48:50.000Z</time>
      </trkpt>
      <trkpt lat="42.78283" lon="-2.503822">
        <ele>823.2</ele>
        <time>1970-01-01T01:48:56.000Z</time>
      </trkpt>
      <trkpt lat="42.782866" lon="-2.503844">
        <ele>823.2</ele>
        <time>1970-01-01T01:48:57.000Z</time>
      </trkpt>
      <trkpt lat="42.782974" lon="-2.503903">
        <ele>824.4</ele>
        <time>1970-01-01T01:49:00.000Z</time>
      </trkpt>
      <trkpt lat="42.783132" lon="-2.503966">
        <ele>825.2</ele>
        <time>1970-01-01T01:49:04.000Z</time>
      </trkpt>
      <trkpt lat="42.783174" lon="-2.503983">
        <ele>825.6</ele>
        <time>1970-01-01T01:49:05.000Z</time>
      </trkpt>
      <trkpt lat="42.783339" lon="-2.504036">
        <ele>827</ele>
        <time>1970-01-01T01:49:09.000Z</time>
      </trkpt>
      <trkpt lat="42.783424" lon="-2.50406">
        <ele>827.4</ele>
        <time>1970-01-01T01:49:11.000Z</time>
      </trkpt>
      <trkpt lat="42.783509" lon="-2.504076">
        <ele>828.2</ele>
        <time>1970-01-01T01:49:13.000Z</time>
      </trkpt>
      <trkpt lat="42.783628" lon="-2.504093">
        <ele>829</ele>
        <time>1970-01-01T01:49:16.000Z</time>
      </trkpt>
      <trkpt lat="42.78378" lon="-2.504123">
        <ele>830.2</ele>
        <time>1970-01-01T01:49:20.000Z</time>
      </trkpt>
      <trkpt lat="42.783819" lon="-2.504127">
        <ele>830.8</ele>
        <time>1970-01-01T01:49:21.000Z</time>
      </trkpt>
      <trkpt lat="42.783967" lon="-2.504155">
        <ele>831.8</ele>
        <time>1970-01-01T01:49:25.000Z</time>
      </trkpt>
      <trkpt lat="42.784047" lon="-2.504164">
        <ele>832.4</ele>
        <time>1970-01-01T01:49:27.000Z</time>
      </trkpt>
      <trkpt lat="42.784125" lon="-2.504171">
        <ele>832.8</ele>
        <time>1970-01-01T01:49:29.000Z</time>
      </trkpt>
      <trkpt lat="42.784323" lon="-2.504202">
        <ele>834.8</ele>
        <time>1970-01-01T01:49:34.000Z</time>
      </trkpt>
      <trkpt lat="42.784493" lon="-2.504241">
        <ele>835.6</ele>
        <time>1970-01-01T01:49:38.000Z</time>
      </trkpt>
      <trkpt lat="42.78458" lon="-2.504264">
        <ele>836.2</ele>
        <time>1970-01-01T01:49:40.000Z</time>
      </trkpt>
      <trkpt lat="42.784788" lon="-2.504345">
        <ele>837.6</ele>
        <time>1970-01-01T01:49:45.000Z</time>
      </trkpt>
      <trkpt lat="42.784902" lon="-2.504395">
        <ele>838.6</ele>
        <time>1970-01-01T01:49:48.000Z</time>
      </trkpt>
      <trkpt lat="42.785105" lon="-2.504542">
        <ele>839.4</ele>
        <time>1970-01-01T01:49:53.000Z</time>
      </trkpt>
      <trkpt lat="42.78519" lon="-2.504604">
        <ele>840</ele>
        <time>1970-01-01T01:49:55.000Z</time>
      </trkpt>
      <trkpt lat="42.785275" lon="-2.504674">
        <ele>840.8</ele>
        <time>1970-01-01T01:49:57.000Z</time>
      </trkpt>
      <trkpt lat="42.785422" lon="-2.504813">
        <ele>841.8</ele>
        <time>1970-01-01T01:50:01.000Z</time>
      </trkpt>
      <trkpt lat="42.785553" lon="-2.504961">
        <ele>842.4</ele>
        <time>1970-01-01T01:50:05.000Z</time>
      </trkpt>
      <trkpt lat="42.785641" lon="-2.505073">
        <ele>843.2</ele>
        <time>1970-01-01T01:50:08.000Z</time>
      </trkpt>
      <trkpt lat="42.785691" lon="-2.505149">
        <ele>843.8</ele>
        <time>1970-01-01T01:50:10.000Z</time>
      </trkpt>
      <trkpt lat="42.785799" lon="-2.505318">
        <ele>845.4</ele>
        <time>1970-01-01T01:50:14.000Z</time>
      </trkpt>
      <trkpt lat="42.785875" lon="-2.505454">
        <ele>846</ele>
        <time>1970-01-01T01:50:17.000Z</time>
      </trkpt>
      <trkpt lat="42.785949" lon="-2.505587">
        <ele>847.2</ele>
        <time>1970-01-01T01:50:20.000Z</time>
      </trkpt>
      <trkpt lat="42.786045" lon="-2.505768">
        <ele>848.2</ele>
        <time>1970-01-01T01:50:24.000Z</time>
      </trkpt>
      <trkpt lat="42.786092" lon="-2.505862">
        <ele>848.2</ele>
        <time>1970-01-01T01:50:26.000Z</time>
      </trkpt>
      <trkpt lat="42.786158" lon="-2.506004">
        <ele>848.6</ele>
        <time>1970-01-01T01:50:29.000Z</time>
      </trkpt>
      <trkpt lat="42.786276" lon="-2.506245">
        <ele>850.2</ele>
        <time>1970-01-01T01:50:34.000Z</time>
      </trkpt>
      <trkpt lat="42.786328" lon="-2.506347">
        <ele>850.8</ele>
        <time>1970-01-01T01:50:36.000Z</time>
      </trkpt>
      <trkpt lat="42.786355" lon="-2.506399">
        <ele>851.2</ele>
        <time>1970-01-01T01:50:37.000Z</time>
      </trkpt>
      <trkpt lat="42.78644" lon="-2.506561">
        <ele>852.2</ele>
        <time>1970-01-01T01:50:40.000Z</time>
      </trkpt>
      <trkpt lat="42.786549" lon="-2.506727">
        <ele>852.8</ele>
        <time>1970-01-01T01:50:43.000Z</time>
      </trkpt>
      <trkpt lat="42.786586" lon="-2.50678">
        <ele>853</ele>
        <time>1970-01-01T01:50:44.000Z</time>
      </trkpt>
      <trkpt lat="42.786731" lon="-2.506978">
        <ele>854.6</ele>
        <time>1970-01-01T01:50:48.000Z</time>
      </trkpt>
      <trkpt lat="42.786864" lon="-2.507153">
        <ele>856</ele>
        <time>1970-01-01T01:50:52.000Z</time>
      </trkpt>
      <trkpt lat="42.786997" lon="-2.507306">
        <ele>857.6</ele>
        <time>1970-01-01T01:50:56.000Z</time>
      </trkpt>
      <trkpt lat="42.787034" lon="-2.507345">
        <ele>857.8</ele>
        <time>1970-01-01T01:50:57.000Z</time>
      </trkpt>
      <trkpt lat="42.787112" lon="-2.507415">
        <ele>858.8</ele>
        <time>1970-01-01T01:50:59.000Z</time>
      </trkpt>
      <trkpt lat="42.787151" lon="-2.507452">
        <ele>859.2</ele>
        <time>1970-01-01T01:51:00.000Z</time>
      </trkpt>
      <trkpt lat="42.78723" lon="-2.507533">
        <ele>860</ele>
        <time>1970-01-01T01:51:02.000Z</time>
      </trkpt>
      <trkpt lat="42.787354" lon="-2.507644">
        <ele>860.6</ele>
        <time>1970-01-01T01:51:05.000Z</time>
      </trkpt>
      <trkpt lat="42.787437" lon="-2.507722">
        <ele>861.4</ele>
        <time>1970-01-01T01:51:07.000Z</time>
      </trkpt>
      <trkpt lat="42.787478" lon="-2.507759">
        <ele>861.8</ele>
        <time>1970-01-01T01:51:08.000Z</time>
      </trkpt>
      <trkpt lat="42.787603" lon="-2.507879">
        <ele>862.8</ele>
        <time>1970-01-01T01:51:11.000Z</time>
      </trkpt>
      <trkpt lat="42.787647" lon="-2.507921">
        <ele>863</ele>
        <time>1970-01-01T01:51:12.000Z</time>
      </trkpt>
      <trkpt lat="42.787855" lon="-2.508101">
        <ele>865</ele>
        <time>1970-01-01T01:51:17.000Z</time>
      </trkpt>
      <trkpt lat="42.788013" lon="-2.508239">
        <ele>866</ele>
        <time>1970-01-01T01:51:21.000Z</time>
      </trkpt>
      <trkpt lat="42.788089" lon="-2.50831">
        <ele>866.6</ele>
        <time>1970-01-01T01:51:23.000Z</time>
      </trkpt>
      <trkpt lat="42.788199" lon="-2.508412">
        <ele>867.8</ele>
        <time>1970-01-01T01:51:26.000Z</time>
      </trkpt>
      <trkpt lat="42.788235" lon="-2.508445">
        <ele>868</ele>
        <time>1970-01-01T01:51:27.000Z</time>
      </trkpt>
      <trkpt lat="42.788413" lon="-2.508621">
        <ele>870</ele>
        <time>1970-01-01T01:51:32.000Z</time>
      </trkpt>
      <trkpt lat="42.78856" lon="-2.508762">
        <ele>871.6</ele>
        <time>1970-01-01T01:51:36.000Z</time>
      </trkpt>
      <trkpt lat="42.788599" lon="-2.508802">
        <ele>871.6</ele>
        <time>1970-01-01T01:51:37.000Z</time>
      </trkpt>
      <trkpt lat="42.788766" lon="-2.508962">
        <ele>872.8</ele>
        <time>1970-01-01T01:51:41.000Z</time>
      </trkpt>
      <trkpt lat="42.788887" lon="-2.509079">
        <ele>873.6</ele>
        <time>1970-01-01T01:51:44.000Z</time>
      </trkpt>
      <trkpt lat="42.788965" lon="-2.509157">
        <ele>874.2</ele>
        <time>1970-01-01T01:51:46.000Z</time>
      </trkpt>
      <trkpt lat="42.789133" lon="-2.509309">
        <ele>875.2</ele>
        <time>1970-01-01T01:51:50.000Z</time>
      </trkpt>
      <trkpt lat="42.789269" lon="-2.509431">
        <ele>876.4</ele>
        <time>1970-01-01T01:51:53.000Z</time>
      </trkpt>
      <trkpt lat="42.789538" lon="-2.509711">
        <ele>877.6</ele>
        <time>1970-01-01T01:51:59.000Z</time>
      </trkpt>
      <trkpt lat="42.789615" lon="-2.509812">
        <ele>877.8</ele>
        <time>1970-01-01T01:52:01.000Z</time>
      </trkpt>
      <trkpt lat="42.789708" lon="-2.509912">
        <ele>878</ele>
        <time>1970-01-01T01:52:04.000Z</time>
      </trkpt>
      <trkpt lat="42.789724" lon="-2.509923">
        <ele>878.2</ele>
        <time>1970-01-01T01:52:05.000Z</time>
      </trkpt>
      <trkpt lat="42.789732" lon="-2.509931">
        <ele>878.4</ele>
        <time>1970-01-01T01:52:07.000Z</time>
      </trkpt>
      <trkpt lat="42.789721" lon="-2.50991">
        <ele>880.8</ele>
        <time>1970-01-01T01:55:13.000Z</time>
      </trkpt>
      <trkpt lat="42.789734" lon="-2.509933">
        <ele>880.6</ele>
        <time>1970-01-01T01:55:14.000Z</time>
      </trkpt>
      <trkpt lat="42.789777" lon="-2.510034">
        <ele>880.6</ele>
        <time>1970-01-01T01:55:17.000Z</time>
      </trkpt>
      <trkpt lat="42.789827" lon="-2.510155">
        <ele>880.6</ele>
        <time>1970-01-01T01:55:20.000Z</time>
      </trkpt>
      <trkpt lat="42.789842" lon="-2.510197">
        <ele>880.6</ele>
        <time>1970-01-01T01:55:21.000Z</time>
      </trkpt>
      <trkpt lat="42.789904" lon="-2.510439">
        <ele>880.6</ele>
        <time>1970-01-01T01:55:26.000Z</time>
      </trkpt>
      <trkpt lat="42.789913" lon="-2.510498">
        <ele>880.6</ele>
        <time>1970-01-01T01:55:27.000Z</time>
      </trkpt>
      <trkpt lat="42.789931" lon="-2.51063">
        <ele>880.6</ele>
        <time>1970-01-01T01:55:29.000Z</time>
      </trkpt>
      <trkpt lat="42.78995" lon="-2.510949">
        <ele>880.4</ele>
        <time>1970-01-01T01:55:33.000Z</time>
      </trkpt>
      <trkpt lat="42.789966" lon="-2.511332">
        <ele>880.2</ele>
        <time>1970-01-01T01:55:37.000Z</time>
      </trkpt>
      <trkpt lat="42.78997" lon="-2.511442">
        <ele>880.2</ele>
        <time>1970-01-01T01:55:38.000Z</time>
      </trkpt>
      <trkpt lat="42.789973" lon="-2.511554">
        <ele>880.2</ele>
        <time>1970-01-01T01:55:39.000Z</time>
      </trkpt>
      <trkpt lat="42.789993" lon="-2.512027">
        <ele>879.6</ele>
        <time>1970-01-01T01:55:43.000Z</time>
      </trkpt>
      <trkpt lat="42.789998" lon="-2.512158">
        <ele>879.6</ele>
        <time>1970-01-01T01:55:44.000Z</time>
      </trkpt>
      <trkpt lat="42.790004" lon="-2.512292">
        <ele>879.4</ele>
        <time>1970-01-01T01:55:45.000Z</time>
      </trkpt>
      <trkpt lat="42.790021" lon="-2.512575">
        <ele>878.4</ele>
        <time>1970-01-01T01:55:47.000Z</time>
      </trkpt>
      <trkpt lat="42.790057" lon="-2.512866">
        <ele>877.2</ele>
        <time>1970-01-01T01:55:49.000Z</time>
      </trkpt>
      <trkpt lat="42.790111" lon="-2.513164">
        <ele>876.4</ele>
        <time>1970-01-01T01:55:51.000Z</time>
      </trkpt>
      <trkpt lat="42.790149" lon="-2.513315">
        <ele>875.8</ele>
        <time>1970-01-01T01:55:52.000Z</time>
      </trkpt>
      <trkpt lat="42.790189" lon="-2.513467">
        <ele>875.8</ele>
        <time>1970-01-01T01:55:53.000Z</time>
      </trkpt>
      <trkpt lat="42.790286" lon="-2.513773">
        <ele>874.2</ele>
        <time>1970-01-01T01:55:55.000Z</time>
      </trkpt>
      <trkpt lat="42.790339" lon="-2.513928">
        <ele>873.4</ele>
        <time>1970-01-01T01:55:56.000Z</time>
      </trkpt>
      <trkpt lat="42.790442" lon="-2.51424">
        <ele>871.8</ele>
        <time>1970-01-01T01:55:58.000Z</time>
      </trkpt>
      <trkpt lat="42.790494" lon="-2.514398">
        <ele>871.2</ele>
        <time>1970-01-01T01:55:59.000Z</time>
      </trkpt>
      <trkpt lat="42.79055" lon="-2.514558">
        <ele>870.8</ele>
        <time>1970-01-01T01:56:00.000Z</time>
      </trkpt>
      <trkpt lat="42.790657" lon="-2.514881">
        <ele>869.2</ele>
        <time>1970-01-01T01:56:02.000Z</time>
      </trkpt>
      <trkpt lat="42.7907" lon="-2.515047">
        <ele>868.2</ele>
        <time>1970-01-01T01:56:03.000Z</time>
      </trkpt>
      <trkpt lat="42.790734" lon="-2.515226">
        <ele>867.2</ele>
        <time>1970-01-01T01:56:04.000Z</time>
      </trkpt>
      <trkpt lat="42.790759" lon="-2.515414">
        <ele>865.8</ele>
        <time>1970-01-01T01:56:05.000Z</time>
      </trkpt>
      <trkpt lat="42.790768" lon="-2.515605">
        <ele>864.8</ele>
        <time>1970-01-01T01:56:06.000Z</time>
      </trkpt>
      <trkpt lat="42.790765" lon="-2.515799">
        <ele>864.2</ele>
        <time>1970-01-01T01:56:07.000Z</time>
      </trkpt>
      <trkpt lat="42.790756" lon="-2.515995">
        <ele>863</ele>
        <time>1970-01-01T01:56:08.000Z</time>
      </trkpt>
      <trkpt lat="42.790743" lon="-2.516186">
        <ele>861.8</ele>
        <time>1970-01-01T01:56:09.000Z</time>
      </trkpt>
      <trkpt lat="42.790704" lon="-2.516573">
        <ele>859.8</ele>
        <time>1970-01-01T01:56:11.000Z</time>
      </trkpt>
      <trkpt lat="42.790669" lon="-2.516966">
        <ele>857.2</ele>
        <time>1970-01-01T01:56:13.000Z</time>
      </trkpt>
      <trkpt lat="42.790637" lon="-2.517158">
        <ele>855.8</ele>
        <time>1970-01-01T01:56:14.000Z</time>
      </trkpt>
      <trkpt lat="42.790593" lon="-2.517343">
        <ele>854.6</ele>
        <time>1970-01-01T01:56:15.000Z</time>
      </trkpt>
      <trkpt lat="42.790536" lon="-2.51752">
        <ele>854.6</ele>
        <time>1970-01-01T01:56:16.000Z</time>
      </trkpt>
      <trkpt lat="42.79038" lon="-2.517837">
        <ele>851.8</ele>
        <time>1970-01-01T01:56:18.000Z</time>
      </trkpt>
      <trkpt lat="42.790092" lon="-2.518446">
        <ele>848</ele>
        <time>1970-01-01T01:56:22.000Z</time>
      </trkpt>
      <trkpt lat="42.790038" lon="-2.518609">
        <ele>847</ele>
        <time>1970-01-01T01:56:23.000Z</time>
      </trkpt>
      <trkpt lat="42.789994" lon="-2.518776">
        <ele>846.2</ele>
        <time>1970-01-01T01:56:24.000Z</time>
      </trkpt>
      <trkpt lat="42.789949" lon="-2.519123">
        <ele>844.8</ele>
        <time>1970-01-01T01:56:26.000Z</time>
      </trkpt>
      <trkpt lat="42.789939" lon="-2.519482">
        <ele>844.4</ele>
        <time>1970-01-01T01:56:28.000Z</time>
      </trkpt>
      <trkpt lat="42.789943" lon="-2.519661">
        <ele>844.2</ele>
        <time>1970-01-01T01:56:29.000Z</time>
      </trkpt>
      <trkpt lat="42.78994" lon="-2.519844">
        <ele>844</ele>
        <time>1970-01-01T01:56:30.000Z</time>
      </trkpt>
      <trkpt lat="42.789927" lon="-2.520029">
        <ele>844</ele>
        <time>1970-01-01T01:56:31.000Z</time>
      </trkpt>
      <trkpt lat="42.789894" lon="-2.520208">
        <ele>843.8</ele>
        <time>1970-01-01T01:56:32.000Z</time>
      </trkpt>
      <trkpt lat="42.789851" lon="-2.520382">
        <ele>843.6</ele>
        <time>1970-01-01T01:56:33.000Z</time>
      </trkpt>
      <trkpt lat="42.789791" lon="-2.52055">
        <ele>843</ele>
        <time>1970-01-01T01:56:34.000Z</time>
      </trkpt>
      <trkpt lat="42.789638" lon="-2.520886">
        <ele>841.6</ele>
        <time>1970-01-01T01:56:36.000Z</time>
      </trkpt>
      <trkpt lat="42.78956" lon="-2.521055">
        <ele>841</ele>
        <time>1970-01-01T01:56:37.000Z</time>
      </trkpt>
      <trkpt lat="42.789367" lon="-2.521588">
        <ele>839.2</ele>
        <time>1970-01-01T01:56:40.000Z</time>
      </trkpt>
      <trkpt lat="42.789353" lon="-2.521789">
        <ele>838.2</ele>
        <time>1970-01-01T01:56:41.000Z</time>
      </trkpt>
      <trkpt lat="42.789356" lon="-2.521991">
        <ele>837.4</ele>
        <time>1970-01-01T01:56:42.000Z</time>
      </trkpt>
      <trkpt lat="42.789377" lon="-2.522192">
        <ele>835.8</ele>
        <time>1970-01-01T01:56:43.000Z</time>
      </trkpt>
      <trkpt lat="42.789418" lon="-2.522385">
        <ele>834.6</ele>
        <time>1970-01-01T01:56:44.000Z</time>
      </trkpt>
      <trkpt lat="42.789483" lon="-2.522568">
        <ele>833.4</ele>
        <time>1970-01-01T01:56:45.000Z</time>
      </trkpt>
      <trkpt lat="42.789564" lon="-2.522743">
        <ele>832.6</ele>
        <time>1970-01-01T01:56:46.000Z</time>
      </trkpt>
      <trkpt lat="42.78966" lon="-2.522903">
        <ele>831.4</ele>
        <time>1970-01-01T01:56:47.000Z</time>
      </trkpt>
      <trkpt lat="42.789775" lon="-2.523048">
        <ele>830.8</ele>
        <time>1970-01-01T01:56:48.000Z</time>
      </trkpt>
      <trkpt lat="42.789907" lon="-2.523171">
        <ele>830.4</ele>
        <time>1970-01-01T01:56:49.000Z</time>
      </trkpt>
      <trkpt lat="42.790044" lon="-2.523275">
        <ele>829.8</ele>
        <time>1970-01-01T01:56:50.000Z</time>
      </trkpt>
      <trkpt lat="42.790188" lon="-2.523365">
        <ele>829</ele>
        <time>1970-01-01T01:56:51.000Z</time>
      </trkpt>
      <trkpt lat="42.790334" lon="-2.523454">
        <ele>828.6</ele>
        <time>1970-01-01T01:56:52.000Z</time>
      </trkpt>
      <trkpt lat="42.790473" lon="-2.523548">
        <ele>827.6</ele>
        <time>1970-01-01T01:56:53.000Z</time>
      </trkpt>
      <trkpt lat="42.790604" lon="-2.523658">
        <ele>826.6</ele>
        <time>1970-01-01T01:56:54.000Z</time>
      </trkpt>
      <trkpt lat="42.790723" lon="-2.523791">
        <ele>825.4</ele>
        <time>1970-01-01T01:56:55.000Z</time>
      </trkpt>
      <trkpt lat="42.79083" lon="-2.523948">
        <ele>824.6</ele>
        <time>1970-01-01T01:56:56.000Z</time>
      </trkpt>
      <trkpt lat="42.790997" lon="-2.524304">
        <ele>821.8</ele>
        <time>1970-01-01T01:56:58.000Z</time>
      </trkpt>
      <trkpt lat="42.791056" lon="-2.524503">
        <ele>820.4</ele>
        <time>1970-01-01T01:56:59.000Z</time>
      </trkpt>
      <trkpt lat="42.791097" lon="-2.524713">
        <ele>818.8</ele>
        <time>1970-01-01T01:57:00.000Z</time>
      </trkpt>
      <trkpt lat="42.791128" lon="-2.524929">
        <ele>817.4</ele>
        <time>1970-01-01T01:57:01.000Z</time>
      </trkpt>
      <trkpt lat="42.79116" lon="-2.525146">
        <ele>816.4</ele>
        <time>1970-01-01T01:57:02.000Z</time>
      </trkpt>
      <trkpt lat="42.791221" lon="-2.525591">
        <ele>814.8</ele>
        <time>1970-01-01T01:57:04.000Z</time>
      </trkpt>
      <trkpt lat="42.791253" lon="-2.525818">
        <ele>812.8</ele>
        <time>1970-01-01T01:57:05.000Z</time>
      </trkpt>
      <trkpt lat="42.791309" lon="-2.526281">
        <ele>808.6</ele>
        <time>1970-01-01T01:57:07.000Z</time>
      </trkpt>
      <trkpt lat="42.791336" lon="-2.526509">
        <ele>806.8</ele>
        <time>1970-01-01T01:57:08.000Z</time>
      </trkpt>
      <trkpt lat="42.791363" lon="-2.52673">
        <ele>805.2</ele>
        <time>1970-01-01T01:57:09.000Z</time>
      </trkpt>
      <trkpt lat="42.791416" lon="-2.527157">
        <ele>801.6</ele>
        <time>1970-01-01T01:57:11.000Z</time>
      </trkpt>
      <trkpt lat="42.791445" lon="-2.527358">
        <ele>800</ele>
        <time>1970-01-01T01:57:12.000Z</time>
      </trkpt>
      <trkpt lat="42.791583" lon="-2.527937">
        <ele>796.4</ele>
        <time>1970-01-01T01:57:15.000Z</time>
      </trkpt>
      <trkpt lat="42.791663" lon="-2.528113">
        <ele>794.8</ele>
        <time>1970-01-01T01:57:16.000Z</time>
      </trkpt>
      <trkpt lat="42.791763" lon="-2.528275">
        <ele>792.8</ele>
        <time>1970-01-01T01:57:17.000Z</time>
      </trkpt>
      <trkpt lat="42.791881" lon="-2.528414">
        <ele>791</ele>
        <time>1970-01-01T01:57:18.000Z</time>
      </trkpt>
      <trkpt lat="42.792017" lon="-2.528529">
        <ele>789.8</ele>
        <time>1970-01-01T01:57:19.000Z</time>
      </trkpt>
      <trkpt lat="42.792307" lon="-2.528691">
        <ele>787.4</ele>
        <time>1970-01-01T01:57:21.000Z</time>
      </trkpt>
      <trkpt lat="42.792463" lon="-2.528733">
        <ele>786.8</ele>
        <time>1970-01-01T01:57:22.000Z</time>
      </trkpt>
      <trkpt lat="42.79262" lon="-2.528757">
        <ele>786.6</ele>
        <time>1970-01-01T01:57:23.000Z</time>
      </trkpt>
      <trkpt lat="42.792779" lon="-2.528769">
        <ele>785.6</ele>
        <time>1970-01-01T01:57:24.000Z</time>
      </trkpt>
      <trkpt lat="42.792938" lon="-2.528785">
        <ele>784.8</ele>
        <time>1970-01-01T01:57:25.000Z</time>
      </trkpt>
      <trkpt lat="42.7931" lon="-2.528814">
        <ele>784.8</ele>
        <time>1970-01-01T01:57:26.000Z</time>
      </trkpt>
      <trkpt lat="42.793258" lon="-2.528868">
        <ele>783.8</ele>
        <time>1970-01-01T01:57:27.000Z</time>
      </trkpt>
      <trkpt lat="42.793409" lon="-2.528947">
        <ele>782.2</ele>
        <time>1970-01-01T01:57:28.000Z</time>
      </trkpt>
      <trkpt lat="42.793553" lon="-2.52904">
        <ele>780.4</ele>
        <time>1970-01-01T01:57:29.000Z</time>
      </trkpt>
      <trkpt lat="42.793694" lon="-2.529135">
        <ele>779</ele>
        <time>1970-01-01T01:57:30.000Z</time>
      </trkpt>
      <trkpt lat="42.793833" lon="-2.529231">
        <ele>777.6</ele>
        <time>1970-01-01T01:57:31.000Z</time>
      </trkpt>
      <trkpt lat="42.793971" lon="-2.529332">
        <ele>775.6</ele>
        <time>1970-01-01T01:57:32.000Z</time>
      </trkpt>
      <trkpt lat="42.794247" lon="-2.529547">
        <ele>772.8</ele>
        <time>1970-01-01T01:57:34.000Z</time>
      </trkpt>
      <trkpt lat="42.794519" lon="-2.529741">
        <ele>770.6</ele>
        <time>1970-01-01T01:57:36.000Z</time>
      </trkpt>
      <trkpt lat="42.794797" lon="-2.529881">
        <ele>768</ele>
        <time>1970-01-01T01:57:38.000Z</time>
      </trkpt>
      <trkpt lat="42.794942" lon="-2.529917">
        <ele>766.6</ele>
        <time>1970-01-01T01:57:39.000Z</time>
      </trkpt>
      <trkpt lat="42.795089" lon="-2.52992">
        <ele>764.8</ele>
        <time>1970-01-01T01:57:40.000Z</time>
      </trkpt>
      <trkpt lat="42.795233" lon="-2.529894">
        <ele>764</ele>
        <time>1970-01-01T01:57:41.000Z</time>
      </trkpt>
      <trkpt lat="42.795376" lon="-2.529834">
        <ele>763.2</ele>
        <time>1970-01-01T01:57:42.000Z</time>
      </trkpt>
      <trkpt lat="42.795642" lon="-2.529648">
        <ele>760</ele>
        <time>1970-01-01T01:57:44.000Z</time>
      </trkpt>
      <trkpt lat="42.795771" lon="-2.529541">
        <ele>758.8</ele>
        <time>1970-01-01T01:57:45.000Z</time>
      </trkpt>
      <trkpt lat="42.79617" lon="-2.529252">
        <ele>756</ele>
        <time>1970-01-01T01:57:48.000Z</time>
      </trkpt>
      <trkpt lat="42.796312" lon="-2.529192">
        <ele>756</ele>
        <time>1970-01-01T01:57:49.000Z</time>
      </trkpt>
      <trkpt lat="42.796459" lon="-2.529155">
        <ele>754.2</ele>
        <time>1970-01-01T01:57:50.000Z</time>
      </trkpt>
      <trkpt lat="42.79661" lon="-2.529138">
        <ele>753.2</ele>
        <time>1970-01-01T01:57:51.000Z</time>
      </trkpt>
      <trkpt lat="42.796762" lon="-2.529128">
        <ele>752.4</ele>
        <time>1970-01-01T01:57:52.000Z</time>
      </trkpt>
      <trkpt lat="42.797062" lon="-2.529129">
        <ele>751.2</ele>
        <time>1970-01-01T01:57:54.000Z</time>
      </trkpt>
      <trkpt lat="42.797368" lon="-2.52914">
        <ele>749.6</ele>
        <time>1970-01-01T01:57:56.000Z</time>
      </trkpt>
      <trkpt lat="42.797522" lon="-2.529144">
        <ele>748.8</ele>
        <time>1970-01-01T01:57:57.000Z</time>
      </trkpt>
      <trkpt lat="42.797676" lon="-2.529147">
        <ele>748.2</ele>
        <time>1970-01-01T01:57:58.000Z</time>
      </trkpt>
      <trkpt lat="42.797828" lon="-2.529151">
        <ele>747.8</ele>
        <time>1970-01-01T01:57:59.000Z</time>
      </trkpt>
      <trkpt lat="42.797979" lon="-2.529153">
        <ele>746.6</ele>
        <time>1970-01-01T01:58:00.000Z</time>
      </trkpt>
      <trkpt lat="42.798275" lon="-2.529147">
        <ele>743.8</ele>
        <time>1970-01-01T01:58:02.000Z</time>
      </trkpt>
      <trkpt lat="42.798422" lon="-2.529131">
        <ele>742.8</ele>
        <time>1970-01-01T01:58:03.000Z</time>
      </trkpt>
      <trkpt lat="42.79857" lon="-2.529105">
        <ele>741.8</ele>
        <time>1970-01-01T01:58:04.000Z</time>
      </trkpt>
      <trkpt lat="42.798719" lon="-2.529074">
        <ele>740.6</ele>
        <time>1970-01-01T01:58:05.000Z</time>
      </trkpt>
      <trkpt lat="42.798867" lon="-2.529035">
        <ele>739.8</ele>
        <time>1970-01-01T01:58:06.000Z</time>
      </trkpt>
      <trkpt lat="42.799319" lon="-2.528878">
        <ele>737</ele>
        <time>1970-01-01T01:58:09.000Z</time>
      </trkpt>
      <trkpt lat="42.799621" lon="-2.528771">
        <ele>735.2</ele>
        <time>1970-01-01T01:58:11.000Z</time>
      </trkpt>
      <trkpt lat="42.799929" lon="-2.528689">
        <ele>734</ele>
        <time>1970-01-01T01:58:13.000Z</time>
      </trkpt>
      <trkpt lat="42.800259" lon="-2.528652">
        <ele>731.8</ele>
        <time>1970-01-01T01:58:15.000Z</time>
      </trkpt>
      <trkpt lat="42.800428" lon="-2.528657">
        <ele>730</ele>
        <time>1970-01-01T01:58:16.000Z</time>
      </trkpt>
      <trkpt lat="42.800598" lon="-2.528682">
        <ele>728.8</ele>
        <time>1970-01-01T01:58:17.000Z</time>
      </trkpt>
      <trkpt lat="42.800772" lon="-2.528724">
        <ele>728</ele>
        <time>1970-01-01T01:58:18.000Z</time>
      </trkpt>
      <trkpt lat="42.800945" lon="-2.528781">
        <ele>726.8</ele>
        <time>1970-01-01T01:58:19.000Z</time>
      </trkpt>
      <trkpt lat="42.801116" lon="-2.528852">
        <ele>726</ele>
        <time>1970-01-01T01:58:20.000Z</time>
      </trkpt>
      <trkpt lat="42.80145" lon="-2.529041">
        <ele>723.8</ele>
        <time>1970-01-01T01:58:22.000Z</time>
      </trkpt>
      <trkpt lat="42.801608" lon="-2.529162">
        <ele>723</ele>
        <time>1970-01-01T01:58:23.000Z</time>
      </trkpt>
      <trkpt lat="42.801764" lon="-2.529292">
        <ele>722.2</ele>
        <time>1970-01-01T01:58:24.000Z</time>
      </trkpt>
      <trkpt lat="42.802074" lon="-2.529568">
        <ele>719.4</ele>
        <time>1970-01-01T01:58:26.000Z</time>
      </trkpt>
      <trkpt lat="42.802227" lon="-2.529715">
        <ele>717.6</ele>
        <time>1970-01-01T01:58:27.000Z</time>
      </trkpt>
      <trkpt lat="42.802377" lon="-2.529866">
        <ele>715.8</ele>
        <time>1970-01-01T01:58:28.000Z</time>
      </trkpt>
      <trkpt lat="42.802525" lon="-2.530021">
        <ele>714.2</ele>
        <time>1970-01-01T01:58:29.000Z</time>
      </trkpt>
      <trkpt lat="42.802673" lon="-2.530179">
        <ele>713.4</ele>
        <time>1970-01-01T01:58:30.000Z</time>
      </trkpt>
      <trkpt lat="42.802818" lon="-2.53034">
        <ele>712.6</ele>
        <time>1970-01-01T01:58:31.000Z</time>
      </trkpt>
      <trkpt lat="42.802959" lon="-2.530506">
        <ele>710.8</ele>
        <time>1970-01-01T01:58:32.000Z</time>
      </trkpt>
      <trkpt lat="42.803096" lon="-2.530677">
        <ele>708.6</ele>
        <time>1970-01-01T01:58:33.000Z</time>
      </trkpt>
      <trkpt lat="42.803365" lon="-2.531029">
        <ele>705.8</ele>
        <time>1970-01-01T01:58:35.000Z</time>
      </trkpt>
      <trkpt lat="42.803496" lon="-2.531211">
        <ele>705.8</ele>
        <time>1970-01-01T01:58:36.000Z</time>
      </trkpt>
      <trkpt lat="42.803625" lon="-2.531398">
        <ele>704.2</ele>
        <time>1970-01-01T01:58:37.000Z</time>
      </trkpt>
      <trkpt lat="42.803864" lon="-2.531796">
        <ele>700.6</ele>
        <time>1970-01-01T01:58:39.000Z</time>
      </trkpt>
      <trkpt lat="42.803972" lon="-2.532008">
        <ele>699</ele>
        <time>1970-01-01T01:58:40.000Z</time>
      </trkpt>
      <trkpt lat="42.804067" lon="-2.532231">
        <ele>697.2</ele>
        <time>1970-01-01T01:58:41.000Z</time>
      </trkpt>
      <trkpt lat="42.804217" lon="-2.532703">
        <ele>693.8</ele>
        <time>1970-01-01T01:58:43.000Z</time>
      </trkpt>
      <trkpt lat="42.804275" lon="-2.532947">
        <ele>692.6</ele>
        <time>1970-01-01T01:58:44.000Z</time>
      </trkpt>
      <trkpt lat="42.804389" lon="-2.533434">
        <ele>690</ele>
        <time>1970-01-01T01:58:46.000Z</time>
      </trkpt>
      <trkpt lat="42.804455" lon="-2.533673">
        <ele>689</ele>
        <time>1970-01-01T01:58:47.000Z</time>
      </trkpt>
      <trkpt lat="42.804528" lon="-2.533908">
        <ele>688</ele>
        <time>1970-01-01T01:58:48.000Z</time>
      </trkpt>
      <trkpt lat="42.804708" lon="-2.534355">
        <ele>683.8</ele>
        <time>1970-01-01T01:58:50.000Z</time>
      </trkpt>
      <trkpt lat="42.804819" lon="-2.534562">
        <ele>682.2</ele>
        <time>1970-01-01T01:58:51.000Z</time>
      </trkpt>
      <trkpt lat="42.804941" lon="-2.534757">
        <ele>680.8</ele>
        <time>1970-01-01T01:58:52.000Z</time>
      </trkpt>
      <trkpt lat="42.805208" lon="-2.535119">
        <ele>677.2</ele>
        <time>1970-01-01T01:58:54.000Z</time>
      </trkpt>
      <trkpt lat="42.805492" lon="-2.535456">
        <ele>674</ele>
        <time>1970-01-01T01:58:56.000Z</time>
      </trkpt>
      <trkpt lat="42.805794" lon="-2.535771">
        <ele>672</ele>
        <time>1970-01-01T01:58:58.000Z</time>
      </trkpt>
      <trkpt lat="42.805952" lon="-2.535921">
        <ele>670.4</ele>
        <time>1970-01-01T01:58:59.000Z</time>
      </trkpt>
      <trkpt lat="42.806111" lon="-2.536066">
        <ele>669.2</ele>
        <time>1970-01-01T01:59:00.000Z</time>
      </trkpt>
      <trkpt lat="42.806437" lon="-2.536344">
        <ele>667</ele>
        <time>1970-01-01T01:59:02.000Z</time>
      </trkpt>
      <trkpt lat="42.806604" lon="-2.536475">
        <ele>666.2</ele>
        <time>1970-01-01T01:59:03.000Z</time>
      </trkpt>
      <trkpt lat="42.806774" lon="-2.536598">
        <ele>665</ele>
        <time>1970-01-01T01:59:04.000Z</time>
      </trkpt>
      <trkpt lat="42.807124" lon="-2.536822">
        <ele>662.4</ele>
        <time>1970-01-01T01:59:06.000Z</time>
      </trkpt>
      <trkpt lat="42.807302" lon="-2.536927">
        <ele>661.2</ele>
        <time>1970-01-01T01:59:07.000Z</time>
      </trkpt>
      <trkpt lat="42.807664" lon="-2.537117">
        <ele>657.4</ele>
        <time>1970-01-01T01:59:09.000Z</time>
      </trkpt>
      <trkpt lat="42.807848" lon="-2.537203">
        <ele>656.4</ele>
        <time>1970-01-01T01:59:10.000Z</time>
      </trkpt>
      <trkpt lat="42.808034" lon="-2.537281">
        <ele>654.6</ele>
        <time>1970-01-01T01:59:11.000Z</time>
      </trkpt>
      <trkpt lat="42.80822" lon="-2.537352">
        <ele>653</ele>
        <time>1970-01-01T01:59:12.000Z</time>
      </trkpt>
      <trkpt lat="42.808407" lon="-2.53742">
        <ele>650.6</ele>
        <time>1970-01-01T01:59:13.000Z</time>
      </trkpt>
      <trkpt lat="42.808782" lon="-2.537548">
        <ele>647.4</ele>
        <time>1970-01-01T01:59:15.000Z</time>
      </trkpt>
      <trkpt lat="42.809156" lon="-2.537673">
        <ele>644.4</ele>
        <time>1970-01-01T01:59:17.000Z</time>
      </trkpt>
      <trkpt lat="42.809342" lon="-2.537735">
        <ele>642.2</ele>
        <time>1970-01-01T01:59:18.000Z</time>
      </trkpt>
      <trkpt lat="42.809528" lon="-2.537799">
        <ele>640.2</ele>
        <time>1970-01-01T01:59:19.000Z</time>
      </trkpt>
      <trkpt lat="42.809898" lon="-2.537929">
        <ele>637.8</ele>
        <time>1970-01-01T01:59:21.000Z</time>
      </trkpt>
      <trkpt lat="42.810082" lon="-2.537992">
        <ele>636.4</ele>
        <time>1970-01-01T01:59:22.000Z</time>
      </trkpt>
      <trkpt lat="42.810267" lon="-2.538051">
        <ele>633.4</ele>
        <time>1970-01-01T01:59:23.000Z</time>
      </trkpt>
      <trkpt lat="42.81045" lon="-2.538107">
        <ele>631.8</ele>
        <time>1970-01-01T01:59:24.000Z</time>
      </trkpt>
      <trkpt lat="42.810812" lon="-2.538228">
        <ele>629.4</ele>
        <time>1970-01-01T01:59:26.000Z</time>
      </trkpt>
      <trkpt lat="42.810992" lon="-2.538289">
        <ele>628.6</ele>
        <time>1970-01-01T01:59:27.000Z</time>
      </trkpt>
      <trkpt lat="42.811169" lon="-2.538349">
        <ele>626.8</ele>
        <time>1970-01-01T01:59:28.000Z</time>
      </trkpt>
      <trkpt lat="42.811857" lon="-2.538615">
        <ele>621.2</ele>
        <time>1970-01-01T01:59:32.000Z</time>
      </trkpt>
      <trkpt lat="42.812021" lon="-2.538702">
        <ele>620</ele>
        <time>1970-01-01T01:59:33.000Z</time>
      </trkpt>
      <trkpt lat="42.812178" lon="-2.538805">
        <ele>619.2</ele>
        <time>1970-01-01T01:59:34.000Z</time>
      </trkpt>
      <trkpt lat="42.812471" lon="-2.539059">
        <ele>617</ele>
        <time>1970-01-01T01:59:36.000Z</time>
      </trkpt>
      <trkpt lat="42.812609" lon="-2.539199">
        <ele>615.8</ele>
        <time>1970-01-01T01:59:37.000Z</time>
      </trkpt>
      <trkpt lat="42.812864" lon="-2.539497">
        <ele>614.4</ele>
        <time>1970-01-01T01:59:39.000Z</time>
      </trkpt>
      <trkpt lat="42.812986" lon="-2.539645">
        <ele>614</ele>
        <time>1970-01-01T01:59:40.000Z</time>
      </trkpt>
      <trkpt lat="42.813106" lon="-2.539791">
        <ele>613.4</ele>
        <time>1970-01-01T01:59:41.000Z</time>
      </trkpt>
      <trkpt lat="42.813223" lon="-2.539934">
        <ele>613.4</ele>
        <time>1970-01-01T01:59:42.000Z</time>
      </trkpt>
      <trkpt lat="42.813446" lon="-2.540211">
        <ele>612</ele>
        <time>1970-01-01T01:59:44.000Z</time>
      </trkpt>
      <trkpt lat="42.813553" lon="-2.540344">
        <ele>611.6</ele>
        <time>1970-01-01T01:59:45.000Z</time>
      </trkpt>
      <trkpt lat="42.813657" lon="-2.540473">
        <ele>611.4</ele>
        <time>1970-01-01T01:59:46.000Z</time>
      </trkpt>
      <trkpt lat="42.813957" lon="-2.54084">
        <ele>611</ele>
        <time>1970-01-01T01:59:49.000Z</time>
      </trkpt>
      <trkpt lat="42.814148" lon="-2.541073">
        <ele>611</ele>
        <time>1970-01-01T01:59:51.000Z</time>
      </trkpt>
      <trkpt lat="42.814242" lon="-2.541189">
        <ele>611</ele>
        <time>1970-01-01T01:59:52.000Z</time>
      </trkpt>
      <trkpt lat="42.814525" lon="-2.541534">
        <ele>611.6</ele>
        <time>1970-01-01T01:59:55.000Z</time>
      </trkpt>
      <trkpt lat="42.814712" lon="-2.541764">
        <ele>612.2</ele>
        <time>1970-01-01T01:59:57.000Z</time>
      </trkpt>
      <trkpt lat="42.814807" lon="-2.541879">
        <ele>612.2</ele>
        <time>1970-01-01T01:59:58.000Z</time>
      </trkpt>
      <trkpt lat="42.814901" lon="-2.541995">
        <ele>612.4</ele>
        <time>1970-01-01T01:59:59.000Z</time>
      </trkpt>
      <trkpt lat="42.814996" lon="-2.542112">
        <ele>612.4</ele>
        <time>1970-01-01T02:00:00.000Z</time>
      </trkpt>
      <trkpt lat="42.815093" lon="-2.542229">
        <ele>612.4</ele>
        <time>1970-01-01T02:00:01.000Z</time>
      </trkpt>
      <trkpt lat="42.815288" lon="-2.542467">
        <ele>612.4</ele>
        <time>1970-01-01T02:00:03.000Z</time>
      </trkpt>
      <trkpt lat="42.815763" lon="-2.54305">
        <ele>612.4</ele>
        <time>1970-01-01T02:00:08.000Z</time>
      </trkpt>
      <trkpt lat="42.81585" lon="-2.543165">
        <ele>612.2</ele>
        <time>1970-01-01T02:00:09.000Z</time>
      </trkpt>
      <trkpt lat="42.816014" lon="-2.543399">
        <ele>612.2</ele>
        <time>1970-01-01T02:00:11.000Z</time>
      </trkpt>
      <trkpt lat="42.81617" lon="-2.543645">
        <ele>612</ele>
        <time>1970-01-01T02:00:13.000Z</time>
      </trkpt>
      <trkpt lat="42.816321" lon="-2.543909">
        <ele>611.6</ele>
        <time>1970-01-01T02:00:15.000Z</time>
      </trkpt>
      <trkpt lat="42.816611" lon="-2.544489">
        <ele>611.2</ele>
        <time>1970-01-01T02:00:19.000Z</time>
      </trkpt>
      <trkpt lat="42.816763" lon="-2.54479">
        <ele>610.8</ele>
        <time>1970-01-01T02:00:21.000Z</time>
      </trkpt>
      <trkpt lat="42.816915" lon="-2.545096">
        <ele>610.6</ele>
        <time>1970-01-01T02:00:23.000Z</time>
      </trkpt>
      <trkpt lat="42.817151" lon="-2.545562">
        <ele>609.6</ele>
        <time>1970-01-01T02:00:26.000Z</time>
      </trkpt>
      <trkpt lat="42.817394" lon="-2.546042">
        <ele>609</ele>
        <time>1970-01-01T02:00:29.000Z</time>
      </trkpt>
      <trkpt lat="42.817476" lon="-2.546205">
        <ele>608.6</ele>
        <time>1970-01-01T02:00:30.000Z</time>
      </trkpt>
      <trkpt lat="42.817639" lon="-2.54653">
        <ele>607</ele>
        <time>1970-01-01T02:00:32.000Z</time>
      </trkpt>
      <trkpt lat="42.81772" lon="-2.546692">
        <ele>606.2</ele>
        <time>1970-01-01T02:00:33.000Z</time>
      </trkpt>
      <trkpt lat="42.81796" lon="-2.547169">
        <ele>605</ele>
        <time>1970-01-01T02:00:36.000Z</time>
      </trkpt>
      <trkpt lat="42.818039" lon="-2.547323">
        <ele>604.4</ele>
        <time>1970-01-01T02:00:37.000Z</time>
      </trkpt>
      <trkpt lat="42.818189" lon="-2.547622">
        <ele>603.4</ele>
        <time>1970-01-01T02:00:39.000Z</time>
      </trkpt>
      <trkpt lat="42.818401" lon="-2.548042">
        <ele>601.2</ele>
        <time>1970-01-01T02:00:42.000Z</time>
      </trkpt>
      <trkpt lat="42.818602" lon="-2.548436">
        <ele>600.8</ele>
        <time>1970-01-01T02:00:45.000Z</time>
      </trkpt>
      <trkpt lat="42.818669" lon="-2.54857">
        <ele>600.4</ele>
        <time>1970-01-01T02:00:46.000Z</time>
      </trkpt>
      <trkpt lat="42.81895" lon="-2.549127">
        <ele>600</ele>
        <time>1970-01-01T02:00:50.000Z</time>
      </trkpt>
      <trkpt lat="42.819095" lon="-2.549417">
        <ele>600</ele>
        <time>1970-01-01T02:00:52.000Z</time>
      </trkpt>
      <trkpt lat="42.819244" lon="-2.549713">
        <ele>599.8</ele>
        <time>1970-01-01T02:00:54.000Z</time>
      </trkpt>
      <trkpt lat="42.819473" lon="-2.550172">
        <ele>599.6</ele>
        <time>1970-01-01T02:00:57.000Z</time>
      </trkpt>
      <trkpt lat="42.819631" lon="-2.550489">
        <ele>599.6</ele>
        <time>1970-01-01T02:00:59.000Z</time>
      </trkpt>
      <trkpt lat="42.819711" lon="-2.55065">
        <ele>599</ele>
        <time>1970-01-01T02:01:00.000Z</time>
      </trkpt>
      <trkpt lat="42.819875" lon="-2.550981">
        <ele>597.8</ele>
        <time>1970-01-01T02:01:02.000Z</time>
      </trkpt>
      <trkpt lat="42.820042" lon="-2.551317">
        <ele>597.2</ele>
        <time>1970-01-01T02:01:04.000Z</time>
      </trkpt>
      <trkpt lat="42.820212" lon="-2.551653">
        <ele>596.4</ele>
        <time>1970-01-01T02:01:06.000Z</time>
      </trkpt>
      <trkpt lat="42.820297" lon="-2.551823">
        <ele>596</ele>
        <time>1970-01-01T02:01:07.000Z</time>
      </trkpt>
      <trkpt lat="42.820631" lon="-2.552497">
        <ele>593.8</ele>
        <time>1970-01-01T02:01:11.000Z</time>
      </trkpt>
      <trkpt lat="42.820799" lon="-2.552831">
        <ele>592.2</ele>
        <time>1970-01-01T02:01:13.000Z</time>
      </trkpt>
      <trkpt lat="42.821126" lon="-2.553486">
        <ele>590.2</ele>
        <time>1970-01-01T02:01:17.000Z</time>
      </trkpt>
      <trkpt lat="42.821207" lon="-2.553649">
        <ele>589.6</ele>
        <time>1970-01-01T02:01:18.000Z</time>
      </trkpt>
      <trkpt lat="42.821452" lon="-2.554139">
        <ele>588.8</ele>
        <time>1970-01-01T02:01:21.000Z</time>
      </trkpt>
      <trkpt lat="42.821696" lon="-2.554628">
        <ele>587.4</ele>
        <time>1970-01-01T02:01:24.000Z</time>
      </trkpt>
      <trkpt lat="42.822012" lon="-2.555268">
        <ele>585.4</ele>
        <time>1970-01-01T02:01:28.000Z</time>
      </trkpt>
      <trkpt lat="42.82209" lon="-2.555422">
        <ele>585</ele>
        <time>1970-01-01T02:01:29.000Z</time>
      </trkpt>
      <trkpt lat="42.822239" lon="-2.555723">
        <ele>583.4</ele>
        <time>1970-01-01T02:01:31.000Z</time>
      </trkpt>
      <trkpt lat="42.822311" lon="-2.555868">
        <ele>583</ele>
        <time>1970-01-01T02:01:32.000Z</time>
      </trkpt>
      <trkpt lat="42.822382" lon="-2.55601">
        <ele>582.8</ele>
        <time>1970-01-01T02:01:33.000Z</time>
      </trkpt>
      <trkpt lat="42.822521" lon="-2.556289">
        <ele>582.8</ele>
        <time>1970-01-01T02:01:35.000Z</time>
      </trkpt>
      <trkpt lat="42.822732" lon="-2.556709">
        <ele>582.8</ele>
        <time>1970-01-01T02:01:38.000Z</time>
      </trkpt>
      <trkpt lat="42.823089" lon="-2.55741">
        <ele>582.6</ele>
        <time>1970-01-01T02:01:43.000Z</time>
      </trkpt>
      <trkpt lat="42.823244" lon="-2.557683">
        <ele>582.6</ele>
        <time>1970-01-01T02:01:45.000Z</time>
      </trkpt>
      <trkpt lat="42.823498" lon="-2.55809">
        <ele>582.8</ele>
        <time>1970-01-01T02:01:48.000Z</time>
      </trkpt>
      <trkpt lat="42.823587" lon="-2.558226">
        <ele>582.6</ele>
        <time>1970-01-01T02:01:49.000Z</time>
      </trkpt>
      <trkpt lat="42.823767" lon="-2.558499">
        <ele>582.4</ele>
        <time>1970-01-01T02:01:51.000Z</time>
      </trkpt>
      <trkpt lat="42.823858" lon="-2.558638">
        <ele>582.6</ele>
        <time>1970-01-01T02:01:52.000Z</time>
      </trkpt>
      <trkpt lat="42.823949" lon="-2.558779">
        <ele>582.4</ele>
        <time>1970-01-01T02:01:53.000Z</time>
      </trkpt>
      <trkpt lat="42.824041" lon="-2.55892">
        <ele>582</ele>
        <time>1970-01-01T02:01:54.000Z</time>
      </trkpt>
      <trkpt lat="42.824416" lon="-2.559493">
        <ele>580.8</ele>
        <time>1970-01-01T02:01:58.000Z</time>
      </trkpt>
      <trkpt lat="42.824793" lon="-2.560071">
        <ele>580</ele>
        <time>1970-01-01T02:02:02.000Z</time>
      </trkpt>
      <trkpt lat="42.825167" lon="-2.560647">
        <ele>576.8</ele>
        <time>1970-01-01T02:02:06.000Z</time>
      </trkpt>
      <trkpt lat="42.825438" lon="-2.561064">
        <ele>575</ele>
        <time>1970-01-01T02:02:09.000Z</time>
      </trkpt>
      <trkpt lat="42.825877" lon="-2.561739">
        <ele>573.8</ele>
        <time>1970-01-01T02:02:14.000Z</time>
      </trkpt>
      <trkpt lat="42.825962" lon="-2.561871">
        <ele>573.6</ele>
        <time>1970-01-01T02:02:15.000Z</time>
      </trkpt>
      <trkpt lat="42.826214" lon="-2.562259">
        <ele>573.4</ele>
        <time>1970-01-01T02:02:18.000Z</time>
      </trkpt>
      <trkpt lat="42.826382" lon="-2.562517">
        <ele>573.2</ele>
        <time>1970-01-01T02:02:20.000Z</time>
      </trkpt>
      <trkpt lat="42.826468" lon="-2.562649">
        <ele>573</ele>
        <time>1970-01-01T02:02:21.000Z</time>
      </trkpt>
      <trkpt lat="42.826735" lon="-2.563061">
        <ele>573</ele>
        <time>1970-01-01T02:02:24.000Z</time>
      </trkpt>
      <trkpt lat="42.826826" lon="-2.563203">
        <ele>572.8</ele>
        <time>1970-01-01T02:02:25.000Z</time>
      </trkpt>
      <trkpt lat="42.826918" lon="-2.563346">
        <ele>572.8</ele>
        <time>1970-01-01T02:02:26.000Z</time>
      </trkpt>
      <trkpt lat="42.827195" lon="-2.563774">
        <ele>572.2</ele>
        <time>1970-01-01T02:02:29.000Z</time>
      </trkpt>
      <trkpt lat="42.827287" lon="-2.563916">
        <ele>572</ele>
        <time>1970-01-01T02:02:30.000Z</time>
      </trkpt>
      <trkpt lat="42.82747" lon="-2.564196">
        <ele>571.2</ele>
        <time>1970-01-01T02:02:32.000Z</time>
      </trkpt>
      <trkpt lat="42.827561" lon="-2.564335">
        <ele>570</ele>
        <time>1970-01-01T02:02:33.000Z</time>
      </trkpt>
      <trkpt lat="42.82792" lon="-2.564892">
        <ele>567.8</ele>
        <time>1970-01-01T02:02:37.000Z</time>
      </trkpt>
      <trkpt lat="42.828281" lon="-2.565446">
        <ele>565</ele>
        <time>1970-01-01T02:02:41.000Z</time>
      </trkpt>
      <trkpt lat="42.82846" lon="-2.565722">
        <ele>564.8</ele>
        <time>1970-01-01T02:02:43.000Z</time>
      </trkpt>
      <trkpt lat="42.828902" lon="-2.566401">
        <ele>563.4</ele>
        <time>1970-01-01T02:02:48.000Z</time>
      </trkpt>
      <trkpt lat="42.828989" lon="-2.566534">
        <ele>563.2</ele>
        <time>1970-01-01T02:02:49.000Z</time>
      </trkpt>
      <trkpt lat="42.829075" lon="-2.566667">
        <ele>562.8</ele>
        <time>1970-01-01T02:02:50.000Z</time>
      </trkpt>
      <trkpt lat="42.829161" lon="-2.5668">
        <ele>562.4</ele>
        <time>1970-01-01T02:02:51.000Z</time>
      </trkpt>
      <trkpt lat="42.829418" lon="-2.567196">
        <ele>560.8</ele>
        <time>1970-01-01T02:02:54.000Z</time>
      </trkpt>
      <trkpt lat="42.829664" lon="-2.567606">
        <ele>560.6</ele>
        <time>1970-01-01T02:02:57.000Z</time>
      </trkpt>
      <trkpt lat="42.829745" lon="-2.567746">
        <ele>560.2</ele>
        <time>1970-01-01T02:02:58.000Z</time>
      </trkpt>
      <trkpt lat="42.829825" lon="-2.567889">
        <ele>559.8</ele>
        <time>1970-01-01T02:02:59.000Z</time>
      </trkpt>
      <trkpt lat="42.829986" lon="-2.568189">
        <ele>559.2</ele>
        <time>1970-01-01T02:03:01.000Z</time>
      </trkpt>
      <trkpt lat="42.830067" lon="-2.568343">
        <ele>558.8</ele>
        <time>1970-01-01T02:03:02.000Z</time>
      </trkpt>
      <trkpt lat="42.830232" lon="-2.568654">
        <ele>558.4</ele>
        <time>1970-01-01T02:03:04.000Z</time>
      </trkpt>
      <trkpt lat="42.830315" lon="-2.56881">
        <ele>557.6</ele>
        <time>1970-01-01T02:03:05.000Z</time>
      </trkpt>
      <trkpt lat="42.830397" lon="-2.568966">
        <ele>557.2</ele>
        <time>1970-01-01T02:03:06.000Z</time>
      </trkpt>
      <trkpt lat="42.83048" lon="-2.569121">
        <ele>556.6</ele>
        <time>1970-01-01T02:03:07.000Z</time>
      </trkpt>
      <trkpt lat="42.830642" lon="-2.569427">
        <ele>555.6</ele>
        <time>1970-01-01T02:03:09.000Z</time>
      </trkpt>
      <trkpt lat="42.830962" lon="-2.570028">
        <ele>553.8</ele>
        <time>1970-01-01T02:03:13.000Z</time>
      </trkpt>
      <trkpt lat="42.831042" lon="-2.570177">
        <ele>553</ele>
        <time>1970-01-01T02:03:14.000Z</time>
      </trkpt>
      <trkpt lat="42.831121" lon="-2.570327">
        <ele>552</ele>
        <time>1970-01-01T02:03:15.000Z</time>
      </trkpt>
      <trkpt lat="42.83144" lon="-2.570932">
        <ele>550.4</ele>
        <time>1970-01-01T02:03:19.000Z</time>
      </trkpt>
      <trkpt lat="42.831602" lon="-2.571237">
        <ele>550</ele>
        <time>1970-01-01T02:03:21.000Z</time>
      </trkpt>
      <trkpt lat="42.831764" lon="-2.571544">
        <ele>550</ele>
        <time>1970-01-01T02:03:23.000Z</time>
      </trkpt>
      <trkpt lat="42.832086" lon="-2.57215">
        <ele>549.4</ele>
        <time>1970-01-01T02:03:27.000Z</time>
      </trkpt>
      <trkpt lat="42.832246" lon="-2.572454">
        <ele>549</ele>
        <time>1970-01-01T02:03:29.000Z</time>
      </trkpt>
      <trkpt lat="42.832327" lon="-2.572608">
        <ele>549.2</ele>
        <time>1970-01-01T02:03:30.000Z</time>
      </trkpt>
      <trkpt lat="42.832407" lon="-2.572761">
        <ele>548.8</ele>
        <time>1970-01-01T02:03:31.000Z</time>
      </trkpt>
      <trkpt lat="42.832651" lon="-2.573218">
        <ele>548.2</ele>
        <time>1970-01-01T02:03:34.000Z</time>
      </trkpt>
      <trkpt lat="42.832892" lon="-2.573668">
        <ele>547.4</ele>
        <time>1970-01-01T02:03:37.000Z</time>
      </trkpt>
      <trkpt lat="42.83321" lon="-2.574265">
        <ele>546.2</ele>
        <time>1970-01-01T02:03:41.000Z</time>
      </trkpt>
      <trkpt lat="42.833289" lon="-2.574414">
        <ele>545.8</ele>
        <time>1970-01-01T02:03:42.000Z</time>
      </trkpt>
      <trkpt lat="42.833605" lon="-2.575006">
        <ele>544.4</ele>
        <time>1970-01-01T02:03:46.000Z</time>
      </trkpt>
      <trkpt lat="42.833683" lon="-2.575153">
        <ele>544.4</ele>
        <time>1970-01-01T02:03:47.000Z</time>
      </trkpt>
      <trkpt lat="42.83384" lon="-2.575447">
        <ele>544</ele>
        <time>1970-01-01T02:03:49.000Z</time>
      </trkpt>
      <trkpt lat="42.834226" lon="-2.576173">
        <ele>543.4</ele>
        <time>1970-01-01T02:03:54.000Z</time>
      </trkpt>
      <trkpt lat="42.834535" lon="-2.576752">
        <ele>543.2</ele>
        <time>1970-01-01T02:03:58.000Z</time>
      </trkpt>
      <trkpt lat="42.834688" lon="-2.577043">
        <ele>543</ele>
        <time>1970-01-01T02:04:00.000Z</time>
      </trkpt>
      <trkpt lat="42.835074" lon="-2.577768">
        <ele>542.8</ele>
        <time>1970-01-01T02:04:05.000Z</time>
      </trkpt>
      <trkpt lat="42.835461" lon="-2.578505">
        <ele>542</ele>
        <time>1970-01-01T02:04:10.000Z</time>
      </trkpt>
      <trkpt lat="42.835618" lon="-2.578804">
        <ele>541.8</ele>
        <time>1970-01-01T02:04:12.000Z</time>
      </trkpt>
      <trkpt lat="42.835697" lon="-2.578954">
        <ele>541.8</ele>
        <time>1970-01-01T02:04:13.000Z</time>
      </trkpt>
      <trkpt lat="42.835853" lon="-2.579257">
        <ele>541.6</ele>
        <time>1970-01-01T02:04:15.000Z</time>
      </trkpt>
      <trkpt lat="42.83593" lon="-2.57941">
        <ele>541.8</ele>
        <time>1970-01-01T02:04:16.000Z</time>
      </trkpt>
      <trkpt lat="42.836007" lon="-2.579563">
        <ele>541.4</ele>
        <time>1970-01-01T02:04:17.000Z</time>
      </trkpt>
      <trkpt lat="42.836308" lon="-2.580184">
        <ele>541.2</ele>
        <time>1970-01-01T02:04:21.000Z</time>
      </trkpt>
      <trkpt lat="42.836452" lon="-2.580498">
        <ele>540.8</ele>
        <time>1970-01-01T02:04:23.000Z</time>
      </trkpt>
      <trkpt lat="42.836796" lon="-2.581278">
        <ele>539.2</ele>
        <time>1970-01-01T02:04:28.000Z</time>
      </trkpt>
      <trkpt lat="42.837001" lon="-2.581744">
        <ele>538.4</ele>
        <time>1970-01-01T02:04:31.000Z</time>
      </trkpt>
      <trkpt lat="42.837196" lon="-2.582214">
        <ele>537.4</ele>
        <time>1970-01-01T02:04:34.000Z</time>
      </trkpt>
      <trkpt lat="42.837437" lon="-2.58285">
        <ele>537</ele>
        <time>1970-01-01T02:04:38.000Z</time>
      </trkpt>
      <trkpt lat="42.837494" lon="-2.583011">
        <ele>537</ele>
        <time>1970-01-01T02:04:39.000Z</time>
      </trkpt>
      <trkpt lat="42.837656" lon="-2.583492">
        <ele>536.2</ele>
        <time>1970-01-01T02:04:42.000Z</time>
      </trkpt>
      <trkpt lat="42.837707" lon="-2.583653">
        <ele>536.2</ele>
        <time>1970-01-01T02:04:43.000Z</time>
      </trkpt>
      <trkpt lat="42.837807" lon="-2.58397">
        <ele>536</ele>
        <time>1970-01-01T02:04:45.000Z</time>
      </trkpt>
      <trkpt lat="42.838036" lon="-2.584765">
        <ele>535.6</ele>
        <time>1970-01-01T02:04:50.000Z</time>
      </trkpt>
      <trkpt lat="42.838079" lon="-2.584923">
        <ele>535.6</ele>
        <time>1970-01-01T02:04:51.000Z</time>
      </trkpt>
      <trkpt lat="42.838121" lon="-2.585079">
        <ele>535.6</ele>
        <time>1970-01-01T02:04:52.000Z</time>
      </trkpt>
      <trkpt lat="42.838241" lon="-2.585547">
        <ele>535.8</ele>
        <time>1970-01-01T02:04:55.000Z</time>
      </trkpt>
      <trkpt lat="42.838347" lon="-2.586003">
        <ele>536</ele>
        <time>1970-01-01T02:04:58.000Z</time>
      </trkpt>
      <trkpt lat="42.838381" lon="-2.586151">
        <ele>536</ele>
        <time>1970-01-01T02:04:59.000Z</time>
      </trkpt>
      <trkpt lat="42.838447" lon="-2.586438">
        <ele>536</ele>
        <time>1970-01-01T02:05:01.000Z</time>
      </trkpt>
      <trkpt lat="42.838625" lon="-2.587267">
        <ele>536.4</ele>
        <time>1970-01-01T02:05:07.000Z</time>
      </trkpt>
      <trkpt lat="42.838652" lon="-2.587402">
        <ele>536.6</ele>
        <time>1970-01-01T02:05:08.000Z</time>
      </trkpt>
      <trkpt lat="42.838722" lon="-2.587802">
        <ele>537.2</ele>
        <time>1970-01-01T02:05:11.000Z</time>
      </trkpt>
      <trkpt lat="42.838767" lon="-2.588067">
        <ele>537.6</ele>
        <time>1970-01-01T02:05:13.000Z</time>
      </trkpt>
      <trkpt lat="42.838787" lon="-2.588201">
        <ele>537.8</ele>
        <time>1970-01-01T02:05:14.000Z</time>
      </trkpt>
      <trkpt lat="42.838879" lon="-2.589004">
        <ele>539.6</ele>
        <time>1970-01-01T02:05:20.000Z</time>
      </trkpt>
      <trkpt lat="42.838915" lon="-2.589396">
        <ele>540.2</ele>
        <time>1970-01-01T02:05:23.000Z</time>
      </trkpt>
      <trkpt lat="42.838984" lon="-2.590155">
        <ele>540.6</ele>
        <time>1970-01-01T02:05:29.000Z</time>
      </trkpt>
      <trkpt lat="42.838994" lon="-2.590277">
        <ele>540.6</ele>
        <time>1970-01-01T02:05:30.000Z</time>
      </trkpt>
      <trkpt lat="42.839024" lon="-2.590646">
        <ele>540.8</ele>
        <time>1970-01-01T02:05:33.000Z</time>
      </trkpt>
      <trkpt lat="42.839056" lon="-2.591147">
        <ele>541</ele>
        <time>1970-01-01T02:05:37.000Z</time>
      </trkpt>
      <trkpt lat="42.839079" lon="-2.591519">
        <ele>541.6</ele>
        <time>1970-01-01T02:05:40.000Z</time>
      </trkpt>
      <trkpt lat="42.839109" lon="-2.592359">
        <ele>542.6</ele>
        <time>1970-01-01T02:05:47.000Z</time>
      </trkpt>
      <trkpt lat="42.839118" lon="-2.592712">
        <ele>543</ele>
        <time>1970-01-01T02:05:50.000Z</time>
      </trkpt>
      <trkpt lat="42.839118" lon="-2.592828">
        <ele>543.2</ele>
        <time>1970-01-01T02:05:51.000Z</time>
      </trkpt>
      <trkpt lat="42.83912" lon="-2.593286">
        <ele>543.6</ele>
        <time>1970-01-01T02:05:55.000Z</time>
      </trkpt>
      <trkpt lat="42.839118" lon="-2.593741">
        <ele>544</ele>
        <time>1970-01-01T02:05:59.000Z</time>
      </trkpt>
      <trkpt lat="42.839109" lon="-2.594193">
        <ele>545</ele>
        <time>1970-01-01T02:06:03.000Z</time>
      </trkpt>
      <trkpt lat="42.839079" lon="-2.594976">
        <ele>546</ele>
        <time>1970-01-01T02:06:10.000Z</time>
      </trkpt>
      <trkpt lat="42.839067" lon="-2.595199">
        <ele>546.2</ele>
        <time>1970-01-01T02:06:12.000Z</time>
      </trkpt>
      <trkpt lat="42.839046" lon="-2.595533">
        <ele>546.4</ele>
        <time>1970-01-01T02:06:15.000Z</time>
      </trkpt>
      <trkpt lat="42.839019" lon="-2.595873">
        <ele>546.8</ele>
        <time>1970-01-01T02:06:18.000Z</time>
      </trkpt>
      <trkpt lat="42.838972" lon="-2.596447">
        <ele>547</ele>
        <time>1970-01-01T02:06:23.000Z</time>
      </trkpt>
      <trkpt lat="42.8389" lon="-2.597255">
        <ele>547.2</ele>
        <time>1970-01-01T02:06:30.000Z</time>
      </trkpt>
      <trkpt lat="42.838842" lon="-2.597939">
        <ele>547.6</ele>
        <time>1970-01-01T02:06:36.000Z</time>
      </trkpt>
      <trkpt lat="42.838833" lon="-2.598051">
        <ele>547.6</ele>
        <time>1970-01-01T02:06:37.000Z</time>
      </trkpt>
      <trkpt lat="42.838767" lon="-2.598818">
        <ele>548</ele>
        <time>1970-01-01T02:06:44.000Z</time>
      </trkpt>
      <trkpt lat="42.838733" lon="-2.599241">
        <ele>548.6</ele>
        <time>1970-01-01T02:06:48.000Z</time>
      </trkpt>
      <trkpt lat="42.838708" lon="-2.599547">
        <ele>548.8</ele>
        <time>1970-01-01T02:06:51.000Z</time>
      </trkpt>
      <trkpt lat="42.838641" lon="-2.600361">
        <ele>549.6</ele>
        <time>1970-01-01T02:06:59.000Z</time>
      </trkpt>
      <trkpt lat="42.838581" lon="-2.601141">
        <ele>549.8</ele>
        <time>1970-01-01T02:07:06.000Z</time>
      </trkpt>
      <trkpt lat="42.838571" lon="-2.601258">
        <ele>549.8</ele>
        <time>1970-01-01T02:07:07.000Z</time>
      </trkpt>
      <trkpt lat="42.838562" lon="-2.601376">
        <ele>549.8</ele>
        <time>1970-01-01T02:07:08.000Z</time>
      </trkpt>
      <trkpt lat="42.838497" lon="-2.602204">
        <ele>549.4</ele>
        <time>1970-01-01T02:07:15.000Z</time>
      </trkpt>
      <trkpt lat="42.838468" lon="-2.602564">
        <ele>549.2</ele>
        <time>1970-01-01T02:07:18.000Z</time>
      </trkpt>
      <trkpt lat="42.838423" lon="-2.603172">
        <ele>548.8</ele>
        <time>1970-01-01T02:07:23.000Z</time>
      </trkpt>
      <trkpt lat="42.838404" lon="-2.603415">
        <ele>548.4</ele>
        <time>1970-01-01T02:07:25.000Z</time>
      </trkpt>
      <trkpt lat="42.838363" lon="-2.603916">
        <ele>548</ele>
        <time>1970-01-01T02:07:29.000Z</time>
      </trkpt>
      <trkpt lat="42.838314" lon="-2.604555">
        <ele>547.2</ele>
        <time>1970-01-01T02:07:34.000Z</time>
      </trkpt>
      <trkpt lat="42.838253" lon="-2.605337">
        <ele>546.2</ele>
        <time>1970-01-01T02:07:40.000Z</time>
      </trkpt>
      <trkpt lat="42.838243" lon="-2.60547">
        <ele>546.4</ele>
        <time>1970-01-01T02:07:41.000Z</time>
      </trkpt>
      <trkpt lat="42.838212" lon="-2.605872">
        <ele>545.4</ele>
        <time>1970-01-01T02:07:44.000Z</time>
      </trkpt>
      <trkpt lat="42.838155" lon="-2.606684">
        <ele>544.4</ele>
        <time>1970-01-01T02:07:50.000Z</time>
      </trkpt>
      <trkpt lat="42.838134" lon="-2.606957">
        <ele>544.4</ele>
        <time>1970-01-01T02:07:52.000Z</time>
      </trkpt>
      <trkpt lat="42.838116" lon="-2.607232">
        <ele>543.8</ele>
        <time>1970-01-01T02:07:54.000Z</time>
      </trkpt>
      <trkpt lat="42.838075" lon="-2.607786">
        <ele>543.4</ele>
        <time>1970-01-01T02:07:58.000Z</time>
      </trkpt>
      <trkpt lat="42.838055" lon="-2.608201">
        <ele>543</ele>
        <time>1970-01-01T02:08:01.000Z</time>
      </trkpt>
      <trkpt lat="42.838053" lon="-2.609041">
        <ele>541.2</ele>
        <time>1970-01-01T02:08:07.000Z</time>
      </trkpt>
      <trkpt lat="42.838065" lon="-2.609328">
        <ele>540.6</ele>
        <time>1970-01-01T02:08:09.000Z</time>
      </trkpt>
      <trkpt lat="42.838073" lon="-2.609474">
        <ele>540.4</ele>
        <time>1970-01-01T02:08:10.000Z</time>
      </trkpt>
      <trkpt lat="42.838108" lon="-2.609917">
        <ele>540</ele>
        <time>1970-01-01T02:08:13.000Z</time>
      </trkpt>
      <trkpt lat="42.838177" lon="-2.610516">
        <ele>539.6</ele>
        <time>1970-01-01T02:08:17.000Z</time>
      </trkpt>
      <trkpt lat="42.838253" lon="-2.610969">
        <ele>538.8</ele>
        <time>1970-01-01T02:08:20.000Z</time>
      </trkpt>
      <trkpt lat="42.838379" lon="-2.611582">
        <ele>537.2</ele>
        <time>1970-01-01T02:08:24.000Z</time>
      </trkpt>
      <trkpt lat="42.838456" lon="-2.611891">
        <ele>536.4</ele>
        <time>1970-01-01T02:08:26.000Z</time>
      </trkpt>
      <trkpt lat="42.838498" lon="-2.612044">
        <ele>536</ele>
        <time>1970-01-01T02:08:27.000Z</time>
      </trkpt>
      <trkpt lat="42.838684" lon="-2.612646">
        <ele>534.6</ele>
        <time>1970-01-01T02:08:31.000Z</time>
      </trkpt>
      <trkpt lat="42.838736" lon="-2.612791">
        <ele>534.2</ele>
        <time>1970-01-01T02:08:32.000Z</time>
      </trkpt>
      <trkpt lat="42.839006" lon="-2.613495">
        <ele>531.2</ele>
        <time>1970-01-01T02:08:37.000Z</time>
      </trkpt>
      <trkpt lat="42.839122" lon="-2.613761">
        <ele>530.8</ele>
        <time>1970-01-01T02:08:39.000Z</time>
      </trkpt>
      <trkpt lat="42.839235" lon="-2.61402">
        <ele>530.4</ele>
        <time>1970-01-01T02:08:41.000Z</time>
      </trkpt>
      <trkpt lat="42.839344" lon="-2.614271">
        <ele>529.8</ele>
        <time>1970-01-01T02:08:43.000Z</time>
      </trkpt>
      <trkpt lat="42.839442" lon="-2.614521">
        <ele>529.6</ele>
        <time>1970-01-01T02:08:45.000Z</time>
      </trkpt>
      <trkpt lat="42.839483" lon="-2.614649">
        <ele>529.4</ele>
        <time>1970-01-01T02:08:46.000Z</time>
      </trkpt>
      <trkpt lat="42.839755" lon="-2.615391">
        <ele>528.6</ele>
        <time>1970-01-01T02:08:52.000Z</time>
      </trkpt>
      <trkpt lat="42.839854" lon="-2.61563">
        <ele>528.4</ele>
        <time>1970-01-01T02:08:54.000Z</time>
      </trkpt>
      <trkpt lat="42.840093" lon="-2.616206">
        <ele>528.2</ele>
        <time>1970-01-01T02:08:59.000Z</time>
      </trkpt>
      <trkpt lat="42.840117" lon="-2.61632">
        <ele>528.2</ele>
        <time>1970-01-01T02:09:00.000Z</time>
      </trkpt>
      <trkpt lat="42.840113" lon="-2.616435">
        <ele>528</ele>
        <time>1970-01-01T02:09:01.000Z</time>
      </trkpt>
      <trkpt lat="42.840081" lon="-2.616542">
        <ele>528</ele>
        <time>1970-01-01T02:09:02.000Z</time>
      </trkpt>
      <trkpt lat="42.840028" lon="-2.616635">
        <ele>528.2</ele>
        <time>1970-01-01T02:09:03.000Z</time>
      </trkpt>
      <trkpt lat="42.839966" lon="-2.616719">
        <ele>528.2</ele>
        <time>1970-01-01T02:09:04.000Z</time>
      </trkpt>
      <trkpt lat="42.839904" lon="-2.616803">
        <ele>528.2</ele>
        <time>1970-01-01T02:09:05.000Z</time>
      </trkpt>
      <trkpt lat="42.839664" lon="-2.617125">
        <ele>528</ele>
        <time>1970-01-01T02:09:09.000Z</time>
      </trkpt>
      <trkpt lat="42.839442" lon="-2.617448">
        <ele>527.4</ele>
        <time>1970-01-01T02:09:13.000Z</time>
      </trkpt>
      <trkpt lat="42.839269" lon="-2.617691">
        <ele>527</ele>
        <time>1970-01-01T02:09:16.000Z</time>
      </trkpt>
      <trkpt lat="42.8391" lon="-2.617933">
        <ele>527.2</ele>
        <time>1970-01-01T02:09:19.000Z</time>
      </trkpt>
      <trkpt lat="42.838994" lon="-2.618088">
        <ele>527.2</ele>
        <time>1970-01-01T02:09:21.000Z</time>
      </trkpt>
      <trkpt lat="42.838942" lon="-2.618161">
        <ele>527.2</ele>
        <time>1970-01-01T02:09:22.000Z</time>
      </trkpt>
      <trkpt lat="42.838652" lon="-2.618583">
        <ele>527.6</ele>
        <time>1970-01-01T02:09:28.000Z</time>
      </trkpt>
      <trkpt lat="42.838606" lon="-2.61865">
        <ele>528.2</ele>
        <time>1970-01-01T02:09:29.000Z</time>
      </trkpt>
      <trkpt lat="42.838421" lon="-2.61891">
        <ele>529</ele>
        <time>1970-01-01T02:09:33.000Z</time>
      </trkpt>
      <trkpt lat="42.838228" lon="-2.619176">
        <ele>529.8</ele>
        <time>1970-01-01T02:09:37.000Z</time>
      </trkpt>
      <trkpt lat="42.837988" lon="-2.619516">
        <ele>530.4</ele>
        <time>1970-01-01T02:09:42.000Z</time>
      </trkpt>
      <trkpt lat="42.837894" lon="-2.619651">
        <ele>530.8</ele>
        <time>1970-01-01T02:09:44.000Z</time>
      </trkpt>
      <trkpt lat="42.837847" lon="-2.619718">
        <ele>530.8</ele>
        <time>1970-01-01T02:09:45.000Z</time>
      </trkpt>
      <trkpt lat="42.837801" lon="-2.619786">
        <ele>530.8</ele>
        <time>1970-01-01T02:09:46.000Z</time>
      </trkpt>
      <trkpt lat="42.837426" lon="-2.620324">
        <ele>531.2</ele>
        <time>1970-01-01T02:09:54.000Z</time>
      </trkpt>
      <trkpt lat="42.837283" lon="-2.620529">
        <ele>531.6</ele>
        <time>1970-01-01T02:09:57.000Z</time>
      </trkpt>
      <trkpt lat="42.8369" lon="-2.621081">
        <ele>531.6</ele>
        <time>1970-01-01T02:10:05.000Z</time>
      </trkpt>
      <trkpt lat="42.836663" lon="-2.621423">
        <ele>531.6</ele>
        <time>1970-01-01T02:10:10.000Z</time>
      </trkpt>
      <trkpt lat="42.836344" lon="-2.621913">
        <ele>531.8</ele>
        <time>1970-01-01T02:10:17.000Z</time>
      </trkpt>
      <trkpt lat="42.836209" lon="-2.622134">
        <ele>531.8</ele>
        <time>1970-01-01T02:10:20.000Z</time>
      </trkpt>
      <trkpt lat="42.835854" lon="-2.622747">
        <ele>532.2</ele>
        <time>1970-01-01T02:10:28.000Z</time>
      </trkpt>
      <trkpt lat="42.835678" lon="-2.623068">
        <ele>532.4</ele>
        <time>1970-01-01T02:10:32.000Z</time>
      </trkpt>
      <trkpt lat="42.835343" lon="-2.623734">
        <ele>532.2</ele>
        <time>1970-01-01T02:10:40.000Z</time>
      </trkpt>
      <trkpt lat="42.835259" lon="-2.623908">
        <ele>532.2</ele>
        <time>1970-01-01T02:10:42.000Z</time>
      </trkpt>
      <trkpt lat="42.835049" lon="-2.624344">
        <ele>532.2</ele>
        <time>1970-01-01T02:10:47.000Z</time>
      </trkpt>
      <trkpt lat="42.834717" lon="-2.625034">
        <ele>532</ele>
        <time>1970-01-01T02:10:55.000Z</time>
      </trkpt>
      <trkpt lat="42.834421" lon="-2.625649">
        <ele>531.6</ele>
        <time>1970-01-01T02:11:02.000Z</time>
      </trkpt>
      <trkpt lat="42.83425" lon="-2.626004">
        <ele>531.4</ele>
        <time>1970-01-01T02:11:06.000Z</time>
      </trkpt>
      <trkpt lat="42.833914" lon="-2.626705">
        <ele>531.2</ele>
        <time>1970-01-01T02:11:14.000Z</time>
      </trkpt>
      <trkpt lat="42.833787" lon="-2.626966">
        <ele>531.2</ele>
        <time>1970-01-01T02:11:17.000Z</time>
      </trkpt>
      <trkpt lat="42.833619" lon="-2.62732">
        <ele>530.8</ele>
        <time>1970-01-01T02:11:21.000Z</time>
      </trkpt>
      <trkpt lat="42.833319" lon="-2.627936">
        <ele>530.6</ele>
        <time>1970-01-01T02:11:28.000Z</time>
      </trkpt>
      <trkpt lat="42.833234" lon="-2.628109">
        <ele>530.6</ele>
        <time>1970-01-01T02:11:30.000Z</time>
      </trkpt>
      <trkpt lat="42.832901" lon="-2.628809">
        <ele>530.6</ele>
        <time>1970-01-01T02:11:38.000Z</time>
      </trkpt>
      <trkpt lat="42.832733" lon="-2.629158">
        <ele>530.6</ele>
        <time>1970-01-01T02:11:42.000Z</time>
      </trkpt>
      <trkpt lat="42.832436" lon="-2.629754">
        <ele>530.8</ele>
        <time>1970-01-01T02:11:49.000Z</time>
      </trkpt>
      <trkpt lat="42.83208" lon="-2.630406">
        <ele>531.4</ele>
        <time>1970-01-01T02:11:57.000Z</time>
      </trkpt>
      <trkpt lat="42.831943" lon="-2.630645">
        <ele>531.4</ele>
        <time>1970-01-01T02:12:00.000Z</time>
      </trkpt>
      <trkpt lat="42.831848" lon="-2.630804">
        <ele>531.6</ele>
        <time>1970-01-01T02:12:02.000Z</time>
      </trkpt>
      <trkpt lat="42.831511" lon="-2.631362">
        <ele>532</ele>
        <time>1970-01-01T02:12:09.000Z</time>
      </trkpt>
      <trkpt lat="42.831185" lon="-2.631907">
        <ele>532.4</ele>
        <time>1970-01-01T02:12:16.000Z</time>
      </trkpt>
      <trkpt lat="42.831043" lon="-2.632134">
        <ele>532.6</ele>
        <time>1970-01-01T02:12:19.000Z</time>
      </trkpt>
      <trkpt lat="42.830678" lon="-2.632749">
        <ele>533.2</ele>
        <time>1970-01-01T02:12:27.000Z</time>
      </trkpt>
      <trkpt lat="42.830539" lon="-2.632979">
        <ele>533.2</ele>
        <time>1970-01-01T02:12:30.000Z</time>
      </trkpt>
      <trkpt lat="42.830317" lon="-2.633358">
        <ele>533.4</ele>
        <time>1970-01-01T02:12:35.000Z</time>
      </trkpt>
      <trkpt lat="42.830061" lon="-2.633814">
        <ele>533.8</ele>
        <time>1970-01-01T02:12:41.000Z</time>
      </trkpt>
      <trkpt lat="42.829727" lon="-2.634452">
        <ele>535.2</ele>
        <time>1970-01-01T02:12:49.000Z</time>
      </trkpt>
      <trkpt lat="42.829646" lon="-2.634618">
        <ele>535.2</ele>
        <time>1970-01-01T02:12:51.000Z</time>
      </trkpt>
      <trkpt lat="42.829322" lon="-2.635326">
        <ele>535.4</ele>
        <time>1970-01-01T02:12:59.000Z</time>
      </trkpt>
      <trkpt lat="42.829038" lon="-2.635999">
        <ele>535.2</ele>
        <time>1970-01-01T02:13:06.000Z</time>
      </trkpt>
      <trkpt lat="42.828955" lon="-2.636198">
        <ele>535.2</ele>
        <time>1970-01-01T02:13:08.000Z</time>
      </trkpt>
      <trkpt lat="42.828747" lon="-2.636708">
        <ele>534.6</ele>
        <time>1970-01-01T02:13:13.000Z</time>
      </trkpt>
      <trkpt lat="42.8285" lon="-2.63732">
        <ele>533.2</ele>
        <time>1970-01-01T02:13:19.000Z</time>
      </trkpt>
      <trkpt lat="42.82825" lon="-2.637937">
        <ele>532.6</ele>
        <time>1970-01-01T02:13:25.000Z</time>
      </trkpt>
      <trkpt lat="42.828046" lon="-2.638436">
        <ele>532.4</ele>
        <time>1970-01-01T02:13:30.000Z</time>
      </trkpt>
      <trkpt lat="42.82797" lon="-2.638629">
        <ele>532.4</ele>
        <time>1970-01-01T02:13:32.000Z</time>
      </trkpt>
      <trkpt lat="42.82779" lon="-2.639104">
        <ele>532.6</ele>
        <time>1970-01-01T02:13:37.000Z</time>
      </trkpt>
      <trkpt lat="42.827729" lon="-2.639304">
        <ele>532.4</ele>
        <time>1970-01-01T02:13:39.000Z</time>
      </trkpt>
      <trkpt lat="42.827619" lon="-2.639827">
        <ele>532.8</ele>
        <time>1970-01-01T02:13:44.000Z</time>
      </trkpt>
      <trkpt lat="42.827604" lon="-2.639932">
        <ele>532.8</ele>
        <time>1970-01-01T02:13:45.000Z</time>
      </trkpt>
      <trkpt lat="42.82757" lon="-2.64025">
        <ele>533.2</ele>
        <time>1970-01-01T02:13:48.000Z</time>
      </trkpt>
      <trkpt lat="42.827561" lon="-2.640565">
        <ele>533.8</ele>
        <time>1970-01-01T02:13:51.000Z</time>
      </trkpt>
      <trkpt lat="42.827561" lon="-2.640671">
        <ele>534</ele>
        <time>1970-01-01T02:13:52.000Z</time>
      </trkpt>
      <trkpt lat="42.82757" lon="-2.640883">
        <ele>534.6</ele>
        <time>1970-01-01T02:13:54.000Z</time>
      </trkpt>
      <trkpt lat="42.827596" lon="-2.641307">
        <ele>535.8</ele>
        <time>1970-01-01T02:13:58.000Z</time>
      </trkpt>
      <trkpt lat="42.827614" lon="-2.64151">
        <ele>536.6</ele>
        <time>1970-01-01T02:14:00.000Z</time>
      </trkpt>
      <trkpt lat="42.827646" lon="-2.641901">
        <ele>538.4</ele>
        <time>1970-01-01T02:14:04.000Z</time>
      </trkpt>
      <trkpt lat="42.827659" lon="-2.642093">
        <ele>539.2</ele>
        <time>1970-01-01T02:14:06.000Z</time>
      </trkpt>
      <trkpt lat="42.827691" lon="-2.642481">
        <ele>540</ele>
        <time>1970-01-01T02:14:10.000Z</time>
      </trkpt>
      <trkpt lat="42.827773" lon="-2.643298">
        <ele>542</ele>
        <time>1970-01-01T02:14:18.000Z</time>
      </trkpt>
      <trkpt lat="42.827856" lon="-2.643833">
        <ele>542.2</ele>
        <time>1970-01-01T02:14:23.000Z</time>
      </trkpt>
      <trkpt lat="42.827935" lon="-2.64428">
        <ele>542</ele>
        <time>1970-01-01T02:14:27.000Z</time>
      </trkpt>
      <trkpt lat="42.82805" lon="-2.644886">
        <ele>541.6</ele>
        <time>1970-01-01T02:14:32.000Z</time>
      </trkpt>
      <trkpt lat="42.828099" lon="-2.645138">
        <ele>541.4</ele>
        <time>1970-01-01T02:14:34.000Z</time>
      </trkpt>
      <trkpt lat="42.828146" lon="-2.645392">
        <ele>541.2</ele>
        <time>1970-01-01T02:14:36.000Z</time>
      </trkpt>
      <trkpt lat="42.82824" lon="-2.64591">
        <ele>540.4</ele>
        <time>1970-01-01T02:14:40.000Z</time>
      </trkpt>
      <trkpt lat="42.828301" lon="-2.646308">
        <ele>538.8</ele>
        <time>1970-01-01T02:14:43.000Z</time>
      </trkpt>
      <trkpt lat="42.828366" lon="-2.646844">
        <ele>536.8</ele>
        <time>1970-01-01T02:14:47.000Z</time>
      </trkpt>
      <trkpt lat="42.828414" lon="-2.647364">
        <ele>535.8</ele>
        <time>1970-01-01T02:14:51.000Z</time>
      </trkpt>
      <trkpt lat="42.828474" lon="-2.648195">
        <ele>534.8</ele>
        <time>1970-01-01T02:14:58.000Z</time>
      </trkpt>
      <trkpt lat="42.828482" lon="-2.648305">
        <ele>534.8</ele>
        <time>1970-01-01T02:14:59.000Z</time>
      </trkpt>
      <trkpt lat="42.82852" lon="-2.648827">
        <ele>534.8</ele>
        <time>1970-01-01T02:15:04.000Z</time>
      </trkpt>
      <trkpt lat="42.828536" lon="-2.649026">
        <ele>535</ele>
        <time>1970-01-01T02:15:06.000Z</time>
      </trkpt>
      <trkpt lat="42.828578" lon="-2.649614">
        <ele>536.4</ele>
        <time>1970-01-01T02:15:12.000Z</time>
      </trkpt>
      <trkpt lat="42.828592" lon="-2.649816">
        <ele>536.8</ele>
        <time>1970-01-01T02:15:14.000Z</time>
      </trkpt>
      <trkpt lat="42.828637" lon="-2.650442">
        <ele>537.4</ele>
        <time>1970-01-01T02:15:20.000Z</time>
      </trkpt>
      <trkpt lat="42.828654" lon="-2.650657">
        <ele>537.6</ele>
        <time>1970-01-01T02:15:22.000Z</time>
      </trkpt>
      <trkpt lat="42.828664" lon="-2.650765">
        <ele>537.6</ele>
        <time>1970-01-01T02:15:23.000Z</time>
      </trkpt>
      <trkpt lat="42.828763" lon="-2.651497">
        <ele>538.8</ele>
        <time>1970-01-01T02:15:30.000Z</time>
      </trkpt>
      <trkpt lat="42.828799" lon="-2.651702">
        <ele>539</ele>
        <time>1970-01-01T02:15:32.000Z</time>
      </trkpt>
      <trkpt lat="42.828892" lon="-2.652116">
        <ele>539.6</ele>
        <time>1970-01-01T02:15:36.000Z</time>
      </trkpt>
      <trkpt lat="42.82895" lon="-2.652326">
        <ele>539.4</ele>
        <time>1970-01-01T02:15:38.000Z</time>
      </trkpt>
      <trkpt lat="42.828985" lon="-2.652425">
        <ele>539.6</ele>
        <time>1970-01-01T02:15:39.000Z</time>
      </trkpt>
      <trkpt lat="42.829028" lon="-2.652519">
        <ele>539.6</ele>
        <time>1970-01-01T02:15:40.000Z</time>
      </trkpt>
      <trkpt lat="42.829077" lon="-2.652608">
        <ele>539.6</ele>
        <time>1970-01-01T02:15:41.000Z</time>
      </trkpt>
      <trkpt lat="42.82919" lon="-2.652771">
        <ele>539.6</ele>
        <time>1970-01-01T02:15:43.000Z</time>
      </trkpt>
      <trkpt lat="42.829322" lon="-2.652913">
        <ele>539.4</ele>
        <time>1970-01-01T02:15:45.000Z</time>
      </trkpt>
      <trkpt lat="42.829741" lon="-2.653299">
        <ele>539.6</ele>
        <time>1970-01-01T02:15:51.000Z</time>
      </trkpt>
      <trkpt lat="42.8302" lon="-2.653571">
        <ele>539.2</ele>
        <time>1970-01-01T02:15:57.000Z</time>
      </trkpt>
      <trkpt lat="42.830274" lon="-2.653623">
        <ele>539.4</ele>
        <time>1970-01-01T02:15:58.000Z</time>
      </trkpt>
      <trkpt lat="42.830689" lon="-2.65401">
        <ele>539.2</ele>
        <time>1970-01-01T02:16:04.000Z</time>
      </trkpt>
      <trkpt lat="42.831121" lon="-2.654564">
        <ele>538.8</ele>
        <time>1970-01-01T02:16:11.000Z</time>
      </trkpt>
      <trkpt lat="42.831181" lon="-2.654645">
        <ele>538.8</ele>
        <time>1970-01-01T02:16:12.000Z</time>
      </trkpt>
      <trkpt lat="42.831477" lon="-2.655043">
        <ele>538.2</ele>
        <time>1970-01-01T02:16:17.000Z</time>
      </trkpt>
      <trkpt lat="42.831652" lon="-2.655266">
        <ele>538</ele>
        <time>1970-01-01T02:16:20.000Z</time>
      </trkpt>
      <trkpt lat="42.831763" lon="-2.65541">
        <ele>538</ele>
        <time>1970-01-01T02:16:22.000Z</time>
      </trkpt>
      <trkpt lat="42.831924" lon="-2.655618">
        <ele>538</ele>
        <time>1970-01-01T02:16:25.000Z</time>
      </trkpt>
      <trkpt lat="42.83226" lon="-2.656023">
        <ele>537.8</ele>
        <time>1970-01-01T02:16:31.000Z</time>
      </trkpt>
      <trkpt lat="42.832435" lon="-2.656222">
        <ele>538</ele>
        <time>1970-01-01T02:16:34.000Z</time>
      </trkpt>
      <trkpt lat="42.832855" lon="-2.656704">
        <ele>537.8</ele>
        <time>1970-01-01T02:16:41.000Z</time>
      </trkpt>
      <trkpt lat="42.83327" lon="-2.657203">
        <ele>537.6</ele>
        <time>1970-01-01T02:16:48.000Z</time>
      </trkpt>
      <trkpt lat="42.833447" lon="-2.657427">
        <ele>537.4</ele>
        <time>1970-01-01T02:16:51.000Z</time>
      </trkpt>
      <trkpt lat="42.833507" lon="-2.657503">
        <ele>537.4</ele>
        <time>1970-01-01T02:16:52.000Z</time>
      </trkpt>
      <trkpt lat="42.833932" lon="-2.658039">
        <ele>536.6</ele>
        <time>1970-01-01T02:16:59.000Z</time>
      </trkpt>
      <trkpt lat="42.834176" lon="-2.658346">
        <ele>536.2</ele>
        <time>1970-01-01T02:17:03.000Z</time>
      </trkpt>
      <trkpt lat="42.834295" lon="-2.658499">
        <ele>536</ele>
        <time>1970-01-01T02:17:05.000Z</time>
      </trkpt>
      <trkpt lat="42.83453" lon="-2.658797">
        <ele>535.4</ele>
        <time>1970-01-01T02:17:09.000Z</time>
      </trkpt>
      <trkpt lat="42.834764" lon="-2.659101">
        <ele>535.2</ele>
        <time>1970-01-01T02:17:13.000Z</time>
      </trkpt>
      <trkpt lat="42.834943" lon="-2.659327">
        <ele>535</ele>
        <time>1970-01-01T02:17:16.000Z</time>
      </trkpt>
      <trkpt lat="42.835115" lon="-2.659546">
        <ele>535</ele>
        <time>1970-01-01T02:17:19.000Z</time>
      </trkpt>
      <trkpt lat="42.835169" lon="-2.659602">
        <ele>534.8</ele>
        <time>1970-01-01T02:17:20.000Z</time>
      </trkpt>
      <trkpt lat="42.835274" lon="-2.659658">
        <ele>534.8</ele>
        <time>1970-01-01T02:17:22.000Z</time>
      </trkpt>
      <trkpt lat="42.835319" lon="-2.659662">
        <ele>534.6</ele>
        <time>1970-01-01T02:17:23.000Z</time>
      </trkpt>
      <trkpt lat="42.835361" lon="-2.659656">
        <ele>534.4</ele>
        <time>1970-01-01T02:17:24.000Z</time>
      </trkpt>
      <trkpt lat="42.835447" lon="-2.659623">
        <ele>534.2</ele>
        <time>1970-01-01T02:17:26.000Z</time>
      </trkpt>
      <trkpt lat="42.835493" lon="-2.659597">
        <ele>534</ele>
        <time>1970-01-01T02:17:27.000Z</time>
      </trkpt>
      <trkpt lat="42.835645" lon="-2.659515">
        <ele>534</ele>
        <time>1970-01-01T02:17:30.000Z</time>
      </trkpt>
      <trkpt lat="42.835758" lon="-2.659509">
        <ele>533.8</ele>
        <time>1970-01-01T02:17:32.000Z</time>
      </trkpt>
      <trkpt lat="42.835864" lon="-2.659578">
        <ele>533.8</ele>
        <time>1970-01-01T02:17:34.000Z</time>
      </trkpt>
      <trkpt lat="42.835904" lon="-2.65964">
        <ele>533.8</ele>
        <time>1970-01-01T02:17:35.000Z</time>
      </trkpt>
      <trkpt lat="42.83593" lon="-2.659717">
        <ele>533.8</ele>
        <time>1970-01-01T02:17:36.000Z</time>
      </trkpt>
      <trkpt lat="42.835934" lon="-2.659887">
        <ele>533.8</ele>
        <time>1970-01-01T02:17:38.000Z</time>
      </trkpt>
      <trkpt lat="42.835875" lon="-2.660041">
        <ele>533.8</ele>
        <time>1970-01-01T02:17:40.000Z</time>
      </trkpt>
      <trkpt lat="42.83583" lon="-2.660107">
        <ele>533.8</ele>
        <time>1970-01-01T02:17:41.000Z</time>
      </trkpt>
      <trkpt lat="42.835624" lon="-2.660337">
        <ele>533.4</ele>
        <time>1970-01-01T02:17:45.000Z</time>
      </trkpt>
      <trkpt lat="42.835513" lon="-2.660452">
        <ele>533.2</ele>
        <time>1970-01-01T02:17:47.000Z</time>
      </trkpt>
      <trkpt lat="42.835388" lon="-2.660555">
        <ele>533.2</ele>
        <time>1970-01-01T02:17:49.000Z</time>
      </trkpt>
      <trkpt lat="42.835249" lon="-2.660631">
        <ele>533</ele>
        <time>1970-01-01T02:17:51.000Z</time>
      </trkpt>
      <trkpt lat="42.835182" lon="-2.660672">
        <ele>533</ele>
        <time>1970-01-01T02:17:52.000Z</time>
      </trkpt>
      <trkpt lat="42.835" lon="-2.660841">
        <ele>533</ele>
        <time>1970-01-01T02:17:55.000Z</time>
      </trkpt>
      <trkpt lat="42.834733" lon="-2.661178">
        <ele>533</ele>
        <time>1970-01-01T02:18:00.000Z</time>
      </trkpt>
      <trkpt lat="42.834644" lon="-2.661331">
        <ele>533.2</ele>
        <time>1970-01-01T02:18:02.000Z</time>
      </trkpt>
      <trkpt lat="42.834469" lon="-2.661742">
        <ele>533.4</ele>
        <time>1970-01-01T02:18:07.000Z</time>
      </trkpt>
      <trkpt lat="42.834362" lon="-2.662158">
        <ele>533.6</ele>
        <time>1970-01-01T02:18:12.000Z</time>
      </trkpt>
      <trkpt lat="42.834345" lon="-2.662306">
        <ele>533.6</ele>
        <time>1970-01-01T02:18:14.000Z</time>
      </trkpt>
      <trkpt lat="42.834328" lon="-2.662443">
        <ele>533.6</ele>
        <time>1970-01-01T02:18:16.000Z</time>
      </trkpt>
      <trkpt lat="42.834329" lon="-2.662514">
        <ele>533.6</ele>
        <time>1970-01-01T02:18:17.000Z</time>
      </trkpt>
      <trkpt lat="42.834318" lon="-2.662794">
        <ele>533.6</ele>
        <time>1970-01-01T02:18:22.000Z</time>
      </trkpt>
      <trkpt lat="42.834315" lon="-2.662991">
        <ele>534</ele>
        <time>1970-01-01T02:18:25.000Z</time>
      </trkpt>
      <trkpt lat="42.834328" lon="-2.663156">
        <ele>534.2</ele>
        <time>1970-01-01T02:18:27.000Z</time>
      </trkpt>
      <trkpt lat="42.834368" lon="-2.663455">
        <ele>534</ele>
        <time>1970-01-01T02:18:30.000Z</time>
      </trkpt>
      <trkpt lat="42.834397" lon="-2.663653">
        <ele>534</ele>
        <time>1970-01-01T02:18:32.000Z</time>
      </trkpt>
      <trkpt lat="42.834407" lon="-2.663753">
        <ele>533.8</ele>
        <time>1970-01-01T02:18:33.000Z</time>
      </trkpt>
      <trkpt lat="42.834415" lon="-2.663853">
        <ele>533.6</ele>
        <time>1970-01-01T02:18:34.000Z</time>
      </trkpt>
      <trkpt lat="42.834448" lon="-2.664166">
        <ele>534.2</ele>
        <time>1970-01-01T02:18:37.000Z</time>
      </trkpt>
      <trkpt lat="42.834462" lon="-2.664275">
        <ele>534.2</ele>
        <time>1970-01-01T02:18:38.000Z</time>
      </trkpt>
      <trkpt lat="42.834474" lon="-2.664377">
        <ele>534</ele>
        <time>1970-01-01T02:18:39.000Z</time>
      </trkpt>
      <trkpt lat="42.834559" lon="-2.66488">
        <ele>533.4</ele>
        <time>1970-01-01T02:18:44.000Z</time>
      </trkpt>
      <trkpt lat="42.834577" lon="-2.665087">
        <ele>533.4</ele>
        <time>1970-01-01T02:18:46.000Z</time>
      </trkpt>
      <trkpt lat="42.834661" lon="-2.665861">
        <ele>534</ele>
        <time>1970-01-01T02:18:53.000Z</time>
      </trkpt>
      <trkpt lat="42.834685" lon="-2.666088">
        <ele>533.8</ele>
        <time>1970-01-01T02:18:55.000Z</time>
      </trkpt>
      <trkpt lat="42.83473" lon="-2.666567">
        <ele>533.6</ele>
        <time>1970-01-01T02:18:59.000Z</time>
      </trkpt>
      <trkpt lat="42.834743" lon="-2.666687">
        <ele>533.6</ele>
        <time>1970-01-01T02:19:00.000Z</time>
      </trkpt>
      <trkpt lat="42.834802" lon="-2.667183">
        <ele>533.2</ele>
        <time>1970-01-01T02:19:04.000Z</time>
      </trkpt>
      <trkpt lat="42.834816" lon="-2.667307">
        <ele>533</ele>
        <time>1970-01-01T02:19:05.000Z</time>
      </trkpt>
      <trkpt lat="42.83483" lon="-2.66743">
        <ele>532.8</ele>
        <time>1970-01-01T02:19:06.000Z</time>
      </trkpt>
      <trkpt lat="42.834866" lon="-2.667672">
        <ele>532.2</ele>
        <time>1970-01-01T02:19:08.000Z</time>
      </trkpt>
      <trkpt lat="42.834938" lon="-2.668283">
        <ele>531</ele>
        <time>1970-01-01T02:19:13.000Z</time>
      </trkpt>
      <trkpt lat="42.835009" lon="-2.668879">
        <ele>530.2</ele>
        <time>1970-01-01T02:19:18.000Z</time>
      </trkpt>
      <trkpt lat="42.835026" lon="-2.669">
        <ele>530</ele>
        <time>1970-01-01T02:19:19.000Z</time>
      </trkpt>
      <trkpt lat="42.835057" lon="-2.669236">
        <ele>530</ele>
        <time>1970-01-01T02:19:21.000Z</time>
      </trkpt>
      <trkpt lat="42.835104" lon="-2.669548">
        <ele>529.6</ele>
        <time>1970-01-01T02:19:24.000Z</time>
      </trkpt>
      <trkpt lat="42.835124" lon="-2.669644">
        <ele>529.6</ele>
        <time>1970-01-01T02:19:25.000Z</time>
      </trkpt>
      <trkpt lat="42.83514" lon="-2.669747">
        <ele>529.6</ele>
        <time>1970-01-01T02:19:26.000Z</time>
      </trkpt>
      <trkpt lat="42.835147" lon="-2.669856">
        <ele>529.4</ele>
        <time>1970-01-01T02:19:27.000Z</time>
      </trkpt>
      <trkpt lat="42.83515" lon="-2.669964">
        <ele>529.6</ele>
        <time>1970-01-01T02:19:28.000Z</time>
      </trkpt>
      <trkpt lat="42.835151" lon="-2.67007">
        <ele>529.4</ele>
        <time>1970-01-01T02:19:29.000Z</time>
      </trkpt>
      <trkpt lat="42.835164" lon="-2.670282">
        <ele>529</ele>
        <time>1970-01-01T02:19:31.000Z</time>
      </trkpt>
      <trkpt lat="42.835216" lon="-2.670594">
        <ele>528.8</ele>
        <time>1970-01-01T02:19:34.000Z</time>
      </trkpt>
      <trkpt lat="42.835267" lon="-2.671261">
        <ele>528.6</ele>
        <time>1970-01-01T02:19:40.000Z</time>
      </trkpt>
      <trkpt lat="42.835278" lon="-2.671367">
        <ele>528.6</ele>
        <time>1970-01-01T02:19:41.000Z</time>
      </trkpt>
      <trkpt lat="42.835359" lon="-2.672036">
        <ele>528.2</ele>
        <time>1970-01-01T02:19:47.000Z</time>
      </trkpt>
      <trkpt lat="42.835434" lon="-2.672742">
        <ele>528</ele>
        <time>1970-01-01T02:19:53.000Z</time>
      </trkpt>
      <trkpt lat="42.835489" lon="-2.67345">
        <ele>527.8</ele>
        <time>1970-01-01T02:19:59.000Z</time>
      </trkpt>
      <trkpt lat="42.835492" lon="-2.673567">
        <ele>527.8</ele>
        <time>1970-01-01T02:20:00.000Z</time>
      </trkpt>
      <trkpt lat="42.835499" lon="-2.673684">
        <ele>527.6</ele>
        <time>1970-01-01T02:20:01.000Z</time>
      </trkpt>
      <trkpt lat="42.835514" lon="-2.674148">
        <ele>527.2</ele>
        <time>1970-01-01T02:20:05.000Z</time>
      </trkpt>
      <trkpt lat="42.835515" lon="-2.674262">
        <ele>527.2</ele>
        <time>1970-01-01T02:20:06.000Z</time>
      </trkpt>
      <trkpt lat="42.83552" lon="-2.674591">
        <ele>526.8</ele>
        <time>1970-01-01T02:20:09.000Z</time>
      </trkpt>
      <trkpt lat="42.835513" lon="-2.675118">
        <ele>526.4</ele>
        <time>1970-01-01T02:20:14.000Z</time>
      </trkpt>
      <trkpt lat="42.835504" lon="-2.675328">
        <ele>526.4</ele>
        <time>1970-01-01T02:20:16.000Z</time>
      </trkpt>
      <trkpt lat="42.835473" lon="-2.67587">
        <ele>526.4</ele>
        <time>1970-01-01T02:20:21.000Z</time>
      </trkpt>
      <trkpt lat="42.835377" lon="-2.676651">
        <ele>526.4</ele>
        <time>1970-01-01T02:20:28.000Z</time>
      </trkpt>
      <trkpt lat="42.835357" lon="-2.676762">
        <ele>526.4</ele>
        <time>1970-01-01T02:20:29.000Z</time>
      </trkpt>
      <trkpt lat="42.835329" lon="-2.676869">
        <ele>526.4</ele>
        <time>1970-01-01T02:20:30.000Z</time>
      </trkpt>
      <trkpt lat="42.835241" lon="-2.677055">
        <ele>526.2</ele>
        <time>1970-01-01T02:20:32.000Z</time>
      </trkpt>
      <trkpt lat="42.835076" lon="-2.677282">
        <ele>526</ele>
        <time>1970-01-01T02:20:35.000Z</time>
      </trkpt>
      <trkpt lat="42.835034" lon="-2.677366">
        <ele>526</ele>
        <time>1970-01-01T02:20:36.000Z</time>
      </trkpt>
      <trkpt lat="42.835004" lon="-2.677458">
        <ele>526.2</ele>
        <time>1970-01-01T02:20:37.000Z</time>
      </trkpt>
      <trkpt lat="42.834968" lon="-2.677653">
        <ele>526</ele>
        <time>1970-01-01T02:20:39.000Z</time>
      </trkpt>
      <trkpt lat="42.834864" lon="-2.678254">
        <ele>526.4</ele>
        <time>1970-01-01T02:20:45.000Z</time>
      </trkpt>
      <trkpt lat="42.834816" lon="-2.67845">
        <ele>526.4</ele>
        <time>1970-01-01T02:20:47.000Z</time>
      </trkpt>
      <trkpt lat="42.834793" lon="-2.678549">
        <ele>526.4</ele>
        <time>1970-01-01T02:20:48.000Z</time>
      </trkpt>
      <trkpt lat="42.834597" lon="-2.679328">
        <ele>527.2</ele>
        <time>1970-01-01T02:20:56.000Z</time>
      </trkpt>
      <trkpt lat="42.834381" lon="-2.68009">
        <ele>527.8</ele>
        <time>1970-01-01T02:21:04.000Z</time>
      </trkpt>
      <trkpt lat="42.834351" lon="-2.68018">
        <ele>528</ele>
        <time>1970-01-01T02:21:05.000Z</time>
      </trkpt>
      <trkpt lat="42.834176" lon="-2.680683">
        <ele>528.2</ele>
        <time>1970-01-01T02:21:11.000Z</time>
      </trkpt>
      <trkpt lat="42.834004" lon="-2.681166">
        <ele>528.6</ele>
        <time>1970-01-01T02:21:17.000Z</time>
      </trkpt>
      <trkpt lat="42.83398" lon="-2.681249">
        <ele>528.6</ele>
        <time>1970-01-01T02:21:18.000Z</time>
      </trkpt>
      <trkpt lat="42.833955" lon="-2.681334">
        <ele>528.6</ele>
        <time>1970-01-01T02:21:19.000Z</time>
      </trkpt>
      <trkpt lat="42.833835" lon="-2.681782">
        <ele>529.6</ele>
        <time>1970-01-01T02:21:24.000Z</time>
      </trkpt>
      <trkpt lat="42.833797" lon="-2.681967">
        <ele>530</ele>
        <time>1970-01-01T02:21:26.000Z</time>
      </trkpt>
      <trkpt lat="42.833738" lon="-2.682259">
        <ele>530.4</ele>
        <time>1970-01-01T02:21:29.000Z</time>
      </trkpt>
      <trkpt lat="42.833683" lon="-2.682541">
        <ele>530.6</ele>
        <time>1970-01-01T02:21:32.000Z</time>
      </trkpt>
      <trkpt lat="42.833651" lon="-2.682727">
        <ele>530.8</ele>
        <time>1970-01-01T02:21:34.000Z</time>
      </trkpt>
      <trkpt lat="42.833596" lon="-2.683092">
        <ele>531.2</ele>
        <time>1970-01-01T02:21:38.000Z</time>
      </trkpt>
      <trkpt lat="42.83353" lon="-2.683646">
        <ele>532</ele>
        <time>1970-01-01T02:21:44.000Z</time>
      </trkpt>
      <trkpt lat="42.833514" lon="-2.683831">
        <ele>532.2</ele>
        <time>1970-01-01T02:21:46.000Z</time>
      </trkpt>
      <trkpt lat="42.83346" lon="-2.684556">
        <ele>532.8</ele>
        <time>1970-01-01T02:21:54.000Z</time>
      </trkpt>
      <trkpt lat="42.833447" lon="-2.684822">
        <ele>533.2</ele>
        <time>1970-01-01T02:21:57.000Z</time>
      </trkpt>
      <trkpt lat="42.833443" lon="-2.685098">
        <ele>533.4</ele>
        <time>1970-01-01T02:22:00.000Z</time>
      </trkpt>
      <trkpt lat="42.833442" lon="-2.685191">
        <ele>533.4</ele>
        <time>1970-01-01T02:22:01.000Z</time>
      </trkpt>
      <trkpt lat="42.833462" lon="-2.685932">
        <ele>534</ele>
        <time>1970-01-01T02:22:09.000Z</time>
      </trkpt>
      <trkpt lat="42.833466" lon="-2.686023">
        <ele>534.2</ele>
        <time>1970-01-01T02:22:10.000Z</time>
      </trkpt>
      <trkpt lat="42.833498" lon="-2.686465">
        <ele>534.8</ele>
        <time>1970-01-01T02:22:15.000Z</time>
      </trkpt>
      <trkpt lat="42.833504" lon="-2.686626">
        <ele>534.8</ele>
        <time>1970-01-01T02:22:17.000Z</time>
      </trkpt>
      <trkpt lat="42.833534" lon="-2.686862">
        <ele>534.8</ele>
        <time>1970-01-01T02:22:20.000Z</time>
      </trkpt>
      <trkpt lat="42.833544" lon="-2.686945">
        <ele>534.6</ele>
        <time>1970-01-01T02:22:21.000Z</time>
      </trkpt>
      <trkpt lat="42.833627" lon="-2.687562">
        <ele>534.8</ele>
        <time>1970-01-01T02:22:28.000Z</time>
      </trkpt>
      <trkpt lat="42.833739" lon="-2.688294">
        <ele>534.8</ele>
        <time>1970-01-01T02:22:36.000Z</time>
      </trkpt>
      <trkpt lat="42.833755" lon="-2.688385">
        <ele>534.8</ele>
        <time>1970-01-01T02:22:37.000Z</time>
      </trkpt>
      <trkpt lat="42.833815" lon="-2.688836">
        <ele>534.8</ele>
        <time>1970-01-01T02:22:42.000Z</time>
      </trkpt>
      <trkpt lat="42.833834" lon="-2.688924">
        <ele>535</ele>
        <time>1970-01-01T02:22:43.000Z</time>
      </trkpt>
      <trkpt lat="42.833853" lon="-2.689011">
        <ele>535.2</ele>
        <time>1970-01-01T02:22:44.000Z</time>
      </trkpt>
      <trkpt lat="42.83393" lon="-2.689553">
        <ele>536.2</ele>
        <time>1970-01-01T02:22:50.000Z</time>
      </trkpt>
      <trkpt lat="42.83391" lon="-2.690019">
        <ele>536.4</ele>
        <time>1970-01-01T02:22:55.000Z</time>
      </trkpt>
      <trkpt lat="42.833896" lon="-2.6902">
        <ele>536.4</ele>
        <time>1970-01-01T02:22:57.000Z</time>
      </trkpt>
      <trkpt lat="42.833913" lon="-2.690489">
        <ele>536.2</ele>
        <time>1970-01-01T02:23:00.000Z</time>
      </trkpt>
      <trkpt lat="42.833917" lon="-2.69059">
        <ele>536</ele>
        <time>1970-01-01T02:23:01.000Z</time>
      </trkpt>
      <trkpt lat="42.833928" lon="-2.69069">
        <ele>536</ele>
        <time>1970-01-01T02:23:02.000Z</time>
      </trkpt>
      <trkpt lat="42.833998" lon="-2.690877">
        <ele>536</ele>
        <time>1970-01-01T02:23:04.000Z</time>
      </trkpt>
      <trkpt lat="42.834052" lon="-2.690959">
        <ele>535.8</ele>
        <time>1970-01-01T02:23:05.000Z</time>
      </trkpt>
      <trkpt lat="42.834219" lon="-2.691211">
        <ele>535.2</ele>
        <time>1970-01-01T02:23:08.000Z</time>
      </trkpt>
      <trkpt lat="42.834403" lon="-2.691471">
        <ele>534.4</ele>
        <time>1970-01-01T02:23:11.000Z</time>
      </trkpt>
      <trkpt lat="42.834465" lon="-2.69156">
        <ele>533.8</ele>
        <time>1970-01-01T02:23:12.000Z</time>
      </trkpt>
      <trkpt lat="42.834654" lon="-2.69184">
        <ele>532.8</ele>
        <time>1970-01-01T02:23:15.000Z</time>
      </trkpt>
      <trkpt lat="42.834853" lon="-2.692131">
        <ele>531.6</ele>
        <time>1970-01-01T02:23:18.000Z</time>
      </trkpt>
      <trkpt lat="42.83499" lon="-2.692331">
        <ele>531.2</ele>
        <time>1970-01-01T02:23:20.000Z</time>
      </trkpt>
      <trkpt lat="42.83527" lon="-2.692743">
        <ele>529.4</ele>
        <time>1970-01-01T02:23:24.000Z</time>
      </trkpt>
      <trkpt lat="42.835414" lon="-2.692953">
        <ele>528.8</ele>
        <time>1970-01-01T02:23:26.000Z</time>
      </trkpt>
      <trkpt lat="42.83562" lon="-2.693264">
        <ele>528</ele>
        <time>1970-01-01T02:23:29.000Z</time>
      </trkpt>
      <trkpt lat="42.835677" lon="-2.693371">
        <ele>527.4</ele>
        <time>1970-01-01T02:23:30.000Z</time>
      </trkpt>
      <trkpt lat="42.835794" lon="-2.693554">
        <ele>526.8</ele>
        <time>1970-01-01T02:23:32.000Z</time>
      </trkpt>
      <trkpt lat="42.835858" lon="-2.693628">
        <ele>526.6</ele>
        <time>1970-01-01T02:23:33.000Z</time>
      </trkpt>
      <trkpt lat="42.835916" lon="-2.693705">
        <ele>526.6</ele>
        <time>1970-01-01T02:23:34.000Z</time>
      </trkpt>
      <trkpt lat="42.835969" lon="-2.693788">
        <ele>526.6</ele>
        <time>1970-01-01T02:23:35.000Z</time>
      </trkpt>
      <trkpt lat="42.836078" lon="-2.693932">
        <ele>526.6</ele>
        <time>1970-01-01T02:23:37.000Z</time>
      </trkpt>
      <trkpt lat="42.836129" lon="-2.694001">
        <ele>526.6</ele>
        <time>1970-01-01T02:23:38.000Z</time>
      </trkpt>
      <trkpt lat="42.83618" lon="-2.694069">
        <ele>526.6</ele>
        <time>1970-01-01T02:23:39.000Z</time>
      </trkpt>
      <trkpt lat="42.836228" lon="-2.694139">
        <ele>526.8</ele>
        <time>1970-01-01T02:23:40.000Z</time>
      </trkpt>
      <trkpt lat="42.836273" lon="-2.694209">
        <ele>526.8</ele>
        <time>1970-01-01T02:23:41.000Z</time>
      </trkpt>
      <trkpt lat="42.836316" lon="-2.694279">
        <ele>527.2</ele>
        <time>1970-01-01T02:23:42.000Z</time>
      </trkpt>
      <trkpt lat="42.836357" lon="-2.694347">
        <ele>528</ele>
        <time>1970-01-01T02:23:43.000Z</time>
      </trkpt>
      <trkpt lat="42.836399" lon="-2.694411">
        <ele>529</ele>
        <time>1970-01-01T02:23:44.000Z</time>
      </trkpt>
      <trkpt lat="42.836439" lon="-2.69447">
        <ele>529.8</ele>
        <time>1970-01-01T02:23:45.000Z</time>
      </trkpt>
      <trkpt lat="42.836554" lon="-2.694643">
        <ele>531.8</ele>
        <time>1970-01-01T02:23:48.000Z</time>
      </trkpt>
      <trkpt lat="42.836596" lon="-2.694703">
        <ele>532.8</ele>
        <time>1970-01-01T02:23:49.000Z</time>
      </trkpt>
      <trkpt lat="42.836677" lon="-2.694818">
        <ele>533.6</ele>
        <time>1970-01-01T02:23:51.000Z</time>
      </trkpt>
      <trkpt lat="42.836892" lon="-2.695119">
        <ele>536.4</ele>
        <time>1970-01-01T02:23:56.000Z</time>
      </trkpt>
      <trkpt lat="42.837016" lon="-2.695306">
        <ele>536.6</ele>
        <time>1970-01-01T02:23:59.000Z</time>
      </trkpt>
      <trkpt lat="42.83718" lon="-2.695551">
        <ele>536.8</ele>
        <time>1970-01-01T02:24:03.000Z</time>
      </trkpt>
      <trkpt lat="42.8373" lon="-2.695734">
        <ele>536.6</ele>
        <time>1970-01-01T02:24:06.000Z</time>
      </trkpt>
      <trkpt lat="42.837455" lon="-2.695954">
        <ele>536.4</ele>
        <time>1970-01-01T02:24:10.000Z</time>
      </trkpt>
      <trkpt lat="42.837517" lon="-2.696043">
        <ele>536.2</ele>
        <time>1970-01-01T02:24:12.000Z</time>
      </trkpt>
      <trkpt lat="42.837559" lon="-2.696104">
        <ele>536.4</ele>
        <time>1970-01-01T02:24:14.000Z</time>
      </trkpt>
      <trkpt lat="42.837564" lon="-2.696116">
        <ele>536.2</ele>
        <time>1970-01-01T02:24:15.000Z</time>
      </trkpt>
      <trkpt lat="42.837565" lon="-2.696116">
        <ele>536.2</ele>
        <time>1970-01-01T02:24:16.000Z</time>
      </trkpt>
      <trkpt lat="42.837592" lon="-2.696153">
        <ele>536</ele>
        <time>1970-01-01T02:24:33.000Z</time>
      </trkpt>
      <trkpt lat="42.837615" lon="-2.696173">
        <ele>535.8</ele>
        <time>1970-01-01T02:24:34.000Z</time>
      </trkpt>
      <trkpt lat="42.837687" lon="-2.696192">
        <ele>535.8</ele>
        <time>1970-01-01T02:24:36.000Z</time>
      </trkpt>
      <trkpt lat="42.837733" lon="-2.696188">
        <ele>535.8</ele>
        <time>1970-01-01T02:24:37.000Z</time>
      </trkpt>
      <trkpt lat="42.837884" lon="-2.696148">
        <ele>535.8</ele>
        <time>1970-01-01T02:24:40.000Z</time>
      </trkpt>
      <trkpt lat="42.83798" lon="-2.696139">
        <ele>535.6</ele>
        <time>1970-01-01T02:24:42.000Z</time>
      </trkpt>
      <trkpt lat="42.838053" lon="-2.696148">
        <ele>535.4</ele>
        <time>1970-01-01T02:24:45.000Z</time>
      </trkpt>
      <trkpt lat="42.838053" lon="-2.696147">
        <ele>535.4</ele>
        <time>1970-01-01T02:24:46.000Z</time>
      </trkpt>
      <trkpt lat="42.838091" lon="-2.696157">
        <ele>535.4</ele>
        <time>1970-01-01T02:25:04.000Z</time>
      </trkpt>
      <trkpt lat="42.838114" lon="-2.696167">
        <ele>535.6</ele>
        <time>1970-01-01T02:25:05.000Z</time>
      </trkpt>
      <trkpt lat="42.838146" lon="-2.696178">
        <ele>535.4</ele>
        <time>1970-01-01T02:25:06.000Z</time>
      </trkpt>
      <trkpt lat="42.838286" lon="-2.69623">
        <ele>535.4</ele>
        <time>1970-01-01T02:25:09.000Z</time>
      </trkpt>
      <trkpt lat="42.838344" lon="-2.696255">
        <ele>535.4</ele>
        <time>1970-01-01T02:25:10.000Z</time>
      </trkpt>
      <trkpt lat="42.838469" lon="-2.696304">
        <ele>535.4</ele>
        <time>1970-01-01T02:25:12.000Z</time>
      </trkpt>
      <trkpt lat="42.838684" lon="-2.69639">
        <ele>535.2</ele>
        <time>1970-01-01T02:25:16.000Z</time>
      </trkpt>
      <trkpt lat="42.838745" lon="-2.69642">
        <ele>534.8</ele>
        <time>1970-01-01T02:25:18.000Z</time>
      </trkpt>
      <trkpt lat="42.838774" lon="-2.696436">
        <ele>534</ele>
        <time>1970-01-01T02:25:20.000Z</time>
      </trkpt>
      <trkpt lat="42.838821" lon="-2.69649">
        <ele>533.6</ele>
        <time>1970-01-01T02:25:24.000Z</time>
      </trkpt>
      <trkpt lat="42.838868" lon="-2.6966">
        <ele>533.4</ele>
        <time>1970-01-01T02:25:27.000Z</time>
      </trkpt>
      <trkpt lat="42.838884" lon="-2.696661">
        <ele>533.4</ele>
        <time>1970-01-01T02:25:28.000Z</time>
      </trkpt>
      <trkpt lat="42.838919" lon="-2.696802">
        <ele>533.2</ele>
        <time>1970-01-01T02:25:30.000Z</time>
      </trkpt>
      <trkpt lat="42.838953" lon="-2.696865">
        <ele>533</ele>
        <time>1970-01-01T02:25:31.000Z</time>
      </trkpt>
      <trkpt lat="42.839" lon="-2.696916">
        <ele>533</ele>
        <time>1970-01-01T02:25:32.000Z</time>
      </trkpt>
      <trkpt lat="42.839117" lon="-2.696981">
        <ele>533.2</ele>
        <time>1970-01-01T02:25:34.000Z</time>
      </trkpt>
      <trkpt lat="42.839242" lon="-2.697036">
        <ele>532.8</ele>
        <time>1970-01-01T02:25:36.000Z</time>
      </trkpt>
      <trkpt lat="42.839514" lon="-2.697147">
        <ele>532.2</ele>
        <time>1970-01-01T02:25:40.000Z</time>
      </trkpt>
      <trkpt lat="42.839587" lon="-2.697164">
        <ele>531.8</ele>
        <time>1970-01-01T02:25:41.000Z</time>
      </trkpt>
      <trkpt lat="42.83966" lon="-2.697166">
        <ele>531.6</ele>
        <time>1970-01-01T02:25:42.000Z</time>
      </trkpt>
      <trkpt lat="42.839811" lon="-2.697158">
        <ele>531.2</ele>
        <time>1970-01-01T02:25:44.000Z</time>
      </trkpt>
      <trkpt lat="42.839956" lon="-2.697231">
        <ele>531</ele>
        <time>1970-01-01T02:25:46.000Z</time>
      </trkpt>
      <trkpt lat="42.840091" lon="-2.697361">
        <ele>530.8</ele>
        <time>1970-01-01T02:25:48.000Z</time>
      </trkpt>
      <trkpt lat="42.840163" lon="-2.697412">
        <ele>530.4</ele>
        <time>1970-01-01T02:25:49.000Z</time>
      </trkpt>
      <trkpt lat="42.84024" lon="-2.697452">
        <ele>530.2</ele>
        <time>1970-01-01T02:25:50.000Z</time>
      </trkpt>
      <trkpt lat="42.840566" lon="-2.697543">
        <ele>529.2</ele>
        <time>1970-01-01T02:25:54.000Z</time>
      </trkpt>
      <trkpt lat="42.84073" lon="-2.697575">
        <ele>529</ele>
        <time>1970-01-01T02:25:56.000Z</time>
      </trkpt>
      <trkpt lat="42.840977" lon="-2.697573">
        <ele>528.4</ele>
        <time>1970-01-01T02:25:59.000Z</time>
      </trkpt>
      <trkpt lat="42.841056" lon="-2.697538">
        <ele>528.4</ele>
        <time>1970-01-01T02:26:00.000Z</time>
      </trkpt>
      <trkpt lat="42.841213" lon="-2.697471">
        <ele>527.8</ele>
        <time>1970-01-01T02:26:02.000Z</time>
      </trkpt>
      <trkpt lat="42.841383" lon="-2.697454">
        <ele>527</ele>
        <time>1970-01-01T02:26:04.000Z</time>
      </trkpt>
      <trkpt lat="42.841557" lon="-2.697445">
        <ele>526.8</ele>
        <time>1970-01-01T02:26:06.000Z</time>
      </trkpt>
      <trkpt lat="42.841729" lon="-2.697394">
        <ele>526.4</ele>
        <time>1970-01-01T02:26:08.000Z</time>
      </trkpt>
      <trkpt lat="42.842061" lon="-2.697296">
        <ele>526</ele>
        <time>1970-01-01T02:26:12.000Z</time>
      </trkpt>
      <trkpt lat="42.842295" lon="-2.697272">
        <ele>525.6</ele>
        <time>1970-01-01T02:26:15.000Z</time>
      </trkpt>
      <trkpt lat="42.842368" lon="-2.697254">
        <ele>525.4</ele>
        <time>1970-01-01T02:26:16.000Z</time>
      </trkpt>
      <trkpt lat="42.842512" lon="-2.697209">
        <ele>525</ele>
        <time>1970-01-01T02:26:18.000Z</time>
      </trkpt>
      <trkpt lat="42.842636" lon="-2.697182">
        <ele>524.8</ele>
        <time>1970-01-01T02:26:20.000Z</time>
      </trkpt>
      <trkpt lat="42.84276" lon="-2.69717">
        <ele>524.6</ele>
        <time>1970-01-01T02:26:23.000Z</time>
      </trkpt>
      <trkpt lat="42.84279" lon="-2.697164">
        <ele>524.4</ele>
        <time>1970-01-01T02:26:24.000Z</time>
      </trkpt>
      <trkpt lat="42.842962" lon="-2.697096">
        <ele>524.6</ele>
        <time>1970-01-01T02:26:31.000Z</time>
      </trkpt>
      <trkpt lat="42.843076" lon="-2.697003">
        <ele>524.6</ele>
        <time>1970-01-01T02:26:37.000Z</time>
      </trkpt>
      <trkpt lat="42.843169" lon="-2.69696">
        <ele>524.4</ele>
        <time>1970-01-01T02:26:40.000Z</time>
      </trkpt>
      <trkpt lat="42.843215" lon="-2.696955">
        <ele>524.4</ele>
        <time>1970-01-01T02:26:42.000Z</time>
      </trkpt>
      <trkpt lat="42.843277" lon="-2.696951">
        <ele>524.6</ele>
        <time>1970-01-01T02:26:44.000Z</time>
      </trkpt>
      <trkpt lat="42.843366" lon="-2.69692">
        <ele>524.2</ele>
        <time>1970-01-01T02:26:46.000Z</time>
      </trkpt>
      <trkpt lat="42.843478" lon="-2.696882">
        <ele>524.2</ele>
        <time>1970-01-01T02:26:48.000Z</time>
      </trkpt>
      <trkpt lat="42.843679" lon="-2.69682">
        <ele>523.8</ele>
        <time>1970-01-01T02:26:51.000Z</time>
      </trkpt>
      <trkpt lat="42.843889" lon="-2.696758">
        <ele>523.6</ele>
        <time>1970-01-01T02:26:54.000Z</time>
      </trkpt>
      <trkpt lat="42.844249" lon="-2.696648">
        <ele>523.4</ele>
        <time>1970-01-01T02:26:59.000Z</time>
      </trkpt>
      <trkpt lat="42.844518" lon="-2.696558">
        <ele>523</ele>
        <time>1970-01-01T02:27:03.000Z</time>
      </trkpt>
      <trkpt lat="42.844656" lon="-2.69649">
        <ele>523</ele>
        <time>1970-01-01T02:27:05.000Z</time>
      </trkpt>
      <trkpt lat="42.845086" lon="-2.69634">
        <ele>522.8</ele>
        <time>1970-01-01T02:27:11.000Z</time>
      </trkpt>
      <trkpt lat="42.845222" lon="-2.696266">
        <ele>522.8</ele>
        <time>1970-01-01T02:27:13.000Z</time>
      </trkpt>
      <trkpt lat="42.84527" lon="-2.696221">
        <ele>522.8</ele>
        <time>1970-01-01T02:27:14.000Z</time>
      </trkpt>
      <trkpt lat="42.845446" lon="-2.695975">
        <ele>522.8</ele>
        <time>1970-01-01T02:27:19.000Z</time>
      </trkpt>
      <trkpt lat="42.84549" lon="-2.695928">
        <ele>523</ele>
        <time>1970-01-01T02:27:20.000Z</time>
      </trkpt>
      <trkpt lat="42.845596" lon="-2.695872">
        <ele>523</ele>
        <time>1970-01-01T02:27:22.000Z</time>
      </trkpt>
      <trkpt lat="42.845658" lon="-2.695867">
        <ele>522.8</ele>
        <time>1970-01-01T02:27:23.000Z</time>
      </trkpt>
      <trkpt lat="42.845723" lon="-2.695876">
        <ele>523</ele>
        <time>1970-01-01T02:27:24.000Z</time>
      </trkpt>
      <trkpt lat="42.845925" lon="-2.695938">
        <ele>522.8</ele>
        <time>1970-01-01T02:27:27.000Z</time>
      </trkpt>
      <trkpt lat="42.846063" lon="-2.695917">
        <ele>523</ele>
        <time>1970-01-01T02:27:29.000Z</time>
      </trkpt>
      <trkpt lat="42.846198" lon="-2.69587">
        <ele>522.8</ele>
        <time>1970-01-01T02:27:31.000Z</time>
      </trkpt>
      <trkpt lat="42.846398" lon="-2.695804">
        <ele>522.8</ele>
        <time>1970-01-01T02:27:34.000Z</time>
      </trkpt>
      <trkpt lat="42.846919" lon="-2.695634">
        <ele>523.2</ele>
        <time>1970-01-01T02:27:42.000Z</time>
      </trkpt>
      <trkpt lat="42.847045" lon="-2.69559">
        <ele>523.6</ele>
        <time>1970-01-01T02:27:44.000Z</time>
      </trkpt>
      <trkpt lat="42.847521" lon="-2.695442">
        <ele>524.4</ele>
        <time>1970-01-01T02:27:51.000Z</time>
      </trkpt>
      <trkpt lat="42.847761" lon="-2.695384">
        <ele>524.4</ele>
        <time>1970-01-01T02:27:54.000Z</time>
      </trkpt>
      <trkpt lat="42.84793" lon="-2.695335">
        <ele>524.4</ele>
        <time>1970-01-01T02:27:56.000Z</time>
      </trkpt>
      <trkpt lat="42.848009" lon="-2.695289">
        <ele>524.2</ele>
        <time>1970-01-01T02:27:57.000Z</time>
      </trkpt>
      <trkpt lat="42.848078" lon="-2.69522">
        <ele>524.4</ele>
        <time>1970-01-01T02:27:58.000Z</time>
      </trkpt>
      <trkpt lat="42.848197" lon="-2.695055">
        <ele>524.2</ele>
        <time>1970-01-01T02:28:00.000Z</time>
      </trkpt>
      <trkpt lat="42.848263" lon="-2.69499">
        <ele>523.8</ele>
        <time>1970-01-01T02:28:01.000Z</time>
      </trkpt>
      <trkpt lat="42.848415" lon="-2.694951">
        <ele>523</ele>
        <time>1970-01-01T02:28:03.000Z</time>
      </trkpt>
      <trkpt lat="42.848635" lon="-2.695046">
        <ele>522.2</ele>
        <time>1970-01-01T02:28:06.000Z</time>
      </trkpt>
      <trkpt lat="42.84879" lon="-2.695039">
        <ele>521.8</ele>
        <time>1970-01-01T02:28:08.000Z</time>
      </trkpt>
      <trkpt lat="42.848867" lon="-2.695006">
        <ele>521.8</ele>
        <time>1970-01-01T02:28:09.000Z</time>
      </trkpt>
      <trkpt lat="42.848947" lon="-2.69497">
        <ele>521.4</ele>
        <time>1970-01-01T02:28:10.000Z</time>
      </trkpt>
      <trkpt lat="42.849117" lon="-2.694911">
        <ele>521.2</ele>
        <time>1970-01-01T02:28:12.000Z</time>
      </trkpt>
      <trkpt lat="42.849295" lon="-2.694851">
        <ele>521.2</ele>
        <time>1970-01-01T02:28:14.000Z</time>
      </trkpt>
      <trkpt lat="42.849479" lon="-2.694792">
        <ele>521.2</ele>
        <time>1970-01-01T02:28:16.000Z</time>
      </trkpt>
      <trkpt lat="42.849869" lon="-2.69467">
        <ele>520</ele>
        <time>1970-01-01T02:28:20.000Z</time>
      </trkpt>
      <trkpt lat="42.84997" lon="-2.69464">
        <ele>519.4</ele>
        <time>1970-01-01T02:28:21.000Z</time>
      </trkpt>
      <trkpt lat="42.850072" lon="-2.694609">
        <ele>518.8</ele>
        <time>1970-01-01T02:28:22.000Z</time>
      </trkpt>
      <trkpt lat="42.850387" lon="-2.694512">
        <ele>518</ele>
        <time>1970-01-01T02:28:25.000Z</time>
      </trkpt>
      <trkpt lat="42.850494" lon="-2.694479">
        <ele>518</ele>
        <time>1970-01-01T02:28:26.000Z</time>
      </trkpt>
      <trkpt lat="42.850601" lon="-2.694444">
        <ele>517.8</ele>
        <time>1970-01-01T02:28:27.000Z</time>
      </trkpt>
      <trkpt lat="42.850707" lon="-2.694408">
        <ele>517.4</ele>
        <time>1970-01-01T02:28:28.000Z</time>
      </trkpt>
      <trkpt lat="42.850814" lon="-2.694375">
        <ele>517</ele>
        <time>1970-01-01T02:28:29.000Z</time>
      </trkpt>
      <trkpt lat="42.851362" lon="-2.694217">
        <ele>515.2</ele>
        <time>1970-01-01T02:28:34.000Z</time>
      </trkpt>
      <trkpt lat="42.851686" lon="-2.694116">
        <ele>512.6</ele>
        <time>1970-01-01T02:28:37.000Z</time>
      </trkpt>
      <trkpt lat="42.852134" lon="-2.693942">
        <ele>510.6</ele>
        <time>1970-01-01T02:28:42.000Z</time>
      </trkpt>
      <trkpt lat="42.852493" lon="-2.693808">
        <ele>510.4</ele>
        <time>1970-01-01T02:28:46.000Z</time>
      </trkpt>
      <trkpt lat="42.852757" lon="-2.693693">
        <ele>510.2</ele>
        <time>1970-01-01T02:28:49.000Z</time>
      </trkpt>
      <trkpt lat="42.852849" lon="-2.693657">
        <ele>510.2</ele>
        <time>1970-01-01T02:28:50.000Z</time>
      </trkpt>
      <trkpt lat="42.853204" lon="-2.693527">
        <ele>510.2</ele>
        <time>1970-01-01T02:28:54.000Z</time>
      </trkpt>
      <trkpt lat="42.853376" lon="-2.693462">
        <ele>510.2</ele>
        <time>1970-01-01T02:28:56.000Z</time>
      </trkpt>
      <trkpt lat="42.853903" lon="-2.693282">
        <ele>509.6</ele>
        <time>1970-01-01T02:29:02.000Z</time>
      </trkpt>
      <trkpt lat="42.85408" lon="-2.693209">
        <ele>509.6</ele>
        <time>1970-01-01T02:29:04.000Z</time>
      </trkpt>
      <trkpt lat="42.854663" lon="-2.692896">
        <ele>509.8</ele>
        <time>1970-01-01T02:29:11.000Z</time>
      </trkpt>
      <trkpt lat="42.854811" lon="-2.69278">
        <ele>509.6</ele>
        <time>1970-01-01T02:29:13.000Z</time>
      </trkpt>
      <trkpt lat="42.854921" lon="-2.692628">
        <ele>509.6</ele>
        <time>1970-01-01T02:29:15.000Z</time>
      </trkpt>
      <trkpt lat="42.854976" lon="-2.692438">
        <ele>509.8</ele>
        <time>1970-01-01T02:29:17.000Z</time>
      </trkpt>
      <trkpt lat="42.854998" lon="-2.692338">
        <ele>509.8</ele>
        <time>1970-01-01T02:29:18.000Z</time>
      </trkpt>
      <trkpt lat="42.855032" lon="-2.69225">
        <ele>510</ele>
        <time>1970-01-01T02:29:19.000Z</time>
      </trkpt>
      <trkpt lat="42.855142" lon="-2.692118">
        <ele>510</ele>
        <time>1970-01-01T02:29:21.000Z</time>
      </trkpt>
      <trkpt lat="42.855288" lon="-2.692066">
        <ele>510.2</ele>
        <time>1970-01-01T02:29:23.000Z</time>
      </trkpt>
      <trkpt lat="42.855366" lon="-2.692064">
        <ele>510.2</ele>
        <time>1970-01-01T02:29:24.000Z</time>
      </trkpt>
      <trkpt lat="42.855442" lon="-2.692057">
        <ele>510.2</ele>
        <time>1970-01-01T02:29:25.000Z</time>
      </trkpt>
      <trkpt lat="42.855519" lon="-2.692033">
        <ele>510.2</ele>
        <time>1970-01-01T02:29:26.000Z</time>
      </trkpt>
      <trkpt lat="42.855591" lon="-2.691988">
        <ele>510.2</ele>
        <time>1970-01-01T02:29:27.000Z</time>
      </trkpt>
      <trkpt lat="42.855774" lon="-2.691774">
        <ele>510.2</ele>
        <time>1970-01-01T02:29:30.000Z</time>
      </trkpt>
      <trkpt lat="42.856158" lon="-2.691182">
        <ele>510</ele>
        <time>1970-01-01T02:29:37.000Z</time>
      </trkpt>
      <trkpt lat="42.856209" lon="-2.691093">
        <ele>510</ele>
        <time>1970-01-01T02:29:38.000Z</time>
      </trkpt>
      <trkpt lat="42.856516" lon="-2.690516">
        <ele>509.8</ele>
        <time>1970-01-01T02:29:45.000Z</time>
      </trkpt>
      <trkpt lat="42.856559" lon="-2.69032">
        <ele>510</ele>
        <time>1970-01-01T02:29:49.000Z</time>
      </trkpt>
      <trkpt lat="42.856569" lon="-2.69005">
        <ele>510</ele>
        <time>1970-01-01T02:29:54.000Z</time>
      </trkpt>
      <trkpt lat="42.856571" lon="-2.689843">
        <ele>510.2</ele>
        <time>1970-01-01T02:29:57.000Z</time>
      </trkpt>
      <trkpt lat="42.856581" lon="-2.689769">
        <ele>510.4</ele>
        <time>1970-01-01T02:29:58.000Z</time>
      </trkpt>
      <trkpt lat="42.856598" lon="-2.689695">
        <ele>510.4</ele>
        <time>1970-01-01T02:29:59.000Z</time>
      </trkpt>
      <trkpt lat="42.856626" lon="-2.689628">
        <ele>510.6</ele>
        <time>1970-01-01T02:30:00.000Z</time>
      </trkpt>
      <trkpt lat="42.856689" lon="-2.689541">
        <ele>510.6</ele>
        <time>1970-01-01T02:30:02.000Z</time>
      </trkpt>
      <trkpt lat="42.85686" lon="-2.689458">
        <ele>510.8</ele>
        <time>1970-01-01T02:30:07.000Z</time>
      </trkpt>
      <trkpt lat="42.856908" lon="-2.689463">
        <ele>510.8</ele>
        <time>1970-01-01T02:30:08.000Z</time>
      </trkpt>
      <trkpt lat="42.856956" lon="-2.689482">
        <ele>510.6</ele>
        <time>1970-01-01T02:30:09.000Z</time>
      </trkpt>
      <trkpt lat="42.857046" lon="-2.689571">
        <ele>510.6</ele>
        <time>1970-01-01T02:30:11.000Z</time>
      </trkpt>
      <trkpt lat="42.857085" lon="-2.689632">
        <ele>510.8</ele>
        <time>1970-01-01T02:30:12.000Z</time>
      </trkpt>
      <trkpt lat="42.857122" lon="-2.689701">
        <ele>510.8</ele>
        <time>1970-01-01T02:30:13.000Z</time>
      </trkpt>
      <trkpt lat="42.85719" lon="-2.689854">
        <ele>510.6</ele>
        <time>1970-01-01T02:30:15.000Z</time>
      </trkpt>
      <trkpt lat="42.857274" lon="-2.690001">
        <ele>510.8</ele>
        <time>1970-01-01T02:30:17.000Z</time>
      </trkpt>
      <trkpt lat="42.857386" lon="-2.690115">
        <ele>510.4</ele>
        <time>1970-01-01T02:30:19.000Z</time>
      </trkpt>
      <trkpt lat="42.857911" lon="-2.690504">
        <ele>509.6</ele>
        <time>1970-01-01T02:30:27.000Z</time>
      </trkpt>
      <trkpt lat="42.858374" lon="-2.690846">
        <ele>509.4</ele>
        <time>1970-01-01T02:30:34.000Z</time>
      </trkpt>
      <trkpt lat="42.858579" lon="-2.690992">
        <ele>509</ele>
        <time>1970-01-01T02:30:37.000Z</time>
      </trkpt>
      <trkpt lat="42.859063" lon="-2.691342">
        <ele>508.6</ele>
        <time>1970-01-01T02:30:44.000Z</time>
      </trkpt>
      <trkpt lat="42.859411" lon="-2.691587">
        <ele>508.4</ele>
        <time>1970-01-01T02:30:49.000Z</time>
      </trkpt>
      <trkpt lat="42.859746" lon="-2.691824">
        <ele>508.2</ele>
        <time>1970-01-01T02:30:54.000Z</time>
      </trkpt>
      <trkpt lat="42.859864" lon="-2.691905">
        <ele>508.2</ele>
        <time>1970-01-01T02:30:56.000Z</time>
      </trkpt>
      <trkpt lat="42.859918" lon="-2.691943">
        <ele>508</ele>
        <time>1970-01-01T02:30:57.000Z</time>
      </trkpt>
      <trkpt lat="42.860069" lon="-2.692055">
        <ele>508</ele>
        <time>1970-01-01T02:31:00.000Z</time>
      </trkpt>
      <trkpt lat="42.86026" lon="-2.692184">
        <ele>507.8</ele>
        <time>1970-01-01T02:31:04.000Z</time>
      </trkpt>
      <trkpt lat="42.8603" lon="-2.692206">
        <ele>508</ele>
        <time>1970-01-01T02:31:05.000Z</time>
      </trkpt>
      <trkpt lat="42.860356" lon="-2.692234">
        <ele>508</ele>
        <time>1970-01-01T02:31:08.000Z</time>
      </trkpt>
      <trkpt lat="42.860359" lon="-2.692232">
        <ele>508</ele>
        <time>1970-01-01T02:31:10.000Z</time>
      </trkpt>
      <trkpt lat="42.860409" lon="-2.692234">
        <ele>508</ele>
        <time>1970-01-01T02:31:16.000Z</time>
      </trkpt>
      <trkpt lat="42.860437" lon="-2.692236">
        <ele>508</ele>
        <time>1970-01-01T02:31:18.000Z</time>
      </trkpt>
      <trkpt lat="42.860478" lon="-2.692238">
        <ele>508</ele>
        <time>1970-01-01T02:31:21.000Z</time>
      </trkpt>
      <trkpt lat="42.860534" lon="-2.692245">
        <ele>508</ele>
        <time>1970-01-01T02:31:23.000Z</time>
      </trkpt>
      <trkpt lat="42.860664" lon="-2.692251">
        <ele>507.8</ele>
        <time>1970-01-01T02:31:29.000Z</time>
      </trkpt>
      <trkpt lat="42.86081" lon="-2.692273">
        <ele>507.6</ele>
        <time>1970-01-01T02:31:33.000Z</time>
      </trkpt>
      <trkpt lat="42.860927" lon="-2.692327">
        <ele>507.4</ele>
        <time>1970-01-01T02:31:35.000Z</time>
      </trkpt>
      <trkpt lat="42.860982" lon="-2.692378">
        <ele>507.4</ele>
        <time>1970-01-01T02:31:36.000Z</time>
      </trkpt>
      <trkpt lat="42.861028" lon="-2.692443">
        <ele>507.4</ele>
        <time>1970-01-01T02:31:37.000Z</time>
      </trkpt>
      <trkpt lat="42.861148" lon="-2.692665">
        <ele>507.2</ele>
        <time>1970-01-01T02:31:40.000Z</time>
      </trkpt>
      <trkpt lat="42.861229" lon="-2.6928">
        <ele>507.2</ele>
        <time>1970-01-01T02:31:42.000Z</time>
      </trkpt>
      <trkpt lat="42.861369" lon="-2.692963">
        <ele>507.2</ele>
        <time>1970-01-01T02:31:45.000Z</time>
      </trkpt>
      <trkpt lat="42.861696" lon="-2.693198">
        <ele>507.4</ele>
        <time>1970-01-01T02:31:51.000Z</time>
      </trkpt>
      <trkpt lat="42.861857" lon="-2.693308">
        <ele>508</ele>
        <time>1970-01-01T02:31:54.000Z</time>
      </trkpt>
      <trkpt lat="42.862022" lon="-2.693425">
        <ele>508.2</ele>
        <time>1970-01-01T02:31:57.000Z</time>
      </trkpt>
      <trkpt lat="42.86223" lon="-2.693577">
        <ele>508.4</ele>
        <time>1970-01-01T02:32:01.000Z</time>
      </trkpt>
      <trkpt lat="42.862374" lon="-2.693697">
        <ele>508.8</ele>
        <time>1970-01-01T02:32:04.000Z</time>
      </trkpt>
      <trkpt lat="42.86242" lon="-2.69374">
        <ele>508.8</ele>
        <time>1970-01-01T02:32:05.000Z</time>
      </trkpt>
      <trkpt lat="42.862513" lon="-2.693828">
        <ele>509</ele>
        <time>1970-01-01T02:32:07.000Z</time>
      </trkpt>
      <trkpt lat="42.862564" lon="-2.693864">
        <ele>509.2</ele>
        <time>1970-01-01T02:32:08.000Z</time>
      </trkpt>
      <trkpt lat="42.862664" lon="-2.69393">
        <ele>509.4</ele>
        <time>1970-01-01T02:32:10.000Z</time>
      </trkpt>
      <trkpt lat="42.862771" lon="-2.693987">
        <ele>509.6</ele>
        <time>1970-01-01T02:32:12.000Z</time>
      </trkpt>
      <trkpt lat="42.862918" lon="-2.694064">
        <ele>509.8</ele>
        <time>1970-01-01T02:32:15.000Z</time>
      </trkpt>
      <trkpt lat="42.863023" lon="-2.694015">
        <ele>510.2</ele>
        <time>1970-01-01T02:32:18.000Z</time>
      </trkpt>
      <trkpt lat="42.863097" lon="-2.693995">
        <ele>510.4</ele>
        <time>1970-01-01T02:32:21.000Z</time>
      </trkpt>
      <trkpt lat="42.863112" lon="-2.693968">
        <ele>510.4</ele>
        <time>1970-01-01T02:32:22.000Z</time>
      </trkpt>
      <trkpt lat="42.86318" lon="-2.693798">
        <ele>510.4</ele>
        <time>1970-01-01T02:32:26.000Z</time>
      </trkpt>
      <trkpt lat="42.863197" lon="-2.693753">
        <ele>510.6</ele>
        <time>1970-01-01T02:32:27.000Z</time>
      </trkpt>
      <trkpt lat="42.863241" lon="-2.693668">
        <ele>510.8</ele>
        <time>1970-01-01T02:32:31.000Z</time>
      </trkpt>
      <trkpt lat="42.863244" lon="-2.693665">
        <ele>510.6</ele>
        <time>1970-01-01T02:32:33.000Z</time>
      </trkpt>
    </trkseg>
  </trk>
</gpx>
